# Wetter Temperatur Luftdruck Luftfeuchtigkeit Sichtweite Windgeschwindigkeit Windrichtung Zeit
1 Clouds 15 1007 30 0 6.23 249 21:42 28.01.2020
2 Clouds 15 1007 30 0 6.23 249 21:42 28.01.2020
3 Clouds 15 1007 30 0 6.23 249 21:22 28.01.2020
4 Clouds 15 1007 30 0 6.23 249 20:58 28.01.2020
5 Clouds 15 1007 30 0 6.23 249 20:40 28.01.2020
6 Clouds 15 1009 29 0 6.84 279 20:21 28.01.2020
7 Clouds 15 1009 30 0 7.46 285 19:39 28.01.2020
8 Clouds 15 1009 30 0 7.46 285 19:20 28.01.2020
9 Clouds 15 1009 30 0 7.46 285 18:58 28.01.2020
10 Clouds 15 1009 30 0 7.46 285 18:40 28.01.2020
11 Clouds 15 1009 30 0 7.46 285 18:21 28.01.2020
12 Clouds 15 1009 30 0 7.46 285 17:57 28.01.2020
13 Clouds 15 1009 30 0 7.46 285 17:37 28.01.2020
14 Rain 12 1014 44 0 4.26 326 17:19 28.01.2020
15 Rain 12 1014 44 0 4.26 326 16:55 28.01.2020
16 Rain 12 1014 44 0 4.26 326 16:55 28.01.2020
17 Rain 12 1014 44 0 4.26 326 16:36 28.01.2020
18 Rain 12 1014 44 0 4.26 326 16:18 28.01.2020
19 Rain 12 1014 44 0 4.26 326 15:42 28.01.2020
20 Rain 12 1014 44 0 4.26 326 15:19 28.01.2020
21 Rain 12 1014 44 0 4.26 326 14:55 28.01.2020
22 Rain 12 1014 44 0 4.26 326 14:36 28.01.2020
23 Rain 6 1017 84 0 1.52 7 14:18 28.01.2020
24 Rain 6 1017 84 0 1.52 7 13:39 28.01.2020
25 Rain 6 1017 81 0 1.73 0 13:21 28.01.2020
26 Rain 6 1017 84 0 1.52 7 13:21 28.01.2020
27 Rain 6 1017 81 0 1.73 0 12:42 28.01.2020
28 Rain 6 1017 81 0 1.73 0 12:24 28.01.2020
29 Rain 6 1017 81 0 1.73 0 11:55 28.01.2020
30 Rain 6 1017 81 0 1.73 0 11:37 28.01.2020
31 Rain 5 1017 93 0 1.75 17 11:18 28.01.2020
32 Rain 5 1017 93 0 1.75 17 10:40 28.01.2020
33 Rain 5 1017 93 0 1.75 17 10:22 28.01.2020
34 Rain 5 1017 93 0 1.75 17 09:55 28.01.2020
35 Rain 5 1017 93 0 1.75 17 09:37 28.01.2020
36 Rain 5 1017 93 0 1.75 17 09:18 28.01.2020
37 Rain 5 1017 93 0 1.75 17 08:41 28.01.2020
38 Clouds 6 1017 84 0 1.8 0 08:20 28.01.2020
39 Clouds 6 1017 78 0 1.56 347 07:38 28.01.2020
40 Clouds 6 1017 78 0 1.56 347 06:52 28.01.2020
41 Clouds 6 1017 78 0 1.56 347 06:29 28.01.2020
42 Clouds 6 1017 78 0 1.56 347 05:56 28.01.2020
43 Clouds 6 1017 78 0 1.56 347 05:34 28.01.2020
44 Rain 5 1019 86 0 2.74 350 04:39 28.01.2020
45 Rain 5 1019 86 0 2.74 350 03:41 28.01.2020
46 Rain 5 1019 86 0 2.74 350 02:40 28.01.2020
47 Rain 6 1015 88 0 4.41 32 02:21 28.01.2020
48 Rain 6 1015 88 0 4.41 32 01:48 28.01.2020
49 Rain 7 1015 86 0 3.81 17 00:51 28.01.2020
50 Rain 7 1015 86 0 3.81 17 00:30 28.01.2020
51 Rain 7 1015 86 0 3.81 17 23:59 27.01.2020
52 Rain 7 1015 86 0 3.81 17 23:41 27.01.2020
53 Rain 9 1011 78 0 6.02 60 23:18 27.01.2020
54 Rain 9 1011 78 0 6.02 60 22:44 27.01.2020
55 Rain 9 1011 78 0 6.02 60 22:20 27.01.2020
56 Rain 9 1011 78 0 6.02 60 21:57 27.01.2020
57 Rain 9 1011 78 0 6.02 60 21:38 27.01.2020
58 Rain 9 1011 78 0 6.02 60 21:18 27.01.2020
59 Rain 9 1011 78 0 6.02 60 20:56 27.01.2020
60 Rain 9 1011 78 0 6.02 60 20:37 27.01.2020
61 Rain 12 1013 61 0 5.05 43 20:18 27.01.2020
62 Rain 11 1013 62 0 4.83 40 19:42 27.01.2020
63 Rain 11 1013 62 0 4.83 40 19:23 27.01.2020
64 Rain 11 1013 62 0 4.83 40 18:58 27.01.2020
65 Rain 11 1013 62 0 4.83 40 18:39 27.01.2020
66 Rain 11 1013 62 0 4.83 40 18:20 27.01.2020
67 Rain 11 1013 62 0 4.83 40 18:20 27.01.2020
68 Rain 11 1013 62 0 4.83 40 18:20 27.01.2020
69 Rain 11 1013 62 0 4.83 40 17:57 27.01.2020
70 Rain 11 1013 62 0 4.83 40 17:37 27.01.2020
71 Rain 11 1013 62 0 4.83 40 17:37 27.01.2020
72 Rain 9 1016 69 0 2.8 51 17:18 27.01.2020
73 Rain 9 1016 69 0 2.8 51 16:42 27.01.2020
74 Rain 9 1016 69 0 2.8 51 16:24 27.01.2020
75 Rain 9 1016 69 0 2.8 51 15:56 27.01.2020
76 Rain 9 1016 69 0 2.8 51 15:38 27.01.2020
77 Rain 9 1016 69 0 2.8 51 15:19 27.01.2020
78 Rain 9 1016 69 0 2.8 51 15:19 27.01.2020
79 Rain 9 1016 69 0 2.8 51 14:55 27.01.2020
80 Rain 9 1016 69 0 2.8 51 14:37 27.01.2020
81 Clouds 6 1019 82 0 1.85 33 14:18 27.01.2020
82 Clouds 6 1019 82 0 1.85 33 13:42 27.01.2020
83 Clouds 6 1020 82 0 1.16 2 13:21 27.01.2020
84 Clouds 6 1020 82 0 1.16 2 12:56 27.01.2020
85 Clouds 6 1020 82 0 1.16 2 12:37 27.01.2020
86 Clouds 6 1020 82 0 1.16 2 12:19 27.01.2020
87 Clouds 6 1020 82 0 1.16 2 11:42 27.01.2020
88 Clouds 5 1018 91 0 1.68 356 11:21 27.01.2020
89 Clouds 5 1018 91 0 1.68 356 11:21 27.01.2020
90 Clouds 5 1018 91 0 1.68 356 10:55 27.01.2020
91 Clouds 5 1018 91 0 1.68 356 10:36 27.01.2020
92 Clouds 5 1018 91 0 1.68 356 10:18 27.01.2020
93 Clouds 5 1018 91 0 1.68 356 09:39 27.01.2020
94 Clouds 5 1018 91 0 1.68 356 09:19 27.01.2020
95 Clouds 5 1018 91 0 1.68 356 08:48 27.01.2020
96 Clouds 5 1018 91 0 1.68 356 08:23 27.01.2020
97 Clouds 5 1017 86 0 1.62 65 07:55 27.01.2020
98 Clouds 5 1017 86 0 1.62 65 07:36 27.01.2020
99 Clouds 5 1017 86 0 1.62 65 07:18 27.01.2020
100 Clouds 5 1017 86 0 1.62 65 06:32 27.01.2020
101 Clouds 5 1017 86 0 1.62 65 05:37 27.01.2020
102 Clouds 6 1019 82 0 1.54 27 04:20 27.01.2020
103 Clouds 6 1019 82 0 1.54 27 03:27 27.01.2020
104 Rain 6 1016 82 0 2.41 19 01:42 27.01.2020
105 Rain 6 1016 82 0 2.41 19 01:22 27.01.2020
106 Rain 6 1015 78 0 2.06 50 00:40 27.01.2020
107 Rain 6 1015 78 0 2.06 50 00:19 27.01.2020
108 Rain 6 1015 78 0 2.06 50 23:42 26.01.2020
109 Rain 8 1010 70 0 1.91 296 23:21 26.01.2020
110 Rain 8 1010 70 0 1.91 296 22:57 26.01.2020
111 Rain 8 1010 70 0 1.91 296 22:38 26.01.2020
112 Rain 8 1010 70 0 1.91 296 22:19 26.01.2020
113 Rain 8 1010 70 0 1.91 296 21:57 26.01.2020
114 Rain 8 1010 70 0 1.91 296 21:38 26.01.2020
115 Rain 8 1010 70 0 1.91 296 21:20 26.01.2020
116 Rain 8 1010 70 0 1.91 296 20:57 26.01.2020
117 Rain 8 1010 70 0 1.91 296 20:38 26.01.2020
118 Clouds 14 1012 34 0 1.44 36 20:19 26.01.2020
119 Clouds 14 1012 34 0 1.44 36 20:19 26.01.2020
120 Clouds 14 1012 34 0 1.44 36 19:57 26.01.2020
121 Clouds 14 1012 34 0 1.44 36 19:38 26.01.2020
122 Clouds 14 1012 34 0 1.44 36 19:19 26.01.2020
123 Clouds 14 1012 34 0 1.44 36 19:19 26.01.2020
124 Clouds 14 1012 34 0 1.44 36 18:55 26.01.2020
125 Clouds 14 1012 34 0 1.44 36 18:55 26.01.2020
126 Clouds 14 1012 34 0 1.44 36 18:36 26.01.2020
127 Clouds 14 1012 34 0 1.44 36 18:18 26.01.2020
128 Clouds 14 1012 34 0 1.44 36 18:18 26.01.2020
129 Clouds 14 1012 34 0 1.44 36 17:55 26.01.2020
130 Clouds 14 1012 34 0 1.44 36 17:36 26.01.2020
131 Clouds 13 1017 40 0 3.3 45 17:18 26.01.2020
132 Clouds 13 1017 40 0 3.3 45 16:55 26.01.2020
133 Clouds 13 1017 40 0 3.3 45 16:37 26.01.2020
134 Clouds 13 1017 40 0 3.3 45 16:18 26.01.2020
135 Clouds 13 1017 40 0 3.3 45 15:42 26.01.2020
136 Clouds 13 1017 40 0 3.3 45 15:19 26.01.2020
137 Clouds 13 1017 40 0 3.3 45 14:55 26.01.2020
138 Clouds 13 1017 40 0 3.3 45 14:37 26.01.2020
139 Clouds 8 1020 67 0 0.77 33 14:18 26.01.2020
140 Clouds 8 1020 67 0 0.77 33 13:39 26.01.2020
141 Clouds 7 1020 64 0 0.49 63 13:18 26.01.2020
142 Clouds 7 1020 64 0 0.49 63 12:54 26.01.2020
143 Clouds 7 1020 64 0 0.49 63 12:36 26.01.2020
144 Clouds 7 1020 64 0 0.49 63 12:18 26.01.2020
145 Clouds 7 1020 64 0 0.49 63 11:56 26.01.2020
146 Clouds 7 1020 64 0 0.49 63 11:36 26.01.2020
147 Clouds 5 1019 85 0 0.93 340 11:18 26.01.2020
148 Clouds 5 1019 85 0 0.93 340 10:39 26.01.2020
149 Clouds 5 1019 85 0 0.93 340 10:21 26.01.2020
150 Clouds 5 1019 85 0 0.93 340 09:59 26.01.2020
151 Clouds 5 1019 85 0 0.93 340 09:41 26.01.2020
152 Clouds 5 1019 85 0 0.93 340 09:22 26.01.2020
153 Clouds 5 1019 85 0 0.93 340 08:55 26.01.2020
154 Clouds 5 1019 85 0 0.93 340 08:37 26.01.2020
155 Clouds 6 1018 78 0 1.12 42 08:18 26.01.2020
156 Clouds 6 1018 79 0 1.33 17 07:45 26.01.2020
157 Clouds 6 1018 79 0 1.33 17 07:45 26.01.2020
158 Clouds 6 1018 79 0 1.33 17 07:22 26.01.2020
159 Clouds 6 1018 79 0 1.33 17 06:34 26.01.2020
160 Clouds 6 1018 79 0 1.33 17 05:52 26.01.2020
161 Clouds 6 1018 79 0 1.33 17 05:22 26.01.2020
162 Clear 7 1019 71 0 1.84 47 03:22 26.01.2020
163 Clear 7 1019 71 0 1.84 47 02:23 26.01.2020
164 Clouds 9 1015 55 0 4.01 55 01:40 26.01.2020
165 Clouds 9 1015 57 0 3.98 52 01:20 26.01.2020
166 Clouds 9 1015 57 0 3.98 52 00:40 26.01.2020
167 Clouds 9 1015 57 0 3.98 52 00:20 26.01.2020
168 Clouds 9 1015 57 0 3.98 52 23:38 25.01.2020
169 Clouds 14 1010 29 0 6.14 59 23:20 25.01.2020
170 Clouds 14 1010 29 0 6.14 59 22:44 25.01.2020
171 Clouds 14 1010 29 0 6.14 59 22:21 25.01.2020
172 Clouds 14 1010 29 0 6.14 59 21:59 25.01.2020
173 Clouds 14 1010 29 0 6.14 59 21:41 25.01.2020
174 Clouds 14 1010 29 0 6.14 59 21:22 25.01.2020
175 Clouds 14 1010 29 0 6.14 59 20:55 25.01.2020
176 Clouds 14 1010 29 0 6.14 59 20:36 25.01.2020
177 Clouds 15 1013 21 0 5.91 75 20:18 25.01.2020
178 Clouds 15 1013 21 0 5.91 75 19:42 25.01.2020
179 Clouds 15 1013 21 0 5.91 75 19:20 25.01.2020
180 Clouds 15 1013 21 0 5.91 75 19:20 25.01.2020
181 Clouds 15 1013 21 0 5.91 75 18:57 25.01.2020
182 Clouds 16 1013 21 0 5.82 77 18:57 25.01.2020
183 Clouds 15 1013 21 0 5.91 75 18:38 25.01.2020
184 Clouds 15 1013 21 0 5.91 75 18:20 25.01.2020
185 Clouds 16 1013 21 0 5.82 77 17:40 25.01.2020
186 Clouds 13 1016 18 0 3.51 105 17:20 25.01.2020
187 Clouds 13 1016 19 0 3.39 99 16:58 25.01.2020
188 Clouds 13 1016 19 0 3.39 99 16:38 25.01.2020
189 Clouds 13 1016 19 0 3.39 99 16:19 25.01.2020
190 Clouds 13 1016 19 0 3.39 99 15:47 25.01.2020
191 Clouds 13 1016 19 0 3.39 99 15:25 25.01.2020
192 Clouds 13 1016 19 0 3.39 99 14:59 25.01.2020
193 Clouds 13 1016 19 0 3.39 99 14:40 25.01.2020
194 Clouds 8 1019 34 0 1.57 158 14:18 25.01.2020
195 Clouds 8 1019 34 0 1.57 158 13:42 25.01.2020
196 Clouds 8 1019 34 0 1.57 158 13:42 25.01.2020
197 Clouds 8 1019 32 0 1.61 157 13:23 25.01.2020
198 Clouds 8 1019 32 0 1.61 157 12:45 25.01.2020
199 Clouds 8 1019 32 0 1.61 157 12:26 25.01.2020
200 Clouds 8 1019 32 0 1.61 157 11:45 25.01.2020
201 Clouds 8 1019 32 0 1.61 157 11:22 25.01.2020
202 Clouds 5 1017 73 0 1.31 176 10:59 25.01.2020
203 Clouds 5 1017 73 0 1.31 176 10:40 25.01.2020
204 Clouds 5 1017 73 0 1.31 176 10:20 25.01.2020
205 Clouds 5 1017 73 0 1.31 176 09:54 25.01.2020
206 Clouds 5 1017 73 0 1.31 176 09:36 25.01.2020
207 Clouds 5 1017 73 0 1.31 176 09:18 25.01.2020
208 Clouds 5 1017 73 0 1.31 176 08:42 25.01.2020
209 Clouds 6 1018 85 0 1.14 43 07:51 25.01.2020
210 Clouds 6 1018 85 0 1.14 43 06:57 25.01.2020
211 Clouds 6 1018 85 0 1.14 43 06:29 25.01.2020
212 Clouds 6 1018 85 0 1.14 43 05:48 25.01.2020
213 Clouds 6 1018 85 0 1.14 43 05:28 25.01.2020
214 Clouds 8 1018 70 0 1.37 58 03:54 25.01.2020
215 Clouds 8 1018 70 0 1.37 58 03:23 25.01.2020
216 Clouds 8 1018 70 0 1.37 58 02:23 25.01.2020
217 Clouds 10 1014 50 0 4 80 01:53 25.01.2020
218 Clouds 10 1014 53 0 4.08 82 00:52 25.01.2020
219 Clouds 10 1014 53 0 4.08 82 00:26 25.01.2020
220 Clouds 10 1014 53 0 4.08 82 00:26 25.01.2020
221 Clouds 10 1014 53 0 4.08 82 23:59 24.01.2020
222 Clouds 10 1014 53 0 4.08 82 23:41 24.01.2020
223 Clouds 10 1014 53 0 4.08 82 23:23 24.01.2020
224 Clouds 14 1009 29 0 7.18 95 22:46 24.01.2020
225 Clouds 14 1009 29 0 7.18 95 22:46 24.01.2020
226 Clouds 14 1009 29 0 7.18 95 22:25 24.01.2020
227 Clouds 14 1009 29 0 7.18 95 21:57 24.01.2020
228 Clouds 14 1009 29 0 7.18 95 21:38 24.01.2020
229 Clouds 14 1009 29 0 7.18 95 21:18 24.01.2020
230 Clouds 14 1009 29 0 7.18 95 20:42 24.01.2020
231 Clouds 15 1011 34 0 5.62 102 20:21 24.01.2020
232 Clouds 15 1011 34 0 5.62 102 19:58 24.01.2020
233 Clouds 15 1011 34 0 5.62 102 19:39 24.01.2020
234 Clouds 15 1011 34 0 5.62 102 19:21 24.01.2020
235 Clouds 15 1011 34 0 5.62 102 18:44 24.01.2020
236 Clouds 15 1011 34 0 5.62 102 18:25 24.01.2020
237 Clouds 15 1011 34 0 5.62 102 17:56 24.01.2020
238 Clouds 15 1011 34 0 5.62 102 17:56 24.01.2020
239 Clouds 15 1011 34 0 5.62 102 17:38 24.01.2020
240 Clouds 13 1014 32 0 5.49 123 17:20 24.01.2020
241 Clouds 13 1014 32 0 5.49 123 16:39 24.01.2020
242 Clouds 13 1014 32 0 5.49 123 16:21 24.01.2020
243 Clouds 13 1014 32 0 5.49 123 15:56 24.01.2020
244 Clouds 13 1014 32 0 5.49 123 15:38 24.01.2020
245 Clouds 13 1014 32 0 5.49 123 15:19 24.01.2020
246 Clouds 13 1014 32 0 5.49 123 14:41 24.01.2020
247 Clouds 13 1014 32 0 5.49 123 14:22 24.01.2020
248 Clouds 8 1017 64 0 1.93 141 13:45 24.01.2020
249 Clouds 8 1018 63 0 2 127 13:24 24.01.2020
250 Clouds 8 1018 63 0 2 127 12:55 24.01.2020
251 Clouds 8 1018 63 0 2 127 12:36 24.01.2020
252 Clouds 8 1018 63 0 2 127 12:18 24.01.2020
253 Clouds 8 1018 63 0 2 127 11:42 24.01.2020
254 Rain 7 1015 75 0 1.04 95 11:19 24.01.2020
255 Rain 7 1015 75 0 1.04 95 10:43 24.01.2020
256 Rain 7 1015 75 0 1.04 95 10:22 24.01.2020
257 Rain 7 1015 75 0 1.04 95 09:56 24.01.2020
258 Rain 7 1015 75 0 1.04 95 09:38 24.01.2020
259 Rain 7 1015 75 0 1.04 95 09:38 24.01.2020
260 Rain 7 1015 75 0 1.04 95 09:20 24.01.2020
261 Rain 7 1015 75 0 1.04 95 08:40 24.01.2020
262 Rain 7 1015 89 0 1.75 48 08:19 24.01.2020
263 Rain 7 1016 90 0 1.66 62 07:50 24.01.2020
264 Rain 7 1016 90 0 1.66 62 07:28 24.01.2020
265 Rain 7 1016 90 0 1.66 62 06:48 24.01.2020
266 Rain 7 1016 90 0 1.66 62 06:29 24.01.2020
267 Rain 7 1016 90 0 1.66 62 05:58 24.01.2020
268 Rain 8 1015 90 0 2.05 62 04:54 24.01.2020
269 Rain 8 1015 90 0 2.05 62 02:53 24.01.2020
270 Rain 8 1015 90 0 2.05 62 02:24 24.01.2020
271 Rain 9 1013 77 0 3.58 56 01:45 24.01.2020
272 Rain 9 1013 77 0 3.58 56 01:26 24.01.2020
273 Rain 10 1012 76 0 3.63 55 00:23 24.01.2020
274 Rain 10 1012 76 0 3.63 55 23:49 23.01.2020
275 Rain 10 1012 76 0 3.63 55 23:31 23.01.2020
276 Rain 13 1009 55 0 6.08 122 22:59 23.01.2020
277 Rain 13 1009 55 0 6.08 122 22:38 23.01.2020
278 Rain 13 1009 55 0 6.08 122 22:38 23.01.2020
279 Rain 13 1009 55 0 6.08 122 22:19 23.01.2020
280 Rain 13 1009 55 0 6.08 122 21:57 23.01.2020
281 Rain 13 1009 55 0 6.08 122 21:39 23.01.2020
282 Rain 13 1009 55 0 6.08 122 21:20 23.01.2020
283 Rain 13 1009 55 0 6.08 122 20:58 23.01.2020
284 Rain 13 1009 55 0 6.08 122 20:38 23.01.2020
285 Rain 14 1011 51 0 4.73 113 20:19 23.01.2020
286 Rain 14 1011 47 0 5.41 123 20:19 23.01.2020
287 Rain 14 1011 47 0 5.41 123 19:56 23.01.2020
288 Rain 14 1011 47 0 5.41 123 19:38 23.01.2020
289 Rain 14 1011 47 0 5.41 123 19:19 23.01.2020
290 Rain 14 1011 47 0 5.41 123 18:42 23.01.2020
291 Rain 14 1011 47 0 5.41 123 18:21 23.01.2020
292 Rain 14 1011 47 0 5.41 123 17:58 23.01.2020
293 Rain 14 1011 47 0 5.41 123 17:40 23.01.2020
294 Rain 12 1016 57 0 2.86 115 17:20 23.01.2020
295 Rain 12 1016 57 0 2.86 115 16:56 23.01.2020
296 Rain 12 1016 57 0 2.86 115 16:36 23.01.2020
297 Rain 12 1016 57 0 2.86 115 16:18 23.01.2020
298 Rain 12 1016 57 0 2.86 115 15:54 23.01.2020
299 Rain 12 1016 57 0 2.86 115 15:36 23.01.2020
300 Rain 12 1016 57 0 2.86 115 15:18 23.01.2020
301 Rain 12 1016 57 0 2.86 115 14:55 23.01.2020
302 Rain 12 1016 57 0 2.86 115 14:37 23.01.2020
303 Clouds 7 1017 80 0 0.66 57 14:18 23.01.2020
304 Clouds 7 1017 80 0 0.66 57 13:39 23.01.2020
305 Rain 7 1018 79 0 1 85 13:20 23.01.2020
306 Clouds 7 1018 72 0 1.09 38 12:47 23.01.2020
307 Rain 7 1018 79 0 1 85 12:25 23.01.2020
308 Rain 7 1018 79 0 1 85 11:59 23.01.2020
309 Clouds 7 1018 72 0 1.09 38 11:39 23.01.2020
310 Rain 6 1017 81 0 0.85 73 11:20 23.01.2020
311 Rain 6 1017 81 0 0.85 73 11:20 23.01.2020
312 Rain 6 1017 81 0 0.85 73 10:55 23.01.2020
313 Rain 6 1017 81 0 0.85 73 10:36 23.01.2020
314 Rain 6 1017 81 0 0.85 73 10:18 23.01.2020
315 Rain 6 1017 81 0 0.85 73 09:39 23.01.2020
316 Rain 6 1017 81 0 0.85 73 09:20 23.01.2020
317 Rain 6 1017 81 0 0.85 73 08:43 23.01.2020
318 Rain 6 1017 82 0 1.21 129 08:25 23.01.2020
319 Clouds 6 1017 89 0 1.57 67 07:51 23.01.2020
320 Clouds 6 1017 89 0 1.57 67 07:27 23.01.2020
321 Clouds 6 1017 89 0 1.57 67 06:54 23.01.2020
322 Clouds 6 1017 89 0 1.57 67 06:25 23.01.2020
323 Clouds 6 1017 89 0 1.57 67 05:59 23.01.2020
324 Clouds 7 1018 81 0 2.65 44 04:25 23.01.2020
325 Clouds 7 1018 81 0 2.65 44 04:24 23.01.2020
326 Clouds 7 1018 81 0 2.65 44 02:48 23.01.2020
327 Clouds 8 1014 66 0 3.97 49 01:51 23.01.2020
328 Clouds 8 1014 67 0 3.95 51 00:41 23.01.2020
329 Clouds 8 1014 67 0 3.95 51 00:20 23.01.2020
330 Clouds 8 1014 67 0 3.95 51 23:45 22.01.2020
331 Clouds 8 1014 67 0 3.95 51 23:27 22.01.2020
332 Clouds 13 1010 36 0 5.85 70 22:43 22.01.2020
333 Clouds 13 1010 36 0 5.85 70 22:43 22.01.2020
334 Clouds 13 1010 36 0 5.85 70 22:24 22.01.2020
335 Clouds 13 1010 36 0 5.85 70 21:58 22.01.2020
336 Clouds 13 1010 36 0 5.85 70 21:36 22.01.2020
337 Clouds 13 1010 36 0 5.85 70 21:18 22.01.2020
338 Clouds 13 1010 36 0 5.85 70 20:42 22.01.2020
339 Clouds 12 1011 46 0 6.38 66 20:23 22.01.2020
340 Clouds 14 1013 31 0 6.66 88 19:59 22.01.2020
341 Clouds 14 1013 31 0 6.66 88 19:41 22.01.2020
342 Clouds 14 1013 31 0 6.66 88 19:20 22.01.2020
343 Clouds 14 1013 31 0 6.66 88 18:58 22.01.2020
344 Clouds 14 1013 31 0 6.66 88 18:39 22.01.2020
345 Clouds 14 1013 31 0 6.66 88 18:21 22.01.2020
346 Clouds 14 1013 31 0 6.66 88 17:57 22.01.2020
347 Clouds 14 1013 31 0 6.66 88 17:38 22.01.2020
348 Rain 11 1016 51 0 4.16 89 17:19 22.01.2020
349 Rain 11 1016 51 0 4.16 89 16:54 22.01.2020
350 Rain 11 1016 51 0 4.16 89 16:36 22.01.2020
351 Rain 11 1016 51 0 4.16 89 16:18 22.01.2020
352 Rain 11 1016 51 0 4.16 89 15:41 22.01.2020
353 Rain 11 1016 51 0 4.16 89 15:23 22.01.2020
354 Rain 11 1016 51 0 4.16 89 14:58 22.01.2020
355 Rain 11 1016 51 0 4.16 89 14:37 22.01.2020
356 Rain 7 1018 75 0 2.24 102 14:19 22.01.2020
357 Rain 7 1018 75 0 2.24 102 13:56 22.01.2020
358 Rain 7 1018 75 0 2.24 102 13:37 22.01.2020
359 Rain 8 1018 74 0 2.89 122 13:19 22.01.2020
360 Rain 8 1018 74 0 2.89 122 12:56 22.01.2020
361 Rain 8 1018 74 0 2.89 122 12:38 22.01.2020
362 Rain 8 1018 74 0 2.89 122 12:19 22.01.2020
363 Rain 8 1018 74 0 2.89 122 11:56 22.01.2020
364 Rain 8 1018 74 0 2.89 122 11:38 22.01.2020
365 Rain 7 1016 81 0 2.16 126 11:19 22.01.2020
366 Rain 7 1016 81 0 2.16 126 10:45 22.01.2020
367 Rain 7 1016 81 0 2.16 126 10:21 22.01.2020
368 Rain 7 1016 81 0 2.16 126 09:57 22.01.2020
369 Rain 7 1016 81 0 2.16 126 09:39 22.01.2020
370 Rain 7 1016 81 0 2.16 126 09:20 22.01.2020
371 Rain 7 1016 81 0 2.16 126 08:54 22.01.2020
372 Rain 7 1016 81 0 2.16 126 08:36 22.01.2020
373 Rain 6 1017 82 0 1.41 188 08:18 22.01.2020
374 Rain 6 1017 82 0 1.41 188 07:42 22.01.2020
375 Rain 6 1017 82 0 1.41 188 07:23 22.01.2020
376 Rain 6 1017 82 0 1.41 188 06:34 22.01.2020
377 Rain 6 1017 82 0 1.41 188 05:45 22.01.2020
378 Rain 5 1018 90 0 3.63 160 04:25 22.01.2020
379 Rain 5 1018 90 0 3.63 160 03:26 22.01.2020
380 Rain 5 1018 90 0 3.63 160 02:42 22.01.2020
381 Rain 9 1014 84 0 5.04 63 00:47 22.01.2020
382 Rain 9 1014 84 0 5.04 63 00:27 22.01.2020
383 Rain 9 1014 84 0 5.04 63 23:57 21.01.2020
384 Rain 9 1014 84 0 5.04 63 23:37 21.01.2020
385 Rain 13 1007 61 0 5.38 55 23:18 21.01.2020
386 Rain 13 1007 61 0 5.38 55 22:40 21.01.2020
387 Rain 13 1007 61 0 5.38 55 22:21 21.01.2020
388 Rain 13 1007 61 0 5.38 55 21:58 21.01.2020
389 Rain 13 1007 61 0 5.38 55 21:39 21.01.2020
390 Rain 13 1007 61 0 5.38 55 21:20 21.01.2020
391 Rain 13 1007 61 0 5.38 55 20:57 21.01.2020
392 Rain 13 1007 61 0 5.38 55 20:57 21.01.2020
393 Rain 13 1007 61 0 5.38 55 20:39 21.01.2020
394 Rain 14 1008 55 0 5.64 61 20:20 21.01.2020
395 Rain 14 1008 55 0 5.64 61 19:58 21.01.2020
396 Rain 14 1008 55 0 5.64 61 19:39 21.01.2020
397 Rain 14 1008 55 0 5.64 61 19:21 21.01.2020
398 Rain 14 1008 55 0 5.64 61 18:56 21.01.2020
399 Rain 14 1008 55 0 5.64 61 18:38 21.01.2020
400 Rain 14 1008 55 0 5.64 61 18:20 21.01.2020
401 Rain 14 1008 55 0 5.64 61 17:45 21.01.2020
402 Rain 14 1008 55 0 5.64 61 17:22 21.01.2020
403 Rain 12 1012 60 0 2.98 44 16:59 21.01.2020
404 Rain 12 1012 60 0 2.98 44 16:37 21.01.2020
405 Rain 12 1012 60 0 2.98 44 16:19 21.01.2020
406 Rain 12 1012 60 0 2.98 44 15:57 21.01.2020
407 Rain 12 1012 60 0 2.98 44 15:37 21.01.2020
408 Rain 12 1012 60 0 2.98 44 15:19 21.01.2020
409 Rain 12 1012 60 0 2.98 44 14:39 21.01.2020
410 Clouds 8 1015 81 0 0.96 46 14:20 21.01.2020
411 Clouds 8 1015 81 0 0.96 46 13:43 21.01.2020
412 Clouds 8 1015 81 0 0.96 46 13:43 21.01.2020
413 Clouds 8 1015 80 0 1.15 43 13:20 21.01.2020
414 Clouds 8 1015 80 0 1.15 43 12:58 21.01.2020
415 Clouds 8 1015 80 0 1.15 43 12:39 21.01.2020
416 Clouds 8 1015 80 0 1.15 43 12:21 21.01.2020
417 Clouds 8 1015 80 0 1.15 43 11:55 21.01.2020
418 Clouds 8 1015 80 0 1.15 43 11:36 21.01.2020
419 Rain 7 1014 90 0 1.23 60 11:18 21.01.2020
420 Rain 7 1014 90 0 1.23 60 10:42 21.01.2020
421 Rain 7 1014 90 0 1.23 60 10:22 21.01.2020
422 Rain 7 1014 90 0 1.23 60 09:43 21.01.2020
423 Rain 7 1014 90 0 1.23 60 09:24 21.01.2020
424 Rain 7 1014 90 0 1.23 60 08:58 21.01.2020
425 Rain 7 1014 90 0 1.23 60 08:40 21.01.2020
426 Rain 7 1015 88 0 1.58 56 08:19 21.01.2020
427 Rain 7 1015 88 0 1.58 56 07:42 21.01.2020
428 Rain 7 1015 88 0 1.58 56 07:42 21.01.2020
429 Rain 7 1015 88 0 1.58 56 07:23 21.01.2020
430 Rain 7 1015 88 0 1.58 56 07:23 21.01.2020
431 Rain 7 1015 88 0 1.58 56 06:56 21.01.2020
432 Rain 7 1015 88 0 1.58 56 06:37 21.01.2020
433 Rain 7 1015 88 0 1.58 56 05:53 21.01.2020
434 Clouds 8 1015 84 0 2.37 56 04:41 21.01.2020
435 Clouds 8 1015 84 0 2.37 56 04:19 21.01.2020
436 Clouds 8 1015 84 0 2.37 56 02:26 21.01.2020
437 Rain 9 1013 77 0 4.81 53 01:31 21.01.2020
438 Rain 9 1013 77 0 4.81 53 00:41 21.01.2020
439 Rain 9 1013 77 0 4.81 53 00:22 21.01.2020
440 Rain 9 1013 77 0 4.81 53 23:41 20.01.2020
441 Rain 14 1009 53 0 4.65 66 23:19 20.01.2020
442 Rain 14 1009 53 0 4.65 66 22:59 20.01.2020
443 Rain 14 1009 53 0 4.65 66 22:39 20.01.2020
444 Rain 14 1009 53 0 4.65 66 22:21 20.01.2020
445 Rain 14 1009 53 0 4.65 66 21:58 20.01.2020
446 Rain 14 1009 53 0 4.65 66 21:38 20.01.2020
447 Rain 14 1009 53 0 4.65 66 21:20 20.01.2020
448 Rain 14 1009 53 0 4.65 66 20:58 20.01.2020
449 Rain 14 1009 53 0 4.65 66 20:39 20.01.2020
450 Clouds 15 1012 42 0 4.25 57 20:19 20.01.2020
451 Clouds 15 1012 42 0 4.25 57 20:19 20.01.2020
452 Clouds 15 1012 42 0 4.25 57 19:57 20.01.2020
453 Clouds 15 1012 42 0 4.25 57 19:38 20.01.2020
454 Clouds 15 1012 42 0 4.25 57 19:19 20.01.2020
455 Clouds 15 1012 42 0 4.25 57 18:45 20.01.2020
456 Clouds 15 1012 42 0 4.25 57 18:24 20.01.2020
457 Clouds 15 1012 42 0 4.25 57 17:59 20.01.2020
458 Clouds 15 1012 42 0 4.25 57 17:37 20.01.2020
459 Clouds 12 1016 50 0 3.2 57 17:18 20.01.2020
460 Clouds 12 1016 50 0 3.2 57 16:45 20.01.2020
461 Clouds 12 1016 50 0 3.2 57 16:25 20.01.2020
462 Clouds 12 1016 50 0 3.2 57 15:58 20.01.2020
463 Clouds 12 1016 50 0 3.2 57 15:40 20.01.2020
464 Clouds 12 1016 50 0 3.2 57 15:21 20.01.2020
465 Clouds 12 1016 50 0 3.2 57 14:56 20.01.2020
466 Clouds 12 1016 50 0 3.2 57 14:37 20.01.2020
467 Clouds 7 1018 72 0 1.26 53 14:19 20.01.2020
468 Clouds 7 1018 72 0 1.26 53 13:42 20.01.2020
469 Clouds 7 1019 73 0 1.21 47 13:23 20.01.2020
470 Clouds 7 1019 73 0 1.21 47 12:56 20.01.2020
471 Clouds 7 1019 73 0 1.21 47 12:38 20.01.2020
472 Clouds 7 1019 73 0 1.21 47 12:19 20.01.2020
473 Clouds 7 1019 73 0 1.21 47 11:43 20.01.2020
474 Clouds 7 1019 73 0 1.21 47 11:24 20.01.2020
475 Clouds 6 1017 90 0 1.01 81 10:58 20.01.2020
476 Clouds 6 1017 90 0 1.01 81 10:40 20.01.2020
477 Clouds 6 1017 90 0 1.01 81 10:20 20.01.2020
478 Clouds 6 1017 90 0 1.01 81 09:41 20.01.2020
479 Clouds 6 1017 90 0 1.01 81 09:22 20.01.2020
480 Clouds 6 1017 90 0 1.01 81 08:54 20.01.2020
481 Clouds 6 1017 92 0 0.23 85 08:31 20.01.2020
482 Clouds 6 1018 89 0 1.86 67 07:55 20.01.2020
483 Clouds 6 1018 89 0 1.86 67 07:36 20.01.2020
484 Clouds 6 1018 89 0 1.86 67 07:18 20.01.2020
485 Clouds 6 1018 89 0 1.86 67 06:35 20.01.2020
486 Clouds 6 1018 89 0 1.86 67 05:56 20.01.2020
487 Clouds 6 1018 89 0 1.86 67 05:37 20.01.2020
488 Clouds 8 1018 81 0 1.56 30 05:18 20.01.2020
489 Clouds 8 1018 81 0 1.56 30 03:47 20.01.2020
490 Clouds 9 1015 74 0 4.34 52 01:58 20.01.2020
491 Clouds 9 1015 74 0 4.34 52 01:39 20.01.2020
492 Clouds 9 1015 73 0 4.04 54 00:55 20.01.2020
493 Clouds 9 1015 73 0 4.04 54 00:28 20.01.2020
494 Clouds 9 1015 73 0 4.04 54 23:56 19.01.2020
495 Clouds 9 1015 73 0 4.04 54 23:37 19.01.2020
496 Clouds 12 1012 56 0 6.62 53 23:18 19.01.2020
497 Clouds 12 1012 56 0 6.62 53 22:55 19.01.2020
498 Clouds 12 1012 56 0 6.62 53 22:36 19.01.2020
499 Clouds 12 1012 56 0 6.62 53 22:18 19.01.2020
500 Clouds 12 1012 56 0 6.62 53 21:55 19.01.2020
501 Clouds 12 1012 56 0 6.62 53 21:37 19.01.2020
502 Clouds 12 1012 56 0 6.62 53 21:19 19.01.2020
503 Clouds 12 1012 56 0 6.62 53 20:56 19.01.2020
504 Clouds 12 1012 56 0 6.62 53 20:37 19.01.2020
505 Clouds 14 1014 45 0 5.55 52 20:19 19.01.2020
506 Clouds 14 1014 45 0 5.55 52 19:55 19.01.2020
507 Clouds 14 1014 45 0 5.55 52 19:37 19.01.2020
508 Clouds 14 1014 45 0 5.55 52 19:19 19.01.2020
509 Clouds 14 1014 45 0 5.55 52 18:55 19.01.2020
510 Clouds 14 1014 45 0 5.55 52 18:37 19.01.2020
511 Clouds 14 1014 45 0 5.55 52 18:18 19.01.2020
512 Clouds 14 1014 45 0 5.55 52 17:57 19.01.2020
513 Clouds 14 1014 45 0 5.55 52 17:38 19.01.2020
514 Clouds 12 1018 54 0 4.04 54 17:19 19.01.2020
515 Clouds 12 1018 54 0 4.04 54 16:57 19.01.2020
516 Clouds 12 1018 54 0 4.04 54 16:37 19.01.2020
517 Clouds 12 1018 54 0 4.04 54 16:19 19.01.2020
518 Clouds 12 1018 54 0 4.04 54 15:56 19.01.2020
519 Clouds 12 1018 54 0 4.04 54 15:37 19.01.2020
520 Clouds 12 1018 54 0 4.04 54 15:18 19.01.2020
521 Clouds 12 1018 54 0 4.04 54 14:56 19.01.2020
522 Clouds 12 1018 54 0 4.04 54 14:56 19.01.2020
523 Clouds 12 1018 54 0 4.04 54 14:37 19.01.2020
524 Clouds 7 1019 83 0 1.82 63 14:18 19.01.2020
525 Clouds 7 1019 83 0 1.82 63 14:18 19.01.2020
526 Clouds 7 1019 83 0 1.82 63 13:54 19.01.2020
527 Clouds 7 1019 83 0 1.82 63 13:36 19.01.2020
528 Clouds 7 1019 83 0 1.82 63 13:18 19.01.2020
529 Clouds 7 1020 81 0 2.38 57 12:42 19.01.2020
530 Clouds 7 1020 81 0 2.38 57 12:23 19.01.2020
531 Clouds 7 1020 81 0 2.38 57 11:57 19.01.2020
532 Clouds 7 1020 81 0 2.38 57 11:39 19.01.2020
533 Clouds 7 1018 87 0 2.23 47 11:19 19.01.2020
534 Clouds 7 1018 87 0 2.23 47 10:55 19.01.2020
535 Clouds 7 1018 87 0 2.23 47 10:37 19.01.2020
536 Clouds 7 1018 87 0 2.23 47 10:18 19.01.2020
537 Clouds 7 1018 87 0 2.23 47 09:41 19.01.2020
538 Clouds 7 1018 87 0 2.23 47 09:23 19.01.2020
539 Clouds 7 1018 87 0 2.23 47 08:57 19.01.2020
540 Clouds 7 1018 87 0 2.23 47 08:38 19.01.2020
541 Clouds 8 1017 88 0 2.09 49 08:20 19.01.2020
542 Clouds 8 1017 88 0 2.09 49 07:40 19.01.2020
543 Clouds 8 1017 88 0 2.09 49 07:21 19.01.2020
544 Clouds 8 1017 88 0 2.09 49 06:44 19.01.2020
545 Clouds 8 1018 84 0 1.76 65 05:21 19.01.2020
546 Clouds 8 1018 84 0 1.76 65 02:43 19.01.2020
547 Rain 10 1015 77 0 4.24 52 02:21 19.01.2020
548 Rain 9 1015 79 0 3.94 55 01:24 19.01.2020
549 Rain 9 1015 79 0 3.94 55 00:45 19.01.2020
550 Rain 9 1015 79 0 3.94 55 00:27 19.01.2020
551 Rain 9 1015 79 0 3.94 55 23:55 18.01.2020
552 Rain 9 1015 79 0 3.94 55 23:37 18.01.2020
553 Rain 12 1011 64 0 4.66 52 23:18 18.01.2020
554 Rain 12 1011 64 0 4.66 52 22:55 18.01.2020
555 Rain 12 1011 64 0 4.66 52 22:36 18.01.2020
556 Rain 12 1011 64 0 4.66 52 22:18 18.01.2020
557 Rain 12 1011 64 0 4.66 52 22:18 18.01.2020
558 Rain 12 1011 64 0 4.66 52 21:56 18.01.2020
559 Rain 12 1011 64 0 4.66 52 21:36 18.01.2020
560 Rain 12 1011 64 0 4.66 52 21:18 18.01.2020
561 Rain 12 1011 64 0 4.66 52 20:42 18.01.2020
562 Rain 14 1014 53 0 4.7 37 20:20 18.01.2020
563 Rain 14 1014 53 0 4.7 37 19:55 18.01.2020
564 Rain 14 1014 53 0 4.7 37 19:37 18.01.2020
565 Rain 14 1014 53 0 4.7 37 19:37 18.01.2020
566 Rain 14 1014 53 0 4.7 37 19:19 18.01.2020
567 Rain 14 1014 53 0 4.7 37 18:42 18.01.2020
568 Rain 14 1014 53 0 4.7 37 18:21 18.01.2020
569 Rain 14 1014 53 0 4.7 37 17:54 18.01.2020
570 Rain 14 1014 53 0 4.7 37 17:36 18.01.2020
571 Rain 12 1018 58 0 3.9 36 17:18 18.01.2020
572 Rain 12 1018 58 0 3.9 36 16:41 18.01.2020
573 Rain 12 1018 58 0 3.9 36 16:23 18.01.2020
574 Rain 12 1018 58 0 3.9 36 15:58 18.01.2020
575 Rain 12 1018 58 0 3.9 36 15:40 18.01.2020
576 Rain 12 1018 58 0 3.9 36 15:22 18.01.2020
577 Rain 12 1018 58 0 3.9 36 14:44 18.01.2020
578 Rain 12 1018 58 0 3.9 36 14:24 18.01.2020
579 Clouds 7 1020 81 0 1.27 330 13:59 18.01.2020
580 Clouds 7 1020 81 0 1.27 330 13:41 18.01.2020
581 Clouds 7 1020 80 0 1.41 346 13:21 18.01.2020
582 Clouds 7 1020 80 0 1.41 346 12:55 18.01.2020
583 Clouds 7 1020 80 0 1.41 346 12:55 18.01.2020
584 Clouds 7 1020 80 0 1.41 346 12:37 18.01.2020
585 Clouds 7 1020 80 0 1.41 346 12:19 18.01.2020
586 Clouds 7 1020 80 0 1.41 346 11:44 18.01.2020
587 Clouds 6 1019 93 0 1.94 26 11:21 18.01.2020
588 Clouds 6 1019 93 0 1.94 26 10:54 18.01.2020
589 Clouds 6 1019 93 0 1.94 26 10:36 18.01.2020
590 Clouds 6 1019 93 0 1.94 26 10:18 18.01.2020
591 Clouds 6 1019 93 0 1.94 26 09:42 18.01.2020
592 Clouds 6 1019 93 0 1.94 26 09:20 18.01.2020
593 Clouds 6 1019 93 0 1.94 26 08:55 18.01.2020
594 Clouds 6 1019 93 0 1.94 26 08:36 18.01.2020
595 Clouds 7 1018 87 0 1.53 14 08:18 18.01.2020
596 Clouds 7 1019 90 0 1.79 38 07:40 18.01.2020
597 Clouds 7 1019 90 0 1.79 38 07:20 18.01.2020
598 Clouds 7 1019 90 0 1.79 38 06:45 18.01.2020
599 Clouds 7 1019 90 0 1.79 38 05:53 18.01.2020
600 Rain 7 1020 87 0 1.85 33 04:28 18.01.2020
601 Rain 7 1020 87 0 1.85 33 02:49 18.01.2020
602 Rain 9 1018 80 0 3.54 51 01:47 18.01.2020
603 Rain 9 1017 77 0 3.7 55 00:40 18.01.2020
604 Rain 9 1017 77 0 3.7 55 00:21 18.01.2020
605 Rain 9 1017 77 0 3.7 55 23:59 17.01.2020
606 Rain 9 1017 77 0 3.7 55 23:40 17.01.2020
607 Rain 12 1014 60 0 3.36 43 23:19 17.01.2020
608 Rain 12 1014 60 0 3.36 43 22:43 17.01.2020
609 Rain 12 1014 60 0 3.36 43 22:21 17.01.2020
610 Rain 12 1014 60 0 3.36 43 21:57 17.01.2020
611 Rain 12 1014 60 0 3.36 43 21:39 17.01.2020
612 Rain 12 1014 60 0 3.36 43 21:20 17.01.2020
613 Rain 12 1014 60 0 3.36 43 20:55 17.01.2020
614 Rain 12 1014 60 0 3.36 43 20:36 17.01.2020
615 Rain 12 1016 54 0 3.54 18 20:18 17.01.2020
616 Rain 12 1016 54 0 3.54 18 19:54 17.01.2020
617 Rain 12 1016 54 0 3.54 18 19:36 17.01.2020
618 Rain 12 1016 54 0 3.54 18 19:18 17.01.2020
619 Rain 12 1016 54 0 3.54 18 18:44 17.01.2020
620 Rain 12 1016 54 0 3.54 18 18:26 17.01.2020
621 Rain 12 1016 54 0 3.54 18 17:56 17.01.2020
622 Rain 12 1016 54 0 3.54 18 17:56 17.01.2020
623 Rain 12 1016 54 0 3.54 18 17:38 17.01.2020
624 Clouds 10 1020 60 0 2.71 32 17:19 17.01.2020
625 Clouds 10 1020 60 0 2.71 32 16:42 17.01.2020
626 Clouds 10 1020 60 0 2.71 32 16:20 17.01.2020
627 Clouds 10 1020 60 0 2.71 32 15:48 17.01.2020
628 Clouds 10 1020 60 0 2.71 32 15:27 17.01.2020
629 Clouds 10 1020 60 0 2.71 32 14:56 17.01.2020
630 Clouds 10 1020 60 0 2.71 32 14:38 17.01.2020
631 Clouds 6 1022 80 0 1.25 34 14:20 17.01.2020
632 Clouds 6 1022 80 0 1.25 34 13:39 17.01.2020
633 Clouds 5 1023 81 0 0.98 355 13:21 17.01.2020
634 Clouds 5 1023 81 0 0.98 355 13:21 17.01.2020
635 Clouds 5 1023 81 0 0.98 355 12:45 17.01.2020
636 Clouds 5 1023 81 0 0.98 355 12:23 17.01.2020
637 Clouds 5 1023 81 0 0.98 355 12:23 17.01.2020
638 Clouds 5 1023 81 0 0.98 355 11:41 17.01.2020
639 Clouds 5 1022 89 0 2.07 55 11:20 17.01.2020
640 Clouds 5 1022 89 0 2.07 55 10:55 17.01.2020
641 Clouds 5 1022 89 0 2.07 55 10:36 17.01.2020
642 Clouds 5 1022 89 0 2.07 55 10:18 17.01.2020
643 Clouds 5 1022 89 0 2.07 55 09:42 17.01.2020
644 Clouds 5 1022 89 0 2.07 55 09:21 17.01.2020
645 Clouds 5 1022 89 0 2.07 55 08:56 17.01.2020
646 Clouds 5 1022 89 0 2.07 55 08:38 17.01.2020
647 Clouds 6 1020 89 0 2.78 47 08:19 17.01.2020
648 Clouds 6 1020 89 0 2.78 47 07:43 17.01.2020
649 Clouds 6 1020 89 0 2.78 47 07:25 17.01.2020
650 Clouds 6 1020 89 0 2.78 47 06:47 17.01.2020
651 Clouds 6 1020 89 0 2.78 47 06:29 17.01.2020
652 Rain 7 1021 84 0 4.47 51 04:27 17.01.2020
653 Rain 7 1021 84 0 4.47 51 02:56 17.01.2020
654 Rain 7 1021 84 0 4.47 51 02:56 17.01.2020
655 Rain 7 1021 84 0 4.47 51 02:32 17.01.2020
656 Clouds 8 1017 75 0 5.26 60 01:44 17.01.2020
657 Clouds 9 1017 73 0 4.63 55 01:22 17.01.2020
658 Clouds 9 1017 73 0 4.63 55 00:37 17.01.2020
659 Clouds 9 1017 73 0 4.63 55 00:19 17.01.2020
660 Clouds 9 1017 73 0 4.63 55 23:41 16.01.2020
661 Clouds 9 1017 73 0 4.63 55 23:22 16.01.2020
662 Rain 12 1013 57 0 5.58 49 22:41 16.01.2020
663 Rain 12 1013 57 0 5.58 49 22:21 16.01.2020
664 Rain 12 1013 57 0 5.58 49 21:57 16.01.2020
665 Rain 12 1013 57 0 5.58 49 21:38 16.01.2020
666 Rain 12 1013 57 0 5.58 49 21:19 16.01.2020
667 Rain 12 1013 57 0 5.58 49 20:57 16.01.2020
668 Rain 12 1013 57 0 5.58 49 20:38 16.01.2020
669 Clouds 13 1014 47 0 6.83 46 20:19 16.01.2020
670 Clouds 13 1014 47 0 6.9 46 19:56 16.01.2020
671 Clouds 13 1014 47 0 6.9 46 19:37 16.01.2020
672 Clouds 13 1014 47 0 6.9 46 19:19 16.01.2020
673 Clouds 13 1014 47 0 6.9 46 18:55 16.01.2020
674 Clouds 13 1014 47 0 6.9 46 18:37 16.01.2020
675 Clouds 13 1014 47 0 6.9 46 18:18 16.01.2020
676 Clouds 13 1014 47 0 6.9 46 18:18 16.01.2020
677 Clouds 13 1014 47 0 6.9 46 17:42 16.01.2020
678 Clouds 13 1014 47 0 6.9 46 17:23 16.01.2020
679 Clouds 12 1017 51 0 6.11 52 16:57 16.01.2020
680 Clouds 12 1017 51 0 6.11 52 16:39 16.01.2020
681 Clouds 12 1017 51 0 6.11 52 16:19 16.01.2020
682 Clouds 12 1017 51 0 6.11 52 15:44 16.01.2020
683 Clouds 12 1017 51 0 6.11 52 15:23 16.01.2020
684 Clouds 12 1017 51 0 6.11 52 14:57 16.01.2020
685 Clouds 12 1017 51 0 6.11 52 14:39 16.01.2020
686 Clouds 8 1018 74 0 3.11 63 14:20 16.01.2020
687 Clouds 8 1018 74 0 3.11 63 13:45 16.01.2020
688 Clouds 8 1018 74 0 3.11 63 13:26 16.01.2020
689 Clouds 8 1018 75 0 3.03 61 12:47 16.01.2020
690 Clouds 8 1018 75 0 3.03 61 12:29 16.01.2020
691 Clouds 8 1018 75 0 3.03 61 12:29 16.01.2020
692 Clouds 8 1018 75 0 3.03 61 11:59 16.01.2020
693 Clouds 8 1018 75 0 3.03 61 11:41 16.01.2020
694 Clouds 8 1018 75 0 3.03 61 11:41 16.01.2020
695 Clouds 8 1018 75 0 3.03 61 11:23 16.01.2020
696 Rain 7 1015 93 0 1.87 52 10:55 16.01.2020
697 Rain 7 1015 93 0 1.87 52 10:36 16.01.2020
698 Rain 7 1015 93 0 1.87 52 10:18 16.01.2020
699 Rain 7 1015 93 0 1.87 52 09:42 16.01.2020
700 Rain 7 1015 93 0 1.87 52 09:24 16.01.2020
701 Rain 7 1015 93 0 1.87 52 08:58 16.01.2020
702 Rain 7 1015 93 0 1.87 52 08:39 16.01.2020
703 Rain 8 1014 92 0 1.72 58 08:18 16.01.2020
704 Rain 8 1014 92 0 1.72 58 07:42 16.01.2020
705 Rain 8 1014 92 0 1.72 58 07:23 16.01.2020
706 Rain 8 1014 92 0 1.72 58 06:50 16.01.2020
707 Rain 8 1014 92 0 1.72 58 06:32 16.01.2020
708 Rain 8 1014 92 0 1.72 58 05:49 16.01.2020
709 Rain 9 1013 81 0 1.79 67 04:46 16.01.2020
710 Rain 9 1013 81 0 1.79 67 04:46 16.01.2020
711 Rain 9 1013 81 0 1.79 67 03:56 16.01.2020
712 Rain 9 1013 81 0 1.79 67 02:46 16.01.2020
713 Rain 11 1008 74 0 4.07 49 01:32 16.01.2020
714 Rain 11 1009 72 0 3.96 52 00:43 16.01.2020
715 Rain 11 1009 72 0 3.96 52 00:43 16.01.2020
716 Rain 11 1009 72 0 3.96 52 00:23 16.01.2020
717 Rain 11 1009 72 0 3.96 52 23:44 15.01.2020
718 Rain 11 1009 72 0 3.96 52 23:44 15.01.2020
719 Rain 15 1005 48 0 5.7 38 23:22 15.01.2020
720 Rain 15 1005 48 0 5.7 38 23:22 15.01.2020
721 Rain 15 1005 48 0 5.7 38 23:21 15.01.2020
722 Rain 15 1005 48 0 5.7 38 22:56 15.01.2020
723 Rain 15 1005 48 0 5.7 38 22:38 15.01.2020
724 Rain 15 1005 48 0 5.7 38 22:18 15.01.2020
725 Rain 15 1005 48 0 5.7 38 21:56 15.01.2020
726 Rain 15 1005 48 0 5.7 38 21:56 15.01.2020
727 Rain 15 1005 48 0 5.7 38 21:37 15.01.2020
728 Rain 15 1005 48 0 5.7 38 21:18 15.01.2020
729 Rain 15 1005 48 0 5.7 38 20:55 15.01.2020
730 Rain 15 1005 48 0 5.7 38 20:37 15.01.2020
731 Rain 16 1007 39 0 4.14 54 20:18 15.01.2020
732 Rain 16 1008 41 0 4.85 56 19:54 15.01.2020
733 Rain 16 1008 41 0 4.85 56 19:36 15.01.2020
734 Rain 16 1008 41 0 4.85 56 19:18 15.01.2020
735 Rain 16 1008 41 0 4.85 56 19:18 15.01.2020
736 Rain 16 1008 41 0 4.85 56 18:55 15.01.2020
737 Rain 16 1008 41 0 4.85 56 18:55 15.01.2020
738 Rain 16 1008 41 0 4.85 56 18:37 15.01.2020
739 Rain 16 1008 41 0 4.85 56 18:19 15.01.2020
740 Rain 16 1008 41 0 4.85 56 17:41 15.01.2020
741 Rain 16 1008 41 0 4.85 56 17:23 15.01.2020
742 Rain 14 1011 48 0 3.17 68 16:59 15.01.2020
743 Rain 14 1011 48 0 3.17 68 16:39 15.01.2020
744 Rain 14 1011 48 0 3.17 68 16:21 15.01.2020
745 Rain 14 1011 48 0 3.17 68 15:43 15.01.2020
746 Rain 14 1011 48 0 3.17 68 15:21 15.01.2020
747 Rain 14 1011 48 0 3.17 68 15:21 15.01.2020
748 Rain 14 1011 48 0 3.17 68 15:21 15.01.2020
749 Rain 14 1011 48 0 3.17 68 14:59 15.01.2020
750 Rain 14 1011 48 0 3.17 68 14:41 15.01.2020
751 Rain 10 1014 59 0 1.14 143 14:18 15.01.2020
752 Rain 10 1014 59 0 1.14 143 13:46 15.01.2020
753 Clouds 10 1014 59 0 1.04 125 13:26 15.01.2020
754 Clouds 10 1014 59 0 1.04 125 12:59 15.01.2020
755 Clouds 10 1014 59 0 1.04 125 12:39 15.01.2020
756 Clouds 10 1014 59 0 1.04 125 12:19 15.01.2020
757 Clouds 10 1014 59 0 1.04 125 11:56 15.01.2020
758 Clouds 10 1014 59 0 1.04 125 11:37 15.01.2020
759 Rain 8 1012 74 0 1.59 220 11:18 15.01.2020
760 Rain 8 1012 74 0 1.59 220 10:42 15.01.2020
761 Rain 8 1012 74 0 1.59 220 10:24 15.01.2020
762 Rain 8 1012 74 0 1.59 220 09:42 15.01.2020
763 Rain 8 1012 74 0 1.59 220 09:23 15.01.2020
764 Rain 8 1012 74 0 1.59 220 08:56 15.01.2020
765 Rain 8 1012 74 0 1.59 220 08:37 15.01.2020
766 Rain 7 1011 83 0 2.35 138 08:19 15.01.2020
767 Rain 7 1012 76 0 0.62 136 07:50 15.01.2020
768 Rain 7 1012 76 0 0.62 136 07:30 15.01.2020
769 Rain 7 1012 76 0 0.62 136 06:44 15.01.2020
770 Rain 7 1012 76 0 0.62 136 06:18 15.01.2020
771 Rain 7 1012 86 0 2.92 109 04:36 15.01.2020
772 Rain 7 1012 86 0 2.92 109 02:32 15.01.2020
773 Rain 9 1010 72 0 1.89 150 01:27 15.01.2020
774 Rain 9 1010 72 0 1.89 150 00:45 15.01.2020
775 Rain 9 1010 72 0 1.89 150 00:26 15.01.2020
776 Rain 9 1010 72 0 1.89 150 23:55 14.01.2020
777 Rain 9 1010 72 0 1.89 150 23:36 14.01.2020
778 Rain 11 1006 68 0 2.11 125 23:18 14.01.2020
779 Rain 11 1006 68 0 2.11 125 22:41 14.01.2020
780 Rain 11 1006 68 0 2.11 125 22:19 14.01.2020
781 Rain 11 1006 68 0 2.11 125 21:58 14.01.2020
782 Rain 11 1006 68 0 2.11 125 21:40 14.01.2020
783 Rain 11 1006 68 0 2.11 125 21:21 14.01.2020
784 Rain 11 1006 68 0 2.11 125 20:58 14.01.2020
785 Rain 11 1006 68 0 2.11 125 20:40 14.01.2020
786 Rain 13 1008 55 0 1.24 33 20:19 14.01.2020
787 Rain 13 1008 55 0 1.24 33 19:56 14.01.2020
788 Rain 13 1008 55 0 1.24 33 19:37 14.01.2020
789 Rain 13 1008 55 0 1.24 33 19:18 14.01.2020
790 Rain 13 1008 55 0 1.24 33 18:55 14.01.2020
791 Rain 13 1008 55 0 1.24 33 18:37 14.01.2020
792 Rain 13 1008 55 0 1.24 33 18:18 14.01.2020
793 Rain 13 1008 55 0 1.24 33 17:38 14.01.2020
794 Rain 12 1013 59 0 1.78 5 17:19 14.01.2020
795 Rain 12 1013 59 0 1.78 5 16:55 14.01.2020
796 Rain 12 1013 59 0 1.78 5 16:37 14.01.2020
797 Rain 12 1013 59 0 1.78 5 16:19 14.01.2020
798 Rain 12 1013 59 0 1.78 5 15:43 14.01.2020
799 Rain 12 1013 59 0 1.78 5 15:19 14.01.2020
800 Rain 12 1013 59 0 1.78 5 14:47 14.01.2020
801 Rain 12 1013 59 0 1.78 5 14:47 14.01.2020
802 -273 0 0 0 0 0 14:23 14.01.2020
803 Rain 8 1016 81 0 1.27 47 13:59 14.01.2020
804 Rain 8 1016 81 0 1.27 47 13:41 14.01.2020
805 Rain 8 1016 81 0 1.27 47 13:19 14.01.2020
806 Rain 8 1016 83 0 1.74 41 12:43 14.01.2020
807 Rain 8 1016 83 0 1.74 41 12:25 14.01.2020
808 Rain 8 1016 83 0 1.74 41 11:59 14.01.2020
809 Rain 8 1016 83 0 1.74 41 11:40 14.01.2020
810 Rain 8 1016 83 0 1.74 41 11:22 14.01.2020
811 Rain 7 1014 89 0 1.67 36 10:56 14.01.2020
812 Rain 7 1014 89 0 1.67 36 10:37 14.01.2020
813 Rain 7 1014 89 0 1.67 36 10:19 14.01.2020
814 Rain 7 1014 89 0 1.67 36 09:43 14.01.2020
815 Rain 7 1014 89 0 1.67 36 09:24 14.01.2020
816 Rain 7 1014 89 0 1.67 36 08:59 14.01.2020
817 Rain 7 1014 89 0 1.67 36 08:39 14.01.2020
818 Rain 7 1015 85 0 2.06 41 08:21 14.01.2020
819 Rain 7 1015 90 0 3.15 62 07:51 14.01.2020
820 Rain 7 1015 90 0 3.15 62 07:24 14.01.2020
821 Rain 7 1015 90 0 3.15 62 06:43 14.01.2020
822 Rain 7 1015 90 0 3.15 62 05:58 14.01.2020
823 Rain 8 1017 84 0 3.76 55 04:50 14.01.2020
824 Rain 8 1017 84 0 3.76 55 03:46 14.01.2020
825 Rain 8 1017 84 0 3.76 55 02:33 14.01.2020
826 Rain 8 1014 76 0 0.55 153 01:21 14.01.2020
827 Rain 8 1014 79 0 0.93 126 00:48 14.01.2020
828 Rain 8 1014 79 0 0.93 126 00:21 14.01.2020
829 Rain 8 1014 79 0 0.93 126 23:44 13.01.2020
830 Rain 10 1010 69 0 5.51 61 23:19 13.01.2020
831 Rain 10 1010 69 0 5.51 61 22:57 13.01.2020
832 Rain 10 1010 69 0 5.51 61 22:39 13.01.2020
833 Rain 10 1010 69 0 5.51 61 22:19 13.01.2020
834 Rain 10 1010 69 0 5.51 61 21:55 13.01.2020
835 Rain 10 1010 69 0 5.51 61 21:37 13.01.2020
836 Rain 10 1010 69 0 5.51 61 21:18 13.01.2020
837 Rain 10 1010 69 0 5.51 61 20:56 13.01.2020
838 Rain 10 1010 69 0 5.51 61 20:38 13.01.2020
839 Rain 13 1012 54 0 4.32 63 20:19 13.01.2020
840 Rain 13 1012 57 0 4.81 56 19:42 13.01.2020
841 Rain 13 1012 57 0 4.81 56 19:21 13.01.2020
842 Rain 13 1012 57 0 4.81 56 19:21 13.01.2020
843 Rain 13 1012 57 0 4.81 56 18:58 13.01.2020
844 Rain 13 1012 57 0 4.81 56 18:38 13.01.2020
845 Rain 13 1012 57 0 4.81 56 18:19 13.01.2020
846 Rain 13 1012 57 0 4.81 56 18:19 13.01.2020
847 Rain 13 1012 57 0 4.81 56 18:19 13.01.2020
848 Rain 13 1012 57 0 4.81 56 17:58 13.01.2020
849 Rain 13 1012 57 0 4.81 56 17:39 13.01.2020
850 Rain 11 1015 58 0 2.88 47 17:20 13.01.2020
851 Rain 11 1015 58 0 2.88 47 16:43 13.01.2020
852 Rain 11 1015 58 0 2.88 47 16:24 13.01.2020
853 Rain 11 1015 58 0 2.88 47 15:59 13.01.2020
854 Rain 11 1015 58 0 2.88 47 15:41 13.01.2020
855 Rain 11 1015 58 0 2.88 47 15:21 13.01.2020
856 Rain 11 1015 58 0 2.88 47 14:54 13.01.2020
857 Rain 11 1015 58 0 2.88 47 14:36 13.01.2020
858 Rain 7 1017 77 0 1.23 305 14:18 13.01.2020
859 Rain 7 1017 77 0 1.23 305 13:40 13.01.2020
860 Rain 7 1017 77 0 1.23 305 13:22 13.01.2020
861 Rain 8 1017 71 0 1.74 35 12:58 13.01.2020
862 Rain 8 1017 71 0 1.74 35 12:40 13.01.2020
863 Rain 8 1017 71 0 1.74 35 12:21 13.01.2020
864 Rain 8 1017 71 0 1.74 35 11:54 13.01.2020
865 Rain 8 1017 71 0 1.74 35 11:36 13.01.2020
866 Rain 7 1016 83 0 1.95 91 11:18 13.01.2020
867 Rain 7 1016 83 0 1.95 91 11:18 13.01.2020
868 Rain 7 1016 83 0 1.95 91 11:18 13.01.2020
869 Rain 7 1016 83 0 1.95 91 10:55 13.01.2020
870 Rain 7 1016 83 0 1.95 91 10:36 13.01.2020
871 Rain 7 1016 83 0 1.95 91 10:18 13.01.2020
872 Rain 7 1016 83 0 1.95 91 09:40 13.01.2020
873 Rain 7 1016 83 0 1.95 91 09:40 13.01.2020
874 Rain 7 1016 83 0 1.95 91 09:22 13.01.2020
875 Rain 7 1016 83 0 1.95 91 08:42 13.01.2020
876 Clouds 7 1015 81 0 1.17 5 08:21 13.01.2020
877 Rain 8 1015 72 0 1.17 75 07:54 13.01.2020
878 Rain 8 1015 72 0 1.17 75 07:35 13.01.2020
879 Rain 8 1015 72 0 1.17 75 06:51 13.01.2020
880 Rain 8 1015 72 0 1.17 75 06:22 13.01.2020
881 Rain 8 1015 72 0 1.17 75 05:36 13.01.2020
882 Rain 8 1015 78 0 2.14 76 04:25 13.01.2020
883 Rain 8 1015 78 0 2.14 76 03:26 13.01.2020
884 Rain 8 1015 78 0 2.14 76 02:47 13.01.2020
885 Rain 8 1015 78 0 2.14 76 02:29 13.01.2020
886 Rain 10 1013 71 0 3.23 108 01:22 13.01.2020
887 Rain 10 1013 71 0 3.23 108 01:22 13.01.2020
888 Rain 10 1013 71 0 3.23 108 00:42 13.01.2020
889 Rain 10 1013 71 0 3.23 108 00:24 13.01.2020
890 Rain 10 1013 71 0 3.23 108 23:55 12.01.2020
891 Rain 10 1013 71 0 3.23 108 23:36 12.01.2020
892 Rain 11 1011 65 0 3.18 144 23:18 12.01.2020
893 Rain 11 1011 65 0 3.18 144 23:18 12.01.2020
894 Rain 11 1011 65 0 3.18 144 22:42 12.01.2020
895 Rain 11 1011 65 0 3.18 144 22:24 12.01.2020
896 Rain 11 1011 65 0 3.18 144 22:24 12.01.2020
897 Rain 11 1011 65 0 3.18 144 21:57 12.01.2020
898 Rain 11 1011 65 0 3.18 144 21:38 12.01.2020
899 Rain 11 1011 65 0 3.18 144 21:19 12.01.2020
900 Rain 11 1011 65 0 3.18 144 20:57 12.01.2020
901 Rain 11 1011 65 0 3.18 144 20:38 12.01.2020
902 Rain 11 1013 59 0 1.4 68 20:20 12.01.2020
903 Rain 11 1013 59 0 1.4 68 19:56 12.01.2020
904 Rain 11 1013 59 0 1.4 68 19:38 12.01.2020
905 Rain 11 1013 59 0 1.4 68 19:19 12.01.2020
906 Rain 11 1013 59 0 1.4 68 18:57 12.01.2020
907 Rain 11 1013 59 0 1.4 68 18:39 12.01.2020
908 Rain 11 1013 59 0 1.4 68 18:21 12.01.2020
909 Rain 11 1013 59 0 1.4 68 17:55 12.01.2020
910 Rain 11 1013 59 0 1.4 68 17:37 12.01.2020
911 Rain 11 1018 57 0 1.65 65 17:18 12.01.2020
912 Rain 11 1018 57 0 1.65 65 16:54 12.01.2020
913 Rain 11 1018 57 0 1.65 65 16:36 12.01.2020
914 Rain 11 1018 57 0 1.65 65 16:18 12.01.2020
915 Rain 11 1018 57 0 1.65 65 15:42 12.01.2020
916 Rain 11 1018 57 0 1.65 65 15:23 12.01.2020
917 Rain 11 1018 57 0 1.65 65 14:55 12.01.2020
918 Rain 11 1018 57 0 1.65 65 14:36 12.01.2020
919 Rain 8 1020 65 0 0.81 54 14:18 12.01.2020
920 Rain 8 1020 65 0 0.81 54 13:42 12.01.2020
921 Rain 8 1020 65 0 0.81 54 13:23 12.01.2020
922 Rain 8 1020 69 0 0.92 183 12:58 12.01.2020
923 Rain 8 1020 69 0 0.92 183 12:38 12.01.2020
924 Rain 8 1020 69 0 0.92 183 12:19 12.01.2020
925 Rain 8 1020 69 0 0.92 183 11:57 12.01.2020
926 Rain 8 1020 69 0 0.92 183 11:38 12.01.2020
927 Rain 7 1018 78 0 1.88 304 11:19 12.01.2020
928 Rain 7 1018 78 0 1.88 304 10:41 12.01.2020
929 Rain 7 1018 78 0 1.88 304 10:21 12.01.2020
930 Rain 7 1018 78 0 1.88 304 09:57 12.01.2020
931 Rain 7 1018 78 0 1.88 304 09:38 12.01.2020
932 Rain 7 1018 78 0 1.88 304 09:18 12.01.2020
933 Rain 7 1018 78 0 1.88 304 08:44 12.01.2020
934 Rain 7 1017 83 0 2.13 33 08:20 12.01.2020
935 Rain 7 1017 83 0 2.13 33 07:40 12.01.2020
936 Rain 7 1017 83 0 2.13 33 07:22 12.01.2020
937 Rain 7 1017 83 0 2.13 33 06:43 12.01.2020
938 Rain 7 1017 83 0 2.13 33 06:24 12.01.2020
939 Rain 7 1017 83 0 2.13 33 05:24 12.01.2020
940 Rain 8 1018 77 0 2.71 83 03:55 12.01.2020
941 Rain 8 1018 77 0 2.71 83 03:23 12.01.2020
942 Rain 8 1018 77 0 2.71 83 02:33 12.01.2020
943 Rain 9 1015 76 0 2.28 36 01:43 12.01.2020
944 Rain 8 1015 78 0 2.84 50 01:22 12.01.2020
945 Rain 8 1015 78 0 2.84 50 00:41 12.01.2020
946 Rain 8 1015 78 0 2.84 50 00:20 12.01.2020
947 Rain 8 1015 78 0 2.84 50 23:42 11.01.2020
948 Rain 11 1011 65 0 4.38 47 23:20 11.01.2020
949 Rain 11 1011 65 0 4.38 47 22:58 11.01.2020
950 Rain 11 1011 65 0 4.38 47 22:40 11.01.2020
951 Rain 11 1011 65 0 4.38 47 22:20 11.01.2020
952 Rain 11 1011 65 0 4.38 47 21:58 11.01.2020
953 Rain 11 1011 65 0 4.38 47 21:39 11.01.2020
954 Rain 11 1011 65 0 4.38 47 21:39 11.01.2020
955 Rain 11 1011 65 0 4.38 47 21:18 11.01.2020
956 Rain 11 1011 65 0 4.38 47 20:40 11.01.2020
957 Rain 11 1011 66 0 4.6 47 20:22 11.01.2020
958 Rain 12 1013 53 0 4.45 46 19:58 11.01.2020
959 Rain 12 1013 53 0 4.45 46 19:39 11.01.2020
960 Rain 12 1013 53 0 4.45 46 19:21 11.01.2020
961 Rain 12 1013 53 0 4.45 46 18:59 11.01.2020
962 Rain 12 1013 53 0 4.45 46 18:39 11.01.2020
963 Rain 12 1013 53 0 4.45 46 18:20 11.01.2020
964 Rain 12 1013 53 0 4.45 46 17:57 11.01.2020
965 Rain 12 1013 53 0 4.45 46 17:57 11.01.2020
966 Rain 12 1013 53 0 4.45 46 17:39 11.01.2020
967 Clouds 11 1017 55 0 3.87 47 17:19 11.01.2020
968 Clouds 11 1017 55 0 3.87 47 16:45 11.01.2020
969 Clouds 11 1017 55 0 3.87 47 16:27 11.01.2020
970 Clouds 11 1017 55 0 3.87 47 15:59 11.01.2020
971 Clouds 11 1017 55 0 3.87 47 15:41 11.01.2020
972 Clouds 11 1017 55 0 3.87 47 15:22 11.01.2020
973 Clouds 11 1017 55 0 3.87 47 15:22 11.01.2020
974 Clouds 11 1017 55 0 3.87 47 14:57 11.01.2020
975 Clouds 11 1017 55 0 3.87 47 14:38 11.01.2020
976 Rain 7 1018 72 0 3.19 55 14:20 11.01.2020
977 Rain 7 1018 72 0 3.19 55 13:41 11.01.2020
978 Rain 7 1018 72 0 3.19 55 13:20 11.01.2020
979 Rain 8 1019 73 0 3.24 46 12:59 11.01.2020
980 Rain 8 1019 73 0 3.24 46 12:41 11.01.2020
981 Rain 8 1019 73 0 3.24 46 12:23 11.01.2020
982 Rain 8 1019 73 0 3.24 46 11:48 11.01.2020
983 Rain 8 1019 73 0 3.24 46 11:26 11.01.2020
984 Rain 7 1016 79 0 1.95 95 10:55 11.01.2020
985 Rain 7 1016 79 0 1.95 95 10:37 11.01.2020
986 Rain 7 1016 79 0 1.95 95 10:37 11.01.2020
987 Rain 7 1016 79 0 1.95 95 10:18 11.01.2020
988 Rain 7 1016 79 0 1.95 95 09:39 11.01.2020
989 Rain 7 1016 79 0 1.95 95 09:20 11.01.2020
990 Rain 7 1016 79 0 1.95 95 09:20 11.01.2020
991 Rain 7 1016 79 0 1.95 95 08:42 11.01.2020
992 Rain 7 1016 79 0 1.95 95 08:22 11.01.2020
993 Rain 8 1016 74 0 1.83 119 07:44 11.01.2020
994 Rain 8 1016 74 0 1.83 119 07:26 11.01.2020
995 Rain 8 1016 74 0 1.83 119 06:52 11.01.2020
996 Rain 8 1016 74 0 1.83 119 06:52 11.01.2020
997 Rain 8 1016 74 0 1.83 119 06:19 11.01.2020
998 Rain 10 1015 66 0 2.17 105 04:48 11.01.2020
999 Rain 10 1015 66 0 2.17 105 04:29 11.01.2020
1000 Rain 10 1015 66 0 2.17 105 03:28 11.01.2020
1001 Rain 10 1015 66 0 2.17 105 02:40 11.01.2020
1002 Rain 10 1013 68 0 3.3 72 01:44 11.01.2020
1003 Rain 10 1013 68 0 3.94 61 01:20 11.01.2020
1004 Rain 10 1013 68 0 3.94 61 00:43 11.01.2020
1005 Rain 10 1013 68 0 3.94 61 00:19 11.01.2020
1006 Rain 10 1013 68 0 3.94 61 23:41 10.01.2020
1007 Rain 10 1013 68 0 3.94 61 23:41 10.01.2020
1008 Rain 14 1008 48 0 6.99 73 23:22 10.01.2020
1009 Rain 14 1008 48 0 6.99 73 22:59 10.01.2020
1010 Rain 14 1008 48 0 6.99 73 22:40 10.01.2020
1011 Rain 14 1008 48 0 6.99 73 22:21 10.01.2020
1012 Rain 14 1008 48 0 6.99 73 21:57 10.01.2020
1013 Rain 14 1008 48 0 6.99 73 21:38 10.01.2020
1014 Rain 14 1008 48 0 6.99 73 21:19 10.01.2020
1015 Rain 14 1008 48 0 6.99 73 20:43 10.01.2020
1016 Rain 14 1008 48 0 6.99 73 20:25 10.01.2020
1017 Clear 16 1009 28 0 4.09 44 19:59 10.01.2020
1018 Clear 16 1009 28 0 4.09 44 19:38 10.01.2020
1019 Clear 16 1009 28 0 4.09 44 19:20 10.01.2020
1020 Clear 16 1009 28 0 4.09 44 18:44 10.01.2020
1021 Clear 16 1009 28 0 4.09 44 18:20 10.01.2020
1022 Clear 16 1009 28 0 4.09 44 17:58 10.01.2020
1023 Clear 16 1009 28 0 4.09 44 17:39 10.01.2020
1024 Clear 14 1012 32 0 3.25 64 17:21 10.01.2020
1025 Clear 14 1012 32 0 3.25 64 16:59 10.01.2020
1026 Clear 14 1012 32 0 3.25 64 16:41 10.01.2020
1027 Clouds 15 1039 62 10000 3.25 64 16:21 10.01.2020
1028 Clouds 15 1039 62 10000 3.25 64 15:56 10.01.2020
1029 Clouds 15 1039 62 10000 3.25 64 15:37 10.01.2020
1030 Clouds 15 1039 62 10000 3.25 64 15:19 10.01.2020
1031 Clouds 14 1039 67 10000 3.25 64 14:56 10.01.2020
1032 Clouds 14 1039 67 10000 3.25 64 14:38 10.01.2020
1033 Clouds 14 1039 67 10000 1.47 62 14:19 10.01.2020
1034 Clouds 11 1038 76 10000 1.47 62 13:45 10.01.2020
1035 Clouds 11 1038 76 10000 1.47 62 13:26 10.01.2020
1036 Clouds 9 1036 76 10000 1.33 54 12:59 10.01.2020
1037 Clouds 9 1036 76 10000 1.33 54 12:40 10.01.2020
1038 Clouds 9 1036 76 10000 1.33 54 12:21 10.01.2020
1039 Clouds 7 1036 87 10000 1.33 54 11:57 10.01.2020
1040 Clouds 7 1036 87 10000 1.33 54 11:39 10.01.2020
1041 Clouds 7 1036 87 10000 1.74 69 11:19 10.01.2020
1042 Rain 8 1013 73 0 1.74 69 10:58 10.01.2020
1043 Rain 8 1013 73 0 1.74 69 10:58 10.01.2020
1044 Rain 8 1013 73 0 1.74 69 10:38 10.01.2020
1045 Rain 8 1013 73 0 1.74 69 10:18 10.01.2020
1046 Rain 8 1013 73 0 1.74 69 09:45 10.01.2020
1047 Rain 8 1013 73 0 1.74 69 09:26 10.01.2020
1048 Rain 8 1013 73 0 1.74 69 08:56 10.01.2020
1049 Rain 8 1013 73 0 1.74 69 08:37 10.01.2020
1050 Rain 9 1012 68 0 2.74 43 08:18 10.01.2020
1051 Rain 9 1013 67 0 2.81 50 07:41 10.01.2020
1052 Rain 9 1013 67 0 2.81 50 07:19 10.01.2020
1053 Rain 9 1013 67 0 2.81 50 06:37 10.01.2020
1054 Rain 9 1013 67 0 2.81 50 06:19 10.01.2020
1055 Rain 10 1012 63 0 2.84 46 05:19 10.01.2020
1056 Rain 10 1012 63 0 2.84 46 03:32 10.01.2020
1057 Rain 10 1012 63 0 2.84 46 02:52 10.01.2020
1058 Rain 10 1012 63 0 2.84 46 02:33 10.01.2020
1059 Rain 11 1009 61 0 3.5 32 01:32 10.01.2020
1060 Rain 11 1009 63 0 3.88 52 00:53 10.01.2020
1061 Rain 11 1009 63 0 3.88 52 00:34 10.01.2020
1062 Rain 11 1009 63 0 3.88 52 23:57 09.01.2020
1063 Rain 11 1009 63 0 3.88 52 23:37 09.01.2020
1064 Clouds 16 1005 25 0 3.94 101 23:19 09.01.2020
1065 Clouds 16 1005 25 0 3.94 101 22:56 09.01.2020
1066 Clouds 16 1005 25 0 3.94 101 22:37 09.01.2020
1067 Clouds 16 1005 25 0 3.94 101 22:18 09.01.2020
1068 Clouds 16 1005 25 0 3.94 101 21:55 09.01.2020
1069 Clouds 16 1005 25 0 3.94 101 21:37 09.01.2020
1070 Clouds 16 1005 25 0 3.94 101 21:18 09.01.2020
1071 Clouds 16 1005 25 0 3.94 101 20:55 09.01.2020
1072 Clouds 16 1005 25 0 3.94 101 20:37 09.01.2020
1073 Clouds 20 1034 18 10000 4.1 70 20:18 09.01.2020
1074 Clouds 20 1034 18 10000 4.1 70 20:18 09.01.2020
1075 Clouds 20 1034 18 10000 4.1 70 19:39 09.01.2020
1076 Clouds 20 1034 18 10000 4.1 70 19:21 09.01.2020
1077 Clouds 19 1035 18 10000 2.6 70 18:59 09.01.2020
1078 Clouds 19 1035 18 10000 2.6 70 18:40 09.01.2020
1079 Clouds 19 1035 18 10000 2.6 70 18:21 09.01.2020
1080 Clear 18 1035 31 10000 1.5 70 17:58 09.01.2020
1081 Clear 18 1035 31 10000 1.5 70 17:40 09.01.2020
1082 Clear 18 1035 31 10000 1.5 70 17:18 09.01.2020
1083 Clear 17 1035 36 10000 2.6 70 16:46 09.01.2020
1084 Clear 17 1035 36 10000 2.6 70 16:22 09.01.2020
1085 Clear 15 1035 41 10000 2.1 100 15:43 09.01.2020
1086 Clear 15 1035 41 10000 2.1 100 15:25 09.01.2020
1087 Clear 13 1035 43 10000 1.5 220 14:59 09.01.2020
1088 Clear 13 1035 43 10000 1.5 220 14:41 09.01.2020
1089 Clouds 13 1035 43 10000 1.5 220 14:19 09.01.2020
1090 Clouds 10 1035 46 10000 2.6 210 13:57 09.01.2020
1091 Clouds 10 1035 46 10000 2.6 210 13:38 09.01.2020
1092 Clouds 10 1035 46 10000 2.6 210 13:19 09.01.2020
1093 Clouds 6 1035 60 10000 1.5 210 12:57 09.01.2020
1094 Clouds 6 1035 60 10000 1.5 210 12:38 09.01.2020
1095 Clouds 6 1035 60 10000 1.5 210 12:18 09.01.2020
1096 Clouds 10 1015 23 0 0.48 194 11:43 09.01.2020
1097 Clouds 10 1015 23 0 0.48 194 11:25 09.01.2020
1098 Clouds 8 1013 38 0 1.73 266 10:59 09.01.2020
1099 Clouds 8 1013 38 0 1.73 266 10:41 09.01.2020
1100 Clouds 8 1013 38 0 1.73 266 10:21 09.01.2020
1101 Clouds 8 1013 38 0 1.73 266 09:49 09.01.2020
1102 Clouds 8 1013 38 0 1.73 266 09:25 09.01.2020
1103 Clouds 8 1013 38 0 1.73 266 08:59 09.01.2020
1104 Clouds 8 1013 38 0 1.73 266 08:40 09.01.2020
1105 Clouds 9 1012 64 0 1.11 11 08:22 09.01.2020
1106 Clouds 9 1012 64 0 1.11 11 07:55 09.01.2020
1107 Clouds 9 1012 64 0 1.11 11 07:35 09.01.2020
1108 Clouds 9 1012 64 0 1.11 11 06:54 09.01.2020
1109 Clouds 9 1012 64 0 1.11 11 06:32 09.01.2020
1110 Clouds 9 1012 64 0 1.11 11 05:52 09.01.2020
1111 Clouds 9 1012 64 0 1.11 11 05:28 09.01.2020
1112 Clouds 11 1012 50 0 2.03 55 04:41 09.01.2020
1113 Clouds 11 1012 50 0 2.03 55 03:28 09.01.2020
1114 Clouds 11 1012 50 0 2.03 55 02:47 09.01.2020
1115 Clouds 13 1009 31 0 0.57 282 01:53 09.01.2020
1116 Clouds 13 1009 31 0 0.57 282 01:33 09.01.2020
1117 Clouds 13 1009 30 0 2.63 258 00:40 09.01.2020
1118 Clouds 13 1009 30 0 2.63 258 00:19 09.01.2020
1119 Clouds 13 1009 30 0 2.63 258 23:41 08.01.2020
1120 Clouds 13 1009 30 0 2.63 258 23:23 08.01.2020
1121 Clouds 16 1005 18 0 4.83 247 22:58 08.01.2020
1122 Clouds 16 1005 18 0 4.83 247 22:38 08.01.2020
1123 Clouds 16 1005 18 0 4.83 247 22:20 08.01.2020
1124 Clouds 16 1005 18 0 4.83 247 21:56 08.01.2020
1125 Clouds 16 1005 18 0 4.83 247 21:37 08.01.2020
1126 Clouds 16 1005 18 0 4.83 247 21:18 08.01.2020
1127 Clouds 16 1005 18 0 4.83 247 20:57 08.01.2020
1128 Clouds 16 1005 18 0 4.83 247 20:38 08.01.2020
1129 Clouds 16 1007 17 0 4.49 275 20:19 08.01.2020
1130 Clouds 16 1007 16 0 4.77 274 19:55 08.01.2020
1131 Clouds 16 1007 16 0 4.77 274 19:55 08.01.2020
1132 Clouds 16 1007 16 0 4.77 274 19:36 08.01.2020
1133 Clouds 16 1007 16 0 4.77 274 19:18 08.01.2020
1134 Clouds 16 1007 16 0 4.77 274 18:54 08.01.2020
1135 Clouds 16 1007 16 0 4.77 274 18:36 08.01.2020
1136 Clouds 16 1007 16 0 4.77 274 18:18 08.01.2020
1137 Clouds 16 1007 16 0 4.77 274 17:42 08.01.2020
1138 Clouds 16 1007 16 0 4.77 274 17:23 08.01.2020
1139 Clouds 14 1012 20 0 3.28 294 16:57 08.01.2020
1140 Clouds 14 1012 20 0 3.28 294 16:39 08.01.2020
1141 Clouds 9 1040 66 10000 3.28 294 16:19 08.01.2020
1142 Clouds 9 1040 66 10000 3.28 294 16:19 08.01.2020
1143 Clouds 9 1040 66 10000 3.28 294 15:56 08.01.2020
1144 Clouds 9 1040 66 10000 3.28 294 15:38 08.01.2020
1145 Clouds 9 1040 66 10000 3.28 294 15:18 08.01.2020
1146 Clouds 9 1040 66 10000 3.28 294 14:55 08.01.2020
1147 Clouds 9 1040 66 10000 3.28 294 14:36 08.01.2020
1148 Clouds 9 1040 66 10000 2.46 271 14:18 08.01.2020
1149 Clouds 9 1015 28 0 2.46 271 13:38 08.01.2020
1150 Clouds 9 1016 29 0 1.22 288 13:18 08.01.2020
1151 Clouds 9 1016 29 0 1.22 288 12:41 08.01.2020
1152 Clouds 9 1016 29 0 1.22 288 12:18 08.01.2020
1153 Clouds 9 1016 29 0 1.22 288 11:55 08.01.2020
1154 Clouds 9 1016 29 0 1.22 288 11:37 08.01.2020
1155 Clouds 7 1014 76 0 1.79 334 11:18 08.01.2020
1156 Clouds 7 1014 76 0 1.79 334 10:41 08.01.2020
1157 Clouds 7 1014 76 0 1.79 334 10:22 08.01.2020
1158 Clouds 7 1014 76 0 1.79 334 09:59 08.01.2020
1159 Clouds 7 1014 76 0 1.79 334 09:41 08.01.2020
1160 Clouds 7 1014 76 0 1.79 334 09:19 08.01.2020
1161 Clouds 7 1014 76 0 1.79 334 08:55 08.01.2020
1162 Clouds 7 1014 76 0 1.79 334 08:36 08.01.2020
1163 Clouds 8 1014 74 0 1.75 8 08:18 08.01.2020
1164 Clouds 8 1014 71 0 1.84 357 07:43 08.01.2020
1165 Clouds 8 1014 71 0 1.84 357 07:23 08.01.2020
1166 Clouds 8 1014 71 0 1.84 357 06:44 08.01.2020
1167 Clouds 8 1014 71 0 1.84 357 05:59 08.01.2020
1168 Clouds 8 1014 71 0 1.84 357 05:28 08.01.2020
1169 Rain 9 1014 64 0 1.94 50 04:54 08.01.2020
1170 Rain 9 1014 64 0 1.94 50 03:33 08.01.2020
1171 Rain 9 1014 64 0 1.94 50 02:44 08.01.2020
1172 Rain 11 1011 54 0 2.84 61 02:19 08.01.2020
1173 Rain 11 1011 54 0 2.84 61 01:40 08.01.2020
1174 Rain 11 1011 57 0 3.29 52 00:59 08.01.2020
1175 Rain 11 1011 57 0 3.29 52 00:27 08.01.2020
1176 Rain 11 1011 57 0 3.29 52 23:47 07.01.2020
1177 Clouds 15 1007 27 0 1.18 268 23:22 07.01.2020
1178 Clouds 15 1007 27 0 1.18 268 22:58 07.01.2020
1179 Clouds 15 1007 27 0 1.18 268 22:39 07.01.2020
1180 Clouds 15 1007 27 0 1.18 268 22:20 07.01.2020
1181 Clouds 15 1007 27 0 1.18 268 21:55 07.01.2020
1182 Clouds 15 1007 27 0 1.18 268 21:37 07.01.2020
1183 Clouds 15 1007 27 0 1.18 268 21:19 07.01.2020
1184 Clouds 15 1007 27 0 1.18 268 20:42 07.01.2020
1185 Clouds 16 1006 25 0 2.82 290 20:24 07.01.2020
1186 Clouds 15 1009 27 0 3.81 351 19:59 07.01.2020
1187 Clouds 15 1009 27 0 3.81 351 19:38 07.01.2020
1188 Clouds 15 1009 27 0 3.81 351 19:19 07.01.2020
1189 Clouds 15 1009 27 0 3.81 351 18:58 07.01.2020
1190 Clouds 15 1009 27 0 3.81 351 18:39 07.01.2020
1191 Clouds 15 1009 27 0 3.81 351 18:18 07.01.2020
1192 Clouds 15 1009 27 0 3.81 351 18:18 07.01.2020
1193 Clouds 15 1009 27 0 3.81 351 17:58 07.01.2020
1194 Clouds 15 1009 27 0 3.81 351 17:39 07.01.2020
1195 Clouds 12 1013 41 0 2.52 12 17:20 07.01.2020
1196 Clouds 12 1013 41 0 2.52 12 16:56 07.01.2020
1197 Clouds 12 1013 41 0 2.52 12 16:37 07.01.2020
1198 Clouds 12 1013 41 0 2.52 12 16:18 07.01.2020
1199 Clouds 12 1013 41 0 2.52 12 15:57 07.01.2020
1200 Clouds 12 1013 41 0 2.52 12 15:37 07.01.2020
1201 Clouds 12 1013 41 0 2.52 12 15:18 07.01.2020
1202 Clouds 12 1013 41 0 2.52 12 14:42 07.01.2020
1203 Clouds 12 1013 41 0 2.52 12 14:23 07.01.2020
1204 Clouds 7 1016 68 0 1.23 7 13:57 07.01.2020
1205 Clouds 7 1016 68 0 1.23 7 13:38 07.01.2020
1206 Clouds 7 1017 66 0 1.15 12 13:18 07.01.2020
1207 Clouds 7 1017 66 0 1.15 12 12:41 07.01.2020
1208 Clouds 7 1017 66 0 1.15 12 12:19 07.01.2020
1209 Clouds 7 1017 66 0 1.15 12 11:45 07.01.2020
1210 Clouds 7 1017 66 0 1.15 12 11:23 07.01.2020
1211 Clouds 6 1015 82 0 1.39 13 10:59 07.01.2020
1212 Clouds 6 1015 82 0 1.39 13 10:41 07.01.2020
1213 Clouds 6 1015 82 0 1.39 13 10:23 07.01.2020
1214 Clouds 6 1015 82 0 1.39 13 09:56 07.01.2020
1215 Clouds 6 1015 82 0 1.39 13 09:38 07.01.2020
1216 Clouds 6 1015 82 0 1.39 13 09:20 07.01.2020
1217 Clouds 6 1015 82 0 1.39 13 08:42 07.01.2020
1218 Clouds 6 1015 76 0 1.24 354 08:23 07.01.2020
1219 Rain 7 1014 68 0 1.48 7 07:54 07.01.2020
1220 Rain 7 1014 68 0 1.48 7 07:27 07.01.2020
1221 Rain 7 1014 68 0 1.48 7 06:53 07.01.2020
1222 Rain 7 1014 68 0 1.48 7 06:34 07.01.2020
1223 Rain 7 1014 68 0 1.48 7 05:54 07.01.2020
1224 Clear 9 1013 58 0 2.15 25 04:33 07.01.2020
1225 Clear 9 1013 58 0 2.15 25 03:26 07.01.2020
1226 Clouds 11 1009 31 0 1.6 337 02:22 07.01.2020
1227 Clouds 11 1009 31 0 1.6 337 01:51 07.01.2020
1228 Clouds 12 1009 31 0 0.87 290 01:28 07.01.2020
1229 Clouds 12 1009 31 0 0.87 290 00:37 07.01.2020
1230 Clouds 12 1009 31 0 0.87 290 00:18 07.01.2020
1231 Clouds 12 1009 31 0 0.87 290 23:39 06.01.2020
1232 Clear 15 1004 19 0 3.67 312 23:21 06.01.2020
1233 Clear 15 1004 19 0 3.67 312 22:58 06.01.2020
1234 Clear 15 1004 19 0 3.67 312 22:39 06.01.2020
1235 Clear 15 1004 19 0 3.67 312 22:21 06.01.2020
1236 Clear 15 1004 19 0 3.67 312 21:56 06.01.2020
1237 Clear 15 1004 19 0 3.67 312 21:38 06.01.2020
1238 Clear 15 1004 19 0 3.67 312 21:19 06.01.2020
1239 Clear 15 1004 19 0 3.67 312 20:56 06.01.2020
1240 Clear 15 1004 19 0 3.67 312 20:37 06.01.2020
1241 Clouds 15 1006 17 0 2.38 36 20:19 06.01.2020
1242 Clouds 15 1006 17 0 2.38 36 19:55 06.01.2020
1243 Clouds 15 1006 17 0 2.38 36 19:37 06.01.2020
1244 Clouds 15 1006 17 0 2.38 36 19:18 06.01.2020
1245 Clouds 15 1006 17 0 2.38 36 18:45 06.01.2020
1246 Clouds 15 1006 17 0 2.38 36 18:21 06.01.2020
1247 Clouds 15 1006 17 0 2.38 36 17:40 06.01.2020
1248 Clouds 12 1011 15 0 0.44 238 17:20 06.01.2020
1249 Clouds 12 1011 15 0 0.44 238 16:59 06.01.2020
1250 Clouds 12 1011 15 0 0.44 238 16:41 06.01.2020
1251 Clouds 12 1011 15 0 0.44 238 16:23 06.01.2020
1252 Clouds 12 1011 15 0 0.44 238 15:59 06.01.2020
1253 Clouds 12 1011 15 0 0.44 238 15:37 06.01.2020
1254 Clouds 12 1011 15 0 0.44 238 15:37 06.01.2020
1255 Clouds 12 1011 15 0 0.44 238 15:18 06.01.2020
1256 Clouds 12 1011 15 0 0.44 238 15:18 06.01.2020
1257 Clouds 12 1011 15 0 0.44 238 14:42 06.01.2020
1258 Clouds 12 1011 15 0 0.44 238 14:22 06.01.2020
1259 Clouds 7 1014 22 0 2.77 261 13:59 06.01.2020
1260 Clouds 7 1014 22 0 2.77 261 13:39 06.01.2020
1261 Clear 7 1014 23 0 2.58 261 13:21 06.01.2020
1262 Clear 7 1014 23 0 2.58 261 13:21 06.01.2020
1263 Clear 7 1014 23 0 2.58 261 12:58 06.01.2020
1264 Clear 7 1014 23 0 2.58 261 12:39 06.01.2020
1265 Clear 7 1014 23 0 2.58 261 12:39 06.01.2020
1266 Clear 7 1014 23 0 2.58 261 12:19 06.01.2020
1267 Clear 7 1014 23 0 2.58 261 11:43 06.01.2020
1268 Clear 7 1014 23 0 2.58 261 11:24 06.01.2020
1269 Clear 4 1012 41 0 2.24 264 11:00 06.01.2020
1270 Clear 4 1012 41 0 2.24 264 10:41 06.01.2020
1271 Clear 4 1012 41 0 2.24 264 10:21 06.01.2020
1272 Clear 4 1012 41 0 2.24 264 09:42 06.01.2020
1273 Clear 4 1012 41 0 2.24 264 09:24 06.01.2020
1274 Clear 4 1012 41 0 2.24 264 08:57 06.01.2020
1275 Clear 4 1012 41 0 2.24 264 08:38 06.01.2020
1276 Clear 4 1012 41 0 2.24 264 08:38 06.01.2020
1277 Clear 6 1011 39 0 3.06 244 08:19 06.01.2020
1278 Clear 6 1011 40 0 3.46 246 07:44 06.01.2020
1279 Clear 6 1011 40 0 3.46 246 06:55 06.01.2020
1280 Clear 6 1011 40 0 3.46 246 06:35 06.01.2020
1281 Clear 6 1011 40 0 3.46 246 05:48 06.01.2020
1282 Clear 6 1011 40 0 3.46 246 05:24 06.01.2020
1283 Clear 7 1011 48 0 4.23 268 04:24 06.01.2020
1284 Clear 7 1011 48 0 4.23 268 03:51 06.01.2020
1285 Clear 7 1011 48 0 4.23 268 02:29 06.01.2020
1286 Clouds 11 1008 39 0 5.27 258 01:54 06.01.2020
1287 Clouds 11 1008 39 0 5.27 258 01:31 06.01.2020
1288 Clouds 11 1008 39 0 4.33 259 00:48 06.01.2020
1289 Clouds 11 1008 39 0 4.33 259 00:29 06.01.2020
1290 Clouds 11 1008 39 0 4.33 259 23:59 05.01.2020
1291 Clouds 11 1008 39 0 4.33 259 23:40 05.01.2020
1292 Clouds 15 1004 35 0 5.48 251 23:21 05.01.2020
1293 Clouds 15 1004 35 0 5.48 251 22:40 05.01.2020
1294 Clouds 15 1004 35 0 5.48 251 22:21 05.01.2020
1295 Clouds 15 1004 35 0 5.48 251 21:58 05.01.2020
1296 Clouds 15 1004 35 0 5.48 251 21:40 05.01.2020
1297 Clouds 15 1004 35 0 5.48 251 21:20 05.01.2020
1298 Clouds 15 1004 35 0 5.48 251 20:58 05.01.2020
1299 Clouds 15 1004 35 0 5.48 251 20:39 05.01.2020
1300 Clouds 15 1007 40 0 7.01 267 20:19 05.01.2020
1301 Clouds 15 1007 40 0 7.01 267 19:59 05.01.2020
1302 Clouds 15 1007 40 0 7.01 267 19:39 05.01.2020
1303 Clouds 15 1007 40 0 7.01 267 19:20 05.01.2020
1304 Clouds 15 1007 40 0 7.01 267 18:56 05.01.2020
1305 Clouds 15 1007 40 0 7.01 267 18:38 05.01.2020
1306 Clouds 15 1007 40 0 7.01 267 18:19 05.01.2020
1307 Clouds 15 1007 40 0 7.01 267 18:19 05.01.2020
1308 Clouds 15 1007 40 0 7.01 267 17:58 05.01.2020
1309 Clouds 15 1007 40 0 7.01 267 17:39 05.01.2020
1310 Clouds 15 1007 40 0 7.01 267 17:39 05.01.2020
1311 Rain 11 1013 51 0 3.62 302 17:20 05.01.2020
1312 Rain 11 1013 51 0 3.62 302 16:57 05.01.2020
1313 Rain 11 1013 51 0 3.62 302 16:39 05.01.2020
1314 Rain 11 1013 51 0 3.62 302 16:39 05.01.2020
1315 Rain 11 1013 51 0 3.62 302 16:20 05.01.2020
1316 Rain 11 1013 51 0 3.62 302 15:40 05.01.2020
1317 Rain 11 1013 51 0 3.62 302 15:21 05.01.2020
1318 Rain 11 1013 51 0 3.62 302 14:57 05.01.2020
1319 Rain 11 1013 51 0 3.62 302 14:39 05.01.2020
1320 Rain 8 1016 68 0 1.36 344 14:20 05.01.2020
1321 Rain 8 1016 68 0 1.36 344 13:57 05.01.2020
1322 Rain 8 1016 68 0 1.36 344 13:38 05.01.2020
1323 Clouds 7 1016 67 0 0.85 3 13:20 05.01.2020
1324 Clouds 7 1016 67 0 0.85 3 13:20 05.01.2020
1325 Clouds 7 1016 67 0 0.85 3 12:56 05.01.2020
1326 Clouds 7 1016 67 0 0.85 3 12:37 05.01.2020
1327 Clouds 7 1016 67 0 0.85 3 12:19 05.01.2020
1328 Clouds 7 1016 67 0 0.85 3 12:19 05.01.2020
1329 Clouds 7 1016 67 0 0.85 3 11:54 05.01.2020
1330 Clouds 7 1016 67 0 0.85 3 11:36 05.01.2020
1331 Clouds 5 1015 88 0 1.57 25 11:18 05.01.2020
1332 Clouds 5 1015 88 0 1.57 25 10:40 05.01.2020
1333 Clouds 5 1015 88 0 1.57 25 10:20 05.01.2020
1334 Clouds 5 1015 88 0 1.57 25 09:43 05.01.2020
1335 Clouds 5 1015 88 0 1.57 25 09:22 05.01.2020
1336 Clouds 5 1015 88 0 1.57 25 08:56 05.01.2020
1337 Clouds 5 1015 88 0 1.57 25 08:38 05.01.2020
1338 Clouds 5 1014 92 0 1.95 57 08:20 05.01.2020
1339 Clouds 5 1014 92 0 1.95 57 07:44 05.01.2020
1340 Clouds 5 1014 92 0 1.95 57 07:44 05.01.2020
1341 Clouds 5 1014 92 0 1.95 57 07:26 05.01.2020
1342 Clouds 5 1014 92 0 1.95 57 06:54 05.01.2020
1343 Clouds 5 1014 92 0 1.95 57 05:41 05.01.2020
1344 Clouds 6 1015 88 0 2.65 23 04:56 05.01.2020
1345 Clouds 6 1015 88 0 2.65 23 04:19 05.01.2020
1346 Clouds 6 1015 88 0 2.65 23 04:19 05.01.2020
1347 Clouds 6 1015 88 0 2.65 23 03:31 05.01.2020
1348 Clouds 6 1015 88 0 2.65 23 02:33 05.01.2020
1349 Rain 8 1012 84 0 3.69 50 01:52 05.01.2020
1350 Rain 8 1012 84 0 3.69 50 01:20 05.01.2020
1351 Rain 8 1012 80 0 3.71 36 00:57 05.01.2020
1352 Rain 8 1012 80 0 3.71 36 00:39 05.01.2020
1353 Rain 8 1012 80 0 3.71 36 00:20 05.01.2020
1354 Rain 8 1012 80 0 3.71 36 23:41 04.01.2020
1355 Rain 10 1008 71 0 3.7 39 23:21 04.01.2020
1356 Rain 10 1008 71 0 3.7 39 22:59 04.01.2020
1357 Rain 10 1008 71 0 3.7 39 22:38 04.01.2020
1358 Rain 10 1008 71 0 3.7 39 22:20 04.01.2020
1359 Rain 10 1008 71 0 3.7 39 21:56 04.01.2020
1360 Rain 10 1008 71 0 3.7 39 21:37 04.01.2020
1361 Rain 10 1008 71 0 3.7 39 21:19 04.01.2020
1362 Rain 10 1008 71 0 3.7 39 20:55 04.01.2020
1363 Rain 10 1008 71 0 3.7 39 20:36 04.01.2020
1364 Rain 12 1010 64 0 2.11 76 20:18 04.01.2020
1365 Rain 12 1010 65 0 1.92 79 19:41 04.01.2020
1366 Rain 12 1010 65 0 1.92 79 19:41 04.01.2020
1367 Rain 12 1010 65 0 1.92 79 19:23 04.01.2020
1368 Rain 12 1010 65 0 1.92 79 18:57 04.01.2020
1369 Rain 12 1010 65 0 1.92 79 18:38 04.01.2020
1370 Rain 12 1010 65 0 1.92 79 18:20 04.01.2020
1371 Rain 12 1010 65 0 1.92 79 17:56 04.01.2020
1372 Rain 12 1010 65 0 1.92 79 17:38 04.01.2020
1373 Rain 11 1015 65 0 2.55 58 17:20 04.01.2020
1374 Rain 11 1015 65 0 2.55 58 16:42 04.01.2020
1375 Rain 11 1015 65 0 2.55 58 16:24 04.01.2020
1376 Rain 11 1015 65 0 2.55 58 15:57 04.01.2020
1377 Rain 11 1015 65 0 2.55 58 15:38 04.01.2020
1378 Rain 11 1015 65 0 2.55 58 15:19 04.01.2020
1379 Rain 11 1015 65 0 2.55 58 14:56 04.01.2020
1380 Rain 11 1015 65 0 2.55 58 14:38 04.01.2020
1381 Rain 7 1018 80 0 1.08 6 14:19 04.01.2020
1382 Rain 7 1018 80 0 1.08 6 14:19 04.01.2020
1383 Rain 7 1018 80 0 1.08 6 13:55 04.01.2020
1384 Rain 7 1018 80 0 1.08 6 13:36 04.01.2020
1385 Rain 8 1018 78 0 1.27 11 13:18 04.01.2020
1386 Rain 8 1018 78 0 1.27 11 12:41 04.01.2020
1387 Rain 8 1018 78 0 1.27 11 12:19 04.01.2020
1388 Rain 8 1018 78 0 1.27 11 11:58 04.01.2020
1389 Rain 8 1018 78 0 1.27 11 11:39 04.01.2020
1390 Rain 8 1018 78 0 1.27 11 11:39 04.01.2020
1391 Rain 6 1017 88 0 1.41 40 11:19 04.01.2020
1392 Rain 6 1017 88 0 1.41 40 10:42 04.01.2020
1393 Rain 6 1017 88 0 1.41 40 10:23 04.01.2020
1394 Rain 6 1017 88 0 1.41 40 09:59 04.01.2020
1395 Rain 6 1017 88 0 1.41 40 09:41 04.01.2020
1396 Rain 6 1017 88 0 1.41 40 09:21 04.01.2020
1397 Rain 6 1017 88 0 1.41 40 08:41 04.01.2020
1398 Rain 7 1017 83 0 1.44 31 08:21 04.01.2020
1399 Rain 7 1017 83 0 1.44 31 07:44 04.01.2020
1400 Rain 7 1017 83 0 1.44 31 07:21 04.01.2020
1401 Rain 7 1017 83 0 1.44 31 06:33 04.01.2020
1402 Rain 7 1017 83 0 1.44 31 05:39 04.01.2020
1403 Rain 8 1018 77 0 3.47 47 04:44 04.01.2020
1404 Rain 8 1018 77 0 3.47 47 04:25 04.01.2020
1405 Rain 8 1018 77 0 3.47 47 03:18 04.01.2020
1406 Rain 8 1018 77 0 3.47 47 02:23 04.01.2020
1407 Rain 9 1015 75 0 4.33 47 01:56 04.01.2020
1408 Rain 9 1015 75 0 4.33 47 01:32 04.01.2020
1409 Rain 10 1015 70 0 3.91 47 00:46 04.01.2020
1410 Rain 10 1015 70 0 3.91 47 00:27 04.01.2020
1411 Rain 10 1015 70 0 3.91 47 23:48 03.01.2020
1412 Rain 10 1015 70 0 3.91 47 23:26 03.01.2020
1413 Clouds 13 1012 52 0 3.58 69 22:54 03.01.2020
1414 Clouds 13 1012 52 0 3.58 69 22:36 03.01.2020
1415 Clouds 13 1012 52 0 3.58 69 22:18 03.01.2020
1416 Clouds 13 1012 52 0 3.58 69 21:54 03.01.2020
1417 Clouds 13 1012 52 0 3.58 69 21:36 03.01.2020
1418 Clouds 13 1012 52 0 3.58 69 21:18 03.01.2020
1419 Clouds 13 1012 52 0 3.58 69 20:42 03.01.2020
1420 Clouds 14 1014 38 0 3.29 43 20:19 03.01.2020
1421 Clouds 14 1014 38 0 3.2 50 19:58 03.01.2020
1422 Clouds 14 1014 38 0 3.2 50 19:39 03.01.2020
1423 Clouds 14 1014 38 0 3.2 50 19:21 03.01.2020
1424 Clouds 14 1014 38 0 3.2 50 18:44 03.01.2020
1425 Clouds 14 1014 38 0 3.2 50 18:44 03.01.2020
1426 Clouds 14 1014 38 0 3.2 50 18:26 03.01.2020
1427 Clouds 14 1014 38 0 3.2 50 17:57 03.01.2020
1428 Clouds 14 1014 38 0 3.2 50 17:39 03.01.2020
1429 Clouds 11 1019 49 0 2.82 50 17:19 03.01.2020
1430 Clouds 11 1019 49 0 2.82 50 16:43 03.01.2020
1431 Clouds 11 1019 49 0 2.82 50 16:24 03.01.2020
1432 Clouds 11 1019 49 0 2.82 50 15:59 03.01.2020
1433 Clouds 11 1019 49 0 2.82 50 15:41 03.01.2020
1434 Clouds 11 1019 49 0 2.82 50 15:19 03.01.2020
1435 Clouds 11 1019 49 0 2.82 50 14:39 03.01.2020
1436 Clouds 5 1021 86 0 0.55 255 14:20 03.01.2020
1437 Clouds 5 1021 86 0 0.55 255 13:57 03.01.2020
1438 Clouds 5 1021 86 0 0.55 255 13:38 03.01.2020
1439 Clouds 6 1021 81 0 1.22 43 13:20 03.01.2020
1440 Clouds 6 1021 81 0 1.22 43 12:40 03.01.2020
1441 Clouds 6 1021 81 0 1.22 43 12:21 03.01.2020
1442 Clouds 6 1021 81 0 1.22 43 12:21 03.01.2020
1443 Clouds 6 1021 81 0 1.22 43 11:49 03.01.2020
1444 Clouds 6 1021 81 0 1.22 43 11:31 03.01.2020
1445 Clouds 4 1019 97 0 1 31 10:57 03.01.2020
1446 Clouds 4 1019 97 0 1 31 10:38 03.01.2020
1447 Clouds 4 1019 97 0 1 31 10:20 03.01.2020
1448 Clouds 4 1019 97 0 1 31 09:54 03.01.2020
1449 Clouds 4 1019 97 0 1 31 09:36 03.01.2020
1450 Clouds 4 1019 97 0 1 31 09:18 03.01.2020
1451 Clouds 4 1019 97 0 1 31 08:44 03.01.2020
1452 Clouds 4 1019 94 0 1.94 47 08:21 03.01.2020
1453 Clouds 4 1019 94 0 1.94 47 07:42 03.01.2020
1454 Clouds 4 1019 94 0 1.94 47 07:19 03.01.2020
1455 Clouds 4 1019 94 0 1.94 47 06:57 03.01.2020
1456 Clouds 4 1019 94 0 1.94 47 06:39 03.01.2020
1457 Clouds 4 1019 94 0 1.94 47 06:20 03.01.2020
1458 Clouds 6 1019 87 0 2.29 46 04:43 03.01.2020
1459 Clouds 6 1019 87 0 2.29 46 03:38 03.01.2020
1460 Clouds 6 1019 87 0 2.29 46 02:53 03.01.2020
1461 Rain 7 1015 81 0 4.85 46 01:50 03.01.2020
1462 Rain 6 1015 81 0 4.96 46 01:18 03.01.2020
1463 Rain 6 1015 81 0 4.96 46 00:34 03.01.2020
1464 Rain 6 1015 81 0 4.96 46 23:59 02.01.2020
1465 Rain 6 1015 81 0 4.96 46 23:39 02.01.2020
1466 Rain 10 1011 64 0 5.07 62 23:20 02.01.2020
1467 Rain 10 1011 64 0 5.07 62 22:58 02.01.2020
1468 Rain 10 1011 64 0 5.07 62 22:40 02.01.2020
1469 Rain 10 1011 64 0 5.07 62 22:19 02.01.2020
1470 Rain 10 1011 64 0 5.07 62 21:56 02.01.2020
1471 Rain 10 1011 64 0 5.07 62 21:38 02.01.2020
1472 Rain 10 1011 64 0 5.07 62 21:19 02.01.2020
1473 Rain 10 1011 64 0 5.07 62 20:56 02.01.2020
1474 Rain 10 1011 64 0 5.07 62 20:37 02.01.2020
1475 Rain 10 1013 64 0 3.86 74 20:18 02.01.2020
1476 Rain 11 1014 60 0 4.37 70 19:54 02.01.2020
1477 Rain 11 1014 60 0 4.37 70 19:36 02.01.2020
1478 Rain 11 1014 60 0 4.37 70 19:18 02.01.2020
1479 Rain 11 1014 60 0 4.37 70 18:43 02.01.2020
1480 Rain 11 1014 60 0 4.37 70 18:24 02.01.2020
1481 Rain 11 1014 60 0 4.37 70 17:58 02.01.2020
1482 Rain 11 1014 60 0 4.37 70 17:39 02.01.2020
1483 Rain 7 1018 77 0 2.69 80 17:20 02.01.2020
1484 Rain 7 1018 77 0 2.69 80 16:58 02.01.2020
1485 Rain 7 1018 77 0 2.69 80 16:58 02.01.2020
1486 Rain 7 1018 77 0 2.69 80 16:40 02.01.2020
1487 Rain 7 1018 77 0 2.69 80 16:20 02.01.2020
1488 Rain 7 1018 77 0 2.69 80 15:58 02.01.2020
1489 Rain 7 1018 77 0 2.69 80 15:40 02.01.2020
1490 Rain 7 1018 77 0 2.69 80 15:22 02.01.2020
1491 Rain 7 1018 77 0 2.69 80 14:57 02.01.2020
1492 Rain 7 1018 77 0 2.69 80 14:36 02.01.2020
1493 Rain 6 1020 83 0 2.17 37 14:18 02.01.2020
1494 Rain 6 1020 83 0 2.17 37 13:50 02.01.2020
1495 Rain 6 1020 85 0 2.51 62 13:31 02.01.2020
1496 Rain 6 1020 85 0 2.51 62 12:46 02.01.2020
1497 Rain 6 1020 85 0 2.51 62 12:26 02.01.2020
1498 Rain 6 1020 85 0 2.51 62 11:59 02.01.2020
1499 Rain 6 1020 85 0 2.51 62 11:40 02.01.2020
1500 Rain 5 1018 89 0 2.66 32 11:20 02.01.2020
1501 Rain 5 1018 89 0 2.66 32 10:45 02.01.2020
1502 Rain 5 1018 89 0 2.66 32 10:26 02.01.2020
1503 Rain 5 1018 89 0 2.66 32 09:52 02.01.2020
1504 Rain 5 1018 89 0 2.66 32 09:33 02.01.2020
1505 Rain 5 1018 89 0 2.66 32 08:48 02.01.2020
1506 Rain 5 1018 89 0 2.99 35 08:27 02.01.2020
1507 Rain 6 1018 88 0 3.07 35 07:54 02.01.2020
1508 Rain 6 1018 88 0 3.07 35 07:31 02.01.2020
1509 Rain 6 1018 88 0 3.07 35 06:55 02.01.2020
1510 Rain 6 1018 88 0 3.07 35 06:55 02.01.2020
1511 Rain 6 1018 88 0 3.07 35 06:36 02.01.2020
1512 Rain 6 1018 88 0 3.07 35 05:36 02.01.2020
1513 Rain 7 1017 82 0 3.25 52 04:33 02.01.2020
1514 Rain 7 1017 82 0 3.25 52 03:19 02.01.2020
1515 Rain 8 1014 80 0 4.44 51 02:20 02.01.2020
1516 Rain 8 1014 80 0 4.44 51 01:47 02.01.2020
1517 Rain 8 1014 80 0 4.44 51 01:19 02.01.2020
1518 Rain 8 1015 79 0 4.15 53 00:36 02.01.2020
1519 Rain 8 1015 79 0 4.15 53 00:18 02.01.2020
1520 Rain 8 1015 79 0 4.15 53 23:40 01.01.2020
1521 Rain 10 1010 71 0 4.58 60 23:20 01.01.2020
1522 Rain 10 1010 71 0 4.58 60 22:38 01.01.2020
1523 Rain 10 1010 71 0 4.58 60 22:20 01.01.2020
1524 Rain 10 1010 71 0 4.58 60 21:57 01.01.2020
1525 Rain 10 1010 71 0 4.58 60 21:39 01.01.2020
1526 Rain 10 1010 71 0 4.58 60 21:20 01.01.2020
1527 Rain 10 1010 71 0 4.58 60 20:56 01.01.2020
1528 Rain 10 1010 71 0 4.58 60 20:38 01.01.2020
1529 Rain 12 1012 59 0 4.54 76 20:19 01.01.2020
1530 Rain 10 1013 68 0 4.66 63 19:55 01.01.2020
1531 Rain 10 1013 68 0 4.66 63 19:37 01.01.2020
1532 Rain 10 1013 68 0 4.66 63 19:19 01.01.2020
1533 Rain 10 1013 68 0 4.66 63 18:56 01.01.2020
1534 Rain 10 1013 68 0 4.66 63 18:36 01.01.2020
1535 Rain 10 1013 68 0 4.66 63 18:18 01.01.2020
1536 Rain 10 1013 68 0 4.66 63 17:56 01.01.2020
1537 Rain 10 1013 68 0 4.66 63 17:38 01.01.2020
1538 Rain 9 1017 70 0 3.89 64 17:19 01.01.2020
1539 Rain 9 1017 70 0 3.89 64 16:55 01.01.2020
1540 Rain 9 1017 70 0 3.89 64 16:36 01.01.2020
1541 Rain 9 1017 70 0 3.89 64 16:36 01.01.2020
1542 Rain 9 1017 70 0 3.89 64 16:18 01.01.2020
1543 Rain 9 1017 70 0 3.89 64 15:54 01.01.2020
1544 Rain 9 1017 70 0 3.89 64 15:36 01.01.2020
1545 Rain 9 1017 70 0 3.89 64 15:18 01.01.2020
1546 Rain 9 1017 70 0 3.89 64 14:40 01.01.2020
1547 Rain 6 1018 81 0 2.13 88 14:22 01.01.2020
1548 Rain 6 1018 81 0 2.13 88 13:56 01.01.2020
1549 Rain 6 1018 81 0 2.13 88 13:37 01.01.2020
1550 Rain 7 1019 81 0 3.27 99 13:19 01.01.2020
1551 Rain 7 1019 81 0 3.27 99 12:57 01.01.2020
1552 Rain 7 1019 81 0 3.27 99 12:39 01.01.2020
1553 Rain 7 1019 81 0 3.27 99 12:19 01.01.2020
1554 Rain 7 1019 81 0 3.27 99 11:55 01.01.2020
1555 Rain 7 1019 81 0 3.27 99 11:36 01.01.2020
1556 Rain 5 1017 85 0 1.26 23 11:18 01.01.2020
1557 Rain 5 1017 85 0 1.26 23 10:41 01.01.2020
1558 Rain 5 1017 85 0 1.26 23 10:21 01.01.2020
1559 Rain 5 1017 85 0 1.26 23 09:59 01.01.2020
1560 Rain 5 1017 85 0 1.26 23 09:38 01.01.2020
1561 Rain 5 1017 85 0 1.26 23 09:38 01.01.2020
1562 Rain 5 1017 85 0 1.26 23 09:19 01.01.2020
1563 Rain 5 1017 85 0 1.26 23 08:55 01.01.2020
1564 Rain 5 1017 85 0 1.26 23 08:37 01.01.2020
1565 Rain 5 1017 85 0 1.26 23 08:37 01.01.2020
1566 Rain 4 1017 94 0 2.04 18 08:19 01.01.2020
1567 Rain 4 1017 94 0 2.04 18 07:54 01.01.2020
1568 Rain 4 1017 94 0 2.04 18 07:36 01.01.2020
1569 Rain 4 1017 94 0 2.04 18 06:45 01.01.2020
1570 Rain 4 1017 94 0 2.04 18 06:21 01.01.2020
1571 Rain 4 1017 94 0 2.04 18 05:22 01.01.2020
1572 Rain 5 1017 88 0 1.89 8 03:46 01.01.2020
1573 Rain 5 1017 88 0 1.89 8 03:23 01.01.2020
1574 Rain 5 1017 88 0 1.89 8 03:23 01.01.2020
1575 Rain 5 1017 88 0 1.89 8 02:57 01.01.2020
1576 Rain 5 1017 88 0 1.89 8 02:37 01.01.2020
1577 Rain 7 1013 89 0 3 115 01:59 01.01.2020
1578 Rain 7 1013 89 0 3 115 01:38 01.01.2020
1579 Rain 8 1013 83 0 3.92 116 01:20 01.01.2020
1580 Rain 8 1013 83 0 3.92 116 00:44 01.01.2020
1581 Rain 8 1013 83 0 3.92 116 00:26 01.01.2020
1582 Rain 8 1013 83 0 3.92 116 23:42 31.12.2019
1583 Rain 10 1009 68 0 4.37 65 23:22 31.12.2019
1584 Rain 10 1009 68 0 4.37 65 22:59 31.12.2019
1585 Rain 10 1009 68 0 4.37 65 22:39 31.12.2019
1586 Rain 10 1009 68 0 4.37 65 22:20 31.12.2019
1587 Rain 10 1009 68 0 4.37 65 21:59 31.12.2019
1588 Rain 10 1009 68 0 4.37 65 21:41 31.12.2019
1589 Rain 10 1009 68 0 4.37 65 21:23 31.12.2019
1590 Rain 10 1009 68 0 4.37 65 20:57 31.12.2019
1591 Rain 10 1009 68 0 4.37 65 20:37 31.12.2019
1592 Rain 12 1010 62 0 4.44 67 20:19 31.12.2019
1593 Rain 12 1010 62 0 4.44 67 19:55 31.12.2019
1594 Rain 12 1010 62 0 4.44 67 19:37 31.12.2019
1595 Rain 12 1010 62 0 4.44 67 19:18 31.12.2019
1596 Rain 12 1010 62 0 4.44 67 18:55 31.12.2019
1597 Rain 12 1010 62 0 4.44 67 18:37 31.12.2019
1598 Rain 12 1010 62 0 4.44 67 18:18 31.12.2019
1599 Rain 12 1010 62 0 4.44 67 17:55 31.12.2019
1600 Rain 12 1010 62 0 4.44 67 17:36 31.12.2019
1601 Rain 11 1013 63 0 3.42 78 17:18 31.12.2019
1602 Rain 11 1013 63 0 3.42 78 16:55 31.12.2019
1603 Rain 11 1013 63 0 3.42 78 16:36 31.12.2019
1604 Rain 11 1013 63 0 3.42 78 16:18 31.12.2019
1605 Rain 11 1013 63 0 3.42 78 15:55 31.12.2019
1606 Rain 11 1013 63 0 3.42 78 15:37 31.12.2019
1607 Rain 11 1013 63 0 3.42 78 15:19 31.12.2019
1608 Rain 11 1013 63 0 3.42 78 14:55 31.12.2019
1609 Rain 11 1013 63 0 3.42 78 14:37 31.12.2019
1610 Rain 8 1016 75 0 1.31 59 14:18 31.12.2019
1611 Rain 8 1016 75 0 1.31 59 13:56 31.12.2019
1612 Rain 8 1016 75 0 1.31 59 13:37 31.12.2019
1613 Rain 6 1016 85 0 2.13 64 13:19 31.12.2019
1614 Rain 6 1016 85 0 2.13 64 12:55 31.12.2019
1615 Rain 6 1016 85 0 2.13 64 12:37 31.12.2019
1616 Rain 6 1016 85 0 2.13 64 12:37 31.12.2019
1617 Rain 6 1016 85 0 2.13 64 12:18 31.12.2019
1618 Rain 6 1016 85 0 2.13 64 12:18 31.12.2019
1619 Rain 6 1016 85 0 2.13 64 11:54 31.12.2019
1620 Rain 6 1016 85 0 2.13 64 11:36 31.12.2019
1621 Rain 6 1016 85 0 2.13 64 11:36 31.12.2019
1622 Rain 6 1014 86 0 1.1 55 11:18 31.12.2019
1623 Rain 6 1014 86 0 1.1 55 10:55 31.12.2019
1624 Rain 6 1014 86 0 1.1 55 10:37 31.12.2019
1625 Rain 6 1014 86 0 1.1 55 10:19 31.12.2019
1626 Rain 6 1014 86 0 1.1 55 09:56 31.12.2019
1627 Rain 6 1014 86 0 1.1 55 09:38 31.12.2019
1628 Rain 6 1014 86 0 1.1 55 09:18 31.12.2019
1629 Rain 6 1014 86 0 1.1 55 08:42 31.12.2019
1630 Rain 7 1015 87 0 2.21 60 08:22 31.12.2019
1631 Rain 7 1015 87 0 2.21 60 07:56 31.12.2019
1632 Rain 7 1015 87 0 2.21 60 07:37 31.12.2019
1633 Rain 7 1015 87 0 2.21 60 07:18 31.12.2019
1634 Rain 7 1015 87 0 2.21 60 06:29 31.12.2019
1635 Rain 7 1015 79 0 1.25 38 04:58 31.12.2019
1636 Rain 7 1015 79 0 1.25 38 04:25 31.12.2019
1637 Rain 7 1015 79 0 1.25 38 02:58 31.12.2019
1638 Rain 7 1015 79 0 1.25 38 02:34 31.12.2019
1639 Rain 8 1011 83 0 3.85 47 01:51 31.12.2019
1640 Rain 8 1011 83 0 3.85 47 01:32 31.12.2019
1641 Rain 8 1011 83 0 3.85 47 01:32 31.12.2019
1642 Rain 8 1011 81 0 2.91 41 00:54 31.12.2019
1643 Rain 8 1011 81 0 2.91 41 00:36 31.12.2019
1644 Rain 8 1011 81 0 2.91 41 00:18 31.12.2019
1645 Rain 8 1011 81 0 2.91 41 23:54 30.12.2019
1646 Rain 8 1011 81 0 2.91 41 23:36 30.12.2019
1647 Rain 11 1007 65 0 3.91 84 23:18 30.12.2019
1648 Rain 11 1007 65 0 3.91 84 22:54 30.12.2019
1649 Rain 11 1007 65 0 3.91 84 22:36 30.12.2019
1650 Rain 11 1007 65 0 3.91 84 22:18 30.12.2019
1651 Rain 11 1007 65 0 3.91 84 21:55 30.12.2019
1652 Rain 11 1007 65 0 3.91 84 21:36 30.12.2019
1653 Rain 11 1007 65 0 3.91 84 21:18 30.12.2019
1654 Rain 11 1007 65 0 3.91 84 20:41 30.12.2019
1655 Rain 12 1010 56 0 2.38 131 20:20 30.12.2019
1656 Rain 12 1010 56 0 2.38 131 19:59 30.12.2019
1657 Rain 12 1010 56 0 2.38 131 19:40 30.12.2019
1658 Rain 12 1010 56 0 2.38 131 19:20 30.12.2019
1659 Rain 12 1010 56 0 2.38 131 19:20 30.12.2019
1660 Rain 12 1010 56 0 2.38 131 18:59 30.12.2019
1661 Rain 12 1010 56 0 2.38 131 18:41 30.12.2019
1662 Rain 12 1010 56 0 2.38 131 18:21 30.12.2019
1663 Rain 12 1010 56 0 2.38 131 17:59 30.12.2019
1664 Rain 12 1010 56 0 2.38 131 17:40 30.12.2019
1665 Rain 10 1014 61 0 1.99 118 17:19 30.12.2019
1666 Rain 10 1014 61 0 1.99 118 16:59 30.12.2019
1667 Rain 10 1014 61 0 1.99 118 16:39 30.12.2019
1668 Rain 10 1014 61 0 1.99 118 16:20 30.12.2019
1669 Rain 10 1014 61 0 1.99 118 15:56 30.12.2019
1670 Rain 10 1014 61 0 1.99 118 15:38 30.12.2019
1671 Rain 10 1014 61 0 1.99 118 15:19 30.12.2019
1672 Rain 10 1014 61 0 1.99 118 15:19 30.12.2019
1673 Rain 10 1014 61 0 1.99 118 14:54 30.12.2019
1674 Rain 10 1014 61 0 1.99 118 14:36 30.12.2019
1675 Rain 7 1017 81 0 1.52 103 14:18 30.12.2019
1676 Rain 7 1017 81 0 1.52 103 13:41 30.12.2019
1677 Rain 6 1017 85 0 1.08 86 13:23 30.12.2019
1678 Rain 6 1017 85 0 1.08 86 12:58 30.12.2019
1679 Rain 6 1017 85 0 1.08 86 12:39 30.12.2019
1680 Rain 6 1017 85 0 1.08 86 12:19 30.12.2019
1681 Rain 6 1017 85 0 1.08 86 11:56 30.12.2019
1682 Rain 6 1017 85 0 1.08 86 11:37 30.12.2019
1683 Rain 6 1015 91 0 1.82 52 11:18 30.12.2019
1684 Rain 6 1015 91 0 1.82 52 10:42 30.12.2019
1685 Rain 6 1015 91 0 1.82 52 10:20 30.12.2019
1686 Rain 6 1015 91 0 1.82 52 09:55 30.12.2019
1687 Rain 6 1015 91 0 1.82 52 09:37 30.12.2019
1688 Rain 6 1015 91 0 1.82 52 09:18 30.12.2019
1689 Rain 6 1015 91 0 1.82 52 08:46 30.12.2019
1690 Rain 6 1015 89 0 1.08 75 08:23 30.12.2019
1691 Rain 6 1015 86 0 0.94 78 07:53 30.12.2019
1692 Rain 6 1015 86 0 0.94 78 07:32 30.12.2019
1693 Rain 6 1015 86 0 0.94 78 06:50 30.12.2019
1694 Rain 7 1017 85 0 2.49 64 04:45 30.12.2019
1695 Rain 7 1017 85 0 2.49 64 03:52 30.12.2019
1696 Rain 7 1017 85 0 2.49 64 02:47 30.12.2019
1697 Rain 7 1017 85 0 2.49 64 02:29 30.12.2019
1698 Rain 8 1014 78 0 2.49 113 01:47 30.12.2019
1699 Rain 8 1014 79 0 2.71 74 01:19 30.12.2019
1700 Rain 8 1014 79 0 2.71 74 00:42 30.12.2019
1701 Rain 8 1014 79 0 2.71 74 23:59 29.12.2019
1702 Rain 8 1014 79 0 2.71 74 23:38 29.12.2019
1703 Rain 10 1010 67 0 1.56 76 23:20 29.12.2019
1704 Rain 10 1010 67 0 1.56 76 22:41 29.12.2019
1705 Rain 10 1010 67 0 1.56 76 22:22 29.12.2019
1706 Rain 10 1010 67 0 1.56 76 21:57 29.12.2019
1707 Rain 10 1010 67 0 1.56 76 21:39 29.12.2019
1708 Rain 10 1010 67 0 1.56 76 21:20 29.12.2019
1709 Rain 10 1010 67 0 1.56 76 20:57 29.12.2019
1710 Rain 10 1010 67 0 1.56 76 20:38 29.12.2019
1711 Rain 11 1014 60 0 3.23 62 20:20 29.12.2019
1712 Rain 11 1014 60 0 3.23 62 19:58 29.12.2019
1713 Rain 11 1014 60 0 3.23 62 19:39 29.12.2019
1714 Rain 11 1014 60 0 3.23 62 19:20 29.12.2019
1715 Rain 11 1014 60 0 3.23 62 18:56 29.12.2019
1716 Rain 11 1014 60 0 3.23 62 18:38 29.12.2019
1717 Rain 11 1014 60 0 3.23 62 18:19 29.12.2019
1718 Rain 11 1014 60 0 3.23 62 18:19 29.12.2019
1719 Rain 11 1014 60 0 3.23 62 17:57 29.12.2019
1720 Rain 11 1014 60 0 3.23 62 17:38 29.12.2019
1721 Rain 7 1017 78 0 1.54 337 17:20 29.12.2019
1722 Rain 7 1017 78 0 1.54 337 16:56 29.12.2019
1723 Rain 7 1017 78 0 1.54 337 16:37 29.12.2019
1724 Rain 7 1017 78 0 1.54 337 16:19 29.12.2019
1725 Rain 7 1017 78 0 1.54 337 15:56 29.12.2019
1726 Rain 7 1017 78 0 1.54 337 15:38 29.12.2019
1727 Rain 7 1017 78 0 1.54 337 15:19 29.12.2019
1728 Rain 7 1017 78 0 1.54 337 14:55 29.12.2019
1729 Rain 7 1017 78 0 1.54 337 14:37 29.12.2019
1730 Rain 5 1019 87 0 0.8 25 14:18 29.12.2019
1731 Rain 5 1019 87 0 0.8 25 13:55 29.12.2019
1732 Rain 5 1019 87 0 0.8 25 13:55 29.12.2019
1733 Rain 5 1019 87 0 0.8 25 13:37 29.12.2019
1734 Rain 5 1019 87 0 0.8 25 13:18 29.12.2019
1735 Rain 5 1019 87 0 0.8 25 13:18 29.12.2019
1736 Rain 6 1019 90 0 1.87 38 12:44 29.12.2019
1737 Rain 6 1019 90 0 1.87 38 12:25 29.12.2019
1738 Rain 6 1019 90 0 1.87 38 12:25 29.12.2019
1739 Rain 6 1019 90 0 1.87 38 11:56 29.12.2019
1740 Rain 6 1019 90 0 1.87 38 11:38 29.12.2019
1741 Rain 6 1019 90 0 1.87 38 11:38 29.12.2019
1742 Rain 6 1016 84 0 1.19 23 11:20 29.12.2019
1743 Rain 6 1016 84 0 1.19 23 10:42 29.12.2019
1744 Rain 6 1016 84 0 1.19 23 10:24 29.12.2019
1745 Rain 6 1016 84 0 1.19 23 09:58 29.12.2019
1746 Rain 6 1016 84 0 1.19 23 09:39 29.12.2019
1747 Rain 6 1016 84 0 1.19 23 09:21 29.12.2019
1748 Rain 6 1016 84 0 1.19 23 08:47 29.12.2019
1749 Rain 6 1016 84 0 1.19 23 08:27 29.12.2019
1750 Rain 6 1016 85 0 2.95 52 07:55 29.12.2019
1751 Rain 6 1016 85 0 2.95 52 07:28 29.12.2019
1752 Rain 6 1016 85 0 2.95 52 06:56 29.12.2019
1753 Rain 6 1016 85 0 2.95 52 06:26 29.12.2019
1754 Rain 6 1016 85 0 2.95 52 05:52 29.12.2019
1755 Rain 7 1017 80 0 3.58 62 04:36 29.12.2019
1756 Rain 7 1017 80 0 3.58 62 03:54 29.12.2019
1757 Rain 7 1017 80 0 3.58 62 03:21 29.12.2019
1758 Rain 8 1015 81 0 4.1 54 02:20 29.12.2019
1759 Rain 8 1015 81 0 4.1 54 01:38 29.12.2019
1760 Rain 8 1015 79 0 4.48 55 01:19 29.12.2019
1761 Rain 8 1015 79 0 4.48 55 00:40 29.12.2019
1762 Rain 8 1015 79 0 4.48 55 00:22 29.12.2019
1763 Rain 8 1015 79 0 4.48 55 23:44 28.12.2019
1764 Rain 10 1011 66 0 4.85 35 23:18 28.12.2019
1765 Rain 10 1011 66 0 4.85 35 23:18 28.12.2019
1766 Rain 10 1011 66 0 4.85 35 22:39 28.12.2019
1767 Rain 10 1011 66 0 4.85 35 22:21 28.12.2019
1768 Rain 10 1011 66 0 4.85 35 21:58 28.12.2019
1769 Rain 10 1011 66 0 4.85 35 21:40 28.12.2019
1770 Rain 10 1011 66 0 4.85 35 21:21 28.12.2019
1771 Rain 10 1011 66 0 4.85 35 20:58 28.12.2019
1772 Rain 10 1011 66 0 4.85 35 20:38 28.12.2019
1773 Rain 12 1013 57 0 5.77 49 20:20 28.12.2019
1774 Rain 12 1013 57 0 5.77 49 19:58 28.12.2019
1775 Rain 12 1013 57 0 5.77 49 19:39 28.12.2019
1776 Rain 12 1013 57 0 5.77 49 19:21 28.12.2019
1777 Rain 12 1013 57 0 5.77 49 18:58 28.12.2019
1778 Rain 12 1013 57 0 5.77 49 18:40 28.12.2019
1779 Rain 12 1013 57 0 5.77 49 18:19 28.12.2019
1780 Rain 12 1013 57 0 5.77 49 17:55 28.12.2019
1781 Rain 12 1013 57 0 5.77 49 17:36 28.12.2019
1782 Rain 10 1017 56 0 4.75 65 17:18 28.12.2019
1783 Rain 10 1017 56 0 4.75 65 16:46 28.12.2019
1784 Rain 10 1017 56 0 4.75 65 16:26 28.12.2019
1785 Rain 10 1017 56 0 4.75 65 15:47 28.12.2019
1786 Rain 10 1017 56 0 4.75 65 15:24 28.12.2019
1787 Rain 10 1017 56 0 4.75 65 14:59 28.12.2019
1788 Rain 10 1017 56 0 4.75 65 14:39 28.12.2019
1789 Rain 5 1019 83 0 0.96 214 14:20 28.12.2019
1790 Rain 5 1019 83 0 0.96 214 13:56 28.12.2019
1791 Rain 5 1019 83 0 0.96 214 13:37 28.12.2019
1792 Rain 5 1019 83 0 0.96 214 13:18 28.12.2019
1793 Rain 4 1019 84 0 1.52 215 12:43 28.12.2019
1794 Rain 4 1019 84 0 1.52 215 12:43 28.12.2019
1795 Rain 4 1019 84 0 1.52 215 12:24 28.12.2019
1796 Rain 4 1019 84 0 1.52 215 11:56 28.12.2019
1797 Rain 4 1019 84 0 1.52 215 11:38 28.12.2019
1798 Rain 5 1017 90 0 4.21 70 11:19 28.12.2019
1799 Rain 5 1017 90 0 4.21 70 10:44 28.12.2019
1800 Rain 5 1017 90 0 4.21 70 10:22 28.12.2019
1801 Rain 5 1017 90 0 4.21 70 09:58 28.12.2019
1802 Rain 5 1017 90 0 4.21 70 09:40 28.12.2019
1803 Rain 5 1017 90 0 4.21 70 09:20 28.12.2019
1804 Rain 5 1017 90 0 4.21 70 08:44 28.12.2019
1805 Rain 5 1017 90 0 5.26 65 08:26 28.12.2019
1806 Rain 6 1017 83 0 2.33 56 07:55 28.12.2019
1807 Rain 6 1017 83 0 2.33 56 07:31 28.12.2019
1808 Rain 6 1017 83 0 2.33 56 06:41 28.12.2019
1809 Rain 7 1017 81 0 3.81 53 04:59 28.12.2019
1810 Rain 7 1017 81 0 3.81 53 03:47 28.12.2019
1811 Rain 7 1017 81 0 3.81 53 02:49 28.12.2019
1812 Rain 8 1014 76 0 4.74 58 01:59 28.12.2019
1813 Rain 9 1015 72 0 4.49 61 01:31 28.12.2019
1814 Rain 9 1015 72 0 4.49 61 00:58 28.12.2019
1815 Rain 9 1015 72 0 4.49 61 00:40 28.12.2019
1816 Rain 9 1015 72 0 4.49 61 00:20 28.12.2019
1817 Rain 9 1015 72 0 4.49 61 23:44 27.12.2019
1818 Rain 9 1015 72 0 4.49 61 23:44 27.12.2019
1819 Rain 12 1010 53 0 7.17 52 23:20 27.12.2019
1820 Rain 12 1010 53 0 7.17 52 22:58 27.12.2019
1821 Rain 12 1010 53 0 7.17 52 22:39 27.12.2019
1822 Rain 12 1010 53 0 7.17 52 22:20 27.12.2019
1823 Rain 12 1010 53 0 7.17 52 21:58 27.12.2019
1824 Rain 12 1010 53 0 7.17 52 21:37 27.12.2019
1825 Rain 12 1010 53 0 7.17 52 21:19 27.12.2019
1826 Rain 12 1010 53 0 7.17 52 20:42 27.12.2019
1827 Rain 12 1010 53 0 7.17 52 20:23 27.12.2019
1828 Rain 13 1011 45 0 5.49 66 19:54 27.12.2019
1829 Rain 13 1011 45 0 5.49 66 19:36 27.12.2019
1830 Rain 13 1011 45 0 5.49 66 19:18 27.12.2019
1831 Rain 13 1011 45 0 5.49 66 18:40 27.12.2019
1832 Rain 13 1011 45 0 5.49 66 18:22 27.12.2019
1833 Rain 13 1011 45 0 5.49 66 17:58 27.12.2019
1834 Rain 13 1011 45 0 5.49 66 17:40 27.12.2019
1835 Clouds 12 1015 45 0 3.73 79 17:19 27.12.2019
1836 Clouds 12 1015 45 0 3.73 79 16:59 27.12.2019
1837 Clouds 12 1015 45 0 3.73 79 16:39 27.12.2019
1838 Clouds 12 1015 45 0 3.73 79 16:20 27.12.2019
1839 Clouds 12 1015 45 0 3.73 79 15:45 27.12.2019
1840 Clouds 12 1015 45 0 3.73 79 15:24 27.12.2019
1841 Clouds 12 1015 45 0 3.73 79 14:58 27.12.2019
1842 Clouds 12 1015 45 0 3.73 79 14:40 27.12.2019
1843 Clouds 8 1018 63 0 1.54 55 14:22 27.12.2019
1844 Clouds 8 1018 63 0 1.54 55 13:58 27.12.2019
1845 Clouds 8 1018 63 0 1.54 55 13:40 27.12.2019
1846 Clouds 9 1018 61 0 0.81 63 13:21 27.12.2019
1847 Clouds 9 1018 61 0 0.81 63 12:44 27.12.2019
1848 Clouds 9 1018 61 0 0.81 63 12:26 27.12.2019
1849 Clouds 9 1018 61 0 0.81 63 12:26 27.12.2019
1850 Clouds 9 1018 61 0 0.81 63 11:56 27.12.2019
1851 Clouds 9 1018 61 0 0.81 63 11:38 27.12.2019
1852 Clouds 7 1017 81 0 0.45 271 11:19 27.12.2019
1853 Clouds 7 1017 81 0 0.45 271 10:45 27.12.2019
1854 Clouds 7 1017 81 0 0.45 271 10:23 27.12.2019
1855 Clouds 7 1017 81 0 0.45 271 09:55 27.12.2019
1856 Clouds 7 1017 81 0 0.45 271 09:37 27.12.2019
1857 Clouds 7 1017 81 0 0.45 271 09:19 27.12.2019
1858 Clouds 7 1017 81 0 0.45 271 08:43 27.12.2019
1859 Clouds 7 1017 81 0 0.45 271 08:25 27.12.2019
1860 Clouds 8 1016 76 0 0.98 266 07:38 27.12.2019
1861 Clouds 8 1016 76 0 0.98 266 07:19 27.12.2019
1862 Clouds 8 1016 76 0 0.98 266 06:25 27.12.2019
1863 Clouds 8 1018 74 0 2.14 62 04:40 27.12.2019
1864 Clouds 8 1018 74 0 2.14 62 02:29 27.12.2019
1865 Rain 9 1013 69 0 3.28 51 01:48 27.12.2019
1866 Rain 9 1013 69 0 3.28 51 01:23 27.12.2019
1867 Rain 9 1013 68 0 3.01 35 00:51 27.12.2019
1868 Rain 9 1013 68 0 3.01 35 00:33 27.12.2019
1869 Rain 9 1013 68 0 3.01 35 23:56 26.12.2019
1870 Rain 9 1013 68 0 3.01 35 23:38 26.12.2019
1871 Rain 12 1008 55 0 5.95 57 23:20 26.12.2019
1872 Rain 12 1008 55 0 5.95 57 22:41 26.12.2019
1873 Rain 12 1008 55 0 5.95 57 22:19 26.12.2019
1874 Rain 12 1008 55 0 5.95 57 21:55 26.12.2019
1875 Rain 12 1008 55 0 5.95 57 21:37 26.12.2019
1876 Rain 12 1008 55 0 5.95 57 21:19 26.12.2019
1877 Rain 12 1008 55 0 5.95 57 20:44 26.12.2019
1878 Rain 12 1008 55 0 5.95 57 20:44 26.12.2019
1879 Clear 14 1011 32 0 3.92 57 20:22 26.12.2019
1880 Clear 14 1011 32 0 3.92 57 19:58 26.12.2019
1881 Clear 14 1011 32 0 3.92 57 19:39 26.12.2019
1882 Clear 14 1011 32 0 3.92 57 19:20 26.12.2019
1883 Clear 14 1011 32 0 3.92 57 18:57 26.12.2019
1884 Clear 14 1011 32 0 3.92 57 18:38 26.12.2019
1885 Clear 14 1011 32 0 3.92 57 18:19 26.12.2019
1886 Clear 14 1011 32 0 3.92 57 17:42 26.12.2019
1887 Clear 12 1015 36 0 3.26 46 17:22 26.12.2019
1888 Clear 12 1015 36 0 3.26 46 16:58 26.12.2019
1889 Clear 12 1015 36 0 3.26 46 16:39 26.12.2019
1890 Clear 12 1015 36 0 3.26 46 16:20 26.12.2019
1891 Clear 12 1015 36 0 3.26 46 15:41 26.12.2019
1892 Clear 12 1015 36 0 3.26 46 15:41 26.12.2019
1893 Clear 12 1015 36 0 3.26 46 15:20 26.12.2019
1894 Clear 12 1015 36 0 3.26 46 14:58 26.12.2019
1895 Clear 12 1015 36 0 3.26 46 14:38 26.12.2019
1896 Clouds 7 1019 56 0 0.89 96 14:20 26.12.2019
1897 Clouds 7 1019 56 0 0.89 96 13:43 26.12.2019
1898 Clouds 7 1019 54 0 0.85 34 13:20 26.12.2019
1899 Clouds 7 1019 54 0 0.85 34 12:56 26.12.2019
1900 Clouds 7 1019 54 0 0.85 34 12:37 26.12.2019
1901 Clouds 7 1019 54 0 0.85 34 12:19 26.12.2019
1902 Clouds 7 1019 54 0 0.85 34 11:56 26.12.2019
1903 Clouds 7 1019 54 0 0.85 34 11:37 26.12.2019
1904 Clear 5 1018 72 0 0.86 196 11:19 26.12.2019
1905 Clear 5 1018 72 0 0.86 196 10:42 26.12.2019
1906 Clear 5 1018 72 0 0.86 196 10:18 26.12.2019
1907 Clear 5 1018 72 0 0.86 196 09:49 26.12.2019
1908 Clear 5 1018 72 0 0.86 196 09:31 26.12.2019
1909 Clear 5 1018 72 0 0.86 196 08:42 26.12.2019
1910 Clear 5 1018 82 0 0.3 108 08:24 26.12.2019
1911 Clouds 6 1018 75 0 0.81 96 07:53 26.12.2019
1912 Clouds 6 1018 75 0 0.81 96 07:27 26.12.2019
1913 Clouds 6 1018 75 0 0.81 96 06:53 26.12.2019
1914 Clouds 6 1018 75 0 0.81 96 06:32 26.12.2019
1915 Clouds 6 1018 75 0 0.81 96 05:45 26.12.2019
1916 Clouds 7 1018 66 0 3.66 63 04:57 26.12.2019
1917 Clouds 7 1018 66 0 3.66 63 04:30 26.12.2019
1918 Clouds 7 1018 66 0 3.66 63 02:56 26.12.2019
1919 Clouds 7 1018 66 0 3.66 63 02:34 26.12.2019
1920 Clouds 7 1018 66 0 3.66 63 02:34 26.12.2019
1921 Rain 7 1014 63 0 2.97 94 01:50 26.12.2019
1922 Rain 7 1014 63 0 2.97 94 01:32 26.12.2019
1923 Rain 6 1014 82 0 4.62 112 00:50 26.12.2019
1924 Rain 6 1014 82 0 4.62 112 00:27 26.12.2019
1925 Rain 6 1014 82 0 4.62 112 23:58 25.12.2019
1926 Rain 6 1014 82 0 4.62 112 23:39 25.12.2019
1927 Rain 11 1008 47 0 1.46 351 23:21 25.12.2019
1928 Rain 11 1008 47 0 1.46 351 22:59 25.12.2019
1929 Rain 11 1008 47 0 1.46 351 22:39 25.12.2019
1930 Rain 11 1008 47 0 1.46 351 22:21 25.12.2019
1931 Rain 11 1008 47 0 1.46 351 21:58 25.12.2019
1932 Rain 11 1008 47 0 1.46 351 21:39 25.12.2019
1933 Rain 11 1008 47 0 1.46 351 21:20 25.12.2019
1934 Rain 11 1008 47 0 1.46 351 20:56 25.12.2019
1935 Rain 11 1008 47 0 1.46 351 20:38 25.12.2019
1936 Clouds 16 1005 31 0 5.83 88 20:18 25.12.2019
1937 Clouds 16 1005 31 0 5.83 88 20:18 25.12.2019
1938 Clouds 16 1005 31 0 5.83 88 19:43 25.12.2019
1939 Clouds 16 1005 31 0 5.83 88 19:24 25.12.2019
1940 Clouds 16 1005 31 0 5.83 88 18:58 25.12.2019
1941 Clouds 16 1005 31 0 5.83 88 18:37 25.12.2019
1942 Clouds 16 1005 31 0 5.83 88 18:18 25.12.2019
1943 Clouds 16 1005 31 0 5.83 88 17:41 25.12.2019
1944 Clouds 15 1010 31 0 3.51 91 17:19 25.12.2019
1945 Clouds 15 1010 31 0 3.51 91 16:58 25.12.2019
1946 Clouds 15 1010 31 0 3.51 91 16:37 25.12.2019
1947 Clouds 15 1010 31 0 3.51 91 16:18 25.12.2019
1948 Clouds 15 1010 31 0 3.51 91 15:57 25.12.2019
1949 Clouds 15 1010 31 0 3.51 91 15:39 25.12.2019
1950 Clouds 15 1010 31 0 3.51 91 15:20 25.12.2019
1951 Clouds 15 1010 31 0 3.51 91 14:57 25.12.2019
1952 Clouds 15 1010 31 0 3.51 91 14:39 25.12.2019
1953 Clouds 11 1012 46 0 0.12 330 14:20 25.12.2019
1954 Clouds 11 1012 46 0 0.12 330 13:45 25.12.2019
1955 Clouds 11 1012 41 0 0.77 234 13:21 25.12.2019
1956 Clouds 11 1012 41 0 0.77 234 12:57 25.12.2019
1957 Clouds 11 1012 41 0 0.77 234 12:38 25.12.2019
1958 Clouds 11 1012 41 0 0.77 234 12:38 25.12.2019
1959 Clouds 11 1012 41 0 0.77 234 12:19 25.12.2019
1960 Clouds 11 1012 41 0 0.77 234 11:43 25.12.2019
1961 Clouds 11 1012 41 0 0.77 234 11:23 25.12.2019
1962 Clouds 8 1011 65 0 0.7 241 10:59 25.12.2019
1963 Clouds 8 1011 65 0 0.7 241 10:37 25.12.2019
1964 Clouds 8 1011 65 0 0.7 241 10:19 25.12.2019
1965 Clouds 8 1011 65 0 0.7 241 09:45 25.12.2019
1966 Clouds 8 1011 65 0 0.7 241 09:27 25.12.2019
1967 Clouds 8 1011 65 0 0.7 241 08:47 25.12.2019
1968 Clouds 8 1011 65 0 0.7 241 08:29 25.12.2019
1969 Clouds 8 1012 61 0 2.74 264 07:50 25.12.2019
1970 Clouds 8 1012 61 0 2.74 264 07:31 25.12.2019
1971 Clouds 8 1012 61 0 2.74 264 06:50 25.12.2019
1972 Clouds 8 1012 61 0 2.74 264 06:22 25.12.2019
1973 Rain 7 1013 73 0 3.03 308 05:18 25.12.2019
1974 Rain 7 1013 73 0 3.03 308 04:39 25.12.2019
1975 Rain 7 1013 73 0 3.03 308 04:20 25.12.2019
1976 Rain 7 1013 73 0 3.03 308 03:41 25.12.2019
1977 Rain 7 1013 73 0 3.03 308 02:51 25.12.2019
1978 Rain 8 1010 66 0 4.74 30 02:20 25.12.2019
1979 Rain 6 1011 83 0 3.71 59 01:25 25.12.2019
1980 Rain 6 1011 83 0 3.71 59 00:53 25.12.2019
1981 Rain 6 1011 83 0 3.71 59 00:30 25.12.2019
1982 Rain 6 1011 83 0 3.71 59 23:57 24.12.2019
1983 Rain 6 1011 83 0 3.71 59 23:38 24.12.2019
1984 Rain 11 1005 50 0 4.85 203 23:20 24.12.2019
1985 Rain 11 1005 50 0 4.85 203 22:41 24.12.2019
1986 Rain 11 1005 50 0 4.85 203 22:21 24.12.2019
1987 Rain 11 1005 50 0 4.85 203 21:44 24.12.2019
1988 Rain 11 1005 50 0 4.85 203 21:23 24.12.2019
1989 Rain 11 1005 50 0 4.85 203 20:59 24.12.2019
1990 Rain 11 1005 50 0 4.85 203 20:40 24.12.2019
1991 Clouds 15 1007 24 0 3.02 42 20:19 24.12.2019
1992 Clouds 15 1007 24 0 3.02 42 19:45 24.12.2019
1993 Clouds 15 1007 24 0 3.02 42 19:20 24.12.2019
1994 Clouds 15 1007 24 0 3.02 42 18:57 24.12.2019
1995 Clouds 15 1007 24 0 3.02 42 18:38 24.12.2019
1996 Clouds 15 1007 24 0 3.02 42 18:18 24.12.2019
1997 Clouds 15 1007 24 0 3.02 42 17:39 24.12.2019
1998 Clear 13 1013 34 0 2.96 51 17:21 24.12.2019
1999 Clear 13 1013 34 0 2.96 51 16:56 24.12.2019
2000 Clear 13 1013 34 0 2.96 51 16:38 24.12.2019
2001 Clear 13 1013 34 0 2.96 51 16:20 24.12.2019
2002 Clear 13 1013 34 0 2.96 51 15:56 24.12.2019
2003 Clear 13 1013 34 0 2.96 51 15:36 24.12.2019
2004 Clear 13 1013 34 0 2.96 51 15:18 24.12.2019
2005 Clear 13 1013 34 0 2.96 51 14:56 24.12.2019
2006 Clear 13 1013 34 0 2.96 51 14:38 24.12.2019
2007 Clouds 9 1017 50 0 0.39 46 14:20 24.12.2019
2008 Clouds 9 1017 50 0 0.39 46 13:55 24.12.2019
2009 Clouds 9 1017 50 0 0.39 46 13:55 24.12.2019
2010 Clouds 9 1017 50 0 0.39 46 13:37 24.12.2019
2011 Clouds 9 1016 48 0 1.24 359 13:19 24.12.2019
2012 Clouds 9 1016 48 0 1.24 359 12:55 24.12.2019
2013 Clouds 9 1016 48 0 1.24 359 12:36 24.12.2019
2014 Clouds 9 1016 48 0 1.24 359 12:18 24.12.2019
2015 Clouds 9 1016 48 0 1.24 359 11:55 24.12.2019
2016 Clouds 9 1016 48 0 1.24 359 11:55 24.12.2019
2017 Clouds 9 1016 48 0 1.24 359 11:37 24.12.2019
2018 Clouds 9 1016 48 0 1.24 359 11:37 24.12.2019
2019 Clouds 6 1016 69 0 1.1 264 11:18 24.12.2019
2020 Clouds 6 1016 69 0 1.1 264 10:56 24.12.2019
2021 Clouds 6 1016 69 0 1.1 264 10:37 24.12.2019
2022 Clouds 6 1016 69 0 1.1 264 10:19 24.12.2019
2023 Clouds 6 1016 69 0 1.1 264 09:55 24.12.2019
2024 Clouds 6 1016 69 0 1.1 264 09:37 24.12.2019
2025 Clouds 6 1016 69 0 1.1 264 09:18 24.12.2019
2026 Clouds 6 1016 69 0 1.1 264 08:44 24.12.2019
2027 Clouds 7 1017 74 0 1.58 226 08:21 24.12.2019
2028 Clouds 7 1017 74 0 1.58 226 07:46 24.12.2019
2029 Clouds 7 1017 74 0 1.58 226 07:26 24.12.2019
2030 Clouds 7 1017 74 0 1.58 226 07:26 24.12.2019
2031 Clouds 7 1017 74 0 1.58 226 06:58 24.12.2019
2032 Clouds 7 1017 74 0 1.58 226 06:38 24.12.2019
2033 Clouds 7 1017 74 0 1.58 226 06:19 24.12.2019
2034 Rain 7 1018 73 0 2.26 6 05:21 24.12.2019
2035 Rain 7 1018 73 0 2.26 6 04:59 24.12.2019
2036 Rain 7 1018 73 0 2.26 6 03:50 24.12.2019
2037 Rain 7 1018 73 0 2.26 6 03:23 24.12.2019
2038 Rain 7 1018 73 0 2.26 6 02:25 24.12.2019
2039 Rain 7 1016 62 0 3.1 137 01:51 24.12.2019
2040 Rain 7 1016 62 0 3.1 137 01:51 24.12.2019
2041 Rain 8 1016 58 0 1.72 162 01:23 24.12.2019
2042 Rain 8 1016 58 0 1.72 162 00:46 24.12.2019
2043 Rain 8 1016 58 0 1.72 162 00:26 24.12.2019
2044 Rain 8 1016 58 0 1.72 162 23:59 23.12.2019
2045 Rain 8 1016 58 0 1.72 162 23:41 23.12.2019
2046 Rain 8 1016 58 0 1.72 162 23:23 23.12.2019
2047 Rain 9 1011 59 0 2.02 90 22:56 23.12.2019
2048 Rain 9 1011 59 0 2.02 90 22:37 23.12.2019
2049 Rain 9 1011 59 0 2.02 90 22:37 23.12.2019
2050 Rain 9 1011 59 0 2.02 90 22:19 23.12.2019
2051 Rain 9 1011 59 0 2.02 90 21:55 23.12.2019
2052 Rain 9 1011 59 0 2.02 90 21:36 23.12.2019
2053 Rain 9 1011 59 0 2.02 90 21:36 23.12.2019
2054 Rain 9 1011 59 0 2.02 90 21:36 23.12.2019
2055 Rain 9 1011 59 0 2.02 90 21:18 23.12.2019
2056 Rain 9 1011 59 0 2.02 90 20:57 23.12.2019
2057 Rain 9 1011 59 0 2.02 90 20:39 23.12.2019
2058 Rain 12 1011 54 0 4.55 49 20:18 23.12.2019
2059 Rain 12 1011 55 0 5.16 72 19:56 23.12.2019
2060 Rain 12 1011 55 0 5.16 72 19:38 23.12.2019
2061 Rain 12 1011 55 0 5.16 72 19:19 23.12.2019
2062 Rain 12 1011 55 0 5.16 72 18:58 23.12.2019
2063 Rain 12 1011 55 0 5.16 72 18:58 23.12.2019
2064 Rain 12 1011 55 0 5.16 72 18:38 23.12.2019
2065 Rain 12 1011 55 0 5.16 72 18:20 23.12.2019
2066 Rain 12 1011 55 0 5.16 72 17:56 23.12.2019
2067 Rain 12 1011 55 0 5.16 72 17:38 23.12.2019
2068 Rain 12 1015 53 0 3.74 52 17:19 23.12.2019
2069 Rain 12 1015 53 0 3.74 52 16:55 23.12.2019
2070 Rain 12 1015 53 0 3.74 52 16:55 23.12.2019
2071 Rain 12 1015 53 0 3.74 52 16:36 23.12.2019
2072 Rain 12 1015 53 0 3.74 52 16:18 23.12.2019
2073 Rain 12 1015 53 0 3.74 52 15:55 23.12.2019
2074 Rain 12 1015 53 0 3.74 52 15:36 23.12.2019
2075 Rain 12 1015 53 0 3.74 52 15:18 23.12.2019
2076 Rain 12 1015 53 0 3.74 52 14:45 23.12.2019
2077 Rain 12 1015 53 0 3.74 52 14:26 23.12.2019
2078 Clouds 8 1018 68 0 1.42 10 13:59 23.12.2019
2079 Clouds 8 1018 68 0 1.42 10 13:41 23.12.2019
2080 Clouds 8 1018 75 0 1.7 25 13:22 23.12.2019
2081 Clouds 8 1018 75 0 1.7 25 12:59 23.12.2019
2082 Clouds 8 1018 75 0 1.7 25 12:40 23.12.2019
2083 Clouds 8 1018 75 0 1.7 25 12:21 23.12.2019
2084 Clouds 8 1018 75 0 1.7 25 12:21 23.12.2019
2085 Clouds 8 1018 75 0 1.7 25 11:55 23.12.2019
2086 Clouds 8 1018 75 0 1.7 25 11:37 23.12.2019
2087 Clouds 6 1017 84 0 1.29 304 11:18 23.12.2019
2088 Clouds 6 1017 84 0 1.29 304 10:54 23.12.2019
2089 Clouds 6 1017 84 0 1.29 304 10:36 23.12.2019
2090 Clouds 6 1017 84 0 1.29 304 10:18 23.12.2019
2091 Clouds 6 1017 84 0 1.29 304 09:54 23.12.2019
2092 Clouds 6 1017 84 0 1.29 304 09:36 23.12.2019
2093 Clouds 6 1017 84 0 1.29 304 09:18 23.12.2019
2094 Clouds 6 1017 84 0 1.29 304 08:41 23.12.2019
2095 Clouds 6 1016 85 0 1.64 84 08:22 23.12.2019
2096 Clouds 6 1016 85 0 1.64 84 07:49 23.12.2019
2097 Clouds 6 1016 85 0 1.64 84 07:22 23.12.2019
2098 Clouds 6 1016 85 0 1.64 84 06:57 23.12.2019
2099 Clouds 6 1016 85 0 1.64 84 06:30 23.12.2019
2100 Clouds 6 1016 85 0 1.64 84 05:56 23.12.2019
2101 Clouds 6 1016 85 0 1.64 84 05:33 23.12.2019
2102 Clouds 7 1017 76 0 2.06 318 04:40 23.12.2019
2103 Clouds 7 1017 76 0 2.06 318 03:36 23.12.2019
2104 Clouds 7 1017 76 0 2.06 318 02:43 23.12.2019
2105 Rain 6 1013 87 0 4.02 67 02:19 23.12.2019
2106 Rain 6 1013 87 0 4.02 67 01:45 23.12.2019
2107 Rain 5 1014 86 0 4.47 42 01:27 23.12.2019
2108 Rain 5 1014 86 0 4.47 42 00:45 23.12.2019
2109 Rain 5 1014 86 0 4.47 42 00:25 23.12.2019
2110 Rain 5 1014 86 0 4.47 42 23:56 22.12.2019
2111 Rain 5 1014 86 0 4.47 42 23:37 22.12.2019
2112 Rain 10 1008 67 0 5.47 23 23:18 22.12.2019
2113 Rain 10 1008 67 0 5.47 23 22:41 22.12.2019
2114 Rain 10 1008 67 0 5.47 23 22:22 22.12.2019
2115 Rain 10 1008 67 0 5.47 23 21:59 22.12.2019
2116 Rain 10 1008 67 0 5.47 23 21:40 22.12.2019
2117 Rain 10 1008 67 0 5.47 23 21:21 22.12.2019
2118 Rain 10 1008 67 0 5.47 23 20:59 22.12.2019
2119 Rain 10 1008 67 0 5.47 23 20:40 22.12.2019
2120 Rain 13 1010 47 0 2.98 50 20:19 22.12.2019
2121 Rain 13 1010 47 0 2.98 50 19:57 22.12.2019
2122 Rain 13 1010 47 0 2.98 50 19:39 22.12.2019
2123 Rain 13 1010 47 0 2.98 50 19:20 22.12.2019
2124 Rain 13 1010 47 0 2.98 50 18:44 22.12.2019
2125 Rain 13 1010 47 0 2.98 50 18:25 22.12.2019
2126 Rain 13 1010 47 0 2.98 50 17:58 22.12.2019
2127 Rain 13 1010 47 0 2.98 50 17:39 22.12.2019
2128 Clouds 12 1014 50 0 3.53 24 17:19 22.12.2019
2129 Clouds 12 1014 50 0 3.53 24 16:59 22.12.2019
2130 Clouds 12 1014 50 0 3.53 24 16:41 22.12.2019
2131 Clouds 12 1014 50 0 3.53 24 16:22 22.12.2019
2132 Clouds 12 1014 50 0 3.53 24 15:57 22.12.2019
2133 Clouds 12 1014 50 0 3.53 24 15:39 22.12.2019
2134 Clouds 12 1014 50 0 3.53 24 15:21 22.12.2019
2135 Clouds 12 1014 50 0 3.53 24 14:56 22.12.2019
2136 Clouds 12 1014 50 0 3.53 24 14:38 22.12.2019
2137 Clouds 8 1016 67 0 1.85 352 14:19 22.12.2019
2138 Clouds 8 1016 67 0 1.85 352 13:56 22.12.2019
2139 Clouds 8 1016 67 0 1.85 352 13:38 22.12.2019
2140 Clouds 8 1016 69 0 1.49 349 13:19 22.12.2019
2141 Clouds 8 1016 69 0 1.49 349 12:57 22.12.2019
2142 Clouds 8 1016 69 0 1.49 349 12:38 22.12.2019
2143 Clouds 8 1016 69 0 1.49 349 12:19 22.12.2019
2144 Clouds 8 1016 69 0 1.49 349 11:56 22.12.2019
2145 Clouds 8 1016 69 0 1.49 349 11:38 22.12.2019
2146 Clouds 8 1016 69 0 1.49 349 11:38 22.12.2019
2147 Clouds 7 1015 81 0 2.48 349 11:19 22.12.2019
2148 Clouds 7 1015 81 0 2.48 349 10:56 22.12.2019
2149 Clouds 7 1015 81 0 2.48 349 10:38 22.12.2019
2150 Clouds 7 1015 81 0 2.48 349 10:19 22.12.2019
2151 Clouds 7 1015 81 0 2.48 349 10:19 22.12.2019
2152 Clouds 7 1015 81 0 2.48 349 09:57 22.12.2019
2153 Clouds 7 1015 81 0 2.48 349 09:39 22.12.2019
2154 Clouds 7 1015 81 0 2.48 349 09:20 22.12.2019
2155 Clouds 7 1015 81 0 2.48 349 08:42 22.12.2019
2156 Rain 6 1014 88 0 1.75 33 08:22 22.12.2019
2157 Rain 6 1014 88 0 1.75 33 07:44 22.12.2019
2158 Rain 6 1014 88 0 1.75 33 07:21 22.12.2019
2159 Rain 6 1014 88 0 1.75 33 06:53 22.12.2019
2160 Rain 6 1014 88 0 1.75 33 06:26 22.12.2019
2161 Rain 6 1014 88 0 1.75 33 05:33 22.12.2019
2162 Clouds 7 1015 87 0 2.21 24 04:55 22.12.2019
2163 Clouds 7 1015 87 0 2.21 24 04:25 22.12.2019
2164 Clouds 7 1015 87 0 2.21 24 02:46 22.12.2019
2165 Clouds 7 1015 87 0 2.21 24 02:46 22.12.2019
2166 Clouds 7 1015 87 0 2.21 24 02:23 22.12.2019
2167 Rain 9 1011 71 0 3.48 43 01:31 22.12.2019
2168 Rain 7 1011 80 0 4.06 46 00:56 22.12.2019
2169 Rain 7 1011 80 0 4.06 46 00:36 22.12.2019
2170 Rain 7 1011 80 0 4.06 46 00:18 22.12.2019
2171 Rain 7 1011 80 0 4.06 46 23:41 21.12.2019
2172 Rain 9 1007 68 0 3.36 51 23:21 21.12.2019
2173 Rain 9 1007 68 0 3.36 51 22:57 21.12.2019
2174 Rain 9 1007 68 0 3.36 51 22:37 21.12.2019
2175 Rain 9 1007 68 0 3.36 51 22:18 21.12.2019
2176 Rain 9 1007 68 0 3.36 51 21:54 21.12.2019
2177 Rain 9 1007 68 0 3.36 51 21:36 21.12.2019
2178 Rain 9 1007 68 0 3.36 51 21:18 21.12.2019
2179 Rain 9 1007 68 0 3.36 51 20:56 21.12.2019
2180 Rain 9 1007 68 0 3.36 51 20:37 21.12.2019
2181 Rain 13 1009 49 0 3.7 21 20:19 21.12.2019
2182 Rain 13 1009 45 0 4.14 20 19:55 21.12.2019
2183 Rain 13 1009 45 0 4.14 20 19:36 21.12.2019
2184 Rain 13 1009 45 0 4.14 20 19:18 21.12.2019
2185 Rain 13 1009 45 0 4.14 20 18:41 21.12.2019
2186 Rain 13 1009 45 0 4.14 20 18:23 21.12.2019
2187 Rain 13 1009 45 0 4.14 20 18:23 21.12.2019
2188 Rain 13 1009 45 0 4.14 20 17:56 21.12.2019
2189 Rain 13 1009 45 0 4.14 20 17:38 21.12.2019
2190 Clouds 11 1013 56 0 3.43 21 17:20 21.12.2019
2191 Clouds 11 1013 56 0 3.43 21 16:57 21.12.2019
2192 Clouds 11 1013 56 0 3.43 21 16:38 21.12.2019
2193 Clouds 11 1013 56 0 3.43 21 16:18 21.12.2019
2194 Clouds 11 1013 56 0 3.43 21 15:55 21.12.2019
2195 Clouds 11 1013 56 0 3.43 21 15:37 21.12.2019
2196 Clouds 11 1013 56 0 3.43 21 15:18 21.12.2019
2197 Clouds 11 1013 56 0 3.43 21 14:42 21.12.2019
2198 Clouds 11 1013 56 0 3.43 21 14:23 21.12.2019
2199 Clouds 8 1016 68 0 3.08 43 13:58 21.12.2019
2200 Clouds 8 1016 68 0 3.08 43 13:39 21.12.2019
2201 Clouds 8 1016 68 0 3.08 43 13:19 21.12.2019
2202 Clouds 8 1015 67 0 3.54 43 12:56 21.12.2019
2203 Clouds 8 1015 67 0 3.54 43 12:38 21.12.2019
2204 Clouds 8 1015 67 0 3.54 43 12:38 21.12.2019
2205 Clouds 8 1015 67 0 3.54 43 12:38 21.12.2019
2206 Clouds 8 1015 67 0 3.54 43 12:20 21.12.2019
2207 Clouds 8 1015 67 0 3.54 43 11:55 21.12.2019
2208 Clouds 8 1015 67 0 3.54 43 11:37 21.12.2019
2209 Clouds 6 1013 77 0 2 51 11:19 21.12.2019
2210 Clouds 6 1013 77 0 2 51 10:41 21.12.2019
2211 Clouds 6 1013 77 0 2 51 10:22 21.12.2019
2212 Clouds 6 1013 77 0 2 51 09:58 21.12.2019
2213 Clouds 6 1013 77 0 2 51 09:39 21.12.2019
2214 Clouds 6 1013 77 0 2 51 09:20 21.12.2019
2215 Clouds 6 1013 77 0 2 51 08:52 21.12.2019
2216 Clouds 6 1013 77 0 2 51 08:27 21.12.2019
2217 Clouds 7 1012 72 0 0.89 243 07:58 21.12.2019
2218 Clouds 7 1012 72 0 0.89 243 07:40 21.12.2019
2219 Clouds 7 1012 72 0 0.89 243 07:21 21.12.2019
2220 Clouds 7 1012 72 0 0.89 243 06:41 21.12.2019
2221 Clouds 7 1012 72 0 0.89 243 06:23 21.12.2019
2222 Clouds 7 1012 72 0 0.89 243 05:37 21.12.2019
2223 Clouds 8 1013 73 0 3.02 34 04:55 21.12.2019
2224 Clouds 8 1013 73 0 3.02 34 03:56 21.12.2019
2225 Clouds 8 1013 73 0 3.02 34 02:26 21.12.2019
2226 Rain 9 1010 67 0 4.2 60 01:53 21.12.2019
2227 Rain 9 1010 67 0 4.2 60 01:26 21.12.2019
2228 Rain 8 1010 69 0 3.95 77 00:49 21.12.2019
2229 Rain 8 1010 69 0 3.95 77 00:28 21.12.2019
2230 Rain 8 1010 69 0 3.95 77 23:55 20.12.2019
2231 Rain 8 1010 69 0 3.95 77 23:36 20.12.2019
2232 Rain 8 1005 67 0 2.98 92 23:18 20.12.2019
2233 Rain 8 1005 67 0 2.98 92 22:40 20.12.2019
2234 Rain 8 1005 67 0 2.98 92 22:20 20.12.2019
2235 Rain 8 1005 67 0 2.98 92 21:57 20.12.2019
2236 Rain 8 1005 67 0 2.98 92 21:39 20.12.2019
2237 Rain 8 1005 67 0 2.98 92 21:39 20.12.2019
2238 Rain 8 1005 67 0 2.98 92 21:18 20.12.2019
2239 Rain 8 1005 67 0 2.98 92 20:39 20.12.2019
2240 Rain 11 1005 53 0 4.96 284 20:19 20.12.2019
2241 Rain 11 1005 53 0 4.96 284 19:57 20.12.2019
2242 Rain 11 1005 53 0 4.96 284 19:57 20.12.2019
2243 Rain 11 1005 53 0 4.96 284 19:39 20.12.2019
2244 Rain 11 1005 53 0 4.96 284 19:19 20.12.2019
2245 Rain 11 1005 53 0 4.96 284 18:42 20.12.2019
2246 Rain 11 1005 53 0 4.96 284 18:24 20.12.2019
2247 Rain 11 1005 53 0 4.96 284 17:59 20.12.2019
2248 Rain 11 1005 53 0 4.96 284 17:41 20.12.2019
2249 Clouds 14 1010 34 0 1.93 79 17:21 20.12.2019
2250 Clouds 14 1010 34 0 1.93 79 16:59 20.12.2019
2251 Clouds 14 1010 34 0 1.93 79 16:39 20.12.2019
2252 Clouds 14 1010 34 0 1.93 79 16:20 20.12.2019
2253 Clouds 14 1010 34 0 1.93 79 15:56 20.12.2019
2254 Clouds 14 1010 34 0 1.93 79 15:38 20.12.2019
2255 Clouds 14 1010 34 0 1.93 79 15:19 20.12.2019
2256 Clouds 14 1010 34 0 1.93 79 14:55 20.12.2019
2257 Clouds 14 1010 34 0 1.93 79 14:37 20.12.2019
2258 Clouds 10 1014 48 0 1.34 227 14:18 20.12.2019
2259 Clouds 10 1014 48 0 1.34 227 13:41 20.12.2019
2260 Clouds 10 1014 48 0 0.63 182 13:21 20.12.2019
2261 Clouds 10 1014 48 0 0.63 182 12:59 20.12.2019
2262 Clouds 10 1014 48 0 0.63 182 12:40 20.12.2019
2263 Clouds 10 1014 48 0 0.63 182 12:19 20.12.2019
2264 Clouds 10 1014 48 0 0.63 182 11:59 20.12.2019
2265 Clouds 10 1014 48 0 0.63 182 11:39 20.12.2019
2266 Clouds 7 1013 59 0 1.25 281 11:20 20.12.2019
2267 Clouds 7 1013 59 0 1.25 281 10:59 20.12.2019
2268 Clouds 7 1013 59 0 1.25 281 10:41 20.12.2019
2269 Clouds 7 1013 59 0 1.25 281 10:20 20.12.2019
2270 Clouds 7 1013 59 0 1.25 281 09:56 20.12.2019
2271 Clouds 7 1013 59 0 1.25 281 09:38 20.12.2019
2272 Clouds 7 1013 59 0 1.25 281 09:19 20.12.2019
2273 Clouds 7 1013 59 0 1.25 281 08:43 20.12.2019
2274 Clouds 7 1013 59 0 1.85 338 08:24 20.12.2019
2275 Rain 7 1014 65 0 4.3 275 07:58 20.12.2019
2276 Rain 7 1014 65 0 4.3 275 07:40 20.12.2019
2277 Rain 7 1014 65 0 4.3 275 07:19 20.12.2019
2278 Rain 7 1014 65 0 4.3 275 06:51 20.12.2019
2279 Rain 7 1014 65 0 4.3 275 06:31 20.12.2019
2280 Rain 7 1014 65 0 4.3 275 05:53 20.12.2019
2281 Rain 7 1014 65 0 4.3 275 05:35 20.12.2019
2282 Rain 7 1015 56 0 3.93 211 04:33 20.12.2019
2283 Rain 7 1015 56 0 3.93 211 03:30 20.12.2019
2284 Rain 7 1015 56 0 3.93 211 02:42 20.12.2019
2285 Rain 8 1012 69 0 2.59 141 01:49 20.12.2019
2286 Rain 9 1011 64 0 1.67 154 01:30 20.12.2019
2287 Rain 9 1011 64 0 1.67 154 00:43 20.12.2019
2288 Rain 9 1011 64 0 1.67 154 00:23 20.12.2019
2289 Rain 9 1011 64 0 1.67 154 23:44 19.12.2019
2290 Rain 9 1011 64 0 1.67 154 23:25 19.12.2019
2291 Clouds 13 1006 42 0 5.68 43 22:59 19.12.2019
2292 Clouds 13 1006 42 0 5.68 43 22:37 19.12.2019
2293 Clouds 13 1006 42 0 5.68 43 22:18 19.12.2019
2294 Clouds 13 1006 42 0 5.68 43 21:55 19.12.2019
2295 Clouds 13 1006 42 0 5.68 43 21:37 19.12.2019
2296 Clouds 13 1006 42 0 5.68 43 21:18 19.12.2019
2297 Clouds 13 1006 42 0 5.68 43 21:18 19.12.2019
2298 Clouds 13 1006 42 0 5.68 43 20:55 19.12.2019
2299 Clouds 13 1006 42 0 5.68 43 20:36 19.12.2019
2300 Clouds 15 1008 23 0 3.88 43 20:18 19.12.2019
2301 Clouds 15 1008 23 0 3.88 43 19:54 19.12.2019
2302 Clouds 15 1008 23 0 3.88 43 19:54 19.12.2019
2303 Clouds 15 1008 23 0 3.88 43 19:36 19.12.2019
2304 Clouds 15 1008 23 0 3.88 43 19:18 19.12.2019
2305 Clouds 15 1008 23 0 3.88 43 18:41 19.12.2019
2306 Clouds 15 1008 23 0 3.88 43 18:22 19.12.2019
2307 Clouds 15 1008 23 0 3.88 43 17:57 19.12.2019
2308 Clouds 15 1008 23 0 3.88 43 17:39 19.12.2019
2309 Clouds 13 1013 33 0 3.08 65 17:19 19.12.2019
2310 Clouds 13 1013 33 0 3.08 65 16:57 19.12.2019
2311 Clouds 13 1013 33 0 3.08 65 16:39 19.12.2019
2312 Clouds 13 1013 33 0 3.08 65 16:21 19.12.2019
2313 Clouds 13 1013 33 0 3.08 65 15:59 19.12.2019
2314 Clouds 13 1013 33 0 3.08 65 15:39 19.12.2019
2315 Clouds 13 1013 33 0 3.08 65 15:20 19.12.2019
2316 Clouds 13 1013 33 0 3.08 65 15:20 19.12.2019
2317 Clouds 13 1013 33 0 3.08 65 14:59 19.12.2019
2318 Clouds 13 1013 33 0 3.08 65 14:40 19.12.2019
2319 Clouds 8 1015 55 0 0.19 350 14:19 19.12.2019
2320 Clouds 8 1015 55 0 0.19 350 13:57 19.12.2019
2321 Clouds 8 1015 55 0 0.19 350 13:37 19.12.2019
2322 Clouds 8 1016 58 0 0.71 32 13:18 19.12.2019
2323 Clouds 8 1016 58 0 0.71 32 12:55 19.12.2019
2324 Clouds 8 1016 58 0 0.71 32 12:36 19.12.2019
2325 Clouds 8 1016 58 0 0.71 32 12:18 19.12.2019
2326 Clouds 8 1016 58 0 0.71 32 11:56 19.12.2019
2327 Clouds 8 1016 58 0 0.71 32 11:38 19.12.2019
2328 Clouds 6 1014 73 0 0.76 9 11:18 19.12.2019
2329 Clouds 6 1014 73 0 0.76 9 10:39 19.12.2019
2330 Clouds 6 1014 73 0 0.76 9 10:20 19.12.2019
2331 Clouds 6 1014 73 0 0.76 9 10:20 19.12.2019
2332 Clouds 6 1014 73 0 0.76 9 09:59 19.12.2019
2333 Clouds 6 1014 73 0 0.76 9 09:38 19.12.2019
2334 Clouds 6 1014 73 0 0.76 9 09:20 19.12.2019
2335 Clouds 6 1014 73 0 0.76 9 08:57 19.12.2019
2336 Clouds 6 1014 73 0 0.76 9 08:39 19.12.2019
2337 Clouds 7 1014 60 0 0.75 39 08:19 19.12.2019
2338 Clouds 7 1014 65 0 0.73 346 07:56 19.12.2019
2339 Clouds 7 1014 65 0 0.73 346 07:37 19.12.2019
2340 Clouds 7 1014 65 0 0.73 346 07:19 19.12.2019
2341 Clouds 7 1014 65 0 0.73 346 06:46 19.12.2019
2342 Clouds 7 1014 65 0 0.73 346 06:27 19.12.2019
2343 Clouds 7 1014 65 0 0.73 346 05:52 19.12.2019
2344 Clouds 7 1014 65 0 0.73 346 05:32 19.12.2019
2345 Rain 7 1015 65 0 2.12 328 04:48 19.12.2019
2346 Rain 7 1015 65 0 2.12 328 02:49 19.12.2019
2347 Rain 8 1012 62 0 3.31 163 01:47 19.12.2019
2348 Rain 9 1012 57 0 2.37 115 01:22 19.12.2019
2349 Rain 9 1012 57 0 2.37 115 00:39 19.12.2019
2350 Rain 9 1012 57 0 2.37 115 00:39 19.12.2019
2351 Rain 9 1012 57 0 2.37 115 00:39 19.12.2019
2352 Rain 9 1012 57 0 2.37 115 00:39 19.12.2019
2353 Rain 9 1012 57 0 2.37 115 00:20 19.12.2019
2354 Rain 9 1012 57 0 2.37 115 23:55 18.12.2019
2355 Rain 9 1012 57 0 2.37 115 23:36 18.12.2019
2356 Rain 9 1007 60 0 3.25 328 23:18 18.12.2019
2357 Rain 9 1007 60 0 3.25 328 22:55 18.12.2019
2358 Rain 9 1007 60 0 3.25 328 22:36 18.12.2019
2359 Rain 9 1007 60 0 3.25 328 22:18 18.12.2019
2360 Rain 9 1007 60 0 3.25 328 21:55 18.12.2019
2361 Rain 9 1007 60 0 3.25 328 21:36 18.12.2019
2362 Rain 9 1007 60 0 3.25 328 21:18 18.12.2019
2363 Rain 9 1007 60 0 3.25 328 20:54 18.12.2019
2364 Rain 9 1007 60 0 3.25 328 20:36 18.12.2019
2365 Rain 14 1007 34 0 6.34 56 20:18 18.12.2019
2366 Rain 14 1007 34 0 6.34 56 19:54 18.12.2019
2367 Rain 14 1007 34 0 6.34 56 19:54 18.12.2019
2368 Rain 14 1007 34 0 6.34 56 19:36 18.12.2019
2369 Rain 14 1007 34 0 6.34 56 19:18 18.12.2019
2370 Rain 14 1007 34 0 6.34 56 18:43 18.12.2019
2371 Rain 14 1007 34 0 6.34 56 18:25 18.12.2019
2372 Rain 14 1007 34 0 6.34 56 17:56 18.12.2019
2373 Rain 14 1007 34 0 6.34 56 17:38 18.12.2019
2374 Clouds 12 1012 49 0 3.29 46 17:19 18.12.2019
2375 Clouds 12 1012 49 0 3.29 46 16:54 18.12.2019
2376 Clouds 12 1012 49 0 3.29 46 16:36 18.12.2019
2377 Clouds 12 1012 49 0 3.29 46 16:18 18.12.2019
2378 Clouds 12 1012 49 0 3.29 46 15:54 18.12.2019
2379 Clouds 12 1012 49 0 3.29 46 15:36 18.12.2019
2380 Clouds 12 1012 49 0 3.29 46 15:18 18.12.2019
2381 Clouds 12 1012 49 0 3.29 46 14:40 18.12.2019
2382 Clouds 7 1016 66 0 1.45 355 14:20 18.12.2019
2383 Clouds 7 1016 66 0 1.45 355 13:57 18.12.2019
2384 Clouds 7 1016 66 0 1.45 355 13:37 18.12.2019
2385 Clouds 7 1016 66 0 1.45 355 13:19 18.12.2019
2386 Clouds 7 1016 68 0 0.95 342 12:57 18.12.2019
2387 Clouds 7 1016 68 0 0.95 342 12:38 18.12.2019
2388 Clouds 7 1016 68 0 0.95 342 12:19 18.12.2019
2389 Clouds 7 1016 68 0 0.95 342 11:55 18.12.2019
2390 Clouds 7 1016 68 0 0.95 342 11:37 18.12.2019
2391 Clouds 5 1014 81 0 0.89 318 11:18 18.12.2019
2392 Clouds 5 1014 81 0 0.89 318 10:55 18.12.2019
2393 Clouds 5 1014 81 0 0.89 318 10:37 18.12.2019
2394 Clouds 5 1014 81 0 0.89 318 10:19 18.12.2019
2395 Clouds 5 1014 81 0 0.89 318 09:43 18.12.2019
2396 Clouds 5 1014 81 0 0.89 318 09:18 18.12.2019
2397 Clouds 5 1014 81 0 0.89 318 08:40 18.12.2019
2398 Clouds 5 1014 81 0 1.24 37 08:21 18.12.2019
2399 Clouds 5 1014 81 0 1.24 37 07:43 18.12.2019
2400 Clouds 5 1014 81 0 1.24 37 07:23 18.12.2019
2401 Clouds 5 1014 81 0 1.24 37 06:55 18.12.2019
2402 Clouds 5 1014 81 0 1.24 37 06:27 18.12.2019
2403 Clouds 5 1014 81 0 1.24 37 05:47 18.12.2019
2404 Clouds 6 1015 75 0 1.61 343 04:57 18.12.2019
2405 Clouds 6 1015 75 0 1.61 343 02:55 18.12.2019
2406 Clouds 6 1015 75 0 1.61 343 02:36 18.12.2019
2407 Rain 6 1011 84 0 3.59 51 02:18 18.12.2019
2408 Rain 6 1011 84 0 3.59 51 01:40 18.12.2019
2409 Rain 6 1011 82 0 2.33 8 01:21 18.12.2019
2410 Rain 6 1011 82 0 2.33 8 00:41 18.12.2019
2411 Rain 6 1011 82 0 2.33 8 00:23 18.12.2019
2412 Rain 6 1011 82 0 2.33 8 23:56 17.12.2019
2413 Rain 6 1011 82 0 2.33 8 23:38 17.12.2019
2414 Rain 7 1006 79 0 4.97 16 23:18 17.12.2019
2415 Rain 7 1006 79 0 4.97 16 22:56 17.12.2019
2416 Rain 7 1006 79 0 4.97 16 22:37 17.12.2019
2417 Rain 7 1006 79 0 4.97 16 22:18 17.12.2019
2418 Rain 7 1006 79 0 4.97 16 21:55 17.12.2019
2419 Rain 7 1006 79 0 4.97 16 21:37 17.12.2019
2420 Rain 7 1006 79 0 4.97 16 21:18 17.12.2019
2421 Rain 7 1006 79 0 4.97 16 20:56 17.12.2019
2422 Rain 7 1006 79 0 4.97 16 20:37 17.12.2019
2423 Rain 11 1007 57 0 1.91 239 20:18 17.12.2019
2424 Rain 11 1007 57 0 1.91 239 19:54 17.12.2019
2425 Rain 11 1007 57 0 1.91 239 19:36 17.12.2019
2426 Rain 11 1007 57 0 1.91 239 19:18 17.12.2019
2427 Rain 11 1007 57 0 1.91 239 18:41 17.12.2019
2428 Rain 11 1007 57 0 1.91 239 18:22 17.12.2019
2429 Rain 11 1007 57 0 1.91 239 17:59 17.12.2019
2430 Rain 11 1007 57 0 1.91 239 17:41 17.12.2019
2431 Rain 11 1011 52 0 2.73 16 17:19 17.12.2019
2432 Rain 11 1011 52 0 2.73 16 16:56 17.12.2019
2433 Rain 11 1011 52 0 2.73 16 16:56 17.12.2019
2434 Rain 11 1011 52 0 2.73 16 16:37 17.12.2019
2435 Rain 11 1011 52 0 2.73 16 16:19 17.12.2019
2436 Rain 11 1011 52 0 2.73 16 15:56 17.12.2019
2437 Rain 11 1011 52 0 2.73 16 15:37 17.12.2019
2438 Rain 11 1011 52 0 2.73 16 15:37 17.12.2019
2439 Rain 11 1011 52 0 2.73 16 15:19 17.12.2019
2440 Rain 11 1011 52 0 2.73 16 15:19 17.12.2019
2441 Rain 11 1011 52 0 2.73 16 14:55 17.12.2019
2442 Rain 11 1011 52 0 2.73 16 14:36 17.12.2019
2443 Clouds 7 1013 73 0 2.34 28 14:18 17.12.2019
2444 Clouds 7 1013 73 0 2.34 28 13:55 17.12.2019
2445 Clouds 7 1013 73 0 2.34 28 13:37 17.12.2019
2446 Clouds 7 1013 73 0 2.34 28 13:18 17.12.2019
2447 Clouds 7 1014 70 0 2.25 21 12:41 17.12.2019
2448 Clouds 7 1014 70 0 2.25 21 12:19 17.12.2019
2449 Clouds 7 1014 70 0 2.25 21 12:19 17.12.2019
2450 Clouds 7 1014 70 0 2.25 21 11:59 17.12.2019
2451 Clouds 7 1014 70 0 2.25 21 11:37 17.12.2019
2452 Clouds 5 1012 90 0 1.98 10 11:19 17.12.2019
2453 Clouds 5 1012 90 0 1.98 10 11:19 17.12.2019
2454 Clouds 5 1012 90 0 1.98 10 10:59 17.12.2019
2455 Clouds 5 1012 90 0 1.98 10 10:59 17.12.2019
2456 Clouds 5 1012 90 0 1.98 10 10:41 17.12.2019
2457 Clouds 5 1012 90 0 1.98 10 10:41 17.12.2019
2458 Clouds 5 1012 90 0 1.98 10 10:22 17.12.2019
2459 Clouds 5 1012 90 0 1.98 10 09:59 17.12.2019
2460 Clouds 5 1012 90 0 1.98 10 09:41 17.12.2019
2461 Clouds 5 1012 90 0 1.98 10 09:20 17.12.2019
2462 Clouds 5 1012 90 0 1.98 10 09:20 17.12.2019
2463 Clouds 5 1012 90 0 1.98 10 08:56 17.12.2019
2464 Clouds 5 1012 90 0 1.98 10 08:56 17.12.2019
2465 Clouds 5 1012 90 0 1.98 10 08:38 17.12.2019
2466 Clouds 7 1012 76 0 2.15 357 08:20 17.12.2019
2467 Clouds 7 1012 76 0 2.15 357 07:54 17.12.2019
2468 Clouds 7 1012 76 0 2.15 357 07:36 17.12.2019
2469 Clouds 7 1012 76 0 2.15 357 07:18 17.12.2019
2470 Clouds 7 1012 76 0 2.15 357 06:35 17.12.2019
2471 Clouds 7 1012 76 0 2.15 357 05:56 17.12.2019
2472 Clouds 7 1012 76 0 2.15 357 05:36 17.12.2019
2473 Clear 8 1012 74 0 3.19 338 04:33 17.12.2019
2474 Clear 8 1012 74 0 3.19 338 02:45 17.12.2019
2475 Rain 8 1007 69 0 4.22 63 01:56 17.12.2019
2476 Rain 8 1007 69 0 4.22 63 01:20 17.12.2019
2477 Rain 8 1007 66 0 4.83 62 00:38 17.12.2019
2478 Rain 8 1007 66 0 4.83 62 00:20 17.12.2019
2479 Rain 8 1007 66 0 4.83 62 23:42 16.12.2019
2480 Rain 14 1003 37 0 1.84 51 23:19 16.12.2019
2481 Rain 14 1003 37 0 1.84 51 22:58 16.12.2019
2482 Rain 14 1003 37 0 1.84 51 22:38 16.12.2019
2483 Rain 14 1003 37 0 1.84 51 22:20 16.12.2019
2484 Rain 14 1003 37 0 1.84 51 21:56 16.12.2019
2485 Rain 14 1003 37 0 1.84 51 21:38 16.12.2019
2486 Rain 14 1003 37 0 1.84 51 21:38 16.12.2019
2487 Rain 14 1003 37 0 1.84 51 21:20 16.12.2019
2488 Rain 14 1003 37 0 1.84 51 20:58 16.12.2019
2489 Rain 14 1003 37 0 1.84 51 20:38 16.12.2019
2490 Clouds 16 1005 22 0 1.61 335 20:19 16.12.2019
2491 Clouds 16 1005 22 0 1.61 335 19:56 16.12.2019
2492 Clouds 16 1005 22 0 1.61 335 19:56 16.12.2019
2493 Clouds 16 1005 22 0 1.61 335 19:37 16.12.2019
2494 Clouds 16 1005 22 0 1.61 335 19:19 16.12.2019
2495 Clouds 16 1005 22 0 1.61 335 18:56 16.12.2019
2496 Clouds 16 1005 22 0 1.61 335 18:38 16.12.2019
2497 Clouds 16 1005 22 0 1.61 335 18:38 16.12.2019
2498 Clouds 16 1005 22 0 1.61 335 18:19 16.12.2019
2499 Clouds 16 1005 22 0 1.61 335 17:57 16.12.2019
2500 Clouds 16 1005 22 0 1.61 335 17:38 16.12.2019
2501 Clouds 14 1010 30 0 2.79 354 17:20 16.12.2019
2502 Clouds 14 1010 30 0 2.79 354 16:57 16.12.2019
2503 Clouds 14 1010 30 0 2.79 354 16:38 16.12.2019
2504 Clouds 14 1010 30 0 2.79 354 16:19 16.12.2019
2505 Clouds 14 1010 30 0 2.79 354 15:57 16.12.2019
2506 Clouds 14 1010 30 0 2.79 354 15:38 16.12.2019
2507 Clouds 14 1010 30 0 2.79 354 15:20 16.12.2019
2508 Clouds 14 1010 30 0 2.79 354 14:55 16.12.2019
2509 Clouds 14 1010 30 0 2.79 354 14:37 16.12.2019
2510 Clear 8 1013 64 0 2.59 328 14:19 16.12.2019
2511 Clear 8 1013 64 0 2.59 328 13:56 16.12.2019
2512 Clear 8 1013 64 0 2.59 328 13:37 16.12.2019
2513 Clouds 8 1013 65 0 2.25 331 13:19 16.12.2019
2514 Clouds 8 1013 65 0 2.25 331 12:57 16.12.2019
2515 Clouds 8 1013 65 0 2.28 328 12:39 16.12.2019
2516 Clouds 8 1013 65 0 2.25 331 12:18 16.12.2019
2517 Clouds 8 1013 65 0 2.28 328 11:57 16.12.2019
2518 Clouds 8 1013 65 0 2.28 328 11:39 16.12.2019
2519 Clear 6 1013 83 0 2.22 346 11:19 16.12.2019
2520 Clouds 6 1013 84 0 2.4 348 10:55 16.12.2019
2521 Clouds 6 1013 84 0 2.4 348 10:36 16.12.2019
2522 Clear 6 1013 83 0 2.22 346 10:18 16.12.2019
2523 Clouds 6 1013 84 0 2.4 348 09:44 16.12.2019
2524 Clouds 6 1013 84 0 2.4 348 09:44 16.12.2019
2525 Clear 6 1013 83 0 2.22 346 09:26 16.12.2019
2526 Clouds 6 1013 84 0 2.4 348 08:41 16.12.2019
2527 Clouds 6 1013 83 0 2.07 43 08:21 16.12.2019
2528 Rain 7 1014 82 0 2.92 49 07:57 16.12.2019
2529 Rain 7 1014 82 0 2.92 49 07:38 16.12.2019
2530 Rain 7 1014 82 0 2.92 49 07:19 16.12.2019
2531 Rain 7 1014 82 0 2.92 49 06:40 16.12.2019
2532 Rain 7 1014 82 0 2.92 49 06:21 16.12.2019
2533 Rain 7 1014 82 0 2.92 49 06:21 16.12.2019
2534 Rain 7 1014 82 0 2.92 49 05:44 16.12.2019
2535 Rain 7 1014 82 0 2.92 49 05:26 16.12.2019
2536 Rain 9 1014 70 0 4.52 40 03:33 16.12.2019
2537 Rain 9 1011 67 0 6.16 50 01:57 16.12.2019
2538 Rain 9 1011 67 0 6.16 50 01:39 16.12.2019
2539 Rain 9 1011 72 0 5.76 42 00:41 16.12.2019
2540 Rain 9 1011 72 0 5.76 42 00:23 16.12.2019
2541 Rain 9 1011 72 0 5.76 42 23:58 15.12.2019
2542 Rain 9 1011 72 0 5.76 42 23:38 15.12.2019
2543 Clouds 15 1004 28 0 5.01 135 23:19 15.12.2019
2544 Clouds 15 1004 28 0 5.01 135 22:54 15.12.2019
2545 Clouds 15 1004 28 0 5.01 135 22:36 15.12.2019
2546 Clouds 15 1004 28 0 5.01 135 22:18 15.12.2019
2547 Clouds 15 1004 28 0 5.01 135 21:55 15.12.2019
2548 Clouds 15 1004 28 0 5.01 135 21:37 15.12.2019
2549 Clouds 15 1004 28 0 5.01 135 21:37 15.12.2019
2550 Clouds 15 1004 28 0 5.01 135 21:18 15.12.2019
2551 Clouds 15 1004 28 0 5.01 135 20:54 15.12.2019
2552 Clouds 15 1004 28 0 5.01 135 20:36 15.12.2019
2553 Clouds 15 1004 28 0 5.01 135 20:36 15.12.2019
2554 Clouds 17 1005 20 0 3.98 140 20:18 15.12.2019
2555 Clouds 17 1006 20 0 3.93 145 19:54 15.12.2019
2556 Clouds 17 1006 20 0 3.93 145 19:36 15.12.2019
2557 Clouds 16 1006 25 0 3.38 117 19:18 15.12.2019
2558 Clouds 16 1006 25 0 3.38 117 18:54 15.12.2019
2559 Clouds 16 1006 25 0 3.38 117 18:36 15.12.2019
2560 Clouds 16 1006 25 0 3.38 117 18:18 15.12.2019
2561 Clouds 16 1006 25 0 3.38 117 17:55 15.12.2019
2562 Clouds 17 1006 20 0 3.93 145 17:36 15.12.2019
2563 Clouds 15 1010 27 0 5.46 185 17:18 15.12.2019
2564 Clouds 15 1010 27 0 5.46 185 16:42 15.12.2019
2565 Clouds 15 1010 27 0 5.46 185 16:22 15.12.2019
2566 Clouds 14 1011 33 0 4.67 167 15:57 15.12.2019
2567 Clouds 15 1010 27 0 5.46 185 15:39 15.12.2019
2568 Clouds 15 1010 27 0 5.46 185 15:19 15.12.2019
2569 Clouds 15 1010 27 0 5.46 185 14:56 15.12.2019
2570 Clouds 15 1010 27 0 5.46 185 14:37 15.12.2019
2571 Clouds 11 1014 45 0 2.68 228 14:19 15.12.2019
2572 Clouds 11 1014 45 0 2.68 228 13:59 15.12.2019
2573 Clouds 10 1015 52 0 2.09 229 13:39 15.12.2019
2574 Clouds 10 1015 52 0 2.09 229 13:20 15.12.2019
2575 Clouds 10 1015 52 0 2.09 229 12:57 15.12.2019
2576 Clouds 10 1015 52 0 2.09 229 12:57 15.12.2019
2577 Clouds 10 1015 52 0 2.09 229 12:39 15.12.2019
2578 Clouds 10 1015 52 0 2.09 229 12:21 15.12.2019
2579 Clouds 10 1015 52 0 2.09 229 11:59 15.12.2019
2580 Clouds 10 1015 52 0 2.09 229 11:38 15.12.2019
2581 Clouds 6 1014 83 0 1.71 40 11:19 15.12.2019
2582 Clouds 6 1014 83 0 1.71 40 11:19 15.12.2019
2583 Clouds 6 1014 83 0 1.71 40 10:55 15.12.2019
2584 Clouds 6 1014 83 0 1.71 40 10:37 15.12.2019
2585 Clouds 6 1014 83 0 1.71 40 10:19 15.12.2019
2586 Clouds 6 1014 83 0 1.71 40 09:56 15.12.2019
2587 Clouds 6 1014 83 0 1.71 40 09:37 15.12.2019
2588 Clouds 6 1014 83 0 1.71 40 09:18 15.12.2019
2589 Clouds 6 1014 83 0 1.71 40 08:41 15.12.2019
2590 Rain 5 1014 90 0 1.91 63 08:22 15.12.2019
2591 Rain 5 1015 84 0 1.58 106 07:57 15.12.2019
2592 Rain 5 1015 84 0 1.58 106 07:37 15.12.2019
2593 Rain 5 1015 84 0 1.58 106 06:59 15.12.2019
2594 Rain 5 1015 84 0 1.58 106 06:24 15.12.2019
2595 Rain 5 1015 84 0 1.58 106 05:42 15.12.2019
2596 Rain 5 1015 89 0 1.59 125 05:20 15.12.2019
2597 Rain 5 1015 89 0 1.59 125 04:18 15.12.2019
2598 Rain 5 1015 89 0 1.59 125 02:49 15.12.2019
2599 Rain 5 1015 89 0 1.59 125 02:30 15.12.2019
2600 Rain 9 1012 69 0 3.53 34 01:40 15.12.2019
2601 Rain 9 1012 68 0 1.72 37 01:18 15.12.2019
2602 Rain 9 1012 68 0 1.72 37 00:44 15.12.2019
2603 Rain 9 1012 68 0 1.72 37 00:44 15.12.2019
2604 Rain 9 1012 68 0 1.72 37 00:25 15.12.2019
2605 Rain 9 1012 68 0 1.72 37 23:41 14.12.2019
2606 Rain 10 1007 61 0 1.89 351 23:22 14.12.2019
2607 Rain 10 1007 61 0 1.89 351 22:59 14.12.2019
2608 Rain 10 1007 61 0 1.89 351 22:41 14.12.2019
2609 Rain 10 1007 61 0 1.89 351 22:22 14.12.2019
2610 Rain 10 1007 61 0 1.89 351 21:56 14.12.2019
2611 Rain 10 1007 61 0 1.89 351 21:38 14.12.2019
2612 Rain 10 1007 61 0 1.89 351 21:19 14.12.2019
2613 Rain 10 1007 61 0 1.89 351 20:58 14.12.2019
2614 Rain 10 1007 61 0 1.89 351 20:39 14.12.2019
2615 Clouds 14 1010 34 0 4.43 46 20:20 14.12.2019
2616 Clouds 14 1010 34 0 4.43 46 19:57 14.12.2019
2617 Clouds 14 1010 34 0 4.43 46 19:57 14.12.2019
2618 Clouds 14 1010 34 0 4.43 46 19:37 14.12.2019
2619 Clouds 14 1010 34 0 4.43 46 19:19 14.12.2019
2620 Clouds 14 1010 34 0 4.43 46 18:56 14.12.2019
2621 Clouds 14 1010 34 0 4.43 46 18:37 14.12.2019
2622 Clouds 14 1010 34 0 4.43 46 18:19 14.12.2019
2623 Clouds 14 1010 34 0 4.43 46 17:44 14.12.2019
2624 Clouds 14 1010 34 0 4.43 46 17:24 14.12.2019
2625 Clouds 11 1014 40 0 3.4 45 16:58 14.12.2019
2626 Clouds 11 1014 40 0 3.4 45 16:39 14.12.2019
2627 Clouds 11 1014 40 0 3.4 45 16:18 14.12.2019
2628 Clouds 11 1014 40 0 3.4 45 15:43 14.12.2019
2629 Clouds 11 1014 40 0 3.4 45 15:22 14.12.2019
2630 Clouds 11 1014 40 0 3.4 45 14:59 14.12.2019
2631 Clouds 11 1014 40 0 3.4 45 14:39 14.12.2019
2632 Clouds 7 1017 68 0 1.55 22 14:20 14.12.2019
2633 Clouds 7 1017 68 0 1.55 22 13:57 14.12.2019
2634 Clouds 7 1017 68 0 1.55 22 13:38 14.12.2019
2635 Clouds 7 1018 70 0 1.99 20 13:18 14.12.2019
2636 Clouds 7 1018 72 0 1.53 17 12:55 14.12.2019
2637 Clouds 7 1018 72 0 1.53 17 12:37 14.12.2019
2638 Clouds 7 1018 70 0 1.99 20 12:18 14.12.2019
2639 Clouds 7 1018 72 0 1.53 17 11:55 14.12.2019
2640 Clouds 7 1018 72 0 1.53 17 11:36 14.12.2019
2641 Clouds 5 1017 86 0 1.36 28 11:18 14.12.2019
2642 Clouds 5 1017 86 0 1.36 28 10:55 14.12.2019
2643 Clouds 5 1017 87 0 1.43 24 10:37 14.12.2019
2644 Clouds 5 1017 87 0 1.43 24 10:18 14.12.2019
2645 Clouds 5 1017 86 0 1.36 28 09:40 14.12.2019
2646 Clouds 5 1017 87 0 1.43 24 09:40 14.12.2019
2647 Clouds 5 1017 86 0 1.36 28 09:20 14.12.2019
2648 Clouds 5 1017 87 0 1.43 24 09:20 14.12.2019
2649 Clouds 5 1017 86 0 1.36 28 08:44 14.12.2019
2650 Clouds 6 1016 85 0 2.05 47 08:20 14.12.2019
2651 Clouds 6 1016 85 0 2.05 47 07:57 14.12.2019
2652 Clouds 6 1016 85 0 2.05 47 07:38 14.12.2019
2653 Clouds 6 1016 85 0 2.05 47 07:19 14.12.2019
2654 Clouds 6 1016 85 0 2.05 47 06:41 14.12.2019
2655 Clouds 6 1016 85 0 2.05 47 06:22 14.12.2019
2656 Clouds 7 1016 80 0 3.26 49 05:22 14.12.2019
2657 Clouds 7 1016 80 0 3.26 49 02:51 14.12.2019
2658 Clouds 7 1016 80 0 3.26 49 02:23 14.12.2019
2659 Rain 8 1013 70 0 3.85 47 01:43 14.12.2019
2660 Rain 9 1013 67 0 3.9 44 00:58 14.12.2019
2661 Rain 9 1013 67 0 3.9 44 00:40 14.12.2019
2662 Rain 9 1013 67 0 3.9 44 00:19 14.12.2019
2663 Rain 9 1013 67 0 3.9 44 23:41 13.12.2019
2664 Rain 12 1009 47 0 5.47 53 23:19 13.12.2019
2665 Rain 12 1009 47 0 5.47 53 22:56 13.12.2019
2666 Rain 12 1009 47 0 5.47 53 22:37 13.12.2019
2667 Rain 12 1009 47 0 5.47 53 22:18 13.12.2019
2668 Rain 12 1009 47 0 5.47 53 21:44 13.12.2019
2669 Rain 12 1009 47 0 5.47 53 21:22 13.12.2019
2670 Rain 12 1009 47 0 5.47 53 20:59 13.12.2019
2671 Rain 12 1009 47 0 5.47 53 20:39 13.12.2019
2672 Rain 13 1011 41 0 4.14 45 20:20 13.12.2019
2673 Rain 13 1011 41 0 4.14 45 19:56 13.12.2019
2674 Rain 13 1011 41 0 4.14 45 19:38 13.12.2019
2675 Rain 13 1011 41 0 4.14 45 19:19 13.12.2019
2676 Rain 13 1011 41 0 4.14 45 18:54 13.12.2019
2677 Rain 13 1011 41 0 4.14 45 18:36 13.12.2019
2678 Rain 13 1011 41 0 4.14 45 18:18 13.12.2019
2679 Rain 13 1011 41 0 4.14 45 18:18 13.12.2019
2680 Rain 13 1011 41 0 4.14 45 17:40 13.12.2019
2681 Clouds 10 1017 53 0 3.67 44 17:18 13.12.2019
2682 Clouds 10 1017 53 0 3.67 44 16:57 13.12.2019
2683 Clouds 10 1017 53 0 3.67 44 16:38 13.12.2019
2684 Clouds 10 1017 53 0 3.67 44 16:20 13.12.2019
2685 Clouds 10 1017 53 0 3.67 44 15:43 13.12.2019
2686 Clouds 10 1017 53 0 3.67 44 15:22 13.12.2019
2687 Clouds 10 1017 53 0 3.67 44 14:57 13.12.2019
2688 Clouds 10 1017 53 0 3.67 44 14:39 13.12.2019
2689 Clouds 6 1020 71 0 2.39 50 14:19 13.12.2019
2690 Clouds 6 1020 71 0 2.39 50 13:44 13.12.2019
2691 Clouds 6 1020 71 0 2.39 50 13:44 13.12.2019
2692 Clouds 6 1020 71 0 1.86 61 13:26 13.12.2019
2693 Clouds 6 1020 71 0 1.86 61 12:59 13.12.2019
2694 Clouds 6 1020 71 0 1.86 61 12:40 13.12.2019
2695 Clouds 6 1020 71 0 1.86 61 12:19 13.12.2019
2696 Clouds 6 1020 71 0 1.86 61 11:45 13.12.2019
2697 Clouds 6 1020 71 0 1.86 61 11:45 13.12.2019
2698 Clouds 6 1020 71 0 1.86 61 11:26 13.12.2019
2699 Clouds 5 1019 86 0 1.26 42 10:58 13.12.2019
2700 Clouds 5 1019 86 0 1.26 42 10:40 13.12.2019
2701 Clouds 5 1019 86 0 1.26 42 10:21 13.12.2019
2702 Clouds 5 1019 86 0 1.26 42 09:43 13.12.2019
2703 Clouds 5 1019 86 0 1.26 42 09:22 13.12.2019
2704 Clouds 5 1019 86 0 1.26 42 08:55 13.12.2019
2705 Clouds 5 1019 86 0 1.26 42 08:37 13.12.2019
2706 Rain 5 1019 85 0 1.62 52 08:19 13.12.2019
2707 Rain 5 1019 85 0 1.62 52 07:43 13.12.2019
2708 Rain 5 1019 85 0 1.62 52 07:19 13.12.2019
2709 Rain 5 1019 85 0 1.62 52 06:46 13.12.2019
2710 Rain 5 1019 85 0 1.62 52 06:27 13.12.2019
2711 Rain 5 1019 85 0 1.62 52 05:41 13.12.2019
2712 Rain 6 1019 81 0 2.97 53 05:20 13.12.2019
2713 Rain 6 1019 81 0 2.97 53 04:29 13.12.2019
2714 Rain 6 1019 81 0 2.97 53 02:57 13.12.2019
2715 Rain 6 1019 81 0 2.97 53 02:31 13.12.2019
2716 Rain 9 1015 69 0 4.38 63 01:39 13.12.2019
2717 Rain 8 1015 68 0 5.37 69 00:51 13.12.2019
2718 Rain 8 1015 68 0 5.37 69 00:29 13.12.2019
2719 Rain 8 1015 68 0 5.37 69 23:46 12.12.2019
2720 Rain 8 1015 68 0 5.37 69 23:27 12.12.2019
2721 Rain 12 1009 48 0 8.44 79 22:59 12.12.2019
2722 Rain 12 1009 48 0 8.44 79 22:41 12.12.2019
2723 Rain 12 1009 48 0 8.44 79 22:22 12.12.2019
2724 Rain 12 1009 48 0 8.44 79 21:56 12.12.2019
2725 Rain 12 1009 48 0 8.44 79 21:38 12.12.2019
2726 Rain 12 1009 48 0 8.44 79 21:20 12.12.2019
2727 Rain 12 1009 48 0 8.44 79 21:20 12.12.2019
2728 Rain 12 1009 48 0 8.44 79 20:59 12.12.2019
2729 Rain 12 1009 48 0 8.44 79 20:41 12.12.2019
2730 -273 0 0 0 0 0 20:23 12.12.2019
2731 Clear 15 1009 30 0 7.1 95 19:59 12.12.2019
2732 Clear 15 1009 30 0 7.1 95 19:59 12.12.2019
2733 Clear 15 1009 30 0 7.1 95 19:40 12.12.2019
2734 Clear 15 1009 30 0 7.1 95 19:21 12.12.2019
2735 Clear 15 1009 30 0 7.1 95 18:57 12.12.2019
2736 Clear 15 1009 30 0 7.1 95 18:57 12.12.2019
2737 Clear 15 1009 30 0 7.1 95 18:38 12.12.2019
2738 Clear 15 1009 30 0 7.1 95 18:20 12.12.2019
2739 Clear 15 1009 30 0 7.1 95 17:57 12.12.2019
2740 Clear 15 1009 30 0 7.1 95 17:38 12.12.2019
2741 Clear 14 1012 29 0 4.33 86 17:20 12.12.2019
2742 Clear 14 1012 29 0 4.33 86 16:56 12.12.2019
2743 Clear 14 1012 29 0 4.33 86 16:37 12.12.2019
2744 Clear 14 1012 29 0 4.33 86 16:19 12.12.2019
2745 Clear 14 1012 29 0 4.33 86 15:54 12.12.2019
2746 Clear 14 1012 29 0 4.33 86 15:36 12.12.2019
2747 Clear 14 1012 29 0 4.33 86 15:18 12.12.2019
2748 Clear 14 1012 29 0 4.33 86 14:38 12.12.2019
2749 Clouds 10 1014 49 0 1.94 89 14:20 12.12.2019
2750 Clouds 10 1014 49 0 1.94 89 13:57 12.12.2019
2751 Clouds 10 1014 49 0 1.94 89 13:39 12.12.2019
2752 Clouds 10 1014 50 0 2.11 98 13:21 12.12.2019
2753 Clouds 10 1014 50 0 2.11 98 12:57 12.12.2019
2754 Clouds 10 1014 50 0 2.11 98 12:39 12.12.2019
2755 Clouds 10 1014 50 0 2.11 98 12:21 12.12.2019
2756 Clouds 10 1014 50 0 2.11 98 11:56 12.12.2019
2757 Clouds 10 1014 50 0 2.11 98 11:37 12.12.2019
2758 Clouds 8 1013 75 0 0.48 171 11:19 12.12.2019
2759 Clouds 8 1013 75 0 0.48 171 10:55 12.12.2019
2760 Clouds 8 1013 75 0 0.48 171 10:55 12.12.2019
2761 Clouds 8 1013 75 0 0.48 171 10:37 12.12.2019
2762 Clouds 8 1013 75 0 0.48 171 10:19 12.12.2019
2763 Clouds 8 1013 75 0 0.48 171 09:42 12.12.2019
2764 Clouds 8 1013 75 0 0.48 171 09:24 12.12.2019
2765 Clouds 8 1013 75 0 0.48 171 08:58 12.12.2019
2766 Clouds 8 1013 75 0 0.48 171 08:40 12.12.2019
2767 Rain 8 1012 69 0 1.12 312 08:22 12.12.2019
2768 Rain 8 1012 69 0 1.12 312 07:47 12.12.2019
2769 Rain 8 1012 69 0 1.12 312 07:25 12.12.2019
2770 Rain 8 1012 69 0 1.12 312 06:55 12.12.2019
2771 Rain 8 1012 69 0 1.12 312 06:34 12.12.2019
2772 Rain 8 1012 69 0 1.12 312 05:41 12.12.2019
2773 Rain 9 1013 69 0 3.36 35 04:54 12.12.2019
2774 Rain 9 1013 69 0 3.36 35 03:50 12.12.2019
2775 Rain 9 1013 69 0 3.36 35 02:40 12.12.2019
2776 Rain 11 1009 57 0 3.27 62 02:21 12.12.2019
2777 Rain 11 1009 57 0 3.27 62 01:46 12.12.2019
2778 Rain 11 1009 57 0 3.27 62 01:28 12.12.2019
2779 Rain 11 1008 58 0 3.97 69 00:47 12.12.2019
2780 Rain 11 1008 58 0 3.97 69 00:20 12.12.2019
2781 Rain 11 1008 58 0 3.97 69 23:45 11.12.2019
2782 Rain 15 1004 37 0 1.03 29 23:21 11.12.2019
2783 Rain 15 1004 37 0 1.03 29 22:58 11.12.2019
2784 Rain 15 1004 37 0 1.03 29 22:39 11.12.2019
2785 Rain 15 1004 37 0 1.03 29 22:20 11.12.2019
2786 Rain 15 1004 37 0 1.03 29 21:59 11.12.2019
2787 Rain 15 1004 37 0 1.03 29 21:39 11.12.2019
2788 Rain 15 1004 37 0 1.03 29 21:20 11.12.2019
2789 Rain 15 1004 37 0 1.03 29 20:57 11.12.2019
2790 Rain 15 1004 37 0 1.03 29 20:39 11.12.2019
2791 Rain 15 1007 35 0 2.32 24 20:19 11.12.2019
2792 Rain 15 1007 35 0 2.32 24 19:58 11.12.2019
2793 Rain 15 1007 35 0 2.32 24 19:40 11.12.2019
2794 Rain 15 1007 35 0 2.32 24 19:20 11.12.2019
2795 Rain 15 1007 35 0 2.32 24 18:55 11.12.2019
2796 Rain 15 1007 35 0 2.32 24 18:37 11.12.2019
2797 Rain 15 1007 35 0 2.32 24 18:37 11.12.2019
2798 Rain 15 1007 35 0 2.32 24 18:18 11.12.2019
2799 Rain 15 1007 35 0 2.32 24 17:54 11.12.2019
2800 Rain 15 1007 35 0 2.32 24 17:36 11.12.2019
2801 Rain 12 1012 51 0 3 25 17:18 11.12.2019
2802 Rain 12 1012 51 0 3 25 16:55 11.12.2019
2803 Rain 12 1012 51 0 3 25 16:36 11.12.2019
2804 Rain 12 1012 51 0 3 25 16:18 11.12.2019
2805 Rain 12 1012 51 0 3 25 15:41 11.12.2019
2806 Rain 12 1012 51 0 3 25 15:23 11.12.2019
2807 Rain 12 1012 51 0 3 25 15:23 11.12.2019
2808 Rain 12 1012 51 0 3 25 14:57 11.12.2019
2809 Rain 12 1012 51 0 3 25 14:39 11.12.2019
2810 Clouds 8 1016 76 0 2.26 40 14:20 11.12.2019
2811 Clouds 8 1016 76 0 2.26 40 13:58 11.12.2019
2812 Clouds 8 1016 76 0 2.26 40 13:39 11.12.2019
2813 Clouds 8 1016 76 0 2.26 40 13:20 11.12.2019
2814 Clouds 8 1016 76 0 2.26 40 13:20 11.12.2019
2815 Rain 8 1016 75 0 2.25 34 12:57 11.12.2019
2816 Rain 8 1016 75 0 2.25 34 12:38 11.12.2019
2817 Rain 8 1016 75 0 2.25 34 12:20 11.12.2019
2818 Rain 8 1016 75 0 2.25 34 11:57 11.12.2019
2819 Rain 8 1016 75 0 2.25 34 11:38 11.12.2019
2820 Rain 7 1014 84 0 2.07 15 11:18 11.12.2019
2821 Rain 7 1014 84 0 2.07 15 10:56 11.12.2019
2822 Rain 7 1014 84 0 2.07 15 10:38 11.12.2019
2823 Rain 7 1014 84 0 2.07 15 10:19 11.12.2019
2824 Rain 7 1014 84 0 2.07 15 09:43 11.12.2019
2825 Rain 7 1014 84 0 2.07 15 09:21 11.12.2019
2826 Rain 7 1014 84 0 2.07 15 08:58 11.12.2019
2827 Rain 7 1014 84 0 2.07 15 08:39 11.12.2019
2828 Rain 7 1014 89 0 2.15 40 08:19 11.12.2019
2829 Rain 7 1013 87 0 2.27 37 08:19 11.12.2019
2830 Rain 7 1014 89 0 2.15 40 07:58 11.12.2019
2831 Rain 7 1014 89 0 2.15 40 07:39 11.12.2019
2832 Rain 7 1014 89 0 2.15 40 07:21 11.12.2019
2833 Rain 7 1014 89 0 2.15 40 06:44 11.12.2019
2834 Rain 7 1014 89 0 2.15 40 06:22 11.12.2019
2835 Rain 7 1014 89 0 2.15 40 05:45 11.12.2019
2836 Rain 8 1014 85 0 4.06 56 05:21 11.12.2019
2837 Rain 8 1014 85 0 4.06 56 04:41 11.12.2019
2838 Rain 8 1014 85 0 4.06 56 02:49 11.12.2019
2839 Rain 10 1010 69 0 3.13 39 01:26 11.12.2019
2840 Rain 10 1010 69 0 3.13 39 00:49 11.12.2019
2841 Rain 10 1010 69 0 3.13 39 00:23 11.12.2019
2842 Rain 10 1010 69 0 3.13 39 23:58 10.12.2019
2843 Rain 10 1010 69 0 3.13 39 23:39 10.12.2019
2844 Rain 14 1006 51 0 6.46 69 23:21 10.12.2019
2845 Rain 14 1006 51 0 6.46 69 22:41 10.12.2019
2846 Rain 14 1006 51 0 6.46 69 22:22 10.12.2019
2847 Rain 14 1006 51 0 6.46 69 21:57 10.12.2019
2848 Rain 14 1006 51 0 6.46 69 21:39 10.12.2019
2849 Rain 14 1006 51 0 6.46 69 21:39 10.12.2019
2850 Rain 14 1006 51 0 6.46 69 21:21 10.12.2019
2851 Rain 14 1006 51 0 6.46 69 20:57 10.12.2019
2852 Rain 14 1006 51 0 6.46 69 20:38 10.12.2019
2853 Clouds 16 1008 27 0 3.98 38 20:19 10.12.2019
2854 Clouds 16 1008 27 0 3.98 38 20:19 10.12.2019
2855 Clouds 16 1008 27 0 3.98 38 20:19 10.12.2019
2856 Clouds 16 1008 27 0 3.98 38 20:19 10.12.2019
2857 Clouds 16 1008 27 0 3.98 38 19:56 10.12.2019
2858 Clouds 16 1008 27 0 3.98 38 19:37 10.12.2019
2859 Clouds 16 1008 27 0 3.98 38 19:19 10.12.2019
2860 Clouds 16 1008 27 0 3.98 38 18:42 10.12.2019
2861 Clouds 16 1008 27 0 3.98 38 18:21 10.12.2019
2862 Clouds 16 1008 27 0 3.98 38 17:59 10.12.2019
2863 Clouds 16 1008 27 0 3.98 38 17:41 10.12.2019
2864 Clouds 13 1013 34 0 2.64 17 17:22 10.12.2019
2865 Clouds 13 1013 34 0 2.64 17 16:57 10.12.2019
2866 Clouds 13 1013 34 0 2.64 17 16:39 10.12.2019
2867 Clouds 13 1013 34 0 2.64 17 16:19 10.12.2019
2868 Clouds 13 1013 34 0 2.64 17 16:19 10.12.2019
2869 Clouds 13 1013 34 0 2.64 17 15:39 10.12.2019
2870 Clouds 13 1013 34 0 2.64 17 15:18 10.12.2019
2871 Clouds 13 1013 34 0 2.64 17 14:56 10.12.2019
2872 Clouds 13 1013 34 0 2.64 17 14:38 10.12.2019
2873 Clouds 8 1016 65 0 1.45 357 14:20 10.12.2019
2874 Clouds 8 1016 65 0 1.45 357 13:58 10.12.2019
2875 Clouds 8 1016 65 0 1.45 357 13:40 10.12.2019
2876 Clouds 8 1016 66 0 1.77 353 13:20 10.12.2019
2877 Clouds 8 1016 66 0 1.77 353 12:49 10.12.2019
2878 Clouds 8 1016 66 0 1.77 353 12:28 10.12.2019
2879 Clouds 8 1016 66 0 1.77 353 11:58 10.12.2019
2880 Clouds 8 1016 66 0 1.77 353 11:40 10.12.2019
2881 Clouds 7 1014 75 0 1.74 25 11:21 10.12.2019
2882 Clouds 7 1014 75 0 1.74 25 10:43 10.12.2019
2883 Clouds 7 1014 75 0 1.74 25 10:24 10.12.2019
2884 Clouds 7 1014 75 0 1.74 25 09:57 10.12.2019
2885 Clouds 7 1014 75 0 1.74 25 09:57 10.12.2019
2886 Clouds 7 1014 75 0 1.74 25 09:57 10.12.2019
2887 Clouds 7 1014 75 0 1.74 25 09:39 10.12.2019
2888 Clouds 7 1014 75 0 1.74 25 09:20 10.12.2019
2889 Clouds 7 1014 75 0 1.74 25 08:58 10.12.2019
2890 Clouds 7 1014 75 0 1.74 25 08:39 10.12.2019
2891 Rain 7 1014 86 0 2.52 36 08:20 10.12.2019
2892 Rain 7 1014 82 0 2.44 35 07:45 10.12.2019
2893 Rain 7 1014 82 0 2.44 35 07:27 10.12.2019
2894 Rain 7 1014 82 0 2.44 35 06:55 10.12.2019
2895 Rain 7 1014 82 0 2.44 35 06:37 10.12.2019
2896 Rain 7 1014 82 0 2.44 35 06:19 10.12.2019
2897 Rain 7 1014 82 0 2.44 35 05:47 10.12.2019
2898 Rain 7 1014 89 0 2.58 39 04:23 10.12.2019
2899 Rain 7 1014 89 0 2.58 39 03:25 10.12.2019
2900 Rain 10 1011 69 0 4.31 67 01:57 10.12.2019
2901 Rain 10 1011 69 0 4.31 67 01:38 10.12.2019
2902 Rain 10 1011 69 0 4.31 67 01:18 10.12.2019
2903 Rain 10 1010 66 0 3.03 77 00:29 10.12.2019
2904 Rain 10 1010 66 0 3.03 77 23:59 09.12.2019
2905 Rain 10 1010 66 0 3.03 77 23:39 09.12.2019
2906 Rain 14 1006 46 0 3.57 48 23:20 09.12.2019
2907 Rain 14 1006 46 0 3.57 48 22:56 09.12.2019
2908 Rain 14 1006 46 0 3.57 48 22:38 09.12.2019
2909 Rain 14 1006 46 0 3.57 48 22:18 09.12.2019
2910 Rain 14 1006 46 0 3.57 48 22:18 09.12.2019
2911 Rain 14 1006 46 0 3.57 48 21:56 09.12.2019
2912 Rain 14 1006 46 0 3.57 48 21:38 09.12.2019
2913 Rain 14 1006 46 0 3.57 48 21:18 09.12.2019
2914 Rain 14 1006 46 0 3.57 48 20:55 09.12.2019
2915 Rain 14 1006 46 0 3.57 48 20:37 09.12.2019
2916 Rain 15 1008 39 0 4.17 31 20:19 09.12.2019
2917 Rain 15 1008 39 0 4.17 31 19:55 09.12.2019
2918 Rain 15 1008 39 0 4.17 31 19:55 09.12.2019
2919 Rain 15 1008 39 0 4.17 31 19:37 09.12.2019
2920 Rain 15 1008 39 0 4.17 31 19:18 09.12.2019
2921 Rain 15 1008 39 0 4.17 31 18:55 09.12.2019
2922 Rain 15 1008 39 0 4.17 31 18:36 09.12.2019
2923 Rain 15 1008 39 0 4.17 31 18:18 09.12.2019
2924 Rain 15 1008 39 0 4.17 31 18:18 09.12.2019
2925 Rain 15 1008 39 0 4.17 31 17:56 09.12.2019
2926 Rain 15 1008 39 0 4.17 31 17:37 09.12.2019
2927 Rain 11 1013 56 0 2.87 23 17:18 09.12.2019
2928 Rain 11 1013 56 0 2.87 23 16:54 09.12.2019
2929 Rain 11 1013 56 0 2.87 23 16:36 09.12.2019
2930 Rain 11 1013 56 0 2.87 23 16:18 09.12.2019
2931 Rain 11 1013 56 0 2.87 23 15:55 09.12.2019
2932 Rain 11 1013 56 0 2.87 23 15:36 09.12.2019
2933 Rain 11 1013 56 0 2.87 23 15:18 09.12.2019
2934 Rain 11 1013 56 0 2.87 23 14:42 09.12.2019
2935 Rain 7 1016 79 0 2.45 46 14:19 09.12.2019
2936 Rain 7 1016 79 0 2.45 46 13:57 09.12.2019
2937 Rain 7 1016 79 0 2.45 46 13:38 09.12.2019
2938 Rain 7 1016 79 0 2.45 46 13:38 09.12.2019
2939 Rain 7 1016 79 0 2.21 49 13:19 09.12.2019
2940 Rain 7 1016 79 0 2.21 49 13:19 09.12.2019
2941 Rain 7 1016 79 0 2.21 49 12:56 09.12.2019
2942 Rain 7 1016 79 0 2.21 49 12:56 09.12.2019
2943 Rain 7 1016 79 0 2.21 49 12:37 09.12.2019
2944 Rain 7 1016 79 0 2.21 49 12:19 09.12.2019
2945 Rain 7 1016 79 0 2.21 49 11:56 09.12.2019
2946 Rain 7 1016 79 0 2.21 49 11:37 09.12.2019
2947 Rain 7 1014 86 0 2.38 51 11:18 09.12.2019
2948 Rain 7 1014 86 0 2.38 51 10:41 09.12.2019
2949 Rain 7 1014 86 0 2.38 51 10:41 09.12.2019
2950 Rain 7 1014 86 0 2.38 51 10:20 09.12.2019
2951 Rain 7 1014 86 0 2.38 51 09:59 09.12.2019
2952 Rain 7 1014 86 0 2.38 51 09:41 09.12.2019
2953 Rain 7 1014 86 0 2.38 51 09:41 09.12.2019
2954 Rain 7 1014 86 0 2.38 51 09:21 09.12.2019
2955 Rain 7 1014 86 0 2.38 51 08:54 09.12.2019
2956 Rain 7 1014 86 0 2.38 51 08:36 09.12.2019
2957 Clouds 8 1013 73 0 2.26 53 08:18 09.12.2019
2958 Clouds 8 1013 73 0 2.26 53 07:42 09.12.2019
2959 Clouds 8 1013 73 0 2.26 53 07:23 09.12.2019
2960 Clouds 8 1013 73 0 2.26 53 06:47 09.12.2019
2961 Clouds 8 1013 73 0 2.26 53 06:25 09.12.2019
2962 Clouds 8 1013 73 0 2.26 53 05:29 09.12.2019
2963 Rain 10 1012 61 0 1.94 56 04:46 09.12.2019
2964 Rain 10 1012 61 0 1.94 56 03:21 09.12.2019
2965 Rain 10 1012 61 0 1.94 56 02:24 09.12.2019
2966 Rain 10 1009 62 0 2.88 50 01:42 09.12.2019
2967 Rain 11 1009 60 0 2.82 66 00:51 09.12.2019
2968 Rain 11 1009 60 0 2.82 66 00:31 09.12.2019
2969 Rain 11 1009 60 0 2.82 66 23:43 08.12.2019
2970 Rain 11 1009 60 0 2.82 66 23:24 08.12.2019
2971 Rain 11 1009 60 0 2.82 66 23:24 08.12.2019
2972 Rain 15 1004 24 0 0.82 15 22:58 08.12.2019
2973 Rain 15 1004 24 0 0.82 15 22:39 08.12.2019
2974 Rain 15 1004 24 0 0.82 15 22:20 08.12.2019
2975 Rain 15 1004 24 0 0.82 15 21:58 08.12.2019
2976 Rain 15 1004 24 0 0.82 15 21:40 08.12.2019
2977 Rain 15 1004 24 0 0.82 15 21:40 08.12.2019
2978 Rain 15 1004 24 0 0.82 15 21:22 08.12.2019
2979 Rain 15 1004 24 0 0.82 15 20:57 08.12.2019
2980 Rain 15 1004 24 0 0.82 15 20:39 08.12.2019
2981 Clouds 16 1006 23 0 1.87 304 20:21 08.12.2019
2982 Clouds 16 1006 23 0 1.87 304 19:59 08.12.2019
2983 Clouds 16 1006 23 0 1.87 304 19:41 08.12.2019
2984 Clouds 16 1006 23 0 1.87 304 19:23 08.12.2019
2985 Clouds 16 1006 23 0 1.87 304 19:23 08.12.2019
2986 Clouds 16 1006 23 0 1.87 304 18:56 08.12.2019
2987 Clouds 16 1006 23 0 1.87 304 18:37 08.12.2019
2988 Clouds 16 1006 23 0 1.87 304 18:19 08.12.2019
2989 Clouds 16 1006 23 0 1.87 304 17:57 08.12.2019
2990 Clouds 16 1006 23 0 1.87 304 17:39 08.12.2019
2991 Clouds 13 1010 28 0 1.82 350 17:20 08.12.2019
2992 Clouds 13 1010 28 0 1.82 350 16:58 08.12.2019
2993 Clouds 13 1010 28 0 1.82 350 16:40 08.12.2019
2994 Clouds 9 1040 66 10000 1.82 350 16:22 08.12.2019
2995 Clouds 9 1040 66 10000 1.82 350 15:58 08.12.2019
2996 Clouds 9 1040 66 10000 1.82 350 15:37 08.12.2019
2997 Clouds 9 1040 66 10000 1.82 350 15:18 08.12.2019
2998 Clouds 9 1040 66 10000 1.82 350 14:46 08.12.2019
2999 Clouds 9 1040 66 10000 1.82 350 14:25 08.12.2019
3000 Clouds 9 1014 42 0 2 343 13:59 08.12.2019
3001 Clouds 9 1014 42 0 2 343 13:41 08.12.2019
3002 Clouds 8 1014 43 0 2.39 338 13:22 08.12.2019
3003 Clouds 8 1014 43 0 2.39 338 12:59 08.12.2019
3004 Clouds 8 1014 43 0 2.39 338 12:40 08.12.2019
3005 Clouds 8 1014 43 0 2.39 338 12:19 08.12.2019
3006 Clouds 8 1014 43 0 2.39 338 12:19 08.12.2019
3007 Clouds 8 1014 43 0 2.39 338 11:58 08.12.2019
3008 Clouds 8 1014 43 0 2.39 338 11:37 08.12.2019
3009 Clouds 6 1013 79 0 1.14 11 11:19 08.12.2019
3010 Clouds 6 1013 79 0 1.14 11 10:57 08.12.2019
3011 Clouds 6 1013 79 0 1.14 11 10:38 08.12.2019
3012 Clouds 6 1013 79 0 1.14 11 10:19 08.12.2019
3013 Clouds 6 1013 79 0 1.14 11 09:55 08.12.2019
3014 Clouds 6 1013 79 0 1.14 11 09:36 08.12.2019
3015 Clouds 6 1013 79 0 1.14 11 09:18 08.12.2019
3016 Clouds 6 1013 79 0 1.14 11 08:42 08.12.2019
3017 Clouds 6 1013 81 0 1.53 22 08:23 08.12.2019
3018 Clouds 8 1013 69 0 1.13 9 07:57 08.12.2019
3019 Clouds 8 1013 69 0 1.13 9 07:39 08.12.2019
3020 Clouds 8 1013 69 0 1.13 9 07:18 08.12.2019
3021 Clouds 8 1013 69 0 1.13 9 06:41 08.12.2019
3022 Clouds 8 1013 69 0 1.13 9 06:21 08.12.2019
3023 Clouds 8 1013 69 0 1.13 9 05:27 08.12.2019
3024 Rain 9 1012 67 0 2.01 17 04:54 08.12.2019
3025 Rain 9 1012 67 0 2.01 17 03:41 08.12.2019
3026 Rain 9 1012 67 0 2.01 17 02:52 08.12.2019
3027 Rain 9 1012 67 0 2.01 17 02:27 08.12.2019
3028 Rain 10 1009 67 0 2.62 11 01:48 08.12.2019
3029 Rain 9 1009 70 0 2.93 53 00:56 08.12.2019
3030 Rain 9 1009 70 0 2.93 53 00:37 08.12.2019
3031 Rain 9 1009 70 0 2.93 53 00:18 08.12.2019
3032 Rain 9 1009 70 0 2.93 53 23:39 07.12.2019
3033 Rain 11 1004 59 0 1.46 58 23:20 07.12.2019
3034 Rain 11 1004 59 0 1.46 58 22:56 07.12.2019
3035 Rain 11 1004 59 0 1.46 58 22:38 07.12.2019
3036 Rain 11 1004 59 0 1.46 58 22:19 07.12.2019
3037 Rain 11 1004 59 0 1.46 58 22:19 07.12.2019
3038 Rain 11 1004 59 0 1.46 58 21:56 07.12.2019
3039 Rain 11 1004 59 0 1.46 58 21:38 07.12.2019
3040 Rain 11 1004 59 0 1.46 58 21:19 07.12.2019
3041 Rain 11 1004 59 0 1.46 58 20:54 07.12.2019
3042 Rain 11 1004 59 0 1.46 58 20:36 07.12.2019
3043 Rain 13 1007 50 0 2.44 322 20:18 07.12.2019
3044 Rain 13 1007 50 0 2.44 322 19:55 07.12.2019
3045 Rain 13 1007 50 0 2.44 322 19:36 07.12.2019
3046 Rain 13 1007 50 0 2.44 322 19:18 07.12.2019
3047 Rain 13 1007 50 0 2.44 322 18:43 07.12.2019
3048 Rain 13 1007 50 0 2.44 322 18:19 07.12.2019
3049 Rain 13 1007 50 0 2.44 322 17:57 07.12.2019
3050 Rain 13 1007 50 0 2.44 322 17:38 07.12.2019
3051 Clear 13 1012 40 0 2.61 18 17:20 07.12.2019
3052 Clear 13 1012 40 0 2.61 18 16:56 07.12.2019
3053 Clear 13 1012 40 0 2.61 18 16:37 07.12.2019
3054 Clear 13 1012 40 0 2.61 18 16:18 07.12.2019
3055 Clear 13 1012 40 0 2.61 18 15:42 07.12.2019
3056 Clear 13 1012 40 0 2.61 18 15:23 07.12.2019
3057 Clear 13 1012 40 0 2.61 18 14:57 07.12.2019
3058 Clear 13 1012 40 0 2.61 18 14:39 07.12.2019
3059 Clouds 9 1015 55 0 1.66 4 14:18 07.12.2019
3060 Clouds 9 1015 55 0 1.66 4 13:41 07.12.2019
3061 Clouds 9 1015 55 0 1.66 4 13:21 07.12.2019
3062 Clouds 9 1015 55 0 1.64 9 12:58 07.12.2019
3063 Clouds 9 1015 55 0 1.64 9 12:40 07.12.2019
3064 Clouds 9 1015 55 0 1.64 9 12:22 07.12.2019
3065 Clouds 9 1015 55 0 1.64 9 11:57 07.12.2019
3066 Clouds 9 1015 55 0 1.64 9 11:39 07.12.2019
3067 Rain 8 1014 69 0 1.66 9 11:20 07.12.2019
3068 Rain 8 1014 69 0 1.66 9 10:38 07.12.2019
3069 Rain 8 1014 69 0 1.66 9 10:19 07.12.2019
3070 Rain 8 1014 69 0 1.66 9 09:56 07.12.2019
3071 Rain 8 1014 69 0 1.66 9 09:36 07.12.2019
3072 Rain 8 1014 69 0 1.66 9 09:18 07.12.2019
3073 Rain 8 1014 69 0 1.66 9 08:40 07.12.2019
3074 Rain 9 1014 67 0 1.55 9 08:21 07.12.2019
3075 Rain 9 1014 67 0 1.55 9 07:45 07.12.2019
3076 Rain 9 1014 67 0 1.55 9 07:26 07.12.2019
3077 Rain 9 1014 67 0 1.55 9 06:50 07.12.2019
3078 Rain 9 1014 67 0 1.55 9 06:25 07.12.2019
3079 Rain 9 1014 67 0 1.55 9 05:30 07.12.2019
3080 Rain 10 1014 63 0 1.87 6 03:59 07.12.2019
3081 Rain 10 1014 63 0 1.87 6 03:40 07.12.2019
3082 Rain 11 1011 58 0 3.96 25 02:21 07.12.2019
3083 Rain 11 1011 58 0 3.96 25 01:34 07.12.2019
3084 Rain 11 1011 58 0 3.96 25 01:34 07.12.2019
3085 Rain 8 1011 72 0 2.41 9 00:53 07.12.2019
3086 Rain 8 1011 72 0 2.41 9 00:20 07.12.2019
3087 Rain 8 1011 72 0 2.41 9 23:56 06.12.2019
3088 Rain 8 1011 72 0 2.41 9 23:38 06.12.2019
3089 Rain 13 1006 50 0 5.57 357 23:18 06.12.2019
3090 Rain 13 1006 50 0 5.57 357 22:38 06.12.2019
3091 Rain 13 1006 50 0 5.57 357 22:20 06.12.2019
3092 Rain 13 1006 50 0 5.57 357 21:57 06.12.2019
3093 Rain 13 1006 50 0 5.57 357 21:39 06.12.2019
3094 Rain 13 1006 50 0 5.57 357 21:19 06.12.2019
3095 Rain 13 1006 50 0 5.57 357 20:42 06.12.2019
3096 Rain 13 1006 50 0 5.57 357 20:42 06.12.2019
3097 Rain 13 1006 50 0 5.57 357 20:42 06.12.2019
3098 Rain 13 1006 50 0 5.57 357 20:42 06.12.2019
3099 Rain 13 1006 50 0 5.57 357 20:24 06.12.2019
3100 Clouds 15 1009 27 0 3.66 44 19:59 06.12.2019
3101 Clouds 15 1009 27 0 3.66 44 19:40 06.12.2019
3102 Clouds 15 1009 27 0 3.66 44 19:22 06.12.2019
3103 Clouds 15 1009 27 0 3.66 44 19:22 06.12.2019
3104 Clouds 15 1009 27 0 3.66 44 19:22 06.12.2019
3105 Clouds 15 1009 27 0 3.66 44 18:57 06.12.2019
3106 Clouds 15 1009 27 0 3.66 44 18:39 06.12.2019
3107 Clouds 15 1009 27 0 3.66 44 18:19 06.12.2019
3108 Clouds 15 1009 27 0 3.66 44 18:19 06.12.2019
3109 Clouds 15 1009 27 0 3.66 44 17:56 06.12.2019
3110 Clouds 15 1009 27 0 3.66 44 17:56 06.12.2019
3111 Clouds 15 1009 27 0 3.66 44 17:56 06.12.2019
3112 Clouds 15 1009 27 0 3.66 44 17:37 06.12.2019
3113 Clouds 12 1013 36 0 2.86 33 17:19 06.12.2019
3114 Clouds 12 1013 36 0 2.86 33 16:43 06.12.2019
3115 Clouds 12 1013 36 0 2.86 33 16:25 06.12.2019
3116 Clouds 12 1013 36 0 2.86 33 15:59 06.12.2019
3117 Clouds 12 1013 36 0 2.86 33 15:40 06.12.2019
3118 Clouds 12 1013 36 0 2.86 33 15:19 06.12.2019
3119 Clouds 12 1013 36 0 2.86 33 14:57 06.12.2019
3120 Clouds 12 1013 36 0 2.86 33 14:38 06.12.2019
3121 Clouds 12 1013 36 0 2.86 33 14:38 06.12.2019
3122 Clouds 9 1017 51 0 1.23 12 14:19 06.12.2019
3123 Clouds 9 1017 51 0 1.23 12 13:43 06.12.2019
3124 Clouds 9 1017 51 0 1.23 12 13:43 06.12.2019
3125 Clouds 9 1017 51 0 1.23 12 13:25 06.12.2019
3126 Clouds 8 1017 54 0 0.54 19 12:43 06.12.2019
3127 Clouds 8 1017 54 0 0.54 19 12:23 06.12.2019
3128 Clouds 8 1017 54 0 0.54 19 12:23 06.12.2019
3129 Clouds 8 1017 54 0 0.54 19 11:58 06.12.2019
3130 Clouds 8 1017 54 0 0.54 19 11:40 06.12.2019
3131 Clouds 7 1015 61 0 0.32 274 11:22 06.12.2019
3132 Clouds 7 1015 61 0 0.32 274 10:54 06.12.2019
3133 Clouds 7 1015 61 0 0.32 274 10:36 06.12.2019
3134 Clouds 7 1015 61 0 0.32 274 10:18 06.12.2019
3135 Clouds 7 1015 61 0 0.32 274 09:54 06.12.2019
3136 Clouds 7 1015 61 0 0.32 274 09:36 06.12.2019
3137 Clouds 7 1015 61 0 0.32 274 09:18 06.12.2019
3138 Clouds 7 1015 61 0 0.32 274 08:40 06.12.2019
3139 Clouds 9 1015 53 0 1.92 253 08:21 06.12.2019
3140 Clouds 9 1015 54 0 1.98 251 07:38 06.12.2019
3141 Clouds 9 1015 54 0 1.98 251 07:20 06.12.2019
3142 Clouds 9 1015 54 0 1.98 251 06:31 06.12.2019
3143 Clouds 9 1015 54 0 1.98 251 05:56 06.12.2019
3144 Clouds 9 1015 54 0 1.98 251 05:38 06.12.2019
3145 Rain 8 1013 74 0 2.39 47 02:20 06.12.2019
3146 Rain 8 1013 74 0 2.39 47 01:43 06.12.2019
3147 Rain 8 1013 80 0 3.24 32 00:49 06.12.2019
3148 Rain 8 1013 80 0 3.24 32 00:22 06.12.2019
3149 Rain 8 1013 80 0 3.24 32 23:51 05.12.2019
3150 Rain 10 1009 69 0 3.96 54 23:20 05.12.2019
3151 Rain 10 1009 69 0 3.96 54 22:58 05.12.2019
3152 Rain 10 1009 69 0 3.96 54 22:38 05.12.2019
3153 Rain 10 1009 69 0 3.96 54 22:19 05.12.2019
3154 Rain 10 1009 69 0 3.96 54 21:56 05.12.2019
3155 Rain 10 1009 69 0 3.96 54 21:37 05.12.2019
3156 Rain 10 1009 69 0 3.96 54 21:19 05.12.2019
3157 Rain 10 1009 69 0 3.96 54 20:56 05.12.2019
3158 Rain 10 1009 69 0 3.96 54 20:56 05.12.2019
3159 Rain 10 1009 69 0 3.96 54 20:37 05.12.2019
3160 Rain 10 1010 68 0 3.1 16 20:18 05.12.2019
3161 Rain 11 1011 61 0 2.88 25 19:40 05.12.2019
3162 Rain 11 1011 61 0 2.88 25 19:22 05.12.2019
3163 Rain 11 1011 61 0 2.88 25 18:58 05.12.2019
3164 Rain 11 1011 61 0 2.88 25 18:38 05.12.2019
3165 Rain 11 1011 61 0 2.88 25 18:20 05.12.2019
3166 Rain 11 1011 61 0 2.88 25 18:20 05.12.2019
3167 Rain 11 1011 61 0 2.88 25 17:55 05.12.2019
3168 Rain 11 1011 61 0 2.88 25 17:36 05.12.2019
3169 Rain 11 1015 54 0 3.9 24 17:18 05.12.2019
3170 Rain 11 1015 54 0 3.9 24 16:40 05.12.2019
3171 Rain 11 1015 54 0 3.9 24 16:22 05.12.2019
3172 Rain 11 1015 54 0 3.9 24 15:58 05.12.2019
3173 Rain 11 1015 54 0 3.9 24 15:40 05.12.2019
3174 Rain 11 1015 54 0 3.9 24 15:20 05.12.2019
3175 Rain 11 1015 54 0 3.9 24 14:56 05.12.2019
3176 Rain 11 1015 54 0 3.9 24 14:38 05.12.2019
3177 Rain 8 1016 69 0 2.68 19 14:20 05.12.2019
3178 Rain 8 1016 69 0 2.68 19 13:58 05.12.2019
3179 Rain 8 1016 69 0 2.68 19 13:39 05.12.2019
3180 Rain 8 1016 68 0 2.83 23 13:21 05.12.2019
3181 Rain 8 1016 68 0 2.83 23 12:58 05.12.2019
3182 Rain 8 1016 68 0 2.83 23 12:39 05.12.2019
3183 Rain 8 1016 68 0 2.83 23 12:21 05.12.2019
3184 Rain 8 1016 68 0 2.83 23 11:41 05.12.2019
3185 Rain 7 1015 79 0 2.82 51 11:22 05.12.2019
3186 Rain 7 1015 79 0 2.82 51 10:59 05.12.2019
3187 Rain 7 1015 79 0 2.82 51 10:41 05.12.2019
3188 Rain 7 1015 79 0 2.82 51 10:19 05.12.2019
3189 Rain 7 1015 79 0 2.82 51 09:57 05.12.2019
3190 Rain 7 1015 79 0 2.82 51 09:39 05.12.2019
3191 Rain 7 1015 79 0 2.82 51 09:20 05.12.2019
3192 Rain 7 1015 79 0 2.82 51 08:56 05.12.2019
3193 Rain 7 1015 79 0 2.82 51 08:37 05.12.2019
3194 Rain 8 1013 72 0 3.47 47 08:19 05.12.2019
3195 Rain 8 1013 72 0 3.47 47 08:19 05.12.2019
3196 Rain 8 1013 72 0 3.47 47 08:19 05.12.2019
3197 Rain 8 1013 72 0 3.47 47 07:41 05.12.2019
3198 Rain 8 1013 72 0 3.47 47 07:23 05.12.2019
3199 Rain 8 1013 72 0 3.47 47 06:48 05.12.2019
3200 Rain 8 1013 72 0 3.47 47 06:24 05.12.2019
3201 Rain 8 1013 72 0 3.47 47 05:58 05.12.2019
3202 Rain 8 1013 72 0 3.47 47 05:38 05.12.2019
3203 Rain 10 1014 60 0 3.8 64 05:18 05.12.2019
3204 Rain 10 1014 60 0 3.8 64 03:41 05.12.2019
3205 Rain 10 1014 60 0 3.8 64 02:42 05.12.2019
3206 Rain 10 1014 60 0 3.8 64 02:23 05.12.2019
3207 Rain 11 1009 57 0 3.66 43 01:51 05.12.2019
3208 Rain 11 1009 57 0 3.66 43 01:51 05.12.2019
3209 Rain 11 1009 56 0 4.55 41 01:24 05.12.2019
3210 Rain 11 1009 56 0 4.55 41 00:46 05.12.2019
3211 Rain 11 1009 56 0 4.55 41 00:21 05.12.2019
3212 Rain 11 1009 56 0 4.55 41 23:56 04.12.2019
3213 Rain 11 1009 56 0 4.55 41 23:37 04.12.2019
3214 Clouds 16 1004 22 0 1.21 270 23:18 04.12.2019
3215 Clouds 16 1004 22 0 1.21 270 22:39 04.12.2019
3216 Clouds 16 1004 22 0 1.21 270 22:20 04.12.2019
3217 Clouds 16 1004 22 0 1.21 270 21:58 04.12.2019
3218 Clouds 16 1004 22 0 1.21 270 21:39 04.12.2019
3219 Clouds 16 1004 22 0 1.21 270 21:20 04.12.2019
3220 Clouds 16 1004 22 0 1.21 270 20:58 04.12.2019
3221 Clouds 16 1004 22 0 1.21 270 20:40 04.12.2019
3222 Clear 16 1006 16 0 2.59 311 20:21 04.12.2019
3223 Clear 16 1006 16 0 2.59 311 19:58 04.12.2019
3224 Clear 16 1006 16 0 2.59 311 19:38 04.12.2019
3225 Clear 16 1006 16 0 2.59 311 19:20 04.12.2019
3226 Clear 16 1006 16 0 2.59 311 18:56 04.12.2019
3227 Clear 16 1006 16 0 2.59 311 18:38 04.12.2019
3228 Clear 16 1006 16 0 2.59 311 18:20 04.12.2019
3229 Clear 16 1006 16 0 2.59 311 17:40 04.12.2019
3230 Clear 14 1010 14 0 2.2 330 17:21 04.12.2019
3231 Clear 14 1010 14 0 2.2 330 16:59 04.12.2019
3232 Clear 14 1010 14 0 2.2 330 16:39 04.12.2019
3233 Clear 14 1010 14 0 2.2 330 16:20 04.12.2019
3234 Clear 14 1010 14 0 2.2 330 15:55 04.12.2019
3235 Clear 14 1010 14 0 2.2 330 15:37 04.12.2019
3236 Clear 14 1010 14 0 2.2 330 15:19 04.12.2019
3237 Clear 14 1010 14 0 2.2 330 14:44 04.12.2019
3238 Clear 14 1010 14 0 2.2 330 14:24 04.12.2019
3239 Clear 10 1013 13 0 1.5 258 13:59 04.12.2019
3240 Clear 10 1013 13 0 1.5 258 13:38 04.12.2019
3241 Clear 10 1013 13 0 1.5 258 13:20 04.12.2019
3242 Clear 10 1014 14 0 1.52 275 12:45 04.12.2019
3243 Clear 10 1014 14 0 1.52 275 12:25 04.12.2019
3244 Clear 10 1014 14 0 1.52 275 11:57 04.12.2019
3245 Clear 10 1014 14 0 1.52 275 11:39 04.12.2019
3246 Clear 6 1012 31 0 2.08 268 11:21 04.12.2019
3247 Clear 6 1012 31 0 2.08 268 11:21 04.12.2019
3248 Clear 6 1012 31 0 2.08 268 10:44 04.12.2019
3249 Clear 6 1012 31 0 2.08 268 10:44 04.12.2019
3250 Clear 6 1012 31 0 2.08 268 10:24 04.12.2019
3251 Clear 6 1012 31 0 2.08 268 10:24 04.12.2019
3252 Clear 6 1012 31 0 2.08 268 09:57 04.12.2019
3253 Clear 6 1012 31 0 2.08 268 09:39 04.12.2019
3254 Clear 6 1012 31 0 2.08 268 09:20 04.12.2019
3255 Clear 6 1012 31 0 2.08 268 08:42 04.12.2019
3256 Clouds 6 1012 34 0 2.12 269 08:23 04.12.2019
3257 Clouds 8 1011 57 0 1.46 322 07:51 04.12.2019
3258 Clouds 8 1011 57 0 1.46 322 07:30 04.12.2019
3259 Clouds 8 1011 57 0 1.46 322 06:51 04.12.2019
3260 Clouds 8 1011 57 0 1.46 322 06:31 04.12.2019
3261 Clouds 8 1011 57 0 1.46 322 05:43 04.12.2019
3262 Clouds 8 1011 57 0 1.46 322 05:43 04.12.2019
3263 Rain 9 1011 68 0 2.21 352 04:33 04.12.2019
3264 Rain 9 1011 68 0 2.21 352 03:25 04.12.2019
3265 Clear 12 1007 48 0 2.96 54 01:25 04.12.2019
3266 Clear 11 1007 55 0 3.31 55 00:40 04.12.2019
3267 Clear 11 1007 55 0 3.31 55 00:20 04.12.2019
3268 Clear 11 1007 55 0 3.31 55 23:41 03.12.2019
3269 Clear 16 1001 24 0 1.13 250 23:20 03.12.2019
3270 Clear 16 1001 24 0 1.13 250 22:57 03.12.2019
3271 Clear 16 1001 24 0 1.13 250 22:38 03.12.2019
3272 Clear 16 1001 24 0 1.13 250 22:18 03.12.2019
3273 Clear 16 1001 24 0 1.13 250 21:55 03.12.2019
3274 Clear 16 1001 24 0 1.13 250 21:36 03.12.2019
3275 Clear 16 1001 24 0 1.13 250 21:18 03.12.2019
3276 Clear 16 1001 24 0 1.13 250 20:41 03.12.2019
3277 Clouds 16 1004 27 0 3.48 281 20:19 03.12.2019
3278 Clouds 16 1004 27 0 3.48 281 19:57 03.12.2019
3279 Clouds 16 1004 27 0 3.48 281 19:38 03.12.2019
3280 Clouds 16 1004 27 0 3.48 281 19:20 03.12.2019
3281 Clouds 16 1004 27 0 3.48 281 18:59 03.12.2019
3282 Clouds 16 1004 27 0 3.48 281 18:41 03.12.2019
3283 Clouds 16 1004 27 0 3.48 281 18:21 03.12.2019
3284 Clouds 16 1004 27 0 3.48 281 17:58 03.12.2019
3285 Clouds 16 1004 27 0 3.48 281 17:38 03.12.2019
3286 Clouds 14 1009 34 0 3.12 298 17:18 03.12.2019
3287 Clouds 14 1009 34 0 3.12 298 16:58 03.12.2019
3288 Clouds 14 1009 34 0 3.12 298 16:39 03.12.2019
3289 Clouds 14 1009 34 0 3.12 298 16:20 03.12.2019
3290 Clouds 14 1009 34 0 3.12 298 15:58 03.12.2019
3291 Clouds 14 1009 34 0 3.12 298 15:38 03.12.2019
3292 Clouds 14 1009 34 0 3.12 298 15:19 03.12.2019
3293 Clouds 14 1009 34 0 3.12 298 14:44 03.12.2019
3294 Clouds 10 1013 54 0 2.2 299 14:21 03.12.2019
3295 Clouds 10 1013 54 0 2.2 299 13:59 03.12.2019
3296 Clouds 10 1013 54 0 2.2 299 13:38 03.12.2019
3297 Clouds 10 1012 55 0 2.23 309 13:19 03.12.2019
3298 Clouds 10 1012 55 0 2.23 309 12:57 03.12.2019
3299 Clouds 10 1012 55 0 2.23 309 12:37 03.12.2019
3300 Clouds 10 1012 55 0 2.23 309 12:18 03.12.2019
3301 Clouds 10 1012 55 0 2.23 309 11:55 03.12.2019
3302 Clouds 10 1012 55 0 2.23 309 11:37 03.12.2019
3303 Clouds 8 1012 72 0 0.77 352 11:18 03.12.2019
3304 Clouds 8 1012 72 0 0.77 352 10:43 03.12.2019
3305 Clouds 8 1012 72 0 0.77 352 10:21 03.12.2019
3306 Clouds 8 1012 72 0 0.77 352 09:59 03.12.2019
3307 Clouds 8 1012 72 0 0.77 352 09:40 03.12.2019
3308 Clouds 8 1012 72 0 0.77 352 09:22 03.12.2019
3309 Clouds 8 1012 72 0 0.77 352 08:56 03.12.2019
3310 Clouds 8 1012 72 0 0.77 352 08:38 03.12.2019
3311 Rain 8 1013 68 0 3.28 310 08:19 03.12.2019
3312 Rain 8 1013 68 0 3.28 310 07:50 03.12.2019
3313 Rain 8 1013 68 0 3.28 310 07:24 03.12.2019
3314 Rain 8 1013 68 0 3.28 310 06:24 03.12.2019
3315 Rain 8 1013 68 0 3.28 310 06:24 03.12.2019
3316 Rain 8 1013 68 0 3.28 310 05:59 03.12.2019
3317 Rain 8 1015 72 0 4.45 209 04:55 03.12.2019
3318 Rain 8 1015 72 0 4.45 209 03:41 03.12.2019
3319 Rain 8 1015 72 0 4.45 209 03:20 03.12.2019
3320 Rain 8 1015 72 0 4.45 209 03:20 03.12.2019
3321 Rain 8 1015 72 0 4.45 209 02:51 03.12.2019
3322 Rain 8 1015 72 0 4.45 209 02:31 03.12.2019
3323 Rain 10 1011 66 0 4.27 59 01:56 03.12.2019
3324 Rain 8 1011 74 0 3.63 44 01:37 03.12.2019
3325 Rain 8 1011 74 0 3.63 44 00:59 03.12.2019
3326 Rain 8 1011 74 0 3.63 44 00:40 03.12.2019
3327 Rain 8 1011 74 0 3.63 44 00:21 03.12.2019
3328 Rain 8 1011 74 0 3.63 44 23:43 02.12.2019
3329 Rain 8 1011 74 0 3.63 44 23:43 02.12.2019
3330 Rain 11 1007 61 0 4.23 34 23:21 02.12.2019
3331 Rain 11 1007 61 0 4.23 34 22:55 02.12.2019
3332 Rain 11 1007 61 0 4.23 34 22:37 02.12.2019
3333 Rain 11 1007 61 0 4.23 34 22:19 02.12.2019
3334 Rain 11 1007 61 0 4.23 34 21:39 02.12.2019
3335 Rain 11 1007 61 0 4.23 34 21:20 02.12.2019
3336 Rain 11 1007 61 0 4.23 34 20:57 02.12.2019
3337 Rain 11 1007 61 0 4.23 34 20:57 02.12.2019
3338 Rain 11 1007 61 0 4.23 34 20:39 02.12.2019
3339 Rain 12 1010 51 0 1.85 27 20:20 02.12.2019
3340 Rain 12 1010 51 0 1.85 27 19:56 02.12.2019
3341 Rain 12 1010 51 0 1.85 27 19:56 02.12.2019
3342 Rain 12 1010 51 0 1.85 27 19:56 02.12.2019
3343 Rain 12 1010 51 0 1.85 27 19:38 02.12.2019
3344 Rain 12 1010 51 0 1.85 27 19:20 02.12.2019
3345 Rain 12 1010 51 0 1.85 27 18:48 02.12.2019
3346 Rain 12 1010 51 0 1.85 27 18:24 02.12.2019
3347 Rain 12 1010 51 0 1.85 27 17:59 02.12.2019
3348 Rain 12 1010 51 0 1.85 27 17:41 02.12.2019
3349 Clouds 11 1015 59 0 3.53 24 17:20 02.12.2019
3350 Clouds 11 1015 59 0 3.53 24 16:57 02.12.2019
3351 Clouds 11 1015 59 0 3.53 24 16:39 02.12.2019
3352 Clouds 11 1015 59 0 3.53 24 16:18 02.12.2019
3353 Clouds 11 1015 59 0 3.53 24 15:56 02.12.2019
3354 Clouds 11 1015 59 0 3.53 24 15:38 02.12.2019
3355 Clouds 11 1015 59 0 3.53 24 15:20 02.12.2019
3356 Clouds 11 1015 59 0 3.53 24 14:55 02.12.2019
3357 Clouds 11 1015 59 0 3.53 24 14:37 02.12.2019
3358 Clouds 7 1018 82 0 2.52 30 14:18 02.12.2019
3359 -273 0 0 0 0 0 13:54 02.12.2019
3360 Clouds 7 1018 82 0 2.52 30 13:36 02.12.2019
3361 Rain 7 1019 79 0 2 44 13:18 02.12.2019
3362 Rain 7 1019 79 0 2 44 12:41 02.12.2019
3363 Rain 7 1019 79 0 2 44 12:20 02.12.2019
3364 Rain 7 1019 79 0 2 44 11:56 02.12.2019
3365 Rain 7 1019 79 0 2 44 11:37 02.12.2019
3366 Rain 6 1017 89 0 2.21 35 11:19 02.12.2019
3367 Rain 6 1017 89 0 2.21 35 11:19 02.12.2019
3368 Rain 6 1017 89 0 2.21 35 10:56 02.12.2019
3369 Rain 6 1017 89 0 2.21 35 10:38 02.12.2019
3370 Rain 6 1017 89 0 2.21 35 10:19 02.12.2019
3371 Rain 6 1017 89 0 2.21 35 09:42 02.12.2019
3372 Rain 6 1017 89 0 2.21 35 09:42 02.12.2019
3373 Rain 6 1017 89 0 2.21 35 09:19 02.12.2019
3374 Rain 6 1017 89 0 2.21 35 08:58 02.12.2019
3375 Rain 6 1017 89 0 2.21 35 08:40 02.12.2019
3376 Rain 6 1017 84 0 2.76 49 08:21 02.12.2019
3377 Rain 6 1017 84 0 2.76 49 07:44 02.12.2019
3378 Rain 6 1017 84 0 2.76 49 07:24 02.12.2019
3379 Rain 6 1017 84 0 2.76 49 06:58 02.12.2019
3380 Rain 6 1017 84 0 2.76 49 06:39 02.12.2019
3381 Rain 6 1017 84 0 2.76 49 05:36 02.12.2019
3382 Clouds 8 1017 78 0 3.9 61 04:55 02.12.2019
3383 Clouds 8 1017 78 0 3.9 61 02:58 02.12.2019
3384 Clouds 8 1017 78 0 3.9 61 02:38 02.12.2019
3385 Rain 9 1014 72 0 4.09 63 01:45 02.12.2019
3386 Rain 8 1015 74 0 4.22 57 01:18 02.12.2019
3387 Rain 8 1015 74 0 4.22 57 00:33 02.12.2019
3388 Rain 8 1015 74 0 4.22 57 23:57 01.12.2019
3389 Rain 8 1015 74 0 4.22 57 23:39 01.12.2019
3390 Rain 10 1011 68 0 5.27 65 23:20 01.12.2019
3391 Rain 10 1011 68 0 5.27 65 22:56 01.12.2019
3392 Rain 10 1011 68 0 5.27 65 22:38 01.12.2019
3393 Rain 10 1011 68 0 5.27 65 22:18 01.12.2019
3394 Rain 10 1011 68 0 5.27 65 21:56 01.12.2019
3395 Rain 10 1011 68 0 5.27 65 21:38 01.12.2019
3396 Rain 10 1011 68 0 5.27 65 21:19 01.12.2019
3397 Rain 10 1011 68 0 5.27 65 20:57 01.12.2019
3398 Rain 10 1011 68 0 5.27 65 20:39 01.12.2019
3399 Rain 14 1012 48 0 6.41 57 20:20 01.12.2019
3400 Rain 14 1012 48 0 6.41 57 19:55 01.12.2019
3401 Rain 14 1012 48 0 6.41 57 19:37 01.12.2019
3402 Rain 14 1012 48 0 6.41 57 19:37 01.12.2019
3403 Rain 14 1012 48 0 6.41 57 19:19 01.12.2019
3404 Rain 14 1012 48 0 6.41 57 18:55 01.12.2019
3405 Rain 14 1012 48 0 6.41 57 18:37 01.12.2019
3406 Rain 14 1012 48 0 6.41 57 18:18 01.12.2019
3407 Rain 14 1012 48 0 6.41 57 17:56 01.12.2019
3408 Rain 14 1012 48 0 6.41 57 17:38 01.12.2019
3409 Rain 12 1016 49 0 3.46 51 17:19 01.12.2019
3410 Rain 12 1016 49 0 3.46 51 16:44 01.12.2019
3411 Rain 12 1016 49 0 3.46 51 16:24 01.12.2019
3412 Rain 12 1016 49 0 3.46 51 15:58 01.12.2019
3413 Rain 12 1016 49 0 3.46 51 15:39 01.12.2019
3414 Rain 12 1016 49 0 3.46 51 15:39 01.12.2019
3415 Rain 12 1016 49 0 3.46 51 15:20 01.12.2019
3416 Rain 12 1016 49 0 3.46 51 14:38 01.12.2019
3417 Clouds 8 1018 71 0 2.66 47 14:19 01.12.2019
3418 Clouds 8 1018 71 0 2.66 47 13:40 01.12.2019
3419 Clouds 8 1018 71 0 2.66 47 13:21 01.12.2019
3420 Rain 9 1018 66 0 2.76 54 12:47 01.12.2019
3421 Rain 9 1018 66 0 2.76 54 12:20 01.12.2019
3422 Rain 9 1018 66 0 2.76 54 11:44 01.12.2019
3423 Rain 9 1018 66 0 2.76 54 11:24 01.12.2019
3424 Clouds 7 1016 78 0 0.91 53 10:55 01.12.2019
3425 Clouds 7 1016 78 0 0.91 53 10:55 01.12.2019
3426 Clouds 7 1016 78 0 0.91 53 10:37 01.12.2019
3427 Clouds 7 1016 78 0 0.91 53 10:19 01.12.2019
3428 Clouds 7 1016 78 0 0.91 53 09:41 01.12.2019
3429 Clouds 7 1016 78 0 0.91 53 09:22 01.12.2019
3430 Clouds 7 1016 78 0 0.91 53 08:55 01.12.2019
3431 Clouds 7 1016 78 0 0.91 53 08:55 01.12.2019
3432 Clouds 7 1016 78 0 0.91 53 08:36 01.12.2019
3433 Clouds 8 1014 70 0 1.41 352 08:18 01.12.2019
3434 Clouds 8 1014 70 0 1.41 352 07:43 01.12.2019
3435 Clouds 8 1014 70 0 1.41 352 07:23 01.12.2019
3436 Clouds 8 1014 70 0 1.41 352 06:51 01.12.2019
3437 Clouds 8 1014 70 0 1.41 352 05:58 01.12.2019
3438 Clouds 9 1014 63 0 1.99 12 04:55 01.12.2019
3439 Clouds 9 1014 63 0 1.99 12 04:28 01.12.2019
3440 Clouds 9 1014 63 0 1.99 12 02:45 01.12.2019
3441 Clouds 9 1014 63 0 1.99 12 02:27 01.12.2019
3442 Rain 9 1011 62 0 3.45 352 01:54 01.12.2019
3443 Rain 9 1011 62 0 3.45 352 01:54 01.12.2019
3444 Rain 9 1011 62 0 3.45 352 01:31 01.12.2019
3445 Rain 9 1011 61 0 3.76 16 00:47 01.12.2019
3446 Rain 9 1011 61 0 3.76 16 00:26 01.12.2019
3447 Rain 9 1011 61 0 3.76 16 23:57 30.11.2019
3448 Rain 9 1011 61 0 3.76 16 23:37 30.11.2019
3449 Rain 12 1006 54 0 6.45 39 23:19 30.11.2019
3450 Rain 12 1006 54 0 6.45 39 22:46 30.11.2019
3451 Rain 12 1006 54 0 6.45 39 22:28 30.11.2019
3452 Rain 12 1006 54 0 6.45 39 21:54 30.11.2019
3453 Rain 12 1006 54 0 6.45 39 21:36 30.11.2019
3454 Rain 12 1006 54 0 6.45 39 21:18 30.11.2019
3455 Rain 12 1006 54 0 6.45 39 20:54 30.11.2019
3456 Rain 12 1006 54 0 6.45 39 20:36 30.11.2019
3457 Clear 16 1008 25 0 3.78 31 20:18 30.11.2019
3458 Clear 16 1008 25 0 3.78 31 19:54 30.11.2019
3459 Clear 16 1008 25 0 3.78 31 19:36 30.11.2019
3460 Clear 16 1008 25 0 3.78 31 19:18 30.11.2019
3461 Clear 16 1008 25 0 3.78 31 18:39 30.11.2019
3462 Clear 16 1008 25 0 3.78 31 18:39 30.11.2019
3463 Clear 16 1008 25 0 3.78 31 18:21 30.11.2019
3464 Clear 16 1008 25 0 3.78 31 17:59 30.11.2019
3465 Clear 16 1008 25 0 3.78 31 17:41 30.11.2019
3466 Clear 13 1012 28 0 2.88 38 17:22 30.11.2019
3467 Clear 13 1012 28 0 2.88 38 16:59 30.11.2019
3468 Clear 13 1012 28 0 2.88 38 16:59 30.11.2019
3469 Clear 13 1012 28 0 2.88 38 16:40 30.11.2019
3470 Clear 13 1012 28 0 2.88 38 16:22 30.11.2019
3471 Clear 13 1012 28 0 2.88 38 15:54 30.11.2019
3472 Clear 13 1012 28 0 2.88 38 15:36 30.11.2019
3473 Clear 13 1012 28 0 2.88 38 15:18 30.11.2019
3474 Clear 13 1012 28 0 2.88 38 14:55 30.11.2019
3475 Clear 13 1012 28 0 2.88 38 14:36 30.11.2019
3476 Clear 10 1014 47 0 1.84 56 14:18 30.11.2019
3477 Clear 10 1014 47 0 1.84 56 13:42 30.11.2019
3478 Clear 10 1014 51 0 1.77 48 13:24 30.11.2019
3479 Clear 10 1014 51 0 1.77 48 12:57 30.11.2019
3480 Clear 10 1014 51 0 1.77 48 12:39 30.11.2019
3481 Clear 10 1014 51 0 1.77 48 12:18 30.11.2019
3482 Clear 10 1014 51 0 1.77 48 11:41 30.11.2019
3483 Clear 7 1013 66 0 0.76 19 11:19 30.11.2019
3484 Clear 7 1013 66 0 0.76 19 10:55 30.11.2019
3485 Clear 7 1013 66 0 0.76 19 10:37 30.11.2019
3486 Clear 7 1013 66 0 0.76 19 10:18 30.11.2019
3487 Clear 7 1013 66 0 0.76 19 09:43 30.11.2019
3488 Clear 7 1013 66 0 0.76 19 09:21 30.11.2019
3489 Clear 7 1013 66 0 0.76 19 08:43 30.11.2019
3490 Clouds 9 1011 52 0 0.42 166 08:20 30.11.2019
3491 Clouds 9 1012 46 0 0.92 191 07:56 30.11.2019
3492 Clouds 9 1012 46 0 0.92 191 07:37 30.11.2019
3493 Clouds 9 1012 46 0 0.92 191 06:56 30.11.2019
3494 Clouds 9 1012 46 0 0.92 191 06:29 30.11.2019
3495 Clouds 9 1012 46 0 0.92 191 05:49 30.11.2019
3496 Clouds 11 1011 37 0 1.11 273 03:48 30.11.2019
3497 Clouds 11 1011 37 0 1.11 273 02:39 30.11.2019
3498 Clouds 12 1008 35 0 1.01 46 02:21 30.11.2019
3499 Clouds 13 1007 35 0 0.73 65 01:25 30.11.2019
3500 Clouds 13 1007 35 0 0.73 65 01:25 30.11.2019
3501 Clouds 13 1007 35 0 0.73 65 01:25 30.11.2019
3502 Clouds 13 1007 35 0 0.73 65 01:25 30.11.2019
3503 Clouds 13 1007 35 0 0.73 65 00:50 30.11.2019
3504 Clouds 13 1007 35 0 0.73 65 00:31 30.11.2019
3505 Clouds 13 1007 35 0 0.73 65 23:59 29.11.2019
3506 Clouds 13 1007 35 0 0.73 65 23:59 29.11.2019
3507 Clouds 13 1007 35 0 0.73 65 23:40 29.11.2019
3508 Clouds 16 1003 10 0 3.94 264 23:22 29.11.2019
3509 Clouds 16 1003 10 0 3.94 264 22:45 29.11.2019
3510 Clouds 16 1003 10 0 3.94 264 22:25 29.11.2019
3511 Clouds 16 1003 10 0 3.94 264 21:44 29.11.2019
3512 Clouds 16 1003 10 0 3.94 264 21:24 29.11.2019
3513 Clouds 16 1003 10 0 3.94 264 20:58 29.11.2019
3514 Clouds 16 1003 10 0 3.94 264 20:38 29.11.2019
3515 Clouds 16 1006 10 0 3.8 276 20:19 29.11.2019
3516 Clouds 16 1006 10 0 3.8 276 19:57 29.11.2019
3517 Clouds 16 1006 10 0 3.8 276 19:39 29.11.2019
3518 Clouds 16 1006 10 0 3.8 276 19:20 29.11.2019
3519 Clouds 16 1006 10 0 3.8 276 18:57 29.11.2019
3520 Clouds 16 1006 10 0 3.8 276 18:38 29.11.2019
3521 Clouds 16 1006 10 0 3.8 276 18:19 29.11.2019
3522 Clouds 16 1006 10 0 3.8 276 17:43 29.11.2019
3523 Clouds 16 1006 10 0 3.8 276 17:24 29.11.2019
3524 Clouds 14 1011 11 0 1.71 309 16:57 29.11.2019
3525 Clouds 14 1011 11 0 1.71 309 16:57 29.11.2019
3526 Clouds 14 1011 11 0 1.71 309 16:39 29.11.2019
3527 Clouds 14 1011 11 0 1.71 309 16:19 29.11.2019
3528 Clouds 14 1011 11 0 1.71 309 15:41 29.11.2019
3529 Clouds 14 1011 11 0 1.71 309 15:23 29.11.2019
3530 Clouds 14 1011 11 0 1.71 309 14:56 29.11.2019
3531 Clouds 14 1011 11 0 1.71 309 14:38 29.11.2019
3532 Clouds 10 1014 21 0 1.03 305 14:19 29.11.2019
3533 Clouds 10 1014 21 0 1.03 305 13:41 29.11.2019
3534 Clouds 10 1015 24 0 1.01 275 13:21 29.11.2019
3535 Clouds 10 1015 24 0 1.01 275 13:21 29.11.2019
3536 Clouds 10 1015 24 0 1.01 275 12:57 29.11.2019
3537 Clouds 10 1015 24 0 1.01 275 12:39 29.11.2019
3538 Clouds 10 1015 24 0 1.01 275 12:21 29.11.2019
3539 Clouds 10 1015 24 0 1.01 275 11:55 29.11.2019
3540 Clouds 10 1015 24 0 1.01 275 11:55 29.11.2019
3541 Clouds 10 1015 24 0 1.01 275 11:36 29.11.2019
3542 Clouds 7 1013 49 0 0.68 281 11:18 29.11.2019
3543 Clouds 7 1013 49 0 0.68 281 10:56 29.11.2019
3544 Clouds 7 1013 49 0 0.68 281 10:37 29.11.2019
3545 Clouds 7 1013 49 0 0.68 281 10:18 29.11.2019
3546 Clouds 7 1013 49 0 0.68 281 09:55 29.11.2019
3547 Clouds 7 1013 49 0 0.68 281 09:37 29.11.2019
3548 Clouds 7 1013 49 0 0.68 281 09:18 29.11.2019
3549 Clouds 7 1013 49 0 0.68 281 08:40 29.11.2019
3550 Rain 8 1013 60 0 0.6 347 08:22 29.11.2019
3551 Rain 8 1013 60 0 0.6 347 07:58 29.11.2019
3552 Rain 8 1013 60 0 0.6 347 07:58 29.11.2019
3553 Rain 8 1013 60 0 0.6 347 07:40 29.11.2019
3554 Rain 8 1013 60 0 0.6 347 07:21 29.11.2019
3555 Rain 8 1013 60 0 0.6 347 06:43 29.11.2019
3556 Rain 8 1013 60 0 0.6 347 05:48 29.11.2019
3557 Rain 8 1013 60 0 0.6 347 05:25 29.11.2019
3558 Rain 9 1013 69 0 1.89 46 04:32 29.11.2019
3559 Rain 9 1013 69 0 1.89 46 03:22 29.11.2019
3560 Rain 9 1013 69 0 1.89 46 02:32 29.11.2019
3561 Clouds 12 1010 34 0 1.44 3 01:53 29.11.2019
3562 Clouds 12 1010 34 0 1.44 3 01:26 29.11.2019
3563 Clouds 12 1010 29 0 1.1 340 00:45 29.11.2019
3564 Clouds 12 1010 29 0 1.1 340 00:21 29.11.2019
3565 Clouds 12 1010 29 0 1.1 340 23:57 28.11.2019
3566 Clouds 12 1010 29 0 1.1 340 23:38 28.11.2019
3567 Clouds 16 1006 16 0 1.59 238 23:20 28.11.2019
3568 Clouds 16 1006 16 0 1.59 238 22:54 28.11.2019
3569 Clouds 16 1006 16 0 1.59 238 22:36 28.11.2019
3570 Clouds 16 1006 16 0 1.59 238 22:18 28.11.2019
3571 Clouds 16 1006 16 0 1.59 238 21:42 28.11.2019
3572 Clouds 16 1006 16 0 1.59 238 21:21 28.11.2019
3573 Clouds 16 1006 16 0 1.59 238 20:58 28.11.2019
3574 Clouds 16 1006 16 0 1.59 238 20:40 28.11.2019
3575 Clouds 16 1009 9 0 4.03 243 20:21 28.11.2019
3576 Clouds 16 1009 9 0 4.03 243 20:21 28.11.2019
3577 Clouds 16 1009 9 0 4.03 243 19:57 28.11.2019
3578 Clouds 16 1009 9 0 4.03 243 19:37 28.11.2019
3579 Clouds 16 1009 9 0 4.03 243 19:19 28.11.2019
3580 Clouds 16 1009 9 0 4.03 243 18:57 28.11.2019
3581 Clouds 16 1009 9 0 4.03 243 18:38 28.11.2019
3582 Clouds 16 1009 9 0 4.03 243 18:18 28.11.2019
3583 Clouds 16 1009 9 0 4.03 243 17:43 28.11.2019
3584 Clouds 16 1009 9 0 4.03 243 17:25 28.11.2019
3585 Clouds 16 1009 9 0 4.03 243 17:25 28.11.2019
3586 Clouds 14 1013 14 0 0.84 245 16:59 28.11.2019
3587 Clouds 14 1013 14 0 0.84 245 16:40 28.11.2019
3588 Clouds 14 1013 14 0 0.84 245 16:19 28.11.2019
3589 Clouds 14 1013 14 0 0.84 245 15:57 28.11.2019
3590 Clouds 14 1013 14 0 0.84 245 15:38 28.11.2019
3591 Clouds 14 1013 14 0 0.84 245 15:38 28.11.2019
3592 Clouds 14 1013 14 0 0.84 245 15:19 28.11.2019
3593 Clouds 14 1013 14 0 0.84 245 14:57 28.11.2019
3594 Clouds 14 1013 14 0 0.84 245 14:38 28.11.2019
3595 Clouds 8 1016 63 0 0.89 333 14:19 28.11.2019
3596 Clouds 8 1016 63 0 0.89 333 13:42 28.11.2019
3597 Clouds 8 1017 62 0 0.9 343 13:23 28.11.2019
3598 Clouds 8 1017 62 0 0.9 343 12:55 28.11.2019
3599 Clouds 8 1017 62 0 0.9 343 12:55 28.11.2019
3600 Clouds 8 1017 62 0 0.9 343 12:36 28.11.2019
3601 Clouds 8 1017 62 0 0.9 343 12:18 28.11.2019
3602 Clouds 8 1017 62 0 0.9 343 11:54 28.11.2019
3603 Clouds 8 1017 62 0 0.9 343 11:36 28.11.2019
3604 Clouds 6 1016 89 0 1.43 45 11:18 28.11.2019
3605 Clouds 6 1016 89 0 1.43 45 10:41 28.11.2019
3606 Clouds 6 1016 89 0 1.43 45 10:20 28.11.2019
3607 Clouds 6 1016 89 0 1.43 45 09:55 28.11.2019
3608 Clouds 6 1016 89 0 1.43 45 09:37 28.11.2019
3609 Clouds 6 1016 89 0 1.43 45 09:18 28.11.2019
3610 Clouds 6 1016 89 0 1.43 45 08:40 28.11.2019
3611 Rain 8 1015 76 0 1.98 34 08:21 28.11.2019
3612 Rain 8 1015 76 0 1.98 34 07:43 28.11.2019
3613 Rain 8 1015 76 0 1.98 34 07:25 28.11.2019
3614 Rain 8 1015 76 0 1.98 34 06:58 28.11.2019
3615 Rain 8 1015 76 0 1.98 34 06:37 28.11.2019
3616 Rain 8 1015 76 0 1.98 34 05:53 28.11.2019
3617 Rain 8 1015 76 0 1.98 34 05:33 28.11.2019
3618 Rain 8 1016 71 0 1.72 5 03:49 28.11.2019
3619 Rain 8 1016 71 0 1.72 5 02:30 28.11.2019
3620 Clouds 10 1012 61 0 4.57 54 01:21 28.11.2019
3621 Clouds 10 1012 61 0 4.57 54 00:37 28.11.2019
3622 Clouds 10 1012 61 0 4.57 54 00:18 28.11.2019
3623 Clouds 10 1012 61 0 4.57 54 23:38 27.11.2019
3624 Clouds 16 1007 15 0 3.11 214 23:20 27.11.2019
3625 Clouds 16 1007 15 0 3.11 214 22:55 27.11.2019
3626 Clouds 16 1007 15 0 3.11 214 22:36 27.11.2019
3627 Clouds 16 1007 15 0 3.11 214 22:18 27.11.2019
3628 Clouds 16 1007 15 0 3.11 214 21:55 27.11.2019
3629 Clouds 16 1007 15 0 3.11 214 21:36 27.11.2019
3630 Clouds 16 1007 15 0 3.11 214 21:18 27.11.2019
3631 Clouds 16 1007 15 0 3.11 214 20:55 27.11.2019
3632 Clouds 16 1007 15 0 3.11 214 20:36 27.11.2019
3633 Clouds 17 1009 11 0 5.73 246 20:18 27.11.2019
3634 Clouds 17 1009 12 0 4.37 245 19:54 27.11.2019
3635 Clouds 17 1009 12 0 4.37 245 19:36 27.11.2019
3636 Clouds 17 1009 12 0 4.37 245 19:18 27.11.2019
3637 Clouds 17 1009 12 0 4.37 245 18:38 27.11.2019
3638 Clouds 17 1009 12 0 4.37 245 18:20 27.11.2019
3639 Clouds 17 1009 12 0 4.37 245 17:59 27.11.2019
3640 Clouds 17 1009 12 0 4.37 245 17:41 27.11.2019
3641 Clouds 13 1014 26 0 1.86 354 17:23 27.11.2019
3642 Clouds 13 1014 26 0 1.86 354 16:58 27.11.2019
3643 Clouds 13 1014 26 0 1.86 354 16:58 27.11.2019
3644 Clouds 13 1014 26 0 1.86 354 16:39 27.11.2019
3645 Clouds 13 1014 26 0 1.86 354 16:21 27.11.2019
3646 -273 0 0 0 0 0 15:58 27.11.2019
3647 Clouds 13 1014 26 0 1.86 354 15:58 27.11.2019
3648 Clouds 13 1014 26 0 1.86 354 15:40 27.11.2019
3649 Clouds 13 1014 26 0 1.86 354 15:21 27.11.2019
3650 Clouds 13 1014 26 0 1.86 354 14:58 27.11.2019
3651 Clouds 13 1014 26 0 1.86 354 14:39 27.11.2019
3652 Clouds 7 1016 80 0 1.98 17 14:21 27.11.2019
3653 Clouds 7 1016 80 0 1.98 17 13:58 27.11.2019
3654 Clouds 7 1016 80 0 1.98 17 13:58 27.11.2019
3655 Clouds 7 1016 80 0 1.98 17 13:39 27.11.2019
3656 Clouds 7 1016 76 0 1.98 1 13:19 27.11.2019
3657 Clouds 7 1016 76 0 1.98 1 13:19 27.11.2019
3658 Clouds 7 1016 76 0 1.98 1 12:57 27.11.2019
3659 Clouds 7 1016 76 0 1.98 1 12:39 27.11.2019
3660 Clouds 7 1016 76 0 1.98 1 12:19 27.11.2019
3661 Clouds 7 1016 76 0 1.98 1 11:38 27.11.2019
3662 Clouds 5 1014 91 0 1.65 20 11:19 27.11.2019
3663 Clouds 5 1014 91 0 1.65 20 10:59 27.11.2019
3664 Clouds 5 1014 91 0 1.65 20 10:41 27.11.2019
3665 Clouds 5 1014 91 0 1.65 20 10:23 27.11.2019
3666 Clouds 5 1014 91 0 1.65 20 10:23 27.11.2019
3667 Clouds 5 1014 91 0 1.65 20 09:45 27.11.2019
3668 Clouds 5 1014 91 0 1.65 20 09:26 27.11.2019
3669 Clouds 5 1014 91 0 1.65 20 08:58 27.11.2019
3670 Clouds 5 1014 91 0 1.65 20 08:39 27.11.2019
3671 Clouds 6 1013 87 0 1.69 348 08:21 27.11.2019
3672 Clouds 6 1013 87 0 1.69 348 07:46 27.11.2019
3673 Clouds 6 1013 87 0 1.69 348 07:28 27.11.2019
3674 Clouds 6 1013 87 0 1.69 348 06:48 27.11.2019
3675 Clouds 6 1013 87 0 1.69 348 06:29 27.11.2019
3676 Clouds 6 1013 87 0 1.69 348 05:43 27.11.2019
3677 Rain 7 1014 83 0 2.38 59 05:19 27.11.2019
3678 Rain 7 1014 83 0 2.38 59 04:43 27.11.2019
3679 Rain 7 1014 83 0 2.38 59 03:55 27.11.2019
3680 Rain 7 1014 83 0 2.38 59 03:24 27.11.2019
3681 Rain 7 1014 83 0 2.38 59 02:55 27.11.2019
3682 Rain 10 1010 61 0 2.81 56 01:41 27.11.2019
3683 Rain 9 1010 71 0 3.68 37 00:46 27.11.2019
3684 Rain 9 1010 71 0 3.68 37 00:26 27.11.2019
3685 Rain 9 1010 71 0 3.68 37 23:50 26.11.2019
3686 Rain 9 1010 71 0 3.68 37 23:28 26.11.2019
3687 Rain 14 1003 42 0 2.64 92 22:59 26.11.2019
3688 Rain 14 1003 42 0 2.64 92 22:39 26.11.2019
3689 Rain 14 1003 42 0 2.64 92 22:19 26.11.2019
3690 Rain 14 1003 42 0 2.64 92 21:58 26.11.2019
3691 Rain 14 1003 42 0 2.64 92 21:38 26.11.2019
3692 Rain 14 1003 42 0 2.64 92 21:19 26.11.2019
3693 Rain 14 1003 42 0 2.64 92 20:55 26.11.2019
3694 Rain 14 1003 42 0 2.64 92 20:37 26.11.2019
3695 Clouds 15 1004 33 0 1.53 304 20:19 26.11.2019
3696 Clouds 15 1004 33 0 1.53 304 19:55 26.11.2019
3697 Clouds 15 1004 33 0 1.53 304 19:55 26.11.2019
3698 Clouds 15 1004 33 0 1.53 304 19:37 26.11.2019
3699 Clouds 15 1004 33 0 1.53 304 19:18 26.11.2019
3700 Clouds 15 1004 33 0 1.53 304 18:56 26.11.2019
3701 Clouds 15 1004 33 0 1.53 304 18:38 26.11.2019
3702 Clouds 15 1004 33 0 1.53 304 18:20 26.11.2019
3703 Clouds 15 1004 33 0 1.53 304 17:55 26.11.2019
3704 Clouds 15 1004 33 0 1.53 304 17:37 26.11.2019
3705 Clouds 15 1008 28 0 2.05 342 17:18 26.11.2019
3706 Clouds 15 1008 28 0 2.05 342 16:55 26.11.2019
3707 Clouds 15 1008 28 0 2.05 342 16:37 26.11.2019
3708 Clouds 15 1008 28 0 2.05 342 16:18 26.11.2019
3709 Clouds 15 1008 28 0 2.05 342 15:57 26.11.2019
3710 Clouds 15 1008 28 0 2.05 342 15:37 26.11.2019
3711 Clouds 15 1008 28 0 2.05 342 15:18 26.11.2019
3712 Clouds 15 1008 28 0 2.05 342 14:45 26.11.2019
3713 Clouds 15 1008 28 0 2.05 342 14:24 26.11.2019
3714 Clouds 10 1011 49 0 2.88 275 13:45 26.11.2019
3715 Clouds 10 1011 49 0 2.88 275 13:25 26.11.2019
3716 Clouds 10 1011 50 0 2.76 284 12:58 26.11.2019
3717 Clouds 10 1011 50 0 2.76 284 12:37 26.11.2019
3718 Clouds 10 1011 50 0 2.76 284 12:19 26.11.2019
3719 Clouds 10 1011 50 0 2.76 284 11:56 26.11.2019
3720 Clouds 10 1011 50 0 2.76 284 11:37 26.11.2019
3721 Clouds 8 1010 68 0 3.67 267 11:19 26.11.2019
3722 Clouds 8 1010 68 0 3.67 267 10:56 26.11.2019
3723 Clouds 8 1010 68 0 3.67 267 10:38 26.11.2019
3724 Clouds 8 1010 68 0 3.67 267 10:19 26.11.2019
3725 Clouds 8 1010 68 0 3.67 267 09:43 26.11.2019
3726 Clouds 8 1010 68 0 3.67 267 09:24 26.11.2019
3727 Clouds 8 1010 68 0 3.67 267 08:56 26.11.2019
3728 Clouds 8 1010 68 0 3.67 267 08:38 26.11.2019
3729 Clouds 8 1008 69 0 1.06 306 08:18 26.11.2019
3730 Clouds 8 1008 69 0 1.06 306 07:43 26.11.2019
3731 Clouds 8 1008 69 0 1.06 306 07:24 26.11.2019
3732 Clouds 8 1008 69 0 1.06 306 06:51 26.11.2019
3733 Clouds 8 1008 69 0 1.06 306 05:59 26.11.2019
3734 Clouds 8 1008 69 0 1.06 306 05:36 26.11.2019
3735 Clouds 8 1010 69 0 1.25 12 03:22 26.11.2019
3736 Clouds 8 1010 69 0 1.25 12 03:22 26.11.2019
3737 Clouds 8 1007 71 0 2.85 18 01:42 26.11.2019
3738 Rain 8 1008 71 0 2.26 49 01:23 26.11.2019
3739 Rain 8 1008 71 0 2.26 49 00:47 26.11.2019
3740 Rain 8 1008 71 0 2.26 49 00:20 26.11.2019
3741 Rain 8 1008 71 0 2.26 49 23:39 25.11.2019
3742 Rain 8 1002 74 0 7.5 93 23:19 25.11.2019
3743 Rain 8 1002 74 0 7.5 93 23:19 25.11.2019
3744 Rain 8 1002 74 0 7.5 93 22:55 25.11.2019
3745 Rain 8 1002 74 0 7.5 93 22:37 25.11.2019
3746 Rain 8 1002 74 0 7.5 93 22:18 25.11.2019
3747 Rain 8 1002 74 0 7.5 93 22:18 25.11.2019
3748 Rain 8 1002 74 0 7.5 93 21:55 25.11.2019
3749 Rain 8 1002 74 0 7.5 93 21:36 25.11.2019
3750 Rain 8 1002 74 0 7.5 93 21:18 25.11.2019
3751 Rain 8 1002 74 0 7.5 93 21:18 25.11.2019
3752 Rain 8 1002 74 0 7.5 93 21:18 25.11.2019
3753 Rain 8 1002 74 0 7.5 93 20:54 25.11.2019
3754 Rain 8 1002 74 0 7.5 93 20:36 25.11.2019
3755 Rain 8 1002 74 0 7.5 93 20:36 25.11.2019
3756 Clouds 14 1003 35 0 0.32 29 20:18 25.11.2019
3757 Clouds 14 1003 35 0 0.32 29 20:18 25.11.2019
3758 Clouds 14 1003 35 0 0.32 29 20:18 25.11.2019
3759 Clouds 14 1003 35 0 0.32 29 19:54 25.11.2019
3760 Clouds 14 1003 35 0 0.32 29 19:36 25.11.2019
3761 Clouds 14 1003 35 0 0.32 29 19:18 25.11.2019
3762 Clouds 14 1003 35 0 0.32 29 18:55 25.11.2019
3763 Clouds 14 1003 35 0 0.32 29 18:37 25.11.2019
3764 Clouds 14 1003 35 0 0.32 29 18:18 25.11.2019
3765 Clouds 14 1003 35 0 0.32 29 17:55 25.11.2019
3766 Clouds 14 1003 35 0 0.32 29 17:36 25.11.2019
3767 Clouds 11 1009 42 0 0.29 55 17:18 25.11.2019
3768 Clouds 11 1009 42 0 0.29 55 16:42 25.11.2019
3769 Clouds 11 1009 42 0 0.29 55 16:23 25.11.2019
3770 Clouds 11 1009 42 0 0.29 55 15:58 25.11.2019
3771 Clouds 11 1009 42 0 0.29 55 15:58 25.11.2019
3772 Clouds 11 1009 42 0 0.29 55 15:39 25.11.2019
3773 Clouds 11 1009 42 0 0.29 55 15:20 25.11.2019
3774 Clouds 11 1009 42 0 0.29 55 14:56 25.11.2019
3775 Clouds 11 1009 42 0 0.29 55 14:38 25.11.2019
3776 Rain 9 1012 52 0 2.97 300 14:20 25.11.2019
3777 Rain 9 1012 52 0 2.97 300 13:40 25.11.2019
3778 Rain 9 1012 52 0 2.97 300 13:21 25.11.2019
3779 Clouds 10 1012 51 0 1.54 317 12:59 25.11.2019
3780 Clouds 10 1012 51 0 1.54 317 12:40 25.11.2019
3781 Clouds 10 1012 51 0 1.54 317 12:20 25.11.2019
3782 Clouds 10 1012 51 0 1.54 317 11:57 25.11.2019
3783 Clouds 10 1012 51 0 1.54 317 11:38 25.11.2019
3784 Rain 7 1012 72 0 4.61 254 11:19 25.11.2019
3785 Rain 7 1012 72 0 4.61 254 10:45 25.11.2019
3786 Rain 7 1012 72 0 4.61 254 10:27 25.11.2019
3787 Rain 7 1012 72 0 4.61 254 09:58 25.11.2019
3788 Rain 7 1012 72 0 4.61 254 09:40 25.11.2019
3789 Rain 7 1012 72 0 4.61 254 09:22 25.11.2019
3790 Rain 7 1012 72 0 4.61 254 08:41 25.11.2019
3791 Rain 8 1013 68 0 1.84 198 08:22 25.11.2019
3792 Rain 8 1013 68 0 1.84 198 07:44 25.11.2019
3793 Rain 8 1013 68 0 1.84 198 07:24 25.11.2019
3794 Rain 8 1013 68 0 1.84 198 06:50 25.11.2019
3795 Rain 8 1013 68 0 1.84 198 06:22 25.11.2019
3796 Rain 8 1013 68 0 1.84 198 06:22 25.11.2019
3797 Rain 8 1013 68 0 1.84 198 05:49 25.11.2019
3798 Rain 8 1013 68 0 1.84 198 05:28 25.11.2019
3799 Rain 7 1013 73 0 2.18 123 03:26 25.11.2019
3800 Rain 7 1013 73 0 2.18 123 02:31 25.11.2019
3801 Rain 7 1011 78 0 2.73 157 01:42 25.11.2019
3802 Rain 9 1011 71 0 3.43 45 01:23 25.11.2019
3803 Rain 9 1011 71 0 3.43 45 00:37 25.11.2019
3804 Rain 9 1011 71 0 3.43 45 00:18 25.11.2019
3805 Rain 9 1011 71 0 3.43 45 23:43 24.11.2019
3806 Rain 10 1006 64 0 2.93 49 23:20 24.11.2019
3807 Rain 10 1006 64 0 2.93 49 22:56 24.11.2019
3808 Rain 10 1006 64 0 2.93 49 22:56 24.11.2019
3809 Rain 10 1006 64 0 2.93 49 22:37 24.11.2019
3810 Rain 10 1006 64 0 2.93 49 22:19 24.11.2019
3811 Rain 10 1006 64 0 2.93 49 21:56 24.11.2019
3812 Rain 10 1006 64 0 2.93 49 21:36 24.11.2019
3813 Rain 10 1006 64 0 2.93 49 21:18 24.11.2019
3814 Rain 10 1006 64 0 2.93 49 20:55 24.11.2019
3815 Rain 10 1006 64 0 2.93 49 20:37 24.11.2019
3816 Rain 14 1008 42 0 5.12 40 20:18 24.11.2019
3817 Rain 14 1008 44 0 4.16 34 19:54 24.11.2019
3818 Rain 14 1008 44 0 4.16 34 19:36 24.11.2019
3819 Rain 14 1008 44 0 4.16 34 19:36 24.11.2019
3820 Rain 14 1008 44 0 4.16 34 19:18 24.11.2019
3821 Rain 14 1008 44 0 4.16 34 18:56 24.11.2019
3822 Rain 14 1008 44 0 4.16 34 18:36 24.11.2019
3823 Rain 14 1008 44 0 4.16 34 18:18 24.11.2019
3824 Rain 14 1008 44 0 4.16 34 18:18 24.11.2019
3825 Rain 14 1008 44 0 4.16 34 17:55 24.11.2019
3826 Rain 14 1008 44 0 4.16 34 17:36 24.11.2019
3827 Rain 14 1008 44 0 4.16 34 17:36 24.11.2019
3828 Clouds 11 1013 49 0 3.02 31 17:18 24.11.2019
3829 Clouds 11 1013 49 0 3.02 31 16:54 24.11.2019
3830 Clouds 11 1013 49 0 3.02 31 16:36 24.11.2019
3831 Clouds 11 1013 49 0 3.02 31 16:18 24.11.2019
3832 Clouds 11 1013 49 0 3.02 31 15:42 24.11.2019
3833 Clouds 11 1013 49 0 3.02 31 15:24 24.11.2019
3834 Clouds 11 1013 49 0 3.02 31 14:56 24.11.2019
3835 Clouds 11 1013 49 0 3.02 31 14:38 24.11.2019
3836 Clouds 7 1017 66 0 2.42 12 14:18 24.11.2019
3837 Clouds 7 1017 66 0 2.42 12 13:39 24.11.2019
3838 Clouds 6 1017 74 0 2.46 22 13:21 24.11.2019
3839 Clouds 6 1017 74 0 2.46 22 12:58 24.11.2019
3840 Clouds 6 1017 74 0 2.46 22 12:39 24.11.2019
3841 Clouds 6 1017 74 0 2.46 22 12:18 24.11.2019
3842 Clouds 6 1017 74 0 2.46 22 11:55 24.11.2019
3843 Clouds 6 1017 74 0 2.46 22 11:36 24.11.2019
3844 Clouds 5 1017 85 0 0.57 43 11:18 24.11.2019
3845 Clouds 5 1017 85 0 0.57 43 10:46 24.11.2019
3846 Clouds 5 1017 85 0 0.57 43 10:28 24.11.2019
3847 Clouds 5 1017 85 0 0.57 43 09:55 24.11.2019
3848 Clouds 5 1017 85 0 0.57 43 09:36 24.11.2019
3849 Clouds 5 1017 85 0 0.57 43 09:18 24.11.2019
3850 Clouds 5 1017 85 0 0.57 43 08:44 24.11.2019
3851 Clouds 5 1017 83 0 1.5 44 08:22 24.11.2019
3852 Clouds 5 1017 83 0 1.5 44 07:57 24.11.2019
3853 Clouds 5 1017 83 0 1.5 44 07:37 24.11.2019
3854 Clouds 5 1017 83 0 1.5 44 07:18 24.11.2019
3855 Clouds 5 1017 83 0 1.5 44 06:19 24.11.2019
3856 Clouds 5 1017 83 0 1.5 44 06:19 24.11.2019
3857 Clouds 5 1017 83 0 1.5 44 06:19 24.11.2019
3858 Rain 6 1018 80 0 3.39 45 04:48 24.11.2019
3859 Rain 6 1018 80 0 3.39 45 03:33 24.11.2019
3860 Rain 6 1018 80 0 3.39 45 03:33 24.11.2019
3861 Rain 7 1016 77 0 4.94 47 01:59 24.11.2019
3862 Rain 7 1016 77 0 4.94 47 01:40 24.11.2019
3863 Rain 7 1016 77 0 4.94 47 01:21 24.11.2019
3864 Rain 7 1016 76 0 4.73 48 00:47 24.11.2019
3865 Rain 7 1016 76 0 4.73 48 00:23 24.11.2019
3866 Rain 7 1016 76 0 4.73 48 00:23 24.11.2019
3867 Rain 7 1016 76 0 4.73 48 23:45 23.11.2019
3868 Rain 10 1012 63 0 5.49 58 23:22 23.11.2019
3869 Rain 10 1012 63 0 5.49 58 22:59 23.11.2019
3870 Rain 10 1012 63 0 5.49 58 22:40 23.11.2019
3871 Rain 10 1012 63 0 5.49 58 22:22 23.11.2019
3872 Rain 10 1012 63 0 5.49 58 21:59 23.11.2019
3873 Rain 10 1012 63 0 5.49 58 21:41 23.11.2019
3874 Rain 10 1012 63 0 5.49 58 21:22 23.11.2019
3875 Rain 10 1012 63 0 5.49 58 20:57 23.11.2019
3876 Rain 10 1012 63 0 5.49 58 20:36 23.11.2019
3877 Rain 12 1014 46 0 4.03 56 20:18 23.11.2019
3878 Rain 12 1014 46 0 4.03 56 19:54 23.11.2019
3879 Rain 12 1014 46 0 4.03 56 19:36 23.11.2019
3880 Rain 12 1014 46 0 4.03 56 19:18 23.11.2019
3881 Rain 12 1014 46 0 4.03 56 18:40 23.11.2019
3882 Rain 12 1014 46 0 4.03 56 18:40 23.11.2019
3883 Rain 12 1014 46 0 4.03 56 18:21 23.11.2019
3884 Rain 12 1014 46 0 4.03 56 17:55 23.11.2019
3885 Rain 12 1014 46 0 4.03 56 17:37 23.11.2019
3886 Clouds 10 1018 48 0 3.38 63 17:19 23.11.2019
3887 Clouds 10 1018 48 0 3.38 63 16:55 23.11.2019
3888 Clouds 10 1018 48 0 3.38 63 16:37 23.11.2019
3889 Clouds 10 1018 48 0 3.38 63 16:18 23.11.2019
3890 Clouds 10 1018 48 0 3.38 63 15:56 23.11.2019
3891 Clouds 10 1018 48 0 3.38 63 15:38 23.11.2019
3892 Clouds 10 1018 48 0 3.38 63 15:18 23.11.2019
3893 Clouds 10 1018 48 0 3.38 63 14:43 23.11.2019
3894 Clouds 6 1020 72 0 2.31 83 14:21 23.11.2019
3895 Clouds 6 1020 72 0 2.31 83 13:59 23.11.2019
3896 Clouds 6 1020 72 0 2.31 83 13:40 23.11.2019
3897 Clouds 6 1020 72 0 2.31 83 13:19 23.11.2019
3898 Clouds 6 1020 71 0 2.19 82 12:44 23.11.2019
3899 Clouds 6 1020 71 0 2.19 82 12:24 23.11.2019
3900 Clouds 6 1020 71 0 2.19 82 11:58 23.11.2019
3901 Clouds 6 1020 71 0 2.19 82 11:40 23.11.2019
3902 Clouds 4 1019 83 0 1.6 90 11:18 23.11.2019
3903 Clouds 4 1019 83 0 1.6 90 10:43 23.11.2019
3904 Clouds 4 1019 83 0 1.6 90 10:21 23.11.2019
3905 Clouds 4 1019 83 0 1.6 90 09:41 23.11.2019
3906 Clouds 4 1019 83 0 1.6 90 09:20 23.11.2019
3907 Clouds 4 1019 83 0 1.6 90 09:20 23.11.2019
3908 Clouds 4 1019 83 0 1.6 90 08:42 23.11.2019
3909 Clouds 5 1019 81 0 1.88 96 08:19 23.11.2019
3910 Clouds 5 1019 81 0 1.88 96 07:52 23.11.2019
3911 Clouds 5 1019 81 0 1.88 96 07:34 23.11.2019
3912 Clouds 5 1019 81 0 1.88 96 06:45 23.11.2019
3913 Clouds 5 1019 81 0 1.88 96 06:19 23.11.2019
3914 Clouds 5 1019 81 0 1.88 96 05:50 23.11.2019
3915 Clouds 5 1019 81 0 1.88 96 05:29 23.11.2019
3916 Clouds 5 1020 80 0 1.69 111 04:48 23.11.2019
3917 Clouds 5 1020 80 0 1.69 111 04:27 23.11.2019
3918 Clouds 5 1020 80 0 1.69 111 02:48 23.11.2019
3919 Rain 4 1018 87 0 1.22 82 01:51 23.11.2019
3920 Rain 4 1018 87 0 1.22 82 01:32 23.11.2019
3921 Rain 5 1018 79 0 1.03 47 00:43 23.11.2019
3922 Rain 5 1018 79 0 1.03 47 00:18 23.11.2019
3923 Rain 5 1018 79 0 1.03 47 23:42 22.11.2019
3924 Rain 6 1014 79 0 4.8 74 23:20 22.11.2019
3925 Rain 6 1014 79 0 4.8 74 22:58 22.11.2019
3926 Rain 6 1014 79 0 4.8 74 22:38 22.11.2019
3927 Rain 6 1014 79 0 4.8 74 22:38 22.11.2019
3928 Rain 6 1014 79 0 4.8 74 22:38 22.11.2019
3929 Rain 6 1014 79 0 4.8 74 22:20 22.11.2019
3930 Rain 6 1014 79 0 4.8 74 22:20 22.11.2019
3931 Rain 6 1014 79 0 4.8 74 21:59 22.11.2019
3932 Rain 6 1014 79 0 4.8 74 21:39 22.11.2019
3933 Rain 6 1014 79 0 4.8 74 21:20 22.11.2019
3934 Rain 6 1014 79 0 4.8 74 20:43 22.11.2019
3935 Rain 11 1013 47 0 3 10 20:22 22.11.2019
3936 Rain 11 1013 47 0 3 10 19:57 22.11.2019
3937 Rain 11 1013 47 0 3 10 19:38 22.11.2019
3938 Rain 11 1013 47 0 3 10 19:19 22.11.2019
3939 Rain 11 1013 47 0 3 10 19:19 22.11.2019
3940 Rain 11 1013 47 0 3 10 18:58 22.11.2019
3941 Rain 11 1013 47 0 3 10 18:36 22.11.2019
3942 Rain 11 1013 47 0 3 10 18:18 22.11.2019
3943 Rain 11 1013 47 0 3 10 17:40 22.11.2019
3944 Rain 12 1015 44 0 3.53 80 17:22 22.11.2019
3945 Rain 12 1015 44 0 3.53 80 16:48 22.11.2019
3946 Rain 12 1015 44 0 3.53 80 16:29 22.11.2019
3947 Rain 12 1015 44 0 3.53 80 15:54 22.11.2019
3948 Rain 12 1015 44 0 3.53 80 15:36 22.11.2019
3949 Rain 12 1015 44 0 3.53 80 15:18 22.11.2019
3950 Rain 12 1015 44 0 3.53 80 14:54 22.11.2019
3951 Rain 12 1015 44 0 3.53 80 14:36 22.11.2019
3952 Rain 8 1017 61 0 2.05 93 14:18 22.11.2019
3953 Rain 8 1017 61 0 2.05 93 13:37 22.11.2019
3954 Rain 8 1017 62 0 1.94 79 13:19 22.11.2019
3955 Rain 8 1017 62 0 1.94 79 12:58 22.11.2019
3956 Rain 8 1017 62 0 1.94 79 12:40 22.11.2019
3957 Rain 8 1017 62 0 1.94 79 12:19 22.11.2019
3958 Rain 8 1017 62 0 1.94 79 11:56 22.11.2019
3959 Rain 8 1017 62 0 1.94 79 11:36 22.11.2019
3960 Rain 5 1016 82 0 0.84 79 11:18 22.11.2019
3961 Rain 5 1016 82 0 0.84 79 10:42 22.11.2019
3962 Rain 5 1016 82 0 0.84 79 10:23 22.11.2019
3963 Rain 5 1016 82 0 0.84 79 09:59 22.11.2019
3964 Rain 5 1016 82 0 0.84 79 09:40 22.11.2019
3965 Rain 5 1016 82 0 0.84 79 09:21 22.11.2019
3966 Rain 5 1016 82 0 0.84 79 08:57 22.11.2019
3967 Rain 5 1016 82 0 0.84 79 08:38 22.11.2019
3968 Clouds 6 1015 80 0 1.13 87 08:20 22.11.2019
3969 Clouds 6 1015 80 0 1.13 87 07:41 22.11.2019
3970 Clouds 6 1015 80 0 1.13 87 07:19 22.11.2019
3971 Clouds 6 1015 80 0 1.13 87 06:42 22.11.2019
3972 Clouds 6 1015 80 0 1.13 87 06:21 22.11.2019
3973 Clouds 6 1015 80 0 1.13 87 05:33 22.11.2019
3974 Rain 6 1016 79 0 2.48 20 03:26 22.11.2019
3975 Rain 6 1016 79 0 2.48 20 02:43 22.11.2019
3976 Rain 6 1016 79 0 2.48 20 02:23 22.11.2019
3977 Rain 7 1014 72 0 1.58 24 01:43 22.11.2019
3978 Rain 6 1015 78 0 3.13 261 01:18 22.11.2019
3979 Rain 6 1015 78 0 3.13 261 00:43 22.11.2019
3980 Rain 6 1015 78 0 3.13 261 00:22 22.11.2019
3981 Rain 6 1015 78 0 3.13 261 23:43 21.11.2019
3982 Rain 6 1015 78 0 3.13 261 23:24 21.11.2019
3983 Rain 10 1010 59 0 5.01 31 22:56 21.11.2019
3984 Rain 10 1010 59 0 5.01 31 22:38 21.11.2019
3985 Rain 10 1010 59 0 5.01 31 22:19 21.11.2019
3986 Rain 10 1010 59 0 5.01 31 21:55 21.11.2019
3987 Rain 10 1010 59 0 5.01 31 21:36 21.11.2019
3988 Rain 10 1010 59 0 5.01 31 21:18 21.11.2019
3989 Rain 10 1010 59 0 5.01 31 20:57 21.11.2019
3990 Rain 10 1010 59 0 5.01 31 20:37 21.11.2019
3991 Rain 11 1010 55 0 3.04 107 20:18 21.11.2019
3992 Rain 11 1010 55 0 3.04 107 19:57 21.11.2019
3993 Rain 11 1010 55 0 3.04 107 19:38 21.11.2019
3994 Rain 11 1010 55 0 3.04 107 19:19 21.11.2019
3995 Rain 11 1010 55 0 3.04 107 18:55 21.11.2019
3996 Rain 11 1010 55 0 3.04 107 18:37 21.11.2019
3997 Rain 11 1010 55 0 3.04 107 18:18 21.11.2019
3998 Rain 11 1010 55 0 3.04 107 17:40 21.11.2019
3999 Rain 12 1014 43 0 3.23 100 17:22 21.11.2019
4000 Rain 12 1014 43 0 3.23 100 17:22 21.11.2019
4001 Rain 12 1014 43 0 3.23 100 16:59 21.11.2019
4002 Rain 12 1014 43 0 3.23 100 16:40 21.11.2019
4003 Rain 12 1014 43 0 3.23 100 16:21 21.11.2019
4004 Rain 12 1014 43 0 3.23 100 15:56 21.11.2019
4005 Rain 12 1014 43 0 3.23 100 15:37 21.11.2019
4006 Rain 12 1014 43 0 3.23 100 15:19 21.11.2019
4007 Rain 12 1014 43 0 3.23 100 14:39 21.11.2019
4008 Rain 8 1017 63 0 0.39 67 14:21 21.11.2019
4009 Rain 8 1017 63 0 0.39 67 13:59 21.11.2019
4010 Rain 8 1017 63 0 0.39 67 13:38 21.11.2019
4011 Clouds 8 1018 69 0 1.1 48 13:19 21.11.2019
4012 Clouds 8 1018 69 0 1.1 48 12:56 21.11.2019
4013 Clouds 8 1018 69 0 1.1 48 12:37 21.11.2019
4014 Clouds 8 1018 69 0 1.1 48 12:19 21.11.2019
4015 Clouds 8 1018 69 0 1.1 48 11:41 21.11.2019
4016 Rain 6 1017 74 0 1.16 37 11:21 21.11.2019
4017 Rain 6 1017 74 0 1.16 37 10:57 21.11.2019
4018 Rain 6 1017 74 0 1.16 37 10:57 21.11.2019
4019 Rain 6 1017 74 0 1.16 37 10:39 21.11.2019
4020 Rain 6 1017 74 0 1.16 37 10:20 21.11.2019
4021 Rain 6 1017 74 0 1.16 37 09:43 21.11.2019
4022 Rain 6 1017 74 0 1.16 37 09:24 21.11.2019
4023 Rain 6 1017 74 0 1.16 37 08:59 21.11.2019
4024 Rain 6 1017 74 0 1.16 37 08:40 21.11.2019
4025 Rain 7 1017 67 0 0.66 250 08:19 21.11.2019
4026 Rain 7 1017 67 0 0.66 250 07:40 21.11.2019
4027 Rain 7 1017 67 0 0.66 250 07:18 21.11.2019
4028 Rain 7 1017 67 0 0.66 250 06:57 21.11.2019
4029 Rain 7 1017 67 0 0.66 250 06:33 21.11.2019
4030 Rain 7 1017 67 0 0.66 250 05:32 21.11.2019
4031 Rain 7 1019 75 0 2.2 34 03:32 21.11.2019
4032 Rain 7 1019 75 0 2.2 34 02:40 21.11.2019
4033 Rain 7 1017 72 0 2.54 30 01:54 21.11.2019
4034 Rain 7 1017 72 0 2.54 30 01:36 21.11.2019
4035 Rain 7 1017 73 0 3.66 24 00:54 21.11.2019
4036 Rain 7 1017 73 0 3.66 24 00:21 21.11.2019
4037 Rain 7 1017 73 0 3.66 24 23:57 20.11.2019
4038 Rain 7 1017 73 0 3.66 24 23:39 20.11.2019
4039 Rain 10 1011 59 0 4.7 46 23:20 20.11.2019
4040 Rain 10 1011 59 0 4.7 46 22:55 20.11.2019
4041 Rain 10 1011 59 0 4.7 46 22:55 20.11.2019
4042 Rain 10 1011 59 0 4.7 46 22:37 20.11.2019
4043 Rain 10 1011 59 0 4.7 46 22:37 20.11.2019
4044 Rain 10 1011 59 0 4.7 46 22:18 20.11.2019
4045 Rain 10 1011 59 0 4.7 46 22:18 20.11.2019
4046 Rain 10 1011 59 0 4.7 46 21:55 20.11.2019
4047 Rain 10 1011 59 0 4.7 46 21:37 20.11.2019
4048 Rain 10 1011 59 0 4.7 46 21:18 20.11.2019
4049 Rain 10 1011 59 0 4.7 46 20:54 20.11.2019
4050 Rain 10 1011 59 0 4.7 46 20:36 20.11.2019
4051 Rain 11 1013 47 0 3.08 83 20:18 20.11.2019
4052 Rain 11 1013 47 0 3.08 83 19:54 20.11.2019
4053 Rain 11 1013 47 0 3.08 83 19:36 20.11.2019
4054 Rain 11 1013 47 0 3.08 83 19:18 20.11.2019
4055 Rain 11 1013 47 0 3.08 83 18:55 20.11.2019
4056 Rain 11 1013 47 0 3.08 83 18:36 20.11.2019
4057 Rain 11 1013 47 0 3.08 83 18:18 20.11.2019
4058 Rain 11 1013 47 0 3.08 83 17:55 20.11.2019
4059 Rain 11 1013 47 0 3.08 83 17:36 20.11.2019
4060 Clouds 11 1018 45 0 2.92 66 17:18 20.11.2019
4061 Clouds 11 1018 45 0 2.92 66 16:41 20.11.2019
4062 Clouds 11 1018 45 0 2.92 66 16:20 20.11.2019
4063 Clouds 11 1018 45 0 2.92 66 15:58 20.11.2019
4064 Clouds 11 1018 45 0 2.92 66 15:39 20.11.2019
4065 Clouds 11 1018 45 0 2.92 66 15:20 20.11.2019
4066 Clouds 11 1018 45 0 2.92 66 14:56 20.11.2019
4067 Clouds 11 1018 45 0 2.92 66 14:38 20.11.2019
4068 Clouds 6 1022 65 0 0.79 11 14:19 20.11.2019
4069 Clouds 6 1022 65 0 0.79 11 13:55 20.11.2019
4070 Clouds 6 1022 65 0 0.79 11 13:36 20.11.2019
4071 Clear 6 1021 65 0 0.95 40 13:18 20.11.2019
4072 Clear 6 1021 65 0 0.95 40 12:40 20.11.2019
4073 Clear 6 1021 65 0 0.95 40 12:22 20.11.2019
4074 Clear 6 1021 65 0 0.95 40 11:55 20.11.2019
4075 Clear 6 1021 65 0 0.95 40 11:37 20.11.2019
4076 Clear 3 1020 81 0 1.17 49 11:18 20.11.2019
4077 Clear 3 1020 81 0 1.17 49 10:54 20.11.2019
4078 Clear 3 1020 81 0 1.17 49 10:36 20.11.2019
4079 Clear 3 1020 81 0 1.17 49 10:18 20.11.2019
4080 Clear 3 1020 81 0 1.17 49 09:42 20.11.2019
4081 Clear 3 1020 81 0 1.17 49 09:20 20.11.2019
4082 Clear 3 1020 81 0 1.17 49 08:47 20.11.2019
4083 Clear 3 1020 81 0 1.17 49 08:28 20.11.2019
4084 Clouds 4 1020 74 0 1.54 35 07:59 20.11.2019
4085 Clouds 4 1020 74 0 1.54 35 07:38 20.11.2019
4086 Clouds 4 1020 74 0 1.54 35 07:20 20.11.2019
4087 Clouds 4 1020 74 0 1.54 35 06:45 20.11.2019
4088 Clouds 4 1020 74 0 1.54 35 06:45 20.11.2019
4089 Clouds 4 1020 74 0 1.54 35 06:19 20.11.2019
4090 Clouds 5 1021 69 0 3.07 42 04:50 20.11.2019
4091 Clouds 5 1021 69 0 3.07 42 02:47 20.11.2019
4092 Clouds 6 1018 65 0 6.4 53 01:39 20.11.2019
4093 Clouds 6 1018 65 0 6.4 53 01:20 20.11.2019
4094 Clouds 6 1018 65 0 6.01 50 00:35 20.11.2019
4095 Clouds 6 1018 65 0 6.01 50 23:43 19.11.2019
4096 Clouds 6 1018 65 0 6.01 50 23:25 19.11.2019
4097 Clouds 9 1014 46 0 6.83 56 22:57 19.11.2019
4098 Clouds 9 1014 46 0 6.83 56 22:38 19.11.2019
4099 Clouds 9 1014 46 0 6.83 56 22:19 19.11.2019
4100 Clouds 9 1014 46 0 6.83 56 21:55 19.11.2019
4101 Clouds 9 1014 46 0 6.83 56 21:37 19.11.2019
4102 Clouds 9 1014 46 0 6.83 56 21:19 19.11.2019
4103 Clouds 9 1014 46 0 6.83 56 20:55 19.11.2019
4104 Clouds 9 1014 46 0 6.83 56 20:36 19.11.2019
4105 Clouds 9 1014 46 0 6.83 56 20:36 19.11.2019
4106 Clouds 9 1014 46 0 6.83 56 20:36 19.11.2019
4107 Clouds 9 1014 46 0 6.83 56 20:36 19.11.2019
4108 Clear 12 1016 26 0 7.84 52 20:18 19.11.2019
4109 Clear 12 1016 26 0 7.84 52 19:55 19.11.2019
4110 Clear 12 1016 26 0 7.84 52 19:36 19.11.2019
4111 Clear 12 1016 26 0 7.84 52 19:18 19.11.2019
4112 Clear 12 1016 26 0 7.84 52 18:41 19.11.2019
4113 Clear 12 1016 26 0 7.84 52 18:41 19.11.2019
4114 Clear 12 1016 26 0 7.84 52 18:41 19.11.2019
4115 Clear 12 1016 26 0 7.84 52 18:21 19.11.2019
4116 Clear 12 1016 26 0 7.84 52 17:59 19.11.2019
4117 Clear 12 1016 26 0 7.84 52 17:41 19.11.2019
4118 Clear 9 1021 33 0 3.81 56 17:21 19.11.2019
4119 Clear 9 1021 33 0 3.81 56 16:59 19.11.2019
4120 Clear 9 1021 33 0 3.81 56 16:41 19.11.2019
4121 Clear 9 1021 33 0 3.81 56 16:21 19.11.2019
4122 Clear 9 1021 33 0 3.81 56 15:47 19.11.2019
4123 Clear 9 1021 33 0 3.81 56 15:27 19.11.2019
4124 Clear 9 1021 33 0 3.81 56 14:59 19.11.2019
4125 Clear 9 1021 33 0 3.81 56 14:59 19.11.2019
4126 Clear 9 1021 33 0 3.81 56 14:59 19.11.2019
4127 Clear 9 1021 33 0 3.81 56 14:40 19.11.2019
4128 Clouds 4 1024 59 0 1.95 65 14:21 19.11.2019
4129 Clouds 4 1024 59 0 1.95 65 13:59 19.11.2019
4130 Clouds 4 1024 59 0 1.95 65 13:39 19.11.2019
4131 Clear 4 1024 56 0 1.73 58 13:19 19.11.2019
4132 Clear 4 1024 56 0 1.73 58 12:40 19.11.2019
4133 Clear 4 1024 56 0 1.73 58 12:21 19.11.2019
4134 Clear 4 1024 56 0 1.73 58 11:57 19.11.2019
4135 Clear 4 1024 56 0 1.73 58 11:38 19.11.2019
4136 Clouds 3 1023 79 0 1.53 51 11:19 19.11.2019
4137 Clouds 3 1023 79 0 1.53 51 11:19 19.11.2019
4138 Clouds 3 1023 79 0 1.53 51 10:47 19.11.2019
4139 Clouds 3 1023 79 0 1.53 51 10:22 19.11.2019
4140 Clouds 3 1023 79 0 1.53 51 09:58 19.11.2019
4141 Clouds 3 1023 79 0 1.53 51 09:40 19.11.2019
4142 Clouds 3 1023 79 0 1.53 51 09:18 19.11.2019
4143 Clouds 3 1023 79 0 1.53 51 08:41 19.11.2019
4144 Clouds 3 1021 78 0 2.13 52 08:23 19.11.2019
4145 Snow 3 1022 70 0 3.09 46 07:57 19.11.2019
4146 Snow 3 1022 70 0 3.09 46 07:38 19.11.2019
4147 Snow 3 1022 70 0 3.09 46 07:20 19.11.2019
4148 Snow 3 1022 70 0 3.09 46 06:50 19.11.2019
4149 Snow 3 1022 70 0 3.09 46 06:30 19.11.2019
4150 Snow 3 1022 70 0 3.09 46 05:28 19.11.2019
4151 Rain 4 1022 77 0 4.68 47 03:50 19.11.2019
4152 Rain 4 1022 77 0 4.68 47 03:31 19.11.2019
4153 Rain 4 1022 77 0 4.68 47 02:55 19.11.2019
4154 Clouds 6 1019 62 0 6.85 59 02:22 19.11.2019
4155 Clouds 6 1019 62 0 7.15 60 01:27 19.11.2019
4156 Clouds 6 1019 62 0 7.15 60 00:21 19.11.2019
4157 Clouds 6 1019 62 0 7.15 60 23:57 18.11.2019
4158 Clouds 6 1019 62 0 7.15 60 23:37 18.11.2019
4159 Clouds 10 1013 41 0 8.2 59 23:18 18.11.2019
4160 Clouds 10 1013 41 0 8.2 59 22:42 18.11.2019
4161 Clouds 10 1013 41 0 8.2 59 22:23 18.11.2019
4162 Clouds 10 1013 41 0 8.2 59 21:56 18.11.2019
4163 Clouds 10 1013 41 0 8.2 59 21:37 18.11.2019
4164 Clouds 10 1013 41 0 8.2 59 21:19 18.11.2019
4165 Clouds 10 1013 41 0 8.2 59 20:56 18.11.2019
4166 Clouds 10 1013 41 0 8.2 59 20:38 18.11.2019
4167 Clouds 13 1013 27 0 8.82 60 20:18 18.11.2019
4168 Clouds 13 1013 27 0 8.82 60 19:55 18.11.2019
4169 Clouds 13 1013 27 0 8.82 60 19:36 18.11.2019
4170 Clouds 13 1013 27 0 8.82 60 19:18 18.11.2019
4171 Clouds 13 1013 27 0 8.82 60 18:54 18.11.2019
4172 Clouds 13 1013 27 0 8.82 60 18:54 18.11.2019
4173 Clouds 13 1013 27 0 8.82 60 18:36 18.11.2019
4174 Clouds 13 1013 27 0 8.82 60 18:18 18.11.2019
4175 Clouds 13 1013 27 0 8.82 60 17:39 18.11.2019
4176 Clouds 11 1017 29 0 4.36 68 17:20 18.11.2019
4177 Clouds 11 1017 29 0 4.36 68 16:55 18.11.2019
4178 Clouds 11 1017 29 0 4.36 68 16:37 18.11.2019
4179 Clouds 11 1017 29 0 4.36 68 16:19 18.11.2019
4180 Clouds 11 1017 29 0 4.36 68 15:56 18.11.2019
4181 Clouds 11 1017 29 0 4.36 68 15:56 18.11.2019
4182 Clouds 11 1017 29 0 4.36 68 15:37 18.11.2019
4183 Clouds 11 1017 29 0 4.36 68 15:18 18.11.2019
4184 Clouds 11 1017 29 0 4.36 68 14:42 18.11.2019
4185 Clouds 6 1019 53 0 1.21 76 14:23 18.11.2019
4186 Clouds 6 1019 53 0 1.21 76 13:55 18.11.2019
4187 Clouds 6 1019 53 0 1.21 76 13:37 18.11.2019
4188 Clouds 6 1019 55 0 1.46 97 13:18 18.11.2019
4189 Clouds 6 1019 55 0 1.46 97 12:39 18.11.2019
4190 Clouds 6 1019 55 0 1.46 97 12:19 18.11.2019
4191 Clouds 6 1019 55 0 1.46 97 11:45 18.11.2019
4192 Clouds 6 1019 55 0 1.46 97 11:27 18.11.2019
4193 Clouds 4 1018 68 0 0.72 91 10:59 18.11.2019
4194 Clouds 4 1018 68 0 0.72 91 10:40 18.11.2019
4195 Clouds 4 1018 68 0 0.72 91 10:22 18.11.2019
4196 Clouds 4 1018 68 0 0.72 91 09:56 18.11.2019
4197 Clouds 4 1018 68 0 0.72 91 09:37 18.11.2019
4198 Clouds 4 1018 68 0 0.72 91 09:18 18.11.2019
4199 Clouds 4 1018 68 0 0.72 91 09:18 18.11.2019
4200 Clouds 4 1018 68 0 0.72 91 08:44 18.11.2019
4201 Clear 5 1017 61 0 0.5 94 08:22 18.11.2019
4202 Clear 5 1017 61 0 0.5 94 07:48 18.11.2019
4203 Clear 5 1017 61 0 0.5 94 07:29 18.11.2019
4204 Clear 5 1017 61 0 0.5 94 06:56 18.11.2019
4205 Clear 5 1017 61 0 0.5 94 06:37 18.11.2019
4206 Clear 5 1017 61 0 0.5 94 06:19 18.11.2019
4207 Clear 5 1017 61 0 0.5 94 05:25 18.11.2019
4208 Clear 5 1018 57 0 2.43 54 02:59 18.11.2019
4209 Clouds 7 1014 50 0 5.62 56 01:31 18.11.2019
4210 Clouds 7 1014 58 0 5.79 56 00:39 18.11.2019
4211 Clouds 7 1014 58 0 5.79 56 23:56 17.11.2019
4212 Clouds 7 1014 58 0 5.79 56 23:38 17.11.2019
4213 Clouds 11 1008 39 0 6.86 61 23:18 17.11.2019
4214 Clouds 11 1008 39 0 6.86 61 22:54 17.11.2019
4215 Clouds 11 1008 39 0 6.86 61 22:36 17.11.2019
4216 Clouds 11 1008 39 0 6.86 61 22:18 17.11.2019
4217 Clouds 11 1008 39 0 6.86 61 21:42 17.11.2019
4218 Clouds 11 1008 39 0 6.86 61 21:19 17.11.2019
4219 Clouds 11 1008 39 0 6.86 61 20:58 17.11.2019
4220 Clouds 11 1008 39 0 6.86 61 20:39 17.11.2019
4221 Clouds 13 1010 26 0 6.85 46 20:20 17.11.2019
4222 Clouds 13 1010 25 0 7.05 49 19:56 17.11.2019
4223 Clouds 13 1010 25 0 7.05 49 19:38 17.11.2019
4224 Clouds 13 1010 25 0 7.05 49 19:38 17.11.2019
4225 Clouds 13 1010 25 0 7.05 49 19:38 17.11.2019
4226 Clouds 13 1010 25 0 7.05 49 19:20 17.11.2019
4227 Clouds 13 1010 25 0 7.05 49 18:56 17.11.2019
4228 Clouds 13 1010 25 0 7.05 49 18:56 17.11.2019
4229 Clouds 13 1010 25 0 7.05 49 18:56 17.11.2019
4230 Clouds 13 1010 25 0 7.05 49 18:38 17.11.2019
4231 Clouds 13 1010 25 0 7.05 49 18:19 17.11.2019
4232 Clouds 13 1010 25 0 7.05 49 17:58 17.11.2019
4233 Clouds 13 1010 25 0 7.05 49 17:39 17.11.2019
4234 Clouds 11 1015 30 0 3.49 68 17:20 17.11.2019
4235 Clouds 11 1015 30 0 3.49 68 16:59 17.11.2019
4236 Clouds 11 1015 30 0 3.49 68 16:40 17.11.2019
4237 Clouds 11 1015 30 0 3.49 68 16:21 17.11.2019
4238 Clouds 11 1015 30 0 3.49 68 15:56 17.11.2019
4239 Clouds 11 1015 30 0 3.49 68 15:38 17.11.2019
4240 Clouds 11 1015 30 0 3.49 68 15:18 17.11.2019
4241 Clouds 11 1015 30 0 3.49 68 14:57 17.11.2019
4242 Clouds 11 1015 30 0 3.49 68 14:38 17.11.2019
4243 Clouds 6 1017 51 0 1.18 82 14:20 17.11.2019
4244 Clouds 6 1017 51 0 1.18 82 13:57 17.11.2019
4245 Clouds 6 1017 51 0 1.18 82 13:39 17.11.2019
4246 Clouds 6 1018 52 0 1.27 85 13:19 17.11.2019
4247 Clouds 6 1018 52 0 1.27 85 12:44 17.11.2019
4248 Clouds 6 1018 52 0 1.27 85 12:23 17.11.2019
4249 Clouds 6 1018 52 0 1.27 85 11:57 17.11.2019
4250 Clouds 6 1018 52 0 1.27 85 11:39 17.11.2019
4251 Clouds 4 1017 74 0 0.64 101 11:20 17.11.2019
4252 Clouds 4 1017 74 0 0.64 101 10:44 17.11.2019
4253 Clouds 4 1017 74 0 0.64 101 10:24 17.11.2019
4254 Clouds 4 1017 74 0 0.64 101 09:58 17.11.2019
4255 Clouds 4 1017 74 0 0.64 101 09:40 17.11.2019
4256 Clouds 4 1017 74 0 0.64 101 09:22 17.11.2019
4257 Clouds 4 1017 74 0 0.64 101 08:41 17.11.2019
4258 Clouds 5 1015 68 0 1.39 31 08:23 17.11.2019
4259 Clouds 5 1015 68 0 1.39 31 07:56 17.11.2019
4260 Clouds 5 1015 68 0 1.39 31 07:38 17.11.2019
4261 Clouds 5 1015 68 0 1.39 31 07:19 17.11.2019
4262 Clouds 5 1015 68 0 1.39 31 06:47 17.11.2019
4263 Clouds 5 1015 68 0 1.39 31 06:27 17.11.2019
4264 Clouds 6 1015 61 0 2.54 56 04:48 17.11.2019
4265 Clouds 6 1015 61 0 2.54 56 03:58 17.11.2019
4266 Clouds 6 1015 61 0 2.54 56 03:33 17.11.2019
4267 Clouds 6 1015 61 0 2.54 56 02:40 17.11.2019
4268 Clouds 8 1012 55 0 4.18 49 01:45 17.11.2019
4269 Clouds 8 1012 57 0 4.17 52 00:57 17.11.2019
4270 Clouds 8 1012 57 0 4.17 52 00:23 17.11.2019
4271 Clouds 8 1012 57 0 4.17 52 23:54 16.11.2019
4272 Clouds 8 1012 57 0 4.17 52 23:36 16.11.2019
4273 Clouds 12 1007 31 0 7.02 52 23:18 16.11.2019
4274 Clouds 12 1007 31 0 7.02 52 22:42 16.11.2019
4275 Clouds 12 1007 31 0 7.02 52 22:20 16.11.2019
4276 Clouds 12 1007 31 0 7.02 52 21:58 16.11.2019
4277 Clouds 12 1007 31 0 7.02 52 21:39 16.11.2019
4278 Clouds 12 1007 31 0 7.02 52 21:21 16.11.2019
4279 Clouds 12 1007 31 0 7.02 52 20:57 16.11.2019
4280 Clouds 12 1007 31 0 7.02 52 20:38 16.11.2019
4281 Clouds 13 1010 23 0 6.01 53 20:18 16.11.2019
4282 Clouds 13 1010 23 0 6.01 53 19:41 16.11.2019
4283 Clouds 13 1010 23 0 6.01 53 19:22 16.11.2019
4284 Clouds 13 1010 23 0 6.01 53 18:58 16.11.2019
4285 Clouds 13 1010 23 0 6.01 53 18:39 16.11.2019
4286 Clouds 13 1010 23 0 6.01 53 18:20 16.11.2019
4287 Clouds 13 1010 23 0 6.01 53 17:55 16.11.2019
4288 Clouds 13 1010 23 0 6.01 53 17:36 16.11.2019
4289 Clouds 11 1014 26 0 3.69 72 17:18 16.11.2019
4290 Clouds 11 1014 26 0 3.69 72 16:43 16.11.2019
4291 Clouds 11 1014 26 0 3.69 72 16:25 16.11.2019
4292 Clouds 11 1014 26 0 3.69 72 15:54 16.11.2019
4293 Clouds 11 1014 26 0 3.69 72 15:36 16.11.2019
4294 Clouds 11 1014 26 0 3.69 72 15:18 16.11.2019
4295 Clouds 11 1014 26 0 3.69 72 14:40 16.11.2019
4296 Clouds 7 1018 46 0 0.64 89 14:21 16.11.2019
4297 Clouds 7 1018 46 0 0.64 89 13:56 16.11.2019
4298 Clouds 7 1018 44 0 0.64 137 13:38 16.11.2019
4299 Clouds 7 1018 44 0 0.64 137 13:19 16.11.2019
4300 Clouds 7 1018 44 0 0.64 137 12:58 16.11.2019
4301 Clouds 7 1018 44 0 0.64 137 12:40 16.11.2019
4302 Clouds 7 1018 44 0 0.64 137 12:20 16.11.2019
4303 Clouds 7 1018 44 0 0.64 137 11:45 16.11.2019
4304 Clouds 7 1018 44 0 0.64 137 11:26 16.11.2019
4305 Clouds 4 1017 75 0 0.47 235 10:57 16.11.2019
4306 Clouds 4 1017 75 0 0.47 235 10:39 16.11.2019
4307 Clouds 4 1017 75 0 0.47 235 10:21 16.11.2019
4308 Clouds 4 1017 75 0 0.47 235 09:43 16.11.2019
4309 Clouds 4 1017 75 0 0.47 235 09:21 16.11.2019
4310 Clouds 4 1017 75 0 0.47 235 08:58 16.11.2019
4311 Clouds 4 1017 75 0 0.47 235 08:38 16.11.2019
4312 Clouds 4 1017 74 0 0.68 89 08:19 16.11.2019
4313 Clouds 4 1018 77 0 0.88 54 07:43 16.11.2019
4314 Clouds 4 1018 77 0 0.88 54 07:21 16.11.2019
4315 Clouds 4 1018 77 0 0.88 54 06:52 16.11.2019
4316 Clouds 4 1018 77 0 0.88 54 06:33 16.11.2019
4317 Clouds 4 1018 77 0 0.88 54 05:40 16.11.2019
4318 Clouds 5 1018 71 0 1.69 60 03:49 16.11.2019
4319 Clouds 5 1018 71 0 1.69 60 03:25 16.11.2019
4320 Clouds 5 1018 71 0 1.69 60 03:25 16.11.2019
4321 Rain 7 1015 63 0 3.99 45 01:52 16.11.2019
4322 Rain 7 1015 63 0 3.99 45 01:21 16.11.2019
4323 Rain 7 1015 66 0 4.39 47 00:46 16.11.2019
4324 Rain 7 1015 66 0 4.39 47 00:27 16.11.2019
4325 Rain 7 1015 66 0 4.39 47 23:40 15.11.2019
4326 Rain 10 1010 54 0 5.73 62 23:21 15.11.2019
4327 Rain 10 1010 54 0 5.73 62 22:58 15.11.2019
4328 Rain 10 1010 54 0 5.73 62 22:38 15.11.2019
4329 Rain 10 1010 54 0 5.73 62 22:18 15.11.2019
4330 Rain 10 1010 54 0 5.73 62 21:54 15.11.2019
4331 Rain 10 1010 54 0 5.73 62 21:36 15.11.2019
4332 Rain 10 1010 54 0 5.73 62 21:18 15.11.2019
4333 Rain 10 1010 54 0 5.73 62 20:54 15.11.2019
4334 Rain 10 1010 54 0 5.73 62 20:36 15.11.2019
4335 Clouds 12 1012 40 0 5.41 69 20:18 15.11.2019
4336 Clouds 12 1012 40 0 5.38 66 19:56 15.11.2019
4337 Clouds 12 1012 40 0 5.38 66 19:36 15.11.2019
4338 Clouds 12 1012 40 0 5.38 66 19:18 15.11.2019
4339 Clouds 12 1012 40 0 5.38 66 18:42 15.11.2019
4340 Clouds 12 1012 40 0 5.38 66 18:23 15.11.2019
4341 Clouds 12 1012 40 0 5.38 66 17:55 15.11.2019
4342 Clouds 12 1012 40 0 5.38 66 17:55 15.11.2019
4343 Clouds 12 1012 40 0 5.38 66 17:37 15.11.2019
4344 Clouds 10 1017 45 0 3.57 59 17:19 15.11.2019
4345 Clouds 10 1017 45 0 3.57 59 16:40 15.11.2019
4346 Clouds 10 1017 45 0 3.57 59 16:22 15.11.2019
4347 Clouds 10 1017 45 0 3.57 59 16:00 15.11.2019
4348 Clouds 10 1017 45 0 3.57 59 16:00 15.11.2019
4349 Clouds 10 1017 45 0 3.57 59 15:37 15.11.2019
4350 Clouds 10 1017 45 0 3.57 59 15:19 15.11.2019
4351 Clouds 10 1017 45 0 3.57 59 14:56 15.11.2019
4352 Clouds 10 1017 45 0 3.57 59 14:37 15.11.2019
4353 Clouds 6 1020 73 0 1.56 52 14:18 15.11.2019
4354 Clouds 6 1020 73 0 1.56 52 13:56 15.11.2019
4355 Clouds 6 1020 73 0 1.56 52 13:38 15.11.2019
4356 Clouds 6 1020 71 0 1.22 48 13:19 15.11.2019
4357 Clouds 6 1020 71 0 1.22 48 12:56 15.11.2019
4358 Clouds 6 1020 71 0 1.22 48 12:37 15.11.2019
4359 Clouds 6 1020 71 0 1.22 48 12:18 15.11.2019
4360 Clouds 6 1020 71 0 1.22 48 11:55 15.11.2019
4361 Clouds 6 1020 71 0 1.22 48 11:37 15.11.2019
4362 Clouds 4 1019 84 0 0.46 8 11:18 15.11.2019
4363 Clouds 4 1019 84 0 0.46 8 10:39 15.11.2019
4364 Clouds 4 1019 84 0 0.46 8 10:21 15.11.2019
4365 Clouds 4 1019 84 0 0.46 8 09:56 15.11.2019
4366 Clouds 4 1019 84 0 0.46 8 09:56 15.11.2019
4367 Clouds 4 1019 84 0 0.46 8 09:38 15.11.2019
4368 Clouds 4 1019 84 0 0.46 8 09:18 15.11.2019
4369 Clouds 4 1019 84 0 0.46 8 08:42 15.11.2019
4370 Rain 5 1019 83 0 2.84 72 08:21 15.11.2019
4371 Rain 5 1019 83 0 2.84 72 07:45 15.11.2019
4372 Rain 5 1019 83 0 2.84 72 07:26 15.11.2019
4373 Rain 5 1019 83 0 2.84 72 06:36 15.11.2019
4374 Rain 5 1019 83 0 2.84 72 05:57 15.11.2019
4375 Rain 5 1019 83 0 2.84 72 05:38 15.11.2019
4376 Rain 5 1020 82 0 3.39 69 04:55 15.11.2019
4377 Rain 5 1020 82 0 3.39 69 03:46 15.11.2019
4378 Rain 5 1020 82 0 3.39 69 02:44 15.11.2019
4379 Rain 7 1016 80 0 3.9 89 01:58 15.11.2019
4380 Rain 7 1016 80 0 3.9 89 01:32 15.11.2019
4381 Rain 7 1016 84 0 3.68 75 01:32 15.11.2019
4382 Rain 7 1016 84 0 3.68 75 00:46 15.11.2019
4383 Rain 7 1016 84 0 3.68 75 00:27 15.11.2019
4384 Rain 7 1016 84 0 3.68 75 23:49 14.11.2019
4385 Rain 7 1016 84 0 3.68 75 23:27 14.11.2019
4386 Rain 8 1010 78 0 5.52 80 22:57 14.11.2019
4387 Rain 8 1010 78 0 5.52 80 22:39 14.11.2019
4388 Rain 8 1010 78 0 5.52 80 22:19 14.11.2019
4389 Rain 8 1010 78 0 5.52 80 21:42 14.11.2019
4390 Rain 8 1010 78 0 5.52 80 21:23 14.11.2019
4391 Rain 8 1010 78 0 5.52 80 20:57 14.11.2019
4392 Rain 8 1010 78 0 5.52 80 20:39 14.11.2019
4393 Rain 11 1011 57 0 0.07 91 20:21 14.11.2019
4394 Rain 12 1011 55 0 0.79 307 19:58 14.11.2019
4395 Rain 12 1011 55 0 0.79 307 19:40 14.11.2019
4396 Rain 12 1011 55 0 0.79 307 19:18 14.11.2019
4397 Rain 12 1011 55 0 0.79 307 18:54 14.11.2019
4398 Rain 12 1011 55 0 0.79 307 18:36 14.11.2019
4399 Rain 12 1011 55 0 0.79 307 18:18 14.11.2019
4400 Rain 12 1011 55 0 0.79 307 17:39 14.11.2019
4401 Rain 11 1014 54 0 3.41 44 17:20 14.11.2019
4402 Rain 11 1014 54 0 3.41 44 17:20 14.11.2019
4403 Rain 11 1014 54 0 3.41 44 16:58 14.11.2019
4404 Rain 11 1014 54 0 3.41 44 16:39 14.11.2019
4405 Rain 11 1014 54 0 3.41 44 16:21 14.11.2019
4406 Rain 11 1014 54 0 3.41 44 15:59 14.11.2019
4407 Rain 11 1014 54 0 3.41 44 15:41 14.11.2019
4408 Rain 11 1014 54 0 3.41 44 15:22 14.11.2019
4409 Rain 11 1014 54 0 3.41 44 14:58 14.11.2019
4410 Rain 11 1014 54 0 3.41 44 14:58 14.11.2019
4411 Rain 11 1014 54 0 3.41 44 14:40 14.11.2019
4412 Rain 11 1014 54 0 3.41 44 14:40 14.11.2019
4413 Clouds 7 1017 75 0 2.08 44 14:22 14.11.2019
4414 Clouds 7 1017 75 0 2.08 44 13:55 14.11.2019
4415 Clouds 7 1017 75 0 2.08 44 13:36 14.11.2019
4416 Clouds 6 1017 81 0 2.02 37 13:18 14.11.2019
4417 Clouds 6 1017 81 0 2.02 37 12:45 14.11.2019
4418 Clouds 6 1017 81 0 2.02 37 12:25 14.11.2019
4419 Clouds 6 1017 81 0 2.02 37 11:58 14.11.2019
4420 Clouds 6 1017 81 0 2.02 37 11:38 14.11.2019
4421 Clouds 6 1015 87 0 1.76 47 11:19 14.11.2019
4422 Clouds 6 1015 87 0 1.76 47 10:57 14.11.2019
4423 Clouds 6 1015 87 0 1.76 47 10:37 14.11.2019
4424 Clouds 6 1015 87 0 1.76 47 10:19 14.11.2019
4425 Clouds 6 1015 87 0 1.76 47 09:55 14.11.2019
4426 Clouds 6 1015 87 0 1.76 47 09:37 14.11.2019
4427 Clouds 6 1015 87 0 1.76 47 09:18 14.11.2019
4428 Clouds 6 1015 87 0 1.76 47 08:46 14.11.2019
4429 Clouds 6 1015 87 0 1.76 47 08:46 14.11.2019
4430 Clouds 7 1015 83 0 2.74 49 08:23 14.11.2019
4431 Clouds 7 1015 83 0 2.74 49 07:42 14.11.2019
4432 Clouds 7 1015 83 0 2.74 49 07:24 14.11.2019
4433 Clouds 7 1015 83 0 2.74 49 06:55 14.11.2019
4434 Clouds 7 1015 83 0 2.74 49 06:36 14.11.2019
4435 Clouds 7 1015 83 0 2.74 49 06:18 14.11.2019
4436 Rain 8 1014 70 0 3.56 52 04:39 14.11.2019
4437 Rain 8 1014 70 0 3.56 52 03:50 14.11.2019
4438 Rain 8 1014 70 0 3.56 52 02:41 14.11.2019
4439 Rain 10 1010 57 0 2.68 57 01:41 14.11.2019
4440 Rain 9 1010 68 0 2.53 48 00:58 14.11.2019
4441 Rain 9 1010 68 0 2.53 48 00:40 14.11.2019
4442 Rain 9 1010 68 0 2.53 48 00:20 14.11.2019
4443 Rain 9 1010 68 0 2.53 48 23:39 13.11.2019
4444 Rain 12 1005 47 0 2.2 87 23:20 13.11.2019
4445 Rain 12 1005 47 0 2.2 87 22:55 13.11.2019
4446 Rain 12 1005 47 0 2.2 87 22:37 13.11.2019
4447 Rain 12 1005 47 0 2.2 87 22:19 13.11.2019
4448 Rain 12 1005 47 0 2.2 87 21:55 13.11.2019
4449 Rain 12 1005 47 0 2.2 87 21:37 13.11.2019
4450 Rain 12 1005 47 0 2.2 87 21:18 13.11.2019
4451 Rain 12 1005 47 0 2.2 87 20:55 13.11.2019
4452 Rain 12 1005 47 0 2.2 87 20:37 13.11.2019
4453 Rain 14 1007 38 0 2.8 158 20:18 13.11.2019
4454 Rain 14 1007 38 0 2.8 158 19:43 13.11.2019
4455 Rain 14 1007 38 0 2.8 158 19:20 13.11.2019
4456 Rain 14 1007 38 0 2.8 158 18:57 13.11.2019
4457 Rain 14 1007 38 0 2.8 158 18:39 13.11.2019
4458 Rain 14 1007 38 0 2.8 158 18:21 13.11.2019
4459 Rain 14 1007 38 0 2.8 158 17:58 13.11.2019
4460 Rain 14 1007 38 0 2.8 158 17:39 13.11.2019
4461 Clouds 12 1012 45 0 1.48 50 17:21 13.11.2019
4462 Rain 11 1012 50 0 1.48 40 16:58 13.11.2019
4463 Clouds 12 1012 45 0 1.48 50 16:39 13.11.2019
4464 Clouds 12 1012 45 0 1.48 50 16:39 13.11.2019
4465 Clouds 12 1012 45 0 1.48 50 16:21 13.11.2019
4466 Clouds 12 1012 45 0 1.48 50 15:58 13.11.2019
4467 Rain 11 1012 50 0 1.48 40 15:39 13.11.2019
4468 Clouds 12 1012 45 0 1.48 50 15:20 13.11.2019
4469 Clouds 12 1012 45 0 1.48 50 14:42 13.11.2019
4470 Clouds 8 1015 68 0 0.45 126 14:22 13.11.2019
4471 Clouds 8 1015 68 0 0.45 126 13:58 13.11.2019
4472 Clouds 8 1015 68 0 0.92 93 13:36 13.11.2019
4473 Clouds 8 1015 68 0 0.92 93 13:18 13.11.2019
4474 Clouds 8 1015 68 0 0.92 93 12:55 13.11.2019
4475 Clouds 8 1015 68 0 0.92 93 12:37 13.11.2019
4476 Clouds 8 1015 68 0 0.92 93 12:19 13.11.2019
4477 Clouds 8 1015 68 0 0.92 93 11:40 13.11.2019
4478 Rain 6 1014 85 0 1.09 97 11:20 13.11.2019
4479 Rain 6 1014 85 0 1.09 97 10:58 13.11.2019
4480 Rain 6 1014 85 0 1.09 97 10:40 13.11.2019
4481 Rain 6 1014 85 0 1.09 97 10:20 13.11.2019
4482 Rain 6 1014 85 0 1.09 97 09:56 13.11.2019
4483 Rain 6 1014 85 0 1.09 97 09:37 13.11.2019
4484 Rain 6 1014 85 0 1.09 97 09:19 13.11.2019
4485 Rain 6 1014 85 0 1.09 97 08:39 13.11.2019
4486 Rain 8 1014 72 0 1.13 46 08:20 13.11.2019
4487 Rain 8 1014 73 0 0.99 10 07:42 13.11.2019
4488 Rain 8 1014 73 0 0.99 10 07:21 13.11.2019
4489 Rain 8 1014 73 0 0.99 10 06:46 13.11.2019
4490 Rain 8 1014 73 0 0.99 10 06:19 13.11.2019
4491 Rain 8 1014 73 0 0.99 10 06:19 13.11.2019
4492 Rain 8 1014 73 0 0.99 10 05:54 13.11.2019
4493 Rain 8 1014 73 0 0.99 10 05:34 13.11.2019
4494 Rain 8 1013 77 0 2.81 45 04:44 13.11.2019
4495 Rain 10 1010 63 0 2.59 79 02:19 13.11.2019
4496 Rain 10 1010 63 0 2.59 79 01:45 13.11.2019
4497 Rain 9 1010 67 0 3.02 69 00:52 13.11.2019
4498 Rain 9 1010 67 0 3.02 69 00:34 13.11.2019
4499 Rain 9 1010 67 0 3.02 69 23:42 12.11.2019
4500 Rain 11 1006 58 0 2.52 44 23:22 12.11.2019
4501 Rain 11 1006 58 0 2.52 44 22:58 12.11.2019
4502 Rain 11 1006 58 0 2.52 44 22:40 12.11.2019
4503 Rain 11 1006 58 0 2.52 44 22:18 12.11.2019
4504 Rain 11 1006 58 0 2.52 44 21:44 12.11.2019
4505 Rain 11 1006 58 0 2.52 44 21:25 12.11.2019
4506 Rain 11 1006 58 0 2.52 44 20:58 12.11.2019
4507 Rain 11 1006 58 0 2.52 44 20:38 12.11.2019
4508 Rain 11 1009 57 0 2.03 88 20:19 12.11.2019
4509 Rain 11 1009 57 0 2.03 88 19:58 12.11.2019
4510 Rain 11 1009 57 0 2.03 88 19:39 12.11.2019
4511 Rain 11 1009 57 0 2.03 88 19:19 12.11.2019
4512 Rain 11 1009 57 0 2.03 88 18:59 12.11.2019
4513 Rain 11 1009 57 0 2.03 88 18:40 12.11.2019
4514 Rain 11 1009 57 0 2.03 88 18:22 12.11.2019
4515 Rain 11 1009 57 0 2.03 88 17:58 12.11.2019
4516 Rain 11 1009 57 0 2.03 88 17:58 12.11.2019
4517 Rain 11 1009 57 0 2.03 88 17:39 12.11.2019
4518 Rain 11 1013 48 0 1.31 34 17:21 12.11.2019
4519 Rain 11 1013 48 0 1.31 34 16:59 12.11.2019
4520 Rain 11 1013 48 0 1.31 34 16:39 12.11.2019
4521 Rain 11 1013 48 0 1.31 34 16:21 12.11.2019
4522 Rain 11 1013 48 0 1.31 34 15:42 12.11.2019
4523 Rain 11 1013 48 0 1.31 34 15:42 12.11.2019
4524 Rain 11 1013 48 0 1.31 34 15:22 12.11.2019
4525 Rain 11 1013 48 0 1.31 34 14:57 12.11.2019
4526 Rain 11 1013 48 0 1.31 34 14:38 12.11.2019
4527 Rain 7 1018 73 0 1.56 312 14:19 12.11.2019
4528 Rain 7 1018 73 0 1.56 312 13:57 12.11.2019
4529 Rain 7 1018 73 0 1.56 312 13:38 12.11.2019
4530 Rain 7 1018 73 0 1.56 312 13:19 12.11.2019
4531 Rain 7 1018 77 0 1.52 32 12:43 12.11.2019
4532 Rain 6 1017 76 0 2.44 23 12:20 12.11.2019
4533 Rain 6 1017 76 0 2.44 23 12:20 12.11.2019
4534 Rain 6 1017 76 0 2.44 23 11:59 12.11.2019
4535 Rain 7 1018 77 0 1.52 32 11:41 12.11.2019
4536 Rain 5 1016 86 0 1.38 40 11:22 12.11.2019
4537 Rain 5 1016 86 0 1.38 40 10:57 12.11.2019
4538 Clouds 6 1016 85 0 2.34 48 10:39 12.11.2019
4539 Clouds 6 1016 85 0 2.34 48 10:39 12.11.2019
4540 Rain 5 1016 86 0 1.38 40 10:21 12.11.2019
4541 Rain 5 1016 86 0 1.38 40 09:56 12.11.2019
4542 Rain 5 1016 86 0 1.38 40 09:38 12.11.2019
4543 Rain 5 1016 86 0 1.38 40 09:18 12.11.2019
4544 Clouds 6 1016 85 0 2.34 48 08:42 12.11.2019
4545 Clouds 6 1016 85 0 2.34 48 08:24 12.11.2019
4546 Clouds 6 1016 80 0 2.06 52 07:41 12.11.2019
4547 Clouds 6 1016 80 0 2.06 52 07:23 12.11.2019
4548 Clouds 6 1016 80 0 2.06 52 06:47 12.11.2019
4549 -273 0 0 0 0 0 06:23 12.11.2019
4550 Clouds 6 1016 80 0 2.06 52 06:23 12.11.2019
4551 Clouds 6 1016 80 0 2.06 52 05:49 12.11.2019
4552 Clouds 7 1017 77 0 2.28 54 04:50 12.11.2019
4553 Clouds 7 1017 77 0 2.28 54 03:53 12.11.2019
4554 Clouds 7 1017 77 0 2.28 54 03:53 12.11.2019
4555 Clouds 7 1014 76 0 4.15 54 01:49 12.11.2019
4556 Clouds 8 1015 72 0 4.21 54 01:23 12.11.2019
4557 Clouds 8 1015 72 0 4.21 54 00:52 12.11.2019
4558 Clouds 8 1015 72 0 4.21 54 00:32 12.11.2019
4559 Clouds 8 1015 72 0 4.21 54 23:49 11.11.2019
4560 Clouds 8 1015 72 0 4.21 54 23:25 11.11.2019
4561 Clouds 10 1010 54 0 5.3 51 22:59 11.11.2019
4562 Clouds 10 1010 54 0 5.3 51 22:38 11.11.2019
4563 Clouds 10 1010 54 0 5.3 51 22:19 11.11.2019
4564 Clouds 10 1010 54 0 5.3 51 21:58 11.11.2019
4565 Clouds 10 1010 54 0 5.3 51 21:39 11.11.2019
4566 Clouds 10 1010 54 0 5.3 51 21:20 11.11.2019
4567 Clouds 10 1010 54 0 5.3 51 21:20 11.11.2019
4568 Clouds 10 1010 54 0 5.3 51 20:55 11.11.2019
4569 Clouds 10 1010 54 0 5.3 51 20:36 11.11.2019
4570 Clouds 12 1012 44 0 5.07 45 20:18 11.11.2019
4571 Clouds 12 1012 44 0 5.07 45 19:42 11.11.2019
4572 Clouds 12 1012 44 0 5.07 45 19:19 11.11.2019
4573 Clouds 12 1012 44 0 5.07 45 18:57 11.11.2019
4574 Clouds 12 1012 44 0 5.07 45 18:39 11.11.2019
4575 Clouds 12 1012 44 0 5.07 45 18:20 11.11.2019
4576 Clouds 12 1012 44 0 5.07 45 17:44 11.11.2019
4577 Clouds 12 1012 44 0 5.07 45 17:26 11.11.2019
4578 Clouds 10 1016 57 0 3.95 49 16:55 11.11.2019
4579 Clouds 10 1016 57 0 3.95 49 16:37 11.11.2019
4580 Clouds 10 1016 57 0 3.95 49 16:37 11.11.2019
4581 Clouds 10 1016 57 0 3.95 49 16:37 11.11.2019
4582 Clouds 10 1016 57 0 3.95 49 16:19 11.11.2019
4583 Clouds 10 1016 57 0 3.95 49 15:41 11.11.2019
4584 Clouds 10 1016 57 0 3.95 49 15:20 11.11.2019
4585 Clouds 10 1016 57 0 3.95 49 14:55 11.11.2019
4586 Clouds 10 1016 57 0 3.95 49 14:37 11.11.2019
4587 Clouds 6 1019 81 0 2.08 51 14:18 11.11.2019
4588 Clouds 6 1019 81 0 2.08 51 14:18 11.11.2019
4589 Rain 6 1020 79 0 1.93 58 13:40 11.11.2019
4590 Rain 6 1020 79 0 1.93 58 13:21 11.11.2019
4591 Rain 6 1020 79 0 1.93 58 12:58 11.11.2019
4592 Rain 6 1020 79 0 1.93 58 12:40 11.11.2019
4593 Rain 6 1020 79 0 1.93 58 12:22 11.11.2019
4594 Rain 6 1020 79 0 1.93 58 11:58 11.11.2019
4595 Rain 6 1020 79 0 1.93 58 11:40 11.11.2019
4596 Rain 5 1019 84 0 1.58 31 11:21 11.11.2019
4597 Rain 5 1019 84 0 1.58 31 11:21 11.11.2019
4598 Rain 5 1019 84 0 1.58 31 10:43 11.11.2019
4599 Rain 5 1019 84 0 1.58 31 10:19 11.11.2019
4600 Rain 5 1019 84 0 1.58 31 09:58 11.11.2019
4601 Rain 5 1019 84 0 1.58 31 09:39 11.11.2019
4602 Rain 5 1019 84 0 1.58 31 09:39 11.11.2019
4603 Rain 5 1019 84 0 1.58 31 09:19 11.11.2019
4604 Rain 5 1019 84 0 1.58 31 08:41 11.11.2019
4605 Clouds 5 1019 78 0 1.41 78 08:22 11.11.2019
4606 Clouds 5 1019 78 0 1.41 78 08:22 11.11.2019
4607 Clouds 5 1019 78 0 1.41 78 07:57 11.11.2019
4608 Clouds 5 1019 78 0 1.41 78 07:37 11.11.2019
4609 Clouds 5 1019 78 0 1.41 78 07:37 11.11.2019
4610 Clouds 5 1019 78 0 1.41 78 07:19 11.11.2019
4611 Clouds 5 1019 78 0 1.41 78 06:49 11.11.2019
4612 Clouds 5 1019 78 0 1.41 78 06:49 11.11.2019
4613 Clouds 5 1019 78 0 1.41 78 06:24 11.11.2019
4614 Clouds 5 1019 78 0 1.41 78 05:52 11.11.2019
4615 Rain 7 1020 69 0 2.64 55 04:50 11.11.2019
4616 Rain 7 1020 69 0 2.64 55 03:25 11.11.2019
4617 Rain 7 1020 69 0 2.64 55 02:30 11.11.2019
4618 Rain 7 1017 74 0 3.49 52 01:57 11.11.2019
4619 Rain 7 1017 74 0 3.49 52 01:36 11.11.2019
4620 Rain 6 1017 84 0 2.36 31 00:53 11.11.2019
4621 Rain 6 1017 84 0 2.36 31 00:29 11.11.2019
4622 Rain 6 1017 84 0 2.36 31 23:57 10.11.2019
4623 Rain 6 1017 84 0 2.36 31 23:37 10.11.2019
4624 Rain 7 1012 78 0 6.85 49 23:19 10.11.2019
4625 Rain 7 1012 78 0 6.85 49 22:55 10.11.2019
4626 Rain 7 1012 78 0 6.85 49 22:55 10.11.2019
4627 Rain 7 1012 78 0 6.85 49 22:55 10.11.2019
4628 Rain 7 1012 78 0 6.85 49 22:36 10.11.2019
4629 Rain 7 1012 78 0 6.85 49 22:18 10.11.2019
4630 Rain 7 1012 78 0 6.85 49 21:55 10.11.2019
4631 Rain 7 1012 78 0 6.85 49 21:36 10.11.2019
4632 Rain 7 1012 78 0 6.85 49 21:36 10.11.2019
4633 Rain 7 1012 78 0 6.85 49 21:18 10.11.2019
4634 Rain 7 1012 78 0 6.85 49 20:40 10.11.2019
4635 Rain 11 1012 60 0 5.43 59 20:22 10.11.2019
4636 Rain 11 1013 58 0 5.42 55 19:56 10.11.2019
4637 Rain 11 1013 58 0 5.42 55 19:37 10.11.2019
4638 Rain 11 1013 58 0 5.42 55 19:18 10.11.2019
4639 Rain 11 1013 58 0 5.42 55 18:57 10.11.2019
4640 Rain 11 1013 58 0 5.42 55 18:57 10.11.2019
4641 Rain 11 1013 58 0 5.42 55 18:38 10.11.2019
4642 Rain 11 1013 58 0 5.42 55 18:19 10.11.2019
4643 Rain 11 1013 58 0 5.42 55 17:56 10.11.2019
4644 Rain 11 1013 58 0 5.42 55 17:38 10.11.2019
4645 Rain 11 1016 55 0 4.38 51 17:19 10.11.2019
4646 Rain 11 1016 55 0 4.38 51 16:57 10.11.2019
4647 Rain 11 1016 55 0 4.38 51 16:38 10.11.2019
4648 Rain 11 1016 55 0 4.38 51 16:19 10.11.2019
4649 Rain 11 1016 55 0 4.38 51 15:55 10.11.2019
4650 Rain 11 1016 55 0 4.38 51 15:36 10.11.2019
4651 Rain 11 1016 55 0 4.38 51 15:18 10.11.2019
4652 Rain 11 1016 55 0 4.38 51 15:18 10.11.2019
4653 Rain 11 1016 55 0 4.38 51 14:41 10.11.2019
4654 Rain 8 1018 69 0 3.06 63 14:22 10.11.2019
4655 Rain 8 1018 69 0 3.06 63 13:58 10.11.2019
4656 Rain 8 1018 69 0 3.06 63 13:40 10.11.2019
4657 Rain 8 1018 69 0 3.06 63 13:20 10.11.2019
4658 Rain 8 1017 72 0 2.83 61 12:43 10.11.2019
4659 Rain 8 1017 72 0 2.83 61 12:21 10.11.2019
4660 Rain 8 1017 72 0 2.83 61 11:57 10.11.2019
4661 Rain 8 1017 72 0 2.83 61 11:39 10.11.2019
4662 Rain 7 1016 77 0 1.75 59 11:20 10.11.2019
4663 Rain 7 1016 77 0 1.75 59 10:59 10.11.2019
4664 Rain 7 1016 77 0 1.75 59 10:40 10.11.2019
4665 Rain 7 1016 77 0 1.75 59 10:20 10.11.2019
4666 Rain 7 1016 77 0 1.75 59 10:20 10.11.2019
4667 Rain 7 1016 77 0 1.75 59 09:43 10.11.2019
4668 Rain 7 1016 77 0 1.75 59 09:23 10.11.2019
4669 Rain 7 1016 77 0 1.75 59 08:41 10.11.2019
4670 Clouds 8 1014 65 0 1.77 74 08:21 10.11.2019
4671 Clouds 8 1014 65 0 1.77 74 07:58 10.11.2019
4672 Clouds 8 1014 65 0 1.77 74 07:40 10.11.2019
4673 Clouds 8 1014 65 0 1.77 74 07:21 10.11.2019
4674 Clouds 8 1014 65 0 1.77 74 07:21 10.11.2019
4675 Clouds 8 1014 65 0 1.77 74 06:26 10.11.2019
4676 Clouds 8 1014 65 0 1.77 74 05:32 10.11.2019
4677 Clouds 8 1015 59 0 2.66 41 03:22 10.11.2019
4678 Rain 10 1013 56 0 4.24 65 01:45 10.11.2019
4679 Rain 8 1013 65 0 4.94 71 01:19 10.11.2019
4680 Rain 8 1013 65 0 4.94 71 00:40 10.11.2019
4681 Rain 8 1013 65 0 4.94 71 23:48 09.11.2019
4682 Rain 10 1007 61 0 5.19 50 23:21 09.11.2019
4683 Rain 10 1007 61 0 5.19 50 22:59 09.11.2019
4684 Rain 10 1007 61 0 5.19 50 22:41 09.11.2019
4685 Rain 10 1007 61 0 5.19 50 22:20 09.11.2019
4686 Rain 10 1007 61 0 5.19 50 21:56 09.11.2019
4687 Rain 10 1007 61 0 5.19 50 21:37 09.11.2019
4688 Rain 10 1007 61 0 5.19 50 21:19 09.11.2019
4689 Rain 10 1007 61 0 5.19 50 20:42 09.11.2019
4690 Clouds 15 1008 25 0 0.62 356 20:22 09.11.2019
4691 Clouds 15 1008 25 0 0.62 356 19:58 09.11.2019
4692 Clouds 15 1008 25 0 0.62 356 19:39 09.11.2019
4693 Clouds 15 1008 25 0 0.62 356 19:21 09.11.2019
4694 Clouds 15 1008 25 0 0.62 356 18:54 09.11.2019
4695 Clouds 15 1008 25 0 0.62 356 18:36 09.11.2019
4696 Clouds 15 1008 25 0 0.62 356 18:18 09.11.2019
4697 Clouds 15 1008 25 0 0.62 356 17:41 09.11.2019
4698 Clear 13 1012 28 0 2.34 29 17:22 09.11.2019
4699 Clear 13 1012 28 0 2.34 29 16:43 09.11.2019
4700 Clear 13 1012 28 0 2.34 29 16:22 09.11.2019
4701 Clear 13 1012 28 0 2.34 29 15:59 09.11.2019
4702 Clear 13 1012 28 0 2.34 29 15:41 09.11.2019
4703 Clear 13 1012 28 0 2.34 29 15:23 09.11.2019
4704 Clear 13 1012 28 0 2.34 29 14:45 09.11.2019
4705 Clouds 10 1016 45 0 2.3 299 14:22 09.11.2019
4706 Clouds 10 1016 45 0 2.3 299 13:58 09.11.2019
4707 Clouds 10 1016 45 0 2.3 299 13:39 09.11.2019
4708 Clouds 10 1016 47 0 1.4 324 13:21 09.11.2019
4709 Clouds 10 1016 47 0 1.4 324 12:56 09.11.2019
4710 Clouds 10 1016 47 0 1.4 324 12:38 09.11.2019
4711 Clouds 10 1016 47 0 1.4 324 12:20 09.11.2019
4712 Clouds 10 1016 47 0 1.4 324 11:48 09.11.2019
4713 Clouds 6 1014 74 0 1.35 262 11:21 09.11.2019
4714 Clouds 6 1014 74 0 1.35 262 10:57 09.11.2019
4715 Clouds 6 1014 74 0 1.35 262 10:38 09.11.2019
4716 Clouds 6 1014 74 0 1.35 262 10:18 09.11.2019
4717 Clouds 6 1014 74 0 1.35 262 09:44 09.11.2019
4718 Clouds 6 1014 74 0 1.35 262 09:21 09.11.2019
4719 Clouds 6 1014 74 0 1.35 262 08:56 09.11.2019
4720 Clouds 6 1014 74 0 1.35 262 08:37 09.11.2019
4721 Clouds 7 1014 74 0 0.77 10 08:18 09.11.2019
4722 Clouds 7 1014 74 0 0.77 10 07:42 09.11.2019
4723 Clouds 7 1014 74 0 0.77 10 07:22 09.11.2019
4724 Clouds 7 1014 74 0 0.77 10 06:47 09.11.2019
4725 Clouds 7 1014 74 0 0.77 10 06:28 09.11.2019
4726 Clouds 7 1014 74 0 0.77 10 05:42 09.11.2019
4727 Clouds 7 1014 72 0 1.15 152 04:51 09.11.2019
4728 Clouds 7 1014 72 0 1.15 152 02:57 09.11.2019
4729 Clouds 7 1014 72 0 1.15 152 02:39 09.11.2019
4730 Rain 8 1011 67 0 2.53 46 01:43 09.11.2019
4731 Rain 9 1011 62 0 2.79 31 00:49 09.11.2019
4732 Rain 9 1011 62 0 2.79 31 00:29 09.11.2019
4733 Rain 9 1011 62 0 2.79 31 23:43 08.11.2019
4734 Rain 8 1006 76 0 5.61 69 23:23 08.11.2019
4735 Rain 8 1006 76 0 5.61 69 22:59 08.11.2019
4736 Rain 8 1006 76 0 5.61 69 22:41 08.11.2019
4737 Rain 8 1006 76 0 5.61 69 22:21 08.11.2019
4738 Rain 8 1006 76 0 5.61 69 21:56 08.11.2019
4739 Rain 8 1006 76 0 5.61 69 21:37 08.11.2019
4740 Rain 8 1006 76 0 5.61 69 21:18 08.11.2019
4741 Rain 8 1006 76 0 5.61 69 20:41 08.11.2019
4742 Rain 14 1007 34 0 3.18 27 20:21 08.11.2019
4743 Rain 14 1007 34 0 3.18 27 19:58 08.11.2019
4744 Rain 14 1007 34 0 3.18 27 19:58 08.11.2019
4745 Rain 14 1007 34 0 3.18 27 19:38 08.11.2019
4746 Rain 14 1007 34 0 3.18 27 19:18 08.11.2019
4747 Rain 14 1007 34 0 3.18 27 19:18 08.11.2019
4748 Rain 14 1007 34 0 3.18 27 19:18 08.11.2019
4749 Rain 14 1007 34 0 3.18 27 18:55 08.11.2019
4750 Rain 14 1007 34 0 3.18 27 18:37 08.11.2019
4751 Rain 14 1007 34 0 3.18 27 18:19 08.11.2019
4752 Rain 14 1007 34 0 3.18 27 17:55 08.11.2019
4753 Rain 14 1007 34 0 3.18 27 17:37 08.11.2019
4754 Rain 12 1012 41 0 2.33 62 17:18 08.11.2019
4755 Rain 12 1012 41 0 2.33 62 16:57 08.11.2019
4756 Rain 12 1012 41 0 2.33 62 16:39 08.11.2019
4757 Clouds 9 1040 66 10000 2.33 62 16:19 08.11.2019
4758 Clouds 9 1040 66 10000 2.33 62 15:56 08.11.2019
4759 Clouds 9 1040 66 10000 2.33 62 15:38 08.11.2019
4760 Clouds 9 1040 66 10000 2.33 62 15:20 08.11.2019
4761 Clouds 9 1040 66 10000 2.33 62 14:55 08.11.2019
4762 Clouds 9 1040 66 10000 2.33 62 14:36 08.11.2019
4763 Clouds 9 1040 66 10000 1.21 42 14:18 08.11.2019
4764 Rain 7 1016 75 0 1.21 42 13:43 08.11.2019
4765 Rain 7 1016 75 0 1.21 42 13:23 08.11.2019
4766 Rain 7 1016 72 0 1.94 100 12:59 08.11.2019
4767 Rain 7 1016 72 0 1.94 100 12:41 08.11.2019
4768 Rain 7 1016 72 0 1.94 100 12:23 08.11.2019
4769 Rain 7 1016 72 0 1.94 100 11:56 08.11.2019
4770 Rain 7 1016 72 0 1.94 100 11:37 08.11.2019
4771 Clouds 5 1015 83 0 1.66 35 11:19 08.11.2019
4772 Clouds 5 1015 83 0 1.66 35 10:54 08.11.2019
4773 Clouds 5 1015 83 0 1.66 35 10:36 08.11.2019
4774 Clouds 5 1015 83 0 1.66 35 10:18 08.11.2019
4775 Clouds 5 1015 83 0 1.66 35 09:41 08.11.2019
4776 Clouds 5 1015 83 0 1.66 35 09:20 08.11.2019
4777 Clouds 5 1015 83 0 1.66 35 08:54 08.11.2019
4778 Clouds 5 1015 83 0 1.66 35 08:36 08.11.2019
4779 Clouds 6 1016 79 0 1.37 39 08:18 08.11.2019
4780 Clouds 6 1016 79 0 1.37 39 07:40 08.11.2019
4781 Clouds 6 1016 79 0 1.37 39 07:22 08.11.2019
4782 Clouds 6 1016 79 0 1.37 39 06:41 08.11.2019
4783 Clouds 6 1016 79 0 1.37 39 06:21 08.11.2019
4784 Clouds 6 1016 79 0 1.37 39 05:53 08.11.2019
4785 Rain 5 1016 85 0 1.99 68 05:21 08.11.2019
4786 Rain 5 1016 85 0 1.99 68 03:44 08.11.2019
4787 Rain 5 1016 85 0 1.99 68 03:23 08.11.2019
4788 Rain 5 1016 85 0 1.99 68 02:45 08.11.2019
4789 Rain 6 1013 78 0 2.7 145 01:47 08.11.2019
4790 Rain 4 1013 91 0 0.56 280 01:24 08.11.2019
4791 Rain 4 1013 91 0 0.56 280 00:24 08.11.2019
4792 Rain 4 1013 91 0 0.56 280 23:59 07.11.2019
4793 Rain 4 1013 91 0 0.56 280 23:41 07.11.2019
4794 Rain 8 1008 70 0 4.09 33 23:22 07.11.2019
4795 Rain 8 1008 70 0 4.09 33 22:42 07.11.2019
4796 Rain 8 1008 70 0 4.09 33 22:22 07.11.2019
4797 Rain 8 1008 70 0 4.09 33 21:56 07.11.2019
4798 Rain 8 1008 70 0 4.09 33 21:37 07.11.2019
4799 Rain 8 1008 70 0 4.09 33 21:19 07.11.2019
4800 Rain 8 1008 70 0 4.09 33 20:58 07.11.2019
4801 Rain 8 1008 70 0 4.09 33 20:39 07.11.2019
4802 Rain 13 1010 47 0 5.99 55 20:21 07.11.2019
4803 Rain 13 1010 47 0 5.99 55 19:56 07.11.2019
4804 Rain 13 1010 47 0 5.99 55 19:37 07.11.2019
4805 Rain 13 1010 47 0 5.99 55 19:18 07.11.2019
4806 Rain 13 1010 47 0 5.99 55 18:55 07.11.2019
4807 Rain 13 1010 47 0 5.99 55 18:37 07.11.2019
4808 Rain 13 1010 47 0 5.99 55 18:19 07.11.2019
4809 Rain 13 1010 47 0 5.99 55 17:40 07.11.2019
4810 Clouds 11 1014 46 0 2.16 44 17:22 07.11.2019
4811 Clouds 11 1014 46 0 2.16 44 16:59 07.11.2019
4812 Clouds 11 1014 46 0 2.16 44 16:40 07.11.2019
4813 Clouds 11 1014 46 0 2.16 44 16:21 07.11.2019
4814 Clouds 11 1014 46 0 2.16 44 15:59 07.11.2019
4815 Clouds 11 1014 46 0 2.16 44 15:39 07.11.2019
4816 Clouds 11 1014 46 0 2.16 44 15:19 07.11.2019
4817 Clouds 11 1014 46 0 2.16 44 14:46 07.11.2019
4818 Clouds 7 1017 67 0 1.29 30 14:27 07.11.2019
4819 Clouds 11 1014 46 0 2.16 44 14:27 07.11.2019
4820 Clouds 7 1017 67 0 1.29 30 13:58 07.11.2019
4821 Clouds 7 1017 67 0 1.29 30 13:40 07.11.2019
4822 Clouds 7 1017 67 0 1.5 46 13:21 07.11.2019
4823 Clouds 7 1017 67 0 1.5 46 12:59 07.11.2019
4824 Clouds 7 1017 67 0 1.5 46 12:41 07.11.2019
4825 Clouds 7 1017 67 0 1.5 46 12:22 07.11.2019
4826 Clouds 7 1017 67 0 1.5 46 11:59 07.11.2019
4827 Clouds 7 1017 67 0 1.5 46 11:40 07.11.2019
4828 Clouds 5 1016 79 0 1.44 41 11:22 07.11.2019
4829 Clouds 5 1016 79 0 1.44 41 10:42 07.11.2019
4830 Clouds 5 1016 79 0 1.44 41 10:19 07.11.2019
4831 Clouds 5 1016 79 0 1.44 41 09:45 07.11.2019
4832 Clouds 5 1016 79 0 1.44 41 09:25 07.11.2019
4833 Clouds 5 1016 79 0 1.44 41 08:59 07.11.2019
4834 Clouds 5 1016 79 0 1.44 41 08:40 07.11.2019
4835 Clouds 7 1015 67 0 0.16 197 08:22 07.11.2019
4836 Clouds 7 1015 64 0 0.68 51 07:56 07.11.2019
4837 Clouds 7 1015 64 0 0.68 51 07:38 07.11.2019
4838 Clouds 7 1015 64 0 0.68 51 07:38 07.11.2019
4839 Clouds 7 1015 64 0 0.68 51 07:19 07.11.2019
4840 Clouds 7 1015 64 0 0.68 51 06:44 07.11.2019
4841 Clouds 7 1015 64 0 0.68 51 06:23 07.11.2019
4842 Clouds 7 1015 64 0 0.68 51 06:23 07.11.2019
4843 Clouds 7 1015 64 0 0.68 51 05:49 07.11.2019
4844 Clouds 7 1015 64 0 0.68 51 05:30 07.11.2019
4845 Clouds 7 1015 65 0 1.3 303 04:51 07.11.2019
4846 Clouds 7 1015 65 0 1.3 303 04:28 07.11.2019
4847 Rain 6 1013 69 0 2.74 39 01:28 07.11.2019
4848 Rain 6 1014 78 0 3.83 48 00:30 07.11.2019
4849 Rain 6 1014 78 0 3.83 48 23:56 06.11.2019
4850 Rain 6 1014 78 0 3.83 48 23:38 06.11.2019
4851 Rain 6 1009 72 0 0.88 28 23:18 06.11.2019
4852 Rain 6 1009 72 0 0.88 28 22:40 06.11.2019
4853 Rain 6 1009 72 0 0.88 28 22:20 06.11.2019
4854 Rain 6 1009 72 0 0.88 28 21:57 06.11.2019
4855 Rain 6 1009 72 0 0.88 28 21:39 06.11.2019
4856 Rain 6 1009 72 0 0.88 28 21:19 06.11.2019
4857 Rain 6 1009 72 0 0.88 28 20:57 06.11.2019
4858 Rain 6 1009 72 0 0.88 28 20:39 06.11.2019
4859 Rain 6 1009 72 0 0.88 28 20:39 06.11.2019
4860 Clouds 14 1009 40 0 3.5 14 20:20 06.11.2019
4861 Clouds 14 1009 40 0 3.5 14 19:57 06.11.2019
4862 Clouds 14 1009 40 0 3.5 14 19:37 06.11.2019
4863 Clouds 14 1009 40 0 3.5 14 19:19 06.11.2019
4864 Clouds 14 1009 40 0 3.5 14 18:55 06.11.2019
4865 Clouds 14 1009 40 0 3.5 14 18:37 06.11.2019
4866 Clouds 14 1009 40 0 3.5 14 18:18 06.11.2019
4867 Clouds 14 1009 40 0 3.5 14 17:42 06.11.2019
4868 Clouds 12 1014 39 0 2.52 44 17:23 06.11.2019
4869 Clouds 12 1014 39 0 2.52 44 16:57 06.11.2019
4870 Clouds 12 1014 39 0 2.52 44 16:39 06.11.2019
4871 Clouds 12 1014 39 0 2.52 44 16:21 06.11.2019
4872 Clouds 12 1014 39 0 2.52 44 15:58 06.11.2019
4873 Clouds 12 1014 39 0 2.52 44 15:38 06.11.2019
4874 Clouds 12 1014 39 0 2.52 44 15:19 06.11.2019
4875 Clouds 12 1014 39 0 2.52 44 14:59 06.11.2019
4876 Clouds 12 1014 39 0 2.52 44 14:41 06.11.2019
4877 Rain 8 1017 61 0 1.3 32 14:22 06.11.2019
4878 Rain 8 1017 61 0 1.3 32 13:59 06.11.2019
4879 Rain 8 1017 61 0 1.3 32 13:38 06.11.2019
4880 Rain 8 1017 61 0 1.3 32 13:19 06.11.2019
4881 Rain 8 1017 65 0 1.48 17 12:55 06.11.2019
4882 Rain 8 1017 65 0 1.48 17 12:37 06.11.2019
4883 Rain 8 1017 65 0 1.48 17 12:19 06.11.2019
4884 Rain 8 1017 65 0 1.48 17 12:19 06.11.2019
4885 Rain 8 1017 65 0 1.48 17 11:57 06.11.2019
4886 Rain 8 1017 65 0 1.48 17 11:36 06.11.2019
4887 Clouds 7 1016 70 0 1.81 27 11:18 06.11.2019
4888 Clouds 7 1016 70 0 1.81 27 10:56 06.11.2019
4889 Clouds 7 1016 70 0 1.81 27 10:37 06.11.2019
4890 Clouds 7 1016 70 0 1.81 27 10:19 06.11.2019
4891 Clouds 7 1016 70 0 1.81 27 10:19 06.11.2019
4892 Clouds 7 1016 70 0 1.81 27 09:42 06.11.2019
4893 Clouds 7 1016 70 0 1.81 27 09:21 06.11.2019
4894 Clouds 7 1016 70 0 1.81 27 08:57 06.11.2019
4895 Clouds 7 1016 70 0 1.81 27 08:38 06.11.2019
4896 Rain 8 1015 65 0 1.63 325 08:19 06.11.2019
4897 Rain 8 1015 65 0 1.63 325 07:55 06.11.2019
4898 Rain 8 1015 65 0 1.63 325 07:36 06.11.2019
4899 Rain 8 1015 65 0 1.63 325 07:18 06.11.2019
4900 Rain 8 1015 65 0 1.63 325 06:40 06.11.2019
4901 Rain 8 1015 65 0 1.63 325 06:22 06.11.2019
4902 Rain 8 1016 68 0 3.22 45 03:52 06.11.2019
4903 Rain 9 1013 64 0 3.14 32 02:18 06.11.2019
4904 Rain 8 1013 67 0 3.49 72 01:31 06.11.2019
4905 Rain 8 1013 67 0 3.49 72 00:27 06.11.2019
4906 Rain 8 1013 67 0 3.49 72 23:57 05.11.2019
4907 Rain 8 1013 67 0 3.49 72 23:37 05.11.2019
4908 Rain 11 1007 55 0 6.87 46 23:19 05.11.2019
4909 Rain 11 1007 55 0 6.87 46 22:43 05.11.2019
4910 Rain 11 1007 55 0 6.87 46 22:19 05.11.2019
4911 Rain 11 1007 55 0 6.87 46 21:58 05.11.2019
4912 Rain 11 1007 55 0 6.87 46 21:40 05.11.2019
4913 Rain 11 1007 55 0 6.87 46 21:20 05.11.2019
4914 Rain 11 1007 55 0 6.87 46 20:57 05.11.2019
4915 Rain 11 1007 55 0 6.87 46 20:38 05.11.2019
4916 Rain 14 1008 44 0 5.2 6 20:20 05.11.2019
4917 Rain 14 1008 44 0 5.2 6 19:56 05.11.2019
4918 Rain 14 1008 44 0 5.2 6 19:37 05.11.2019
4919 Rain 14 1008 44 0 5.2 6 19:19 05.11.2019
4920 Rain 14 1008 44 0 5.2 6 18:56 05.11.2019
4921 Rain 14 1008 44 0 5.2 6 18:38 05.11.2019
4922 Rain 14 1008 44 0 5.2 6 18:19 05.11.2019
4923 Rain 14 1008 44 0 5.2 6 17:56 05.11.2019
4924 Rain 14 1008 44 0 5.2 6 17:37 05.11.2019
4925 Clouds 14 1012 35 0 3.2 30 17:18 05.11.2019
4926 Clouds 14 1012 35 0 3.2 30 16:42 05.11.2019
4927 Clouds 14 1012 35 0 3.2 30 16:22 05.11.2019
4928 Clouds 14 1012 35 0 3.2 30 15:59 05.11.2019
4929 Clouds 14 1012 35 0 3.2 30 15:37 05.11.2019
4930 Clouds 14 1012 35 0 3.2 30 15:19 05.11.2019
4931 Clouds 14 1012 35 0 3.2 30 14:57 05.11.2019
4932 Clouds 14 1012 35 0 3.2 30 14:38 05.11.2019
4933 Rain 10 1015 51 0 2.73 37 14:19 05.11.2019
4934 Rain 10 1015 51 0 2.73 37 14:19 05.11.2019
4935 Rain 10 1015 51 0 2.73 37 13:43 05.11.2019
4936 Rain 10 1015 50 0 2.32 32 13:24 05.11.2019
4937 Rain 10 1015 50 0 2.32 32 12:59 05.11.2019
4938 Rain 10 1015 50 0 2.32 32 12:39 05.11.2019
4939 Rain 10 1015 50 0 2.32 32 12:18 05.11.2019
4940 Rain 10 1015 50 0 2.32 32 11:54 05.11.2019
4941 Rain 10 1015 50 0 2.32 32 11:36 05.11.2019
4942 Rain 10 1015 50 0 2.32 32 11:36 05.11.2019
4943 Rain 8 1014 63 0 0.31 75 11:18 05.11.2019
4944 Rain 8 1014 63 0 0.31 75 10:41 05.11.2019
4945 Rain 8 1014 63 0 0.31 75 10:23 05.11.2019
4946 Rain 8 1014 63 0 0.31 75 09:57 05.11.2019
4947 Rain 8 1014 63 0 0.31 75 09:38 05.11.2019
4948 Rain 8 1014 63 0 0.31 75 09:18 05.11.2019
4949 Rain 8 1014 63 0 0.31 75 08:40 05.11.2019
4950 Rain 9 1012 61 0 1.1 95 08:20 05.11.2019
4951 Rain 9 1012 62 0 0.71 49 07:59 05.11.2019
4952 Rain 9 1012 62 0 0.71 49 07:59 05.11.2019
4953 Rain 9 1012 62 0 0.71 49 07:40 05.11.2019
4954 Rain 9 1012 62 0 0.71 49 07:22 05.11.2019
4955 Rain 9 1012 62 0 0.71 49 06:51 05.11.2019
4956 Rain 9 1012 62 0 0.71 49 05:51 05.11.2019
4957 Rain 9 1012 62 0 0.71 49 05:29 05.11.2019
4958 Clouds 10 1011 54 0 2.28 50 04:47 05.11.2019
4959 Clouds 10 1011 54 0 2.28 50 03:56 05.11.2019
4960 Clouds 10 1011 54 0 2.28 50 02:59 05.11.2019
4961 Clouds 10 1011 54 0 2.28 50 02:41 05.11.2019
4962 Rain 10 1007 52 0 1.94 1 01:27 05.11.2019
4963 Rain 10 1007 55 0 2.33 21 00:38 05.11.2019
4964 Rain 10 1007 55 0 2.33 21 23:59 04.11.2019
4965 Rain 10 1007 55 0 2.33 21 23:40 04.11.2019
4966 Clouds 15 1001 27 0 2.01 122 23:18 04.11.2019
4967 Clouds 15 1001 27 0 2.01 122 22:54 04.11.2019
4968 Clouds 15 1001 27 0 2.01 122 22:36 04.11.2019
4969 Clouds 15 1001 27 0 2.01 122 22:18 04.11.2019
4970 Clouds 15 1001 27 0 2.01 122 21:54 04.11.2019
4971 Clouds 15 1001 27 0 2.01 122 21:36 04.11.2019
4972 Clouds 15 1001 27 0 2.01 122 21:18 04.11.2019
4973 Clouds 15 1001 27 0 2.01 122 20:54 04.11.2019
4974 Clouds 15 1001 27 0 2.01 122 20:36 04.11.2019
4975 Clouds 15 1003 27 0 2.54 297 20:18 04.11.2019
4976 Clouds 15 1003 27 0 2.54 297 19:41 04.11.2019
4977 Clouds 15 1003 27 0 2.54 297 19:23 04.11.2019
4978 Clouds 15 1003 27 0 2.54 297 18:58 04.11.2019
4979 Clouds 15 1003 27 0 2.54 297 18:39 04.11.2019
4980 Clouds 15 1003 27 0 2.54 297 18:21 04.11.2019
4981 Clouds 15 1003 27 0 2.54 297 17:56 04.11.2019
4982 Clouds 15 1003 27 0 2.54 297 17:36 04.11.2019
4983 Clouds 14 1008 24 0 2.6 289 17:18 04.11.2019
4984 Clouds 14 1008 24 0 2.6 289 16:42 04.11.2019
4985 Clouds 14 1008 24 0 2.6 289 16:24 04.11.2019
4986 Clouds 14 1008 24 0 2.6 289 15:58 04.11.2019
4987 Clouds 14 1008 24 0 2.6 289 15:40 04.11.2019
4988 Clouds 14 1008 24 0 2.6 289 15:21 04.11.2019
4989 Clouds 14 1008 24 0 2.6 289 14:58 04.11.2019
4990 Clouds 14 1008 24 0 2.6 289 14:39 04.11.2019
4991 Clear 9 1012 41 0 3.52 271 14:20 04.11.2019
4992 Clear 9 1012 41 0 3.52 271 13:57 04.11.2019
4993 Clear 9 1012 41 0 3.52 271 13:39 04.11.2019
4994 Clear 9 1012 41 0 3.42 274 13:20 04.11.2019
4995 Clear 9 1012 41 0 3.42 274 12:55 04.11.2019
4996 Clear 9 1012 41 0 3.42 274 12:37 04.11.2019
4997 Clear 9 1012 41 0 3.42 274 12:18 04.11.2019
4998 Clear 9 1012 41 0 3.42 274 11:42 04.11.2019
4999 Clear 7 1011 48 0 3.03 284 11:23 04.11.2019
5000 Clear 7 1011 48 0 3.03 284 10:58 04.11.2019
5001 Clear 7 1011 48 0 3.03 284 10:39 04.11.2019
5002 Clear 7 1011 48 0 3.03 284 10:20 04.11.2019
5003 Clear 7 1011 48 0 3.03 284 09:45 04.11.2019
5004 Clear 7 1011 48 0 3.03 284 09:27 04.11.2019
5005 Clear 7 1011 48 0 3.03 284 08:57 04.11.2019
5006 Clear 7 1011 48 0 3.03 284 08:37 04.11.2019
5007 Clouds 8 1010 41 0 2.85 270 08:18 04.11.2019
5008 Clouds 8 1010 41 0 2.85 270 07:42 04.11.2019
5009 Clouds 8 1010 41 0 2.85 270 07:21 04.11.2019
5010 Clouds 8 1010 41 0 2.85 270 06:49 04.11.2019
5011 Clouds 8 1010 41 0 2.85 270 06:49 04.11.2019
5012 Clouds 8 1010 41 0 2.85 270 06:18 04.11.2019
5013 Clouds 8 1010 41 0 2.85 270 05:42 04.11.2019
5014 Clear 10 1010 44 0 3.08 312 04:43 04.11.2019
5015 Clear 10 1010 44 0 3.08 312 04:21 04.11.2019
5016 Clear 10 1010 44 0 3.08 312 04:21 04.11.2019
5017 Clouds 11 1007 42 0 3.66 32 01:46 04.11.2019
5018 Clouds 10 1008 46 0 2.57 30 01:20 04.11.2019
5019 Clouds 10 1008 46 0 2.57 30 00:40 04.11.2019
5020 Clouds 10 1008 46 0 2.57 30 00:20 04.11.2019
5021 Clouds 10 1008 46 0 2.57 30 23:40 03.11.2019
5022 Rain 10 1003 49 0 6.26 316 23:21 03.11.2019
5023 Rain 10 1003 49 0 6.26 316 22:57 03.11.2019
5024 Rain 10 1003 49 0 6.26 316 22:39 03.11.2019
5025 Rain 10 1003 49 0 6.26 316 22:20 03.11.2019
5026 Rain 10 1003 49 0 6.26 316 21:56 03.11.2019
5027 Rain 10 1003 49 0 6.26 316 21:38 03.11.2019
5028 Rain 10 1003 49 0 6.26 316 21:19 03.11.2019
5029 Rain 10 1003 49 0 6.26 316 20:54 03.11.2019
5030 Rain 10 1003 49 0 6.26 316 20:36 03.11.2019
5031 Clouds 15 1006 26 0 7.53 35 20:18 03.11.2019
5032 Clouds 15 1006 26 0 7.53 35 19:54 03.11.2019
5033 Clouds 15 1006 26 0 7.53 35 19:36 03.11.2019
5034 Clouds 15 1006 26 0 7.53 35 19:18 03.11.2019
5035 Clouds 15 1006 26 0 7.53 35 18:38 03.11.2019
5036 Clouds 15 1006 26 0 7.53 35 18:18 03.11.2019
5037 Clouds 15 1006 26 0 7.53 35 17:58 03.11.2019
5038 Clouds 15 1006 26 0 7.53 35 17:39 03.11.2019
5039 Clear 12 1011 38 0 4.19 40 17:18 03.11.2019
5040 Clear 12 1011 38 0 4.19 40 16:54 03.11.2019
5041 Clear 12 1011 38 0 4.19 40 16:36 03.11.2019
5042 Clear 12 1011 38 0 4.19 40 16:18 03.11.2019
5043 Clear 12 1011 38 0 4.19 40 15:45 03.11.2019
5044 Clear 12 1011 38 0 4.19 40 15:25 03.11.2019
5045 Clear 12 1011 38 0 4.19 40 14:58 03.11.2019
5046 Clear 12 1011 38 0 4.19 40 14:39 03.11.2019
5047 Clouds 7 1015 61 0 2.33 43 14:18 03.11.2019
5048 Clouds 7 1015 61 0 2.33 43 13:54 03.11.2019
5049 Clouds 7 1015 61 0 2.33 43 13:36 03.11.2019
5050 Clear 7 1015 62 0 2.47 39 13:18 03.11.2019
5051 Clear 7 1015 62 0 2.47 39 12:38 03.11.2019
5052 Clear 7 1015 62 0 2.47 39 12:19 03.11.2019
5053 Clear 7 1015 62 0 2.47 39 11:56 03.11.2019
5054 Clear 7 1015 62 0 2.47 39 11:37 03.11.2019
5055 Clear 5 1014 83 0 2.14 43 11:19 03.11.2019
5056 Clear 5 1014 83 0 2.14 43 10:40 03.11.2019
5057 Clear 5 1014 83 0 2.14 43 10:22 03.11.2019
5058 Clear 5 1014 83 0 2.14 43 09:58 03.11.2019
5059 Clear 5 1014 83 0 2.14 43 09:40 03.11.2019
5060 Clear 5 1014 83 0 2.14 43 09:21 03.11.2019
5061 Clear 5 1014 83 0 2.14 43 08:43 03.11.2019
5062 Clear 5 1014 80 0 2.05 48 08:24 03.11.2019
5063 Clear 5 1014 80 0 2.05 48 08:24 03.11.2019
5064 Clear 7 1013 71 0 2.55 58 07:47 03.11.2019
5065 Clear 7 1013 71 0 2.55 58 07:28 03.11.2019
5066 Clear 7 1013 71 0 2.55 58 06:53 03.11.2019
5067 Clear 7 1013 71 0 2.55 58 06:34 03.11.2019
5068 Clear 7 1013 71 0 2.55 58 05:40 03.11.2019
5069 Clear 9 1013 49 0 3.86 55 05:18 03.11.2019
5070 Clear 9 1013 49 0 3.86 55 04:45 03.11.2019
5071 Clear 9 1013 49 0 3.86 55 03:39 03.11.2019
5072 Clear 9 1013 49 0 3.86 55 02:45 03.11.2019
5073 Clear 10 1009 46 0 5.07 54 02:21 03.11.2019
5074 Clear 10 1009 46 0 5.07 54 02:21 03.11.2019
5075 Clear 10 1009 46 0 5.07 54 01:44 03.11.2019
5076 Clear 10 1009 46 0 4.92 53 01:21 03.11.2019
5077 Clear 10 1009 46 0 4.92 53 00:46 03.11.2019
5078 Clear 10 1009 46 0 4.92 53 00:28 03.11.2019
5079 Clear 10 1009 46 0 4.92 53 23:59 02.11.2019
5080 Clear 10 1009 46 0 4.92 53 23:39 02.11.2019
5081 Clear 14 1005 26 0 7.02 53 23:20 02.11.2019
5082 Clear 14 1005 26 0 7.02 53 22:56 02.11.2019
5083 Clear 14 1005 26 0 7.02 53 22:38 02.11.2019
5084 Clear 14 1005 26 0 7.02 53 22:19 02.11.2019
5085 Clear 14 1005 26 0 7.02 53 22:19 02.11.2019
5086 Clear 14 1005 26 0 7.02 53 21:57 02.11.2019
5087 Clear 14 1005 26 0 7.02 53 21:38 02.11.2019
5088 Clear 14 1005 26 0 7.02 53 21:18 02.11.2019
5089 Clear 14 1005 26 0 7.02 53 21:18 02.11.2019
5090 Clear 14 1005 26 0 7.02 53 21:18 02.11.2019
5091 Clear 14 1005 26 0 7.02 53 21:18 02.11.2019
5092 Clear 14 1005 26 0 7.02 53 20:59 02.11.2019
5093 Clear 14 1005 26 0 7.02 53 20:40 02.11.2019
5094 Clear 16 1008 16 0 5.78 52 20:20 02.11.2019
5095 Clear 16 1008 16 0 5.78 52 19:57 02.11.2019
5096 Clear 16 1008 16 0 5.78 52 19:36 02.11.2019
5097 Clear 16 1008 16 0 5.78 52 19:18 02.11.2019
5098 Clear 16 1008 16 0 5.78 52 18:54 02.11.2019
5099 Clear 16 1008 16 0 5.78 52 18:36 02.11.2019
5100 Clear 16 1008 16 0 5.78 52 18:18 02.11.2019
5101 Clear 16 1008 16 0 5.78 52 18:18 02.11.2019
5102 Clear 16 1008 16 0 5.78 52 17:42 02.11.2019
5103 Clear 16 1008 16 0 5.78 52 17:24 02.11.2019
5104 Clear 13 1013 20 0 3.97 63 16:59 02.11.2019
5105 Clear 13 1013 20 0 3.97 63 16:39 02.11.2019
5106 Clear 13 1013 20 0 3.97 63 16:20 02.11.2019
5107 Clear 13 1013 20 0 3.97 63 15:43 02.11.2019
5108 Clear 13 1013 20 0 3.97 63 15:21 02.11.2019
5109 Clear 13 1013 20 0 3.97 63 14:57 02.11.2019
5110 Clear 13 1013 20 0 3.97 63 14:39 02.11.2019
5111 Clear 9 1017 46 0 0.72 89 14:21 02.11.2019
5112 Clear 9 1017 46 0 0.72 89 13:40 02.11.2019
5113 Clear 9 1017 44 0 1.17 76 13:20 02.11.2019
5114 Clear 9 1017 44 0 1.17 76 12:59 02.11.2019
5115 Clear 9 1017 44 0 1.17 76 12:38 02.11.2019
5116 Clear 9 1017 44 0 1.17 76 12:20 02.11.2019
5117 Clear 9 1017 44 0 1.17 76 11:55 02.11.2019
5118 Clear 9 1017 44 0 1.17 76 11:36 02.11.2019
5119 Clear 5 1016 66 0 0.75 315 11:18 02.11.2019
5120 Clear 5 1016 66 0 0.75 315 10:42 02.11.2019
5121 Clear 5 1016 66 0 0.75 315 10:23 02.11.2019
5122 Clear 5 1016 66 0 0.75 315 09:43 02.11.2019
5123 Clear 5 1016 66 0 0.75 315 09:22 02.11.2019
5124 Clear 5 1016 66 0 0.75 315 09:22 02.11.2019
5125 Clear 5 1016 66 0 0.75 315 08:57 02.11.2019
5126 Clear 5 1016 66 0 0.75 315 08:57 02.11.2019
5127 Clear 5 1016 66 0 0.75 315 08:37 02.11.2019
5128 Clear 7 1016 68 0 1.44 18 08:18 02.11.2019
5129 Clear 7 1016 68 0 1.44 18 07:44 02.11.2019
5130 Clear 7 1016 68 0 1.44 18 07:25 02.11.2019
5131 Clear 7 1016 68 0 1.44 18 06:52 02.11.2019
5132 Clear 7 1016 68 0 1.44 18 06:25 02.11.2019
5133 Clear 7 1016 68 0 1.44 18 05:44 02.11.2019
5134 Clear 8 1016 61 0 1.14 35 04:26 02.11.2019
5135 Clear 8 1016 61 0 1.14 35 03:59 02.11.2019
5136 Clear 8 1016 61 0 1.14 35 03:31 02.11.2019
5137 Clear 8 1016 61 0 1.14 35 02:32 02.11.2019
5138 Clouds 9 1014 56 0 4.64 48 01:36 02.11.2019
5139 Clouds 9 1015 52 0 4.15 57 01:18 02.11.2019
5140 Clouds 9 1015 52 0 4.15 57 00:42 02.11.2019
5141 Clouds 9 1015 52 0 4.15 57 00:22 02.11.2019
5142 Clouds 9 1015 52 0 4.15 57 23:42 01.11.2019
5143 Clouds 13 1009 37 0 8.15 49 23:20 01.11.2019
5144 Clouds 13 1009 37 0 8.15 49 22:43 01.11.2019
5145 Clouds 13 1009 37 0 8.15 49 22:22 01.11.2019
5146 Clouds 13 1009 37 0 8.15 49 22:22 01.11.2019
5147 Clouds 13 1009 37 0 8.15 49 21:56 01.11.2019
5148 Clouds 13 1009 37 0 8.15 49 21:38 01.11.2019
5149 Clouds 13 1009 37 0 8.15 49 21:19 01.11.2019
5150 Clouds 13 1009 37 0 8.15 49 20:42 01.11.2019
5151 Clouds 13 1009 38 0 8.31 52 20:24 01.11.2019
5152 Clouds 15 1011 26 0 5.38 54 19:59 01.11.2019
5153 Clouds 15 1011 26 0 5.38 54 19:41 01.11.2019
5154 Clouds 15 1011 26 0 5.38 54 19:22 01.11.2019
5155 Clouds 15 1011 26 0 5.38 54 19:22 01.11.2019
5156 Clouds 15 1011 26 0 5.38 54 18:57 01.11.2019
5157 Clouds 15 1011 26 0 5.38 54 18:38 01.11.2019
5158 Clouds 15 1011 26 0 5.38 54 18:18 01.11.2019
5159 Clouds 15 1011 26 0 5.38 54 17:41 01.11.2019
5160 Clear 12 1016 32 0 3.77 40 17:23 01.11.2019
5161 Clear 12 1016 32 0 3.77 40 16:58 01.11.2019
5162 Clear 12 1016 32 0 3.77 40 16:36 01.11.2019
5163 Clear 12 1016 32 0 3.77 40 16:18 01.11.2019
5164 Clear 12 1016 32 0 3.77 40 15:40 01.11.2019
5165 Clear 12 1016 32 0 3.77 40 15:22 01.11.2019
5166 Clear 12 1016 32 0 3.77 40 14:57 01.11.2019
5167 Clear 12 1016 32 0 3.77 40 14:39 01.11.2019
5168 Clouds 7 1020 67 0 1.82 24 14:21 01.11.2019
5169 Clouds 7 1020 67 0 1.82 24 13:55 01.11.2019
5170 Clouds 7 1020 67 0 1.82 24 13:36 01.11.2019
5171 Clear 7 1020 59 0 1.25 334 13:18 01.11.2019
5172 Clear 7 1020 59 0 1.25 334 12:43 01.11.2019
5173 Clear 7 1020 59 0 1.25 334 12:24 01.11.2019
5174 Clear 7 1020 59 0 1.25 334 11:43 01.11.2019
5175 Clear 7 1020 59 0 1.25 334 11:43 01.11.2019
5176 Clear 7 1020 59 0 1.25 334 11:25 01.11.2019
5177 Clear 4 1019 87 0 1.76 12 10:58 01.11.2019
5178 Clear 4 1019 87 0 1.76 12 10:39 01.11.2019
5179 Clear 4 1019 87 0 1.76 12 10:20 01.11.2019
5180 Clear 4 1019 87 0 1.76 12 09:56 01.11.2019
5181 Clear 4 1019 87 0 1.76 12 09:36 01.11.2019
5182 Clear 4 1019 87 0 1.76 12 09:18 01.11.2019
5183 Clear 4 1019 87 0 1.76 12 08:42 01.11.2019
5184 Clouds 5 1019 73 0 1.98 40 08:21 01.11.2019
5185 Clouds 5 1019 73 0 1.98 40 07:53 01.11.2019
5186 -273 0 0 0 0 0 07:26 01.11.2019
5187 Clouds 5 1019 73 0 1.98 40 06:57 01.11.2019
5188 Clouds 5 1019 73 0 1.98 40 06:39 01.11.2019
5189 Clouds 5 1019 73 0 1.98 40 06:21 01.11.2019
5190 Clouds 5 1019 73 0 1.98 40 05:43 01.11.2019
5191 Clouds 7 1018 56 0 2.4 39 03:34 01.11.2019
5192 Clear 9 1016 47 0 4.13 56 01:52 01.11.2019
5193 Clear 9 1016 47 0 4.13 56 01:28 01.11.2019
5194 Clouds 8 1017 58 0 3.98 60 00:21 01.11.2019
5195 Clouds 8 1017 58 0 3.98 60 23:56 31.10.2019
5196 Clouds 8 1017 58 0 3.98 60 23:38 31.10.2019
5197 Clouds 11 1012 39 0 7.52 49 23:19 31.10.2019
5198 Clouds 11 1012 39 0 7.52 49 22:42 31.10.2019
5199 Clouds 11 1012 39 0 7.52 49 22:24 31.10.2019
5200 Clouds 11 1012 39 0 7.52 49 21:58 31.10.2019
5201 Clouds 11 1012 39 0 7.52 49 21:40 31.10.2019
5202 Clouds 11 1012 39 0 7.52 49 21:19 31.10.2019
5203 Clouds 11 1012 39 0 7.52 49 20:41 31.10.2019
5204 Clear 13 1014 30 0 6.42 51 20:23 31.10.2019
5205 Clear 13 1014 30 0 6.13 50 19:59 31.10.2019
5206 Clear 13 1014 30 0 6.13 50 19:39 31.10.2019
5207 Clear 13 1014 30 0 6.13 50 19:21 31.10.2019
5208 Clear 13 1014 30 0 6.13 50 18:55 31.10.2019
5209 Clear 13 1014 30 0 6.13 50 18:36 31.10.2019
5210 Clear 13 1014 30 0 6.13 50 18:18 31.10.2019
5211 Clear 13 1014 30 0 6.13 50 17:41 31.10.2019
5212 Clear 11 1018 36 0 5.62 47 17:21 31.10.2019
5213 Clear 11 1018 36 0 5.62 47 16:57 31.10.2019
5214 Clear 11 1018 36 0 5.62 47 16:39 31.10.2019
5215 Clear 11 1018 36 0 5.62 47 16:20 31.10.2019
5216 Clear 11 1018 36 0 5.62 47 15:54 31.10.2019
5217 Clear 11 1018 36 0 5.62 47 15:36 31.10.2019
5218 Clear 11 1018 36 0 5.62 47 15:18 31.10.2019
5219 Clear 11 1018 36 0 5.62 47 14:41 31.10.2019
5220 Clear 7 1021 53 0 3.85 51 14:23 31.10.2019
5221 Clear 7 1021 53 0 3.85 51 13:59 31.10.2019
5222 Clear 7 1021 54 0 4.05 54 13:39 31.10.2019
5223 Clear 7 1021 54 0 4.05 54 13:19 31.10.2019
5224 Clear 7 1021 54 0 4.05 54 12:58 31.10.2019
5225 Clear 7 1021 54 0 4.05 54 12:38 31.10.2019
5226 Clear 7 1021 54 0 4.05 54 12:20 31.10.2019
5227 Clear 7 1021 54 0 4.05 54 11:46 31.10.2019
5228 Clear 5 1018 73 0 1.52 37 11:21 31.10.2019
5229 Clear 5 1018 73 0 1.52 37 10:59 31.10.2019
5230 Clear 5 1018 73 0 1.52 37 10:40 31.10.2019
5231 Clear 5 1018 73 0 1.52 37 10:21 31.10.2019
5232 Clear 5 1018 73 0 1.52 37 09:56 31.10.2019
5233 Clear 5 1018 73 0 1.52 37 09:38 31.10.2019
5234 Clear 5 1018 73 0 1.52 37 09:18 31.10.2019
5235 Clear 5 1018 73 0 1.52 37 08:46 31.10.2019
5236 Clear 5 1018 73 0 1.52 37 08:46 31.10.2019
5237 Clear 5 1018 69 0 1.51 36 08:26 31.10.2019
5238 Clear 7 1017 58 0 3.68 51 07:48 31.10.2019
5239 Clear 7 1017 58 0 3.68 51 07:28 31.10.2019
5240 Clear 7 1017 58 0 3.68 51 06:55 31.10.2019
5241 Clear 7 1017 58 0 3.68 51 06:32 31.10.2019
5242 Clear 7 1017 58 0 3.68 51 05:28 31.10.2019
5243 Clear 9 1016 39 0 2.72 55 03:21 31.10.2019
5244 Clear 9 1016 39 0 2.72 55 02:30 31.10.2019
5245 Clear 11 1012 29 0 5.75 51 01:25 31.10.2019
5246 Clear 11 1012 29 0 5.75 51 00:34 31.10.2019
5247 Clear 11 1012 29 0 5.75 51 23:53 30.10.2019
5248 Clear 11 1012 29 0 5.75 51 23:27 30.10.2019
5249 Clear 14 1007 15 0 9.44 52 22:43 30.10.2019
5250 Clear 14 1007 15 0 9.44 52 22:21 30.10.2019
5251 Clear 14 1007 15 0 9.44 52 21:55 30.10.2019
5252 Clear 14 1007 15 0 9.44 52 21:37 30.10.2019
5253 Clear 14 1007 15 0 9.44 52 21:18 30.10.2019
5254 Clear 14 1007 15 0 9.44 52 20:58 30.10.2019
5255 Clear 14 1007 15 0 9.44 52 20:40 30.10.2019
5256 Clear 16 1008 13 0 8.82 53 20:22 30.10.2019
5257 Clear 16 1008 13 0 8.82 53 19:58 30.10.2019
5258 Clear 16 1008 13 0 8.82 53 19:38 30.10.2019
5259 Clear 16 1008 13 0 8.82 53 19:19 30.10.2019
5260 Clear 16 1008 13 0 8.82 53 18:39 30.10.2019
5261 Clear 16 1008 13 0 8.82 53 18:21 30.10.2019
5262 Clear 16 1008 13 0 8.82 53 17:59 30.10.2019
5263 Clear 16 1008 13 0 8.82 53 17:41 30.10.2019
5264 Clear 15 1012 10 0 5.92 49 17:19 30.10.2019
5265 Clear 15 1012 10 0 5.92 49 16:56 30.10.2019
5266 Clear 15 1012 10 0 5.92 49 16:37 30.10.2019
5267 Clear 15 1012 10 0 5.92 49 16:19 30.10.2019
5268 Clear 15 1012 10 0 5.92 49 15:56 30.10.2019
5269 Clear 15 1012 10 0 5.92 49 15:37 30.10.2019
5270 Clear 15 1012 10 0 5.92 49 15:19 30.10.2019
5271 Clear 15 1012 10 0 5.92 49 14:55 30.10.2019
5272 Clear 15 1012 10 0 5.92 49 14:36 30.10.2019
5273 Clear 11 1015 18 0 0.72 102 14:18 30.10.2019
5274 Clear 11 1015 18 0 0.72 102 13:42 30.10.2019
5275 Clear 11 1015 15 0 1.19 101 13:20 30.10.2019
5276 Clear 11 1015 15 0 1.19 101 12:58 30.10.2019
5277 Clear 11 1015 15 0 1.19 101 12:40 30.10.2019
5278 Clear 11 1015 15 0 1.19 101 12:21 30.10.2019
5279 Clear 11 1015 15 0 1.19 101 11:43 30.10.2019
5280 Clear 11 1015 15 0 1.19 101 11:24 30.10.2019
5281 Clear 6 1013 44 0 1.05 276 10:46 30.10.2019
5282 Clear 6 1013 44 0 1.05 276 10:28 30.10.2019
5283 Clear 6 1013 44 0 1.05 276 09:59 30.10.2019
5284 Clear 6 1013 44 0 1.05 276 09:59 30.10.2019
5285 Clear 6 1013 44 0 1.05 276 09:40 30.10.2019
5286 Clear 6 1013 44 0 1.05 276 09:22 30.10.2019
5287 Clear 6 1013 44 0 1.05 276 08:54 30.10.2019
5288 Clear 6 1013 37 0 0.8 278 08:36 30.10.2019
5289 Clear 8 1012 42 0 0.78 336 08:18 30.10.2019
5290 Clear 8 1012 42 0 0.78 336 07:42 30.10.2019
5291 Clear 8 1012 42 0 0.78 336 06:56 30.10.2019
5292 Clear 8 1012 42 0 0.78 336 06:37 30.10.2019
5293 Clear 8 1012 42 0 0.78 336 05:56 30.10.2019
5294 Clear 8 1012 42 0 0.78 336 05:37 30.10.2019
5295 Clouds 10 1012 36 0 1.68 41 03:54 30.10.2019
5296 Clouds 10 1012 36 0 1.68 41 03:23 30.10.2019
5297 Clouds 10 1012 36 0 1.68 41 02:49 30.10.2019
5298 Clear 11 1009 22 0 4.27 46 01:49 30.10.2019
5299 Clear 12 1009 23 0 4.15 46 00:38 30.10.2019
5300 Clear 12 1009 23 0 4.15 46 00:19 30.10.2019
5301 Clear 12 1009 23 0 4.15 46 23:41 29.10.2019
5302 Clear 15 1005 17 0 9.28 50 23:22 29.10.2019
5303 Clear 15 1005 17 0 9.28 50 22:42 29.10.2019
5304 Clear 15 1005 17 0 9.28 50 22:20 29.10.2019
5305 Clear 15 1005 17 0 9.28 50 21:55 29.10.2019
5306 Clear 15 1005 17 0 9.28 50 21:37 29.10.2019
5307 Clear 15 1005 17 0 9.28 50 21:19 29.10.2019
5308 Clear 15 1005 17 0 9.28 50 20:42 29.10.2019
5309 Clear 16 1007 10 0 6.18 48 20:23 29.10.2019
5310 Clear 16 1007 10 0 6.18 48 19:59 29.10.2019
5311 Clear 16 1007 10 0 6.18 48 19:40 29.10.2019
5312 Clear 16 1007 10 0 6.18 48 19:22 29.10.2019
5313 Clear 16 1007 10 0 6.18 48 18:59 29.10.2019
5314 Clear 16 1007 10 0 6.18 48 18:40 29.10.2019
5315 Clear 16 1007 10 0 6.18 48 18:21 29.10.2019
5316 Clear 16 1007 10 0 6.18 48 17:59 29.10.2019
5317 Clear 16 1007 10 0 6.18 48 17:40 29.10.2019
5318 Clear 15 1011 9 0 4.23 51 17:21 29.10.2019
5319 Clear 15 1011 9 0 4.23 51 16:58 29.10.2019
5320 Clear 15 1011 9 0 4.23 51 16:38 29.10.2019
5321 Clear 15 1011 9 0 4.23 51 16:18 29.10.2019
5322 Clear 15 1011 9 0 4.23 51 15:54 29.10.2019
5323 Clear 15 1011 9 0 4.23 51 15:36 29.10.2019
5324 Clear 15 1011 9 0 4.23 51 15:18 29.10.2019
5325 Clear 15 1011 9 0 4.23 51 14:42 29.10.2019
5326 Clouds 12 1014 13 0 1.15 77 14:23 29.10.2019
5327 Clouds 12 1014 13 0 1.15 77 13:58 29.10.2019
5328 Clouds 12 1014 13 0 1.15 77 13:39 29.10.2019
5329 Clouds 12 1014 12 0 0.89 102 13:21 29.10.2019
5330 Clouds 12 1014 12 0 0.89 102 13:21 29.10.2019
5331 Clouds 12 1014 12 0 0.89 102 12:43 29.10.2019
5332 Clouds 12 1014 12 0 0.89 102 12:43 29.10.2019
5333 Clouds 12 1014 12 0 0.89 102 12:43 29.10.2019
5334 Clouds 12 1014 12 0 0.89 102 12:25 29.10.2019
5335 Clouds 12 1014 12 0 0.89 102 11:56 29.10.2019
5336 Clouds 12 1014 12 0 0.89 102 11:38 29.10.2019
5337 Clouds 7 1013 31 0 1.25 223 11:18 29.10.2019
5338 Clouds 7 1013 31 0 1.25 223 10:57 29.10.2019
5339 Clouds 7 1013 31 0 1.25 223 10:38 29.10.2019
5340 Clouds 7 1013 31 0 1.25 223 10:19 29.10.2019
5341 Clouds 7 1013 31 0 1.25 223 10:19 29.10.2019
5342 Clouds 7 1013 31 0 1.25 223 09:42 29.10.2019
5343 Clouds 7 1013 31 0 1.25 223 09:23 29.10.2019
5344 Clouds 7 1013 31 0 1.25 223 09:23 29.10.2019
5345 Clouds 7 1013 31 0 1.25 223 09:23 29.10.2019
5346 Clouds 7 1013 31 0 1.25 223 08:57 29.10.2019
5347 Clouds 7 1013 31 0 1.25 223 08:39 29.10.2019
5348 Clouds 8 1013 38 0 0.9 343 08:21 29.10.2019
5349 Clouds 8 1013 38 0 0.9 343 07:48 29.10.2019
5350 Clouds 8 1013 38 0 0.9 343 07:21 29.10.2019
5351 Clouds 8 1013 38 0 0.9 343 06:54 29.10.2019
5352 Clouds 8 1013 38 0 0.9 343 06:36 29.10.2019
5353 Clouds 8 1013 38 0 0.9 343 06:18 29.10.2019
5354 Clouds 8 1013 38 0 0.9 343 05:48 29.10.2019
5355 Clouds 11 1013 31 0 1.42 360 05:18 29.10.2019
5356 Clouds 11 1013 31 0 1.42 360 03:31 29.10.2019
5357 Clouds 11 1013 31 0 1.42 360 02:31 29.10.2019
5358 Clouds 12 1009 24 0 3.1 27 01:42 29.10.2019
5359 Clouds 12 1010 25 0 3.52 13 00:56 29.10.2019
5360 Clouds 12 1010 25 0 3.52 13 00:30 29.10.2019
5361 Clouds 12 1010 25 0 3.52 13 23:41 28.10.2019
5362 Clear 14 1005 20 0 8.02 46 23:20 28.10.2019
5363 Clear 14 1005 20 0 8.02 46 23:20 28.10.2019
5364 Clear 14 1005 20 0 8.02 46 22:57 28.10.2019
5365 Clear 14 1005 20 0 8.02 46 22:36 28.10.2019
5366 Clear 14 1005 20 0 8.02 46 22:18 28.10.2019
5367 Clear 14 1005 20 0 8.02 46 21:54 28.10.2019
5368 Clear 14 1005 20 0 8.02 46 21:36 28.10.2019
5369 Clear 14 1005 20 0 8.02 46 21:18 28.10.2019
5370 Clear 14 1005 20 0 8.02 46 20:41 28.10.2019
5371 Clouds 16 1008 14 0 6.44 46 20:23 28.10.2019
5372 Clouds 16 1008 14 0 6.44 46 19:55 28.10.2019
5373 Clouds 16 1008 14 0 6.44 46 19:37 28.10.2019
5374 Clouds 16 1008 14 0 6.44 46 19:19 28.10.2019
5375 Clouds 16 1008 14 0 6.44 46 18:58 28.10.2019
5376 Clouds 16 1008 14 0 6.44 46 18:58 28.10.2019
5377 Clouds 16 1008 14 0 6.44 46 18:38 28.10.2019
5378 Clouds 16 1008 14 0 6.44 46 18:20 28.10.2019
5379 Clouds 16 1008 14 0 6.44 46 17:56 28.10.2019
5380 Clouds 16 1008 14 0 6.44 46 17:38 28.10.2019
5381 Clouds 14 1012 16 0 4.08 58 17:18 28.10.2019
5382 Clouds 14 1012 16 0 4.08 58 16:55 28.10.2019
5383 Clouds 14 1012 16 0 4.08 58 16:37 28.10.2019
5384 Clouds 14 1012 16 0 4.08 58 16:19 28.10.2019
5385 Clouds 14 1012 16 0 4.08 58 15:56 28.10.2019
5386 Clouds 14 1012 16 0 4.08 58 15:37 28.10.2019
5387 Clouds 14 1012 16 0 4.08 58 15:18 28.10.2019
5388 Clouds 14 1012 16 0 4.08 58 14:55 28.10.2019
5389 Clouds 14 1012 16 0 4.08 58 14:36 28.10.2019
5390 Clouds 10 1015 34 0 1 353 14:18 28.10.2019
5391 Clouds 10 1015 34 0 1 353 13:54 28.10.2019
5392 Clouds 10 1015 34 0 1 353 13:54 28.10.2019
5393 Clouds 10 1015 35 0 1.22 18 13:36 28.10.2019
5394 Clouds 10 1015 35 0 1.22 18 13:18 28.10.2019
5395 Clouds 10 1015 35 0 1.22 18 12:40 28.10.2019
5396 Clouds 10 1015 35 0 1.22 18 12:19 28.10.2019
5397 Clouds 10 1015 35 0 1.22 18 11:39 28.10.2019
5398 Clouds 7 1013 65 0 0.55 72 11:20 28.10.2019
5399 Clouds 7 1013 65 0 0.55 72 11:20 28.10.2019
5400 Clouds 7 1013 65 0 0.55 72 10:56 28.10.2019
5401 Clouds 7 1013 65 0 0.55 72 10:56 28.10.2019
5402 Clouds 7 1013 65 0 0.55 72 10:38 28.10.2019
5403 Clouds 7 1013 65 0 0.55 72 10:19 28.10.2019
5404 Clouds 7 1013 65 0 0.55 72 09:54 28.10.2019
5405 Clouds 7 1013 65 0 0.55 72 09:36 28.10.2019
5406 Clouds 7 1013 65 0 0.55 72 09:18 28.10.2019
5407 Clouds 7 1013 65 0 0.55 72 08:56 28.10.2019
5408 Clouds 7 1013 65 0 0.55 72 08:37 28.10.2019
5409 Clouds 8 1013 62 0 0.38 52 08:18 28.10.2019
5410 Clouds 8 1013 62 0 0.38 52 07:43 28.10.2019
5411 Clouds 8 1013 62 0 0.38 52 07:21 28.10.2019
5412 Clouds 8 1013 62 0 0.38 52 06:56 28.10.2019
5413 Clouds 8 1013 62 0 0.38 52 06:34 28.10.2019
5414 Clouds 9 1013 58 0 1.58 100 04:49 28.10.2019
5415 Clouds 9 1013 58 0 1.58 100 03:44 28.10.2019
5416 Clouds 9 1013 58 0 1.58 100 02:45 28.10.2019
5417 Clear 13 1010 16 0 3.22 36 01:36 28.10.2019
5418 Clouds 12 1010 30 0 5.66 52 00:46 28.10.2019
5419 Clouds 12 1010 30 0 5.66 52 00:24 28.10.2019
5420 Clouds 12 1010 30 0 5.66 52 23:44 27.10.2019
5421 Clouds 12 1010 30 0 5.66 52 23:44 27.10.2019
5422 Clear 17 1005 6 0 2.99 96 23:21 27.10.2019
5423 Clear 17 1005 6 0 2.99 96 22:56 27.10.2019
5424 Clear 17 1005 6 0 2.99 96 22:37 27.10.2019
5425 Clear 17 1005 6 0 2.99 96 22:19 27.10.2019
5426 Clear 17 1005 6 0 2.99 96 22:19 27.10.2019
5427 Clear 17 1005 6 0 2.99 96 21:55 27.10.2019
5428 Clear 17 1005 6 0 2.99 96 21:37 27.10.2019
5429 Clear 17 1005 6 0 2.99 96 21:18 27.10.2019
5430 Clear 17 1005 6 0 2.99 96 20:41 27.10.2019
5431 Clear 17 1007 5 0 2.71 145 20:23 27.10.2019
5432 Clear 17 1007 5 0 2.71 145 19:58 27.10.2019
5433 Clear 17 1007 5 0 2.71 145 19:37 27.10.2019
5434 Clear 17 1007 5 0 2.71 145 19:19 27.10.2019
5435 Clear 17 1007 5 0 2.71 145 18:56 27.10.2019
5436 Clear 17 1007 5 0 2.71 145 18:38 27.10.2019
5437 Clear 17 1007 5 0 2.71 145 18:20 27.10.2019
5438 Clear 17 1007 5 0 2.71 145 18:20 27.10.2019
5439 Clear 17 1007 5 0 2.71 145 17:55 27.10.2019
5440 Clear 17 1007 5 0 2.71 145 17:37 27.10.2019
5441 Clear 15 1012 6 0 2.23 138 17:19 27.10.2019
5442 Clear 15 1012 6 0 2.23 138 16:55 27.10.2019
5443 Clear 15 1012 6 0 2.23 138 16:37 27.10.2019
5444 Clear 15 1012 6 0 2.23 138 16:19 27.10.2019
5445 Clear 15 1012 6 0 2.23 138 15:55 27.10.2019
5446 Clear 15 1012 6 0 2.23 138 15:37 27.10.2019
5447 Clear 15 1012 6 0 2.23 138 15:18 27.10.2019
5448 Clear 15 1012 6 0 2.23 138 14:41 27.10.2019
5449 Clouds 10 1016 10 0 1.64 243 14:20 27.10.2019
5450 Clouds 10 1016 10 0 1.64 243 13:56 27.10.2019
5451 Clouds 11 1016 10 0 2.09 230 13:37 27.10.2019
5452 Clouds 11 1016 10 0 2.09 230 13:19 27.10.2019
5453 Clouds 11 1016 10 0 2.09 230 12:43 27.10.2019
5454 Clouds 11 1016 10 0 2.09 230 12:24 27.10.2019
5455 Clouds 11 1016 10 0 2.09 230 11:56 27.10.2019
5456 Clouds 11 1016 10 0 2.09 230 11:38 27.10.2019
5457 Clouds 6 1014 23 0 2.35 251 11:19 27.10.2019
5458 Clouds 6 1014 23 0 2.35 251 10:43 27.10.2019
5459 Clouds 6 1014 23 0 2.35 251 10:24 27.10.2019
5460 Clouds 6 1014 23 0 2.35 251 09:55 27.10.2019
5461 Clouds 6 1014 23 0 2.35 251 09:37 27.10.2019
5462 Clouds 6 1014 23 0 2.35 251 09:18 27.10.2019
5463 Clouds 6 1014 23 0 2.35 251 09:18 27.10.2019
5464 Clouds 6 1014 23 0 2.35 251 08:41 27.10.2019
5465 Clouds 8 1014 52 0 1.31 312 08:21 27.10.2019
5466 Clouds 8 1014 52 0 1.31 312 07:50 27.10.2019
5467 Clouds 8 1014 52 0 1.31 312 07:29 27.10.2019
5468 Clouds 8 1014 52 0 1.31 312 06:59 27.10.2019
5469 Clouds 8 1014 52 0 1.31 312 06:40 27.10.2019
5470 Clouds 8 1014 52 0 1.31 312 06:21 27.10.2019
5471 Clouds 8 1014 52 0 1.31 312 05:38 27.10.2019
5472 Clouds 9 1014 55 0 1.98 308 04:49 27.10.2019
5473 Clouds 9 1014 55 0 1.98 308 02:52 27.10.2019
5474 Rain 8 1012 62 0 2.31 27 02:19 27.10.2019
5475 Rain 8 1012 62 0 2.31 27 01:24 27.10.2019
5476 Rain 8 1012 62 0 2.31 27 00:51 27.10.2019
5477 Rain 8 1012 62 0 2.31 27 00:32 27.10.2019
5478 Clouds 14 1007 31 0 6.89 40 23:57 26.10.2019
5479 Clouds 14 1007 31 0 6.89 40 23:39 26.10.2019
5480 Clouds 14 1007 31 0 6.89 40 23:21 26.10.2019
5481 Clouds 14 1007 31 0 6.89 40 22:56 26.10.2019
5482 Clouds 14 1007 31 0 6.89 40 22:38 26.10.2019
5483 Clouds 14 1007 31 0 6.89 40 22:19 26.10.2019
5484 Clouds 13 1007 36 0 7.99 42 21:44 26.10.2019
5485 Clouds 16 1009 15 0 2.08 346 21:23 26.10.2019
5486 Clouds 16 1009 15 0 2.08 346 20:59 26.10.2019
5487 Clouds 16 1009 15 0 2.08 346 20:40 26.10.2019
5488 Clouds 16 1009 15 0 2.08 346 20:19 26.10.2019
5489 Clouds 16 1009 15 0 2.08 346 19:42 26.10.2019
5490 Clouds 16 1009 15 0 2.08 346 19:21 26.10.2019
5491 Clouds 16 1009 15 0 2.08 346 18:58 26.10.2019
5492 Clouds 16 1009 15 0 2.08 346 18:39 26.10.2019
5493 Clear 14 1014 20 0 3.08 351 18:20 26.10.2019
5494 Clear 14 1014 20 0 3.08 351 17:58 26.10.2019
5495 Clear 14 1014 20 0 3.08 351 17:39 26.10.2019
5496 Clear 14 1014 20 0 3.08 351 17:20 26.10.2019
5497 Clear 14 1014 20 0 3.08 351 16:46 26.10.2019
5498 Clear 14 1014 20 0 3.08 351 16:25 26.10.2019
5499 Clear 14 1014 20 0 3.08 351 15:59 26.10.2019
5500 Clear 14 1014 20 0 3.08 351 15:40 26.10.2019
5501 Clear 8 1018 46 0 1.36 327 15:18 26.10.2019
5502 Clear 8 1018 46 0 1.36 327 14:40 26.10.2019
5503 Clear 8 1018 42 0 1.34 332 14:20 26.10.2019
5504 Clear 8 1018 42 0 1.34 332 13:59 26.10.2019
5505 Clear 8 1018 42 0 1.34 332 13:39 26.10.2019
5506 Clear 8 1018 42 0 1.34 332 13:20 26.10.2019
5507 Clear 8 1018 42 0 1.34 332 12:45 26.10.2019
5508 Clear 5 1018 68 0 1.28 321 12:21 26.10.2019
5509 Clear 5 1018 68 0 1.28 321 11:48 26.10.2019
5510 Clear 5 1018 68 0 1.28 321 11:26 26.10.2019
5511 Clear 5 1018 68 0 1.28 321 11:26 26.10.2019
5512 Clear 5 1018 68 0 1.28 321 10:47 26.10.2019
5513 Clear 5 1018 68 0 1.28 321 10:27 26.10.2019
5514 Clear 5 1018 68 0 1.28 321 09:56 26.10.2019
5515 Clear 5 1018 67 0 1.76 350 09:38 26.10.2019
5516 Clear 7 1017 63 0 1.69 300 09:20 26.10.2019
5517 Clear 7 1017 63 0 1.69 300 08:42 26.10.2019
5518 Clear 7 1017 63 0 1.69 300 08:24 26.10.2019
5519 Clear 7 1017 63 0 1.69 300 07:44 26.10.2019
5520 Clear 7 1017 63 0 1.69 300 07:24 26.10.2019
5521 Clear 7 1017 63 0 1.69 300 06:41 26.10.2019
5522 Clear 7 1018 71 0 2.58 33 06:18 26.10.2019
5523 Clear 7 1018 71 0 2.58 33 05:19 26.10.2019
5524 Clear 7 1018 71 0 2.58 33 04:23 26.10.2019
5525 Rain 8 1016 63 0 3.26 44 02:37 26.10.2019
5526 Rain 7 1016 66 0 3.7 45 01:48 26.10.2019
5527 Rain 7 1016 66 0 3.7 45 00:58 26.10.2019
5528 Rain 10 1010 55 0 4.45 96 00:23 26.10.2019
5529 Rain 10 1010 55 0 4.45 96 23:41 25.10.2019
5530 Rain 10 1010 55 0 4.45 96 23:20 25.10.2019
5531 Rain 10 1010 55 0 4.45 96 22:40 25.10.2019
5532 Rain 10 1010 55 0 4.45 96 22:22 25.10.2019
5533 Rain 10 1010 55 0 4.45 96 21:57 25.10.2019
5534 Rain 12 1010 46 0 5.26 74 21:39 25.10.2019
5535 Clouds 16 1011 14 0 4.43 33 21:19 25.10.2019
5536 Clouds 16 1011 14 0 4.43 33 20:55 25.10.2019
5537 Clouds 16 1011 14 0 4.43 33 20:37 25.10.2019
5538 Clouds 16 1011 14 0 4.43 33 20:18 25.10.2019
5539 Clouds 16 1011 14 0 4.43 33 19:41 25.10.2019
5540 Clouds 16 1011 14 0 4.43 33 19:23 25.10.2019
5541 Clouds 16 1011 14 0 4.43 33 18:44 25.10.2019
5542 Clear 13 1016 14 0 2.71 28 18:22 25.10.2019
5543 Clear 13 1016 14 0 2.71 28 17:41 25.10.2019
5544 Clear 13 1016 14 0 2.71 28 17:21 25.10.2019
5545 Clear 13 1016 14 0 2.71 28 16:54 25.10.2019
5546 Clear 13 1016 14 0 2.71 28 16:36 25.10.2019
5547 Clear 13 1016 14 0 2.71 28 16:18 25.10.2019
5548 Clear 13 1016 14 0 2.71 28 15:40 25.10.2019
5549 Clear 8 1019 34 0 1.4 334 15:21 25.10.2019
5550 Clear 8 1019 34 0 1.4 334 14:57 25.10.2019
5551 Clear 9 1019 26 0 1.46 325 14:39 25.10.2019
5552 Clear 9 1019 26 0 1.46 325 14:20 25.10.2019
5553 Clear 9 1019 26 0 1.46 325 13:41 25.10.2019
5554 Clear 9 1019 26 0 1.46 325 13:23 25.10.2019
5555 Clear 9 1019 26 0 1.46 325 12:55 25.10.2019
5556 Clear 9 1019 26 0 1.46 325 12:37 25.10.2019
5557 Clear 9 1019 26 0 1.46 325 12:37 25.10.2019
5558 Clear 5 1017 74 0 0.8 348 12:19 25.10.2019
5559 Clear 5 1017 74 0 0.8 348 11:40 25.10.2019
5560 Clear 5 1017 74 0 0.8 348 11:22 25.10.2019
5561 Clear 5 1017 74 0 0.8 348 10:57 25.10.2019
5562 Clear 5 1017 74 0 0.8 348 10:39 25.10.2019
5563 Clear 5 1017 74 0 0.8 348 10:19 25.10.2019
5564 Clear 5 1017 74 0 0.8 348 09:54 25.10.2019
5565 Clear 5 1017 74 0 0.8 348 09:36 25.10.2019
5566 Clouds 7 1017 67 0 1.49 357 09:18 25.10.2019
5567 Clouds 7 1017 67 0 1.49 357 08:42 25.10.2019
5568 Clouds 7 1017 67 0 1.49 357 08:23 25.10.2019
5569 Clouds 7 1017 67 0 1.49 357 07:49 25.10.2019
5570 Clouds 7 1017 67 0 1.49 357 07:49 25.10.2019
5571 Clouds 7 1017 67 0 1.49 357 07:30 25.10.2019
5572 Clouds 7 1017 67 0 1.49 357 06:38 25.10.2019
5573 Rain 9 1017 58 0 1.8 337 05:50 25.10.2019
5574 Rain 9 1017 58 0 1.8 337 05:32 25.10.2019
5575 Rain 9 1017 58 0 1.8 337 04:37 25.10.2019
5576 Rain 10 1014 52 0 3.36 30 02:44 25.10.2019
5577 Rain 9 1014 59 0 4.85 43 01:53 25.10.2019
5578 Rain 9 1014 59 0 4.85 43 00:39 25.10.2019
5579 Rain 13 1008 32 0 2.87 49 23:57 24.10.2019
5580 Rain 13 1008 32 0 2.87 49 23:37 24.10.2019
5581 Rain 13 1008 32 0 2.87 49 23:19 24.10.2019
5582 Rain 13 1008 32 0 2.87 49 22:54 24.10.2019
5583 Rain 13 1008 32 0 2.87 49 22:36 24.10.2019
5584 Rain 13 1008 32 0 2.87 49 22:18 24.10.2019
5585 Rain 13 1008 32 0 2.87 49 21:54 24.10.2019
5586 -273 0 0 0 0 0 21:54 24.10.2019
5587 Rain 13 1008 33 0 3.98 47 21:36 24.10.2019
5588 Clouds 16 1009 8 0 3.78 257 21:18 24.10.2019
5589 Clouds 16 1009 8 0 3.78 257 20:54 24.10.2019
5590 Clouds 16 1009 8 0 3.78 257 20:36 24.10.2019
5591 Clouds 16 1009 8 0 3.78 257 20:18 24.10.2019
5592 Clouds 16 1009 8 0 3.78 257 19:41 24.10.2019
5593 Clouds 16 1009 8 0 3.78 257 19:22 24.10.2019
5594 Clouds 16 1009 8 0 3.78 257 18:58 24.10.2019
5595 Clouds 16 1009 8 0 3.78 257 18:38 24.10.2019
5596 Clouds 13 1015 11 0 1.9 333 18:20 24.10.2019
5597 Clouds 13 1015 11 0 1.9 333 17:56 24.10.2019
5598 Clouds 13 1015 11 0 1.9 333 17:37 24.10.2019
5599 Clouds 13 1015 11 0 1.9 333 17:18 24.10.2019
5600 Clouds 13 1015 11 0 1.9 333 16:42 24.10.2019
5601 Clouds 13 1015 11 0 1.9 333 16:23 24.10.2019
5602 Clouds 13 1015 11 0 1.9 333 16:23 24.10.2019
5603 Clouds 13 1015 11 0 1.9 333 15:59 24.10.2019
5604 Clouds 13 1015 11 0 1.9 333 15:41 24.10.2019
5605 Clouds 7 1019 42 0 2.26 338 15:23 24.10.2019
5606 Clouds 7 1019 42 0 2.26 338 14:59 24.10.2019
5607 Clouds 7 1019 42 0 2.26 338 14:41 24.10.2019
5608 Clouds 8 1019 34 0 1.96 329 14:22 24.10.2019
5609 Clouds 8 1019 34 0 1.96 329 14:22 24.10.2019
5610 Clouds 8 1019 34 0 1.96 329 13:57 24.10.2019
5611 Clouds 8 1019 34 0 1.96 329 13:37 24.10.2019
5612 Clouds 8 1019 34 0 1.96 329 13:18 24.10.2019
5613 -273 0 0 0 0 0 12:55 24.10.2019
5614 Clouds 8 1019 34 0 1.96 329 12:37 24.10.2019
5615 Clouds 4 1018 63 0 0.94 326 12:18 24.10.2019
5616 Clouds 4 1018 63 0 0.94 326 11:54 24.10.2019
5617 Clouds 4 1018 63 0 0.94 326 11:36 24.10.2019
5618 Clouds 4 1018 63 0 0.94 326 11:18 24.10.2019
5619 Clouds 4 1018 63 0 0.94 326 10:41 24.10.2019
5620 Clouds 4 1018 63 0 0.94 326 10:22 24.10.2019
5621 Clouds 4 1018 50 0 1.19 297 09:39 24.10.2019
5622 Clouds 4 1018 50 0 1.19 297 09:39 24.10.2019
5623 Clouds 6 1017 75 0 1.78 327 09:19 24.10.2019
5624 Clouds 6 1017 75 0 1.78 327 08:57 24.10.2019
5625 Clouds 6 1017 75 0 1.78 327 08:38 24.10.2019
5626 Clouds 6 1017 75 0 1.78 327 08:19 24.10.2019
5627 Clouds 6 1017 75 0 1.78 327 07:47 24.10.2019
5628 Clouds 6 1017 75 0 1.78 327 07:23 24.10.2019
5629 Clouds 6 1017 75 0 1.78 327 07:23 24.10.2019
5630 Clouds 6 1017 75 0 1.78 327 06:51 24.10.2019
5631 Clouds 6 1017 75 0 1.78 327 06:32 24.10.2019
5632 Clouds 7 1017 67 0 2.51 44 05:53 24.10.2019
5633 Clouds 7 1017 67 0 2.51 44 05:30 24.10.2019
5634 Clouds 7 1017 67 0 2.51 44 04:22 24.10.2019
5635 Clouds 7 1017 67 0 2.51 44 03:29 24.10.2019
5636 Rain 8 1014 60 0 3 39 02:35 24.10.2019
5637 Rain 8 1014 60 0 3 39 01:59 24.10.2019
5638 Rain 8 1014 60 0 3 39 01:30 24.10.2019
5639 Rain 8 1014 60 0 3 39 00:53 24.10.2019
5640 Clear 13 1008 18 0 1.31 16 00:23 24.10.2019
5641 Clear 13 1008 18 0 1.31 16 23:44 23.10.2019
5642 Clear 13 1008 18 0 1.31 16 23:25 23.10.2019
5643 Clear 13 1008 18 0 1.31 16 22:58 23.10.2019
5644 Clear 13 1008 18 0 1.31 16 22:39 23.10.2019
5645 Clear 13 1008 18 0 1.31 16 22:39 23.10.2019
5646 Clear 13 1008 18 0 1.31 16 22:19 23.10.2019
5647 Clear 13 1008 18 0 1.31 16 22:19 23.10.2019
5648 Clear 13 1008 18 0 1.31 16 21:58 23.10.2019
5649 Clear 13 1008 19 0 1.75 19 21:40 23.10.2019
5650 Clear 13 1008 19 0 1.75 19 21:40 23.10.2019
5651 Clear 15 1009 6 0 1.78 306 21:21 23.10.2019
5652 Clear 15 1009 6 0 1.78 306 20:59 23.10.2019
5653 Clear 15 1009 6 0 1.78 306 20:40 23.10.2019
5654 Clear 15 1009 6 0 1.78 306 20:40 23.10.2019
5655 Clear 15 1009 6 0 1.78 306 20:21 23.10.2019
5656 Clear 15 1009 6 0 1.78 306 19:59 23.10.2019
5657 Clear 15 1009 6 0 1.78 306 19:41 23.10.2019
5658 Clear 15 1009 6 0 1.78 306 19:19 23.10.2019
5659 Clear 15 1009 6 0 1.78 306 18:57 23.10.2019
5660 Clear 15 1009 6 0 1.78 306 18:38 23.10.2019
5661 Clear 12 1014 7 0 1.98 54 18:19 23.10.2019
5662 Clear 12 1014 7 0 1.98 54 17:46 23.10.2019
5663 Clear 12 1014 7 0 1.98 54 17:21 23.10.2019
5664 Clear 12 1014 7 0 1.98 54 16:59 23.10.2019
5665 Clear 12 1014 7 0 1.98 54 16:40 23.10.2019
5666 Clear 12 1014 7 0 1.98 54 16:20 23.10.2019
5667 Clear 12 1014 7 0 1.98 54 15:56 23.10.2019
5668 Clear 12 1014 7 0 1.98 54 15:37 23.10.2019
5669 Clear 8 1018 8 0 1.24 325 15:18 23.10.2019
5670 Clear 8 1018 8 0 1.24 325 14:55 23.10.2019
5671 Clear 8 1018 8 0 1.14 320 14:37 23.10.2019
5672 Clear 8 1018 8 0 1.14 320 14:18 23.10.2019
5673 Clear 8 1018 8 0 1.14 320 14:18 23.10.2019
5674 Clear 8 1018 8 0 1.14 320 13:42 23.10.2019
5675 Clear 8 1018 8 0 1.14 320 13:24 23.10.2019
5676 Clear 8 1018 8 0 1.14 320 12:57 23.10.2019
5677 Clear 8 1018 8 0 1.14 320 12:38 23.10.2019
5678 Clear 3 1017 17 0 2.35 254 12:19 23.10.2019
5679 Clear 3 1017 17 0 2.35 254 11:57 23.10.2019
5680 Clear 3 1017 17 0 2.35 254 11:39 23.10.2019
5681 Clear 3 1017 17 0 2.35 254 11:20 23.10.2019
5682 Clear 3 1017 17 0 2.35 254 10:46 23.10.2019
5683 Clear 3 1017 17 0 2.35 254 10:26 23.10.2019
5684 Clear 3 1017 17 0 2.35 254 09:58 23.10.2019
5685 Clear 4 1017 18 0 2.71 263 09:40 23.10.2019
5686 Clear 5 1017 19 0 2.51 240 09:21 23.10.2019
5687 Clear 5 1017 19 0 2.51 240 08:43 23.10.2019
5688 Clear 5 1017 19 0 2.51 240 08:43 23.10.2019
5689 Clear 5 1017 19 0 2.51 240 08:25 23.10.2019
5690 Clear 5 1017 19 0 2.51 240 07:58 23.10.2019
5691 Clear 5 1017 19 0 2.51 240 07:39 23.10.2019
5692 Clear 5 1017 19 0 2.51 240 07:18 23.10.2019
5693 Clear 5 1017 19 0 2.51 240 06:41 23.10.2019
5694 Clear 8 1016 21 0 3.65 219 06:18 23.10.2019
5695 Clear 8 1016 21 0 3.65 219 05:18 23.10.2019
5696 Clear 8 1016 21 0 3.65 219 03:46 23.10.2019
5697 Clear 10 1012 19 0 4.78 253 02:43 23.10.2019
5698 Clear 10 1012 19 0 4.78 253 01:40 23.10.2019
5699 Clear 10 1012 19 0 4.78 253 01:18 23.10.2019
5700 Clear 10 1012 19 0 4.78 253 00:34 23.10.2019
5701 Clear 14 1006 6 0 6.54 242 23:55 22.10.2019
5702 Clear 14 1006 6 0 6.54 242 23:37 22.10.2019
5703 Clear 14 1006 6 0 6.54 242 23:18 22.10.2019
5704 Clear 14 1006 6 0 6.54 242 23:18 22.10.2019
5705 Clear 14 1006 6 0 6.54 242 22:41 22.10.2019
5706 Clear 14 1006 6 0 6.54 242 22:41 22.10.2019
5707 Clear 14 1006 6 0 6.54 242 22:23 22.10.2019
5708 Clear 14 1006 6 0 6.54 242 21:57 22.10.2019
5709 Clear 14 1007 6 0 6.8 246 21:39 22.10.2019
5710 Clear 16 1009 6 0 7.84 238 21:19 22.10.2019
5711 Clear 16 1009 6 0 7.84 238 20:59 22.10.2019
5712 Clear 16 1009 6 0 7.84 238 20:40 22.10.2019
5713 Clear 16 1009 6 0 7.84 238 20:22 22.10.2019
5714 Clear 16 1009 6 0 7.84 238 19:59 22.10.2019
5715 Clear 16 1009 6 0 7.84 238 19:41 22.10.2019
5716 Clear 16 1009 6 0 7.84 238 19:22 22.10.2019
5717 Clear 16 1009 6 0 7.84 238 18:56 22.10.2019
5718 Clear 16 1009 6 0 7.84 238 18:38 22.10.2019
5719 Clear 13 1014 7 0 1.49 235 18:20 22.10.2019
5720 Clear 13 1014 7 0 1.49 235 17:56 22.10.2019
5721 Clear 13 1014 7 0 1.49 235 17:37 22.10.2019
5722 Clear 13 1014 7 0 1.49 235 17:18 22.10.2019
5723 Clear 13 1014 7 0 1.49 235 16:55 22.10.2019
5724 Clear 13 1014 7 0 1.49 235 16:36 22.10.2019
5725 Clear 13 1014 7 0 1.49 235 16:18 22.10.2019
5726 Clear 13 1014 7 0 1.49 235 16:18 22.10.2019
5727 Clear 13 1014 7 0 1.49 235 15:42 22.10.2019
5728 Clear 7 1018 32 0 1.62 344 15:20 22.10.2019
5729 Clear 7 1018 32 0 1.62 344 14:50 22.10.2019
5730 Clear 7 1018 28 0 1.64 343 14:22 22.10.2019
5731 Clear 7 1018 28 0 1.64 343 13:59 22.10.2019
5732 Clear 7 1018 28 0 1.64 343 13:41 22.10.2019
5733 Clear 7 1018 28 0 1.64 343 13:19 22.10.2019
5734 Clear 7 1018 28 0 1.64 343 12:55 22.10.2019
5735 Clear 7 1018 28 0 1.64 343 12:37 22.10.2019
5736 Clear 3 1017 46 0 1.08 292 12:19 22.10.2019
5737 Clear 3 1017 46 0 1.08 292 11:40 22.10.2019
5738 Clear 3 1017 46 0 1.08 292 11:22 22.10.2019
5739 Clear 3 1017 46 0 1.08 292 10:59 22.10.2019
5740 Clear 3 1017 46 0 1.08 292 10:38 22.10.2019
5741 Clear 3 1017 46 0 1.08 292 10:38 22.10.2019
5742 Clear 3 1017 46 0 1.08 292 10:19 22.10.2019
5743 Clear 3 1017 46 0 1.08 292 10:19 22.10.2019
5744 Clear 3 1017 46 0 1.08 292 09:58 22.10.2019
5745 Clear 3 1017 46 0 1.08 292 09:40 22.10.2019
5746 Clear 5 1017 42 0 1.17 267 09:21 22.10.2019
5747 Clear 5 1017 42 0 1.17 267 08:55 22.10.2019
5748 Clear 5 1017 42 0 1.17 267 08:36 22.10.2019
5749 Clear 5 1017 42 0 1.17 267 08:18 22.10.2019
5750 Clear 5 1017 42 0 1.17 267 07:41 22.10.2019
5751 Clear 5 1017 42 0 1.17 267 07:22 22.10.2019
5752 Clear 5 1017 42 0 1.17 267 06:40 22.10.2019
5753 Clear 7 1017 57 0 1.38 358 06:20 22.10.2019
5754 Clear 7 1017 57 0 1.38 358 05:27 22.10.2019
5755 Clear 7 1017 57 0 1.38 358 04:19 22.10.2019
5756 Clear 10 1013 36 0 1.44 33 02:30 22.10.2019
5757 Clear 10 1013 36 0 1.44 33 01:37 22.10.2019
5758 Clear 10 1013 36 0 1.44 33 01:18 22.10.2019
5759 Clear 10 1013 36 0 1.44 33 00:42 22.10.2019
5760 Clear 14 1008 8 0 5.37 249 00:24 22.10.2019
5761 Clear 14 1008 8 0 5.37 249 23:58 21.10.2019
5762 Clear 14 1008 8 0 5.37 249 23:38 21.10.2019
5763 Clear 14 1008 8 0 5.37 249 23:19 21.10.2019
5764 Clear 14 1008 8 0 5.37 249 23:19 21.10.2019
5765 Clear 14 1008 8 0 5.37 249 22:57 21.10.2019
5766 Clear 14 1008 8 0 5.37 249 22:38 21.10.2019
5767 Clear 14 1008 8 0 5.37 249 22:20 21.10.2019
5768 Clear 14 1008 8 0 5.37 249 21:56 21.10.2019
5769 Clear 14 1008 8 0 5.37 249 21:37 21.10.2019
5770 Clear 15 1010 6 0 5.89 253 21:19 21.10.2019
5771 Clear 15 1010 6 0 5.89 253 20:56 21.10.2019
5772 Clear 15 1010 6 0 5.89 253 20:37 21.10.2019
5773 Clear 15 1010 6 0 5.89 253 20:19 21.10.2019
5774 Clear 15 1010 6 0 5.89 253 19:54 21.10.2019
5775 Clear 15 1010 6 0 5.89 253 19:54 21.10.2019
5776 Clear 15 1010 6 0 5.89 253 19:36 21.10.2019
5777 Clear 15 1010 6 0 5.89 253 19:18 21.10.2019
5778 Clear 15 1010 6 0 5.89 253 18:54 21.10.2019
5779 Clear 15 1010 6 0 5.89 253 18:54 21.10.2019
5780 Clear 15 1010 6 0 5.89 253 18:54 21.10.2019
5781 Clear 15 1010 6 0 5.89 253 18:36 21.10.2019
5782 Clear 13 1015 6 0 2.96 298 18:18 21.10.2019
5783 Clear 13 1015 6 0 2.96 298 17:38 21.10.2019
5784 Clear 13 1015 6 0 2.96 298 17:19 21.10.2019
5785 Clear 13 1015 6 0 2.96 298 16:58 21.10.2019
5786 Clear 13 1015 6 0 2.96 298 16:40 21.10.2019
5787 Clear 13 1015 6 0 2.96 298 16:21 21.10.2019
5788 Clear 13 1015 6 0 2.96 298 15:57 21.10.2019
5789 Clear 13 1015 6 0 2.96 298 15:38 21.10.2019
5790 Clear 7 1019 9 0 1.64 295 15:18 21.10.2019
5791 Clear 7 1019 9 0 1.48 299 14:40 21.10.2019
5792 Clear 7 1019 9 0 1.48 299 14:21 21.10.2019
5793 Clear 7 1019 9 0 1.48 299 14:21 21.10.2019
5794 Clear 7 1019 9 0 1.48 299 13:58 21.10.2019
5795 Clear 7 1019 9 0 1.48 299 13:40 21.10.2019
5796 Clear 7 1019 9 0 1.48 299 13:20 21.10.2019
5797 Clear 7 1019 9 0 1.48 299 12:57 21.10.2019
5798 Clear 7 1019 9 0 1.48 299 12:39 21.10.2019
5799 Clear 7 1019 9 0 1.48 299 12:39 21.10.2019
5800 Clear 3 1018 21 0 2.39 264.973 12:19 21.10.2019
5801 Clear 3 1018 21 0 2.39 264.973 11:40 21.10.2019
5802 Clear 3 1018 21 0 2.39 264.973 11:22 21.10.2019
5803 Clear 3 1018 21 0 2.39 264.973 10:58 21.10.2019
5804 Clear 3 1018 21 0 2.39 264.973 10:40 21.10.2019
5805 Clear 3 1018 21 0 2.39 264.973 10:20 21.10.2019
5806 Clear 3 1018 21 0 2.39 264.973 09:57 21.10.2019
5807 Clear 3 1018 21 0 2.39 264.973 09:38 21.10.2019
5808 Clear 5 1017 20 0 3.41 264.743 09:19 21.10.2019
5809 Clouds 6 1017 21 0 3.46 256.682 08:41 21.10.2019
5810 Clouds 6 1017 21 0 3.46 256.682 08:22 21.10.2019
5811 Clouds 6 1017 21 0 3.46 256.682 07:45 21.10.2019
5812 Clouds 6 1017 21 0 3.46 256.682 07:23 21.10.2019
5813 Clouds 6 1017 21 0 3.46 256.682 06:59 21.10.2019
5814 Clouds 6 1017 21 0 3.46 256.682 06:41 21.10.2019
5815 Clouds 8 1017 21 0 4.88 255.309 06:18 21.10.2019
5816 Clouds 8 1017 21 0 4.88 255.309 05:22 21.10.2019
5817 Clouds 8 1017 21 0 4.88 255.309 03:40 21.10.2019
5818 Clouds 10 1012 20 0 4.26 235.203 02:39 21.10.2019
5819 Clouds 10 1012 20 0 4.26 235.203 02:20 21.10.2019
5820 Clouds 10 1012 20 0 4.26 235.203 01:44 21.10.2019
5821 Clouds 11 1012 19 0 3.88 235.281 00:54 21.10.2019
5822 Clouds 11 1012 19 0 3.88 235.281 00:28 21.10.2019
5823 Clouds 13 1006 14 0 5.83 247.31 23:58 20.10.2019
5824 Clouds 13 1006 14 0 5.83 247.31 23:39 20.10.2019
5825 Clouds 13 1006 14 0 5.83 247.31 23:21 20.10.2019
5826 Clouds 13 1006 14 0 5.83 247.31 22:42 20.10.2019
5827 Clouds 13 1006 14 0 5.83 247.31 22:24 20.10.2019
5828 Clouds 13 1006 14 0 5.83 247.31 21:59 20.10.2019
5829 Clouds 13 1006 14 0 5.83 247.31 21:40 20.10.2019
5830 Clouds 14 1008 14 0 6.98 261.122 21:22 20.10.2019
5831 Clouds 14 1008 15 0 5.84 267.053 20:57 20.10.2019
5832 Clouds 14 1008 15 0 5.84 267.053 20:38 20.10.2019
5833 Clouds 14 1008 15 0 5.84 267.053 20:18 20.10.2019
5834 Clouds 14 1008 15 0 5.84 267.053 19:55 20.10.2019
5835 Clouds 14 1008 15 0 5.84 267.053 19:55 20.10.2019
5836 Clouds 14 1008 15 0 5.84 267.053 19:37 20.10.2019
5837 Clouds 14 1008 15 0 5.84 267.053 19:19 20.10.2019
5838 Clouds 14 1008 15 0 5.84 267.053 18:40 20.10.2019
5839 Clouds 12 1014 16 0 5.08 273.182 18:22 20.10.2019
5840 Clouds 12 1014 16 0 5.08 273.182 17:58 20.10.2019
5841 Clouds 12 1014 16 0 5.08 273.182 17:39 20.10.2019
5842 Clouds 12 1014 16 0 5.08 273.182 17:21 20.10.2019
5843 Clouds 12 1014 16 0 5.08 273.182 16:55 20.10.2019
5844 Clouds 12 1014 16 0 5.08 273.182 16:37 20.10.2019
5845 Clouds 12 1014 16 0 5.08 273.182 16:18 20.10.2019
5846 Clouds 12 1014 16 0 5.08 273.182 15:41 20.10.2019
5847 Clouds 7 1018 36 0 3.17 293.751 15:23 20.10.2019
5848 Clouds 7 1018 36 0 3.17 293.751 14:59 20.10.2019
5849 Clouds 7 1018 36 0 3.17 293.751 14:38 20.10.2019
5850 Clouds 7 1018 36 0 3.17 293.751 14:38 20.10.2019
5851 Clouds 7 1018 36 0 3.17 293.751 14:20 20.10.2019
5852 Clouds 7 1018 36 0 3.17 293.751 13:56 20.10.2019
5853 Clouds 7 1018 36 0 3.17 293.751 13:37 20.10.2019
5854 Clouds 6 1018 41 0 2.48 316.162 13:19 20.10.2019
5855 Clouds 6 1018 41 0 2.48 316.162 12:57 20.10.2019
5856 Clouds 6 1018 41 0 2.48 316.162 12:39 20.10.2019
5857 Clouds 6 1018 41 0 2.48 316.162 12:39 20.10.2019
5858 Clouds 5 1017 47 0 1.67 298.058 12:21 20.10.2019
5859 Clouds 5 1017 47 0 1.67 298.058 11:59 20.10.2019
5860 Clouds 5 1017 47 0 1.67 298.058 11:40 20.10.2019
5861 Clouds 5 1017 47 0 1.67 298.058 11:40 20.10.2019
5862 Clouds 5 1017 47 0 1.67 298.058 11:22 20.10.2019
5863 Clouds 5 1017 47 0 1.67 298.058 10:57 20.10.2019
5864 Clouds 5 1017 47 0 1.67 298.058 10:38 20.10.2019
5865 Clouds 5 1017 47 0 1.67 298.058 10:20 20.10.2019
5866 Clouds 5 1017 47 0 1.67 298.058 09:44 20.10.2019
5867 Clouds 6 1017 44 0 1.86 296.206 09:23 20.10.2019
5868 Clouds 6 1017 38 0 1.96 298.303 08:59 20.10.2019
5869 Clouds 6 1017 38 0 1.96 298.303 08:39 20.10.2019
5870 Clouds 6 1017 38 0 1.96 298.303 08:20 20.10.2019
5871 Clouds 6 1017 38 0 1.96 298.303 07:47 20.10.2019
5872 Clouds 6 1017 38 0 1.96 298.303 07:24 20.10.2019
5873 Clouds 6 1017 38 0 1.96 298.303 07:24 20.10.2019
5874 Clouds 6 1017 38 0 1.96 298.303 06:28 20.10.2019
5875 Rain 8 1018 41 0 4.17 250.652 04:28 20.10.2019
5876 Rain 8 1018 41 0 4.17 250.652 03:49 20.10.2019
5877 Rain 9 1015 50 0 3.69 243.782 03:22 20.10.2019
5878 Rain 9 1015 50 0 3.69 243.782 02:48 20.10.2019
5879 Rain 9 1015 50 0 3.69 243.782 02:22 20.10.2019
5880 Rain 9 1015 50 0 3.69 243.782 01:47 20.10.2019
5881 Rain 9 1015 47 0 4.44 253.319 01:20 20.10.2019
5882 Rain 9 1015 47 0 4.44 253.319 00:48 20.10.2019
5883 Rain 11 1011 47 0 6.08 271.451 00:20 20.10.2019
5884 -273 0 0 0 0 0 23:54 19.10.2019
5885 Rain 11 1011 47 0 6.08 271.451 23:36 19.10.2019
5886 Rain 11 1011 47 0 6.08 271.451 23:18 19.10.2019
5887 Rain 11 1011 47 0 6.08 271.451 22:40 19.10.2019
5888 Rain 11 1011 47 0 6.08 271.451 22:21 19.10.2019
5889 Rain 11 1011 47 0 6.08 271.451 21:55 19.10.2019
5890 Rain 11 1011 47 0 6.08 271.451 21:37 19.10.2019
5891 Rain 11 1014 45 0 4.78 287.779 21:19 19.10.2019
5892 Rain 11 1014 45 0 3.48 321.662 20:41 19.10.2019
5893 Rain 11 1014 45 0 3.48 321.662 20:20 19.10.2019
5894 Rain 11 1014 45 0 3.48 321.662 19:42 19.10.2019
5895 Rain 11 1014 45 0 3.48 321.662 19:24 19.10.2019
5896 Rain 11 1014 45 0 3.48 321.662 18:56 19.10.2019
5897 Rain 11 1014 45 0 3.48 321.662 18:37 19.10.2019
5898 Rain 10 1019 51 0 3.63 359.275 18:18 19.10.2019
5899 Rain 10 1019 51 0 3.63 359.275 17:41 19.10.2019
5900 Rain 10 1019 51 0 3.63 359.275 17:21 19.10.2019
5901 Rain 10 1019 51 0 3.63 359.275 16:57 19.10.2019
5902 Rain 10 1019 51 0 3.63 359.275 16:37 19.10.2019
5903 Rain 10 1019 51 0 3.63 359.275 16:18 19.10.2019
5904 Rain 10 1019 51 0 3.63 359.275 15:41 19.10.2019
5905 Rain 7 1021 63 0 2.2 353.856 15:23 19.10.2019
5906 Rain 7 1021 63 0 2.2 353.856 14:39 19.10.2019
5907 Rain 7 1021 63 0 2.2 353.856 14:20 19.10.2019
5908 Rain 7 1021 63 0 2.2 353.856 13:58 19.10.2019
5909 Rain 7 1021 63 0 2.2 353.856 13:40 19.10.2019
5910 Rain 7 1021 63 0 2.2 353.856 13:40 19.10.2019
5911 Rain 6 1020 64 0 2.5 1.559 13:19 19.10.2019
5912 Rain 6 1020 64 0 2.5 1.559 13:19 19.10.2019
5913 Rain 6 1020 64 0 2.5 1.559 12:57 19.10.2019
5914 Rain 6 1020 64 0 2.5 1.559 12:37 19.10.2019
5915 Rain 6 1019 70 0 2.47 308.663 12:19 19.10.2019
5916 Rain 6 1019 70 0 2.47 308.663 11:41 19.10.2019
5917 Rain 6 1019 70 0 2.47 308.663 11:23 19.10.2019
5918 Rain 6 1019 70 0 2.47 308.663 10:58 19.10.2019
5919 Rain 6 1019 70 0 2.47 308.663 10:39 19.10.2019
5920 Rain 6 1019 70 0 2.47 308.663 10:21 19.10.2019
5921 Rain 6 1019 70 0 2.47 308.663 09:44 19.10.2019
5922 Rain 6 1019 70 0 2.47 308.663 09:26 19.10.2019
5923 Rain 6 1018 72 0 2.15 311.041 09:00 19.10.2019
5924 Rain 6 1018 72 0 2.15 311.041 08:59 19.10.2019
5925 Rain 6 1018 72 0 2.15 311.041 08:40 19.10.2019
5926 Rain 6 1018 72 0 2.15 311.041 08:21 19.10.2019
5927 Rain 6 1018 72 0 2.15 311.041 08:21 19.10.2019
5928 Rain 6 1018 72 0 2.15 311.041 07:45 19.10.2019
5929 Rain 6 1018 72 0 2.15 311.041 07:25 19.10.2019
5930 Rain 6 1018 72 0 2.15 311.041 07:25 19.10.2019
5931 Rain 6 1018 72 0 2.15 311.041 06:48 19.10.2019
5932 Rain 6 1018 72 0 2.15 311.041 06:48 19.10.2019
5933 Rain 6 1018 72 0 2.15 311.041 06:28 19.10.2019
5934 Rain 6 1018 72 0 2.15 311.041 06:28 19.10.2019
5935 Rain 6 1019 83 0 3.11 37.061 05:34 19.10.2019
5936 Rain 6 1019 83 0 3.11 37.061 04:26 19.10.2019
5937 Rain 7 1016 80 0 4.76 63.273 02:50 19.10.2019
5938 Rain 7 1016 80 0 4.76 63.273 01:55 19.10.2019
5939 Rain 7 1016 80 0 4.76 63.273 01:36 19.10.2019
5940 Rain 7 1017 79 0 4.21 42.538 00:49 19.10.2019
5941 Rain 7 1017 79 0 4.21 42.538 00:28 19.10.2019
5942 Rain 11 1010 49 0 7.22 36.104 23:56 18.10.2019
5943 Rain 11 1010 49 0 7.22 36.104 23:56 18.10.2019
5944 Rain 11 1010 49 0 7.22 36.104 23:37 18.10.2019
5945 Rain 11 1010 49 0 7.22 36.104 23:19 18.10.2019
5946 Rain 11 1010 49 0 7.22 36.104 22:43 18.10.2019
5947 Rain 11 1010 49 0 7.22 36.104 22:21 18.10.2019
5948 Rain 11 1010 49 0 7.22 36.104 21:59 18.10.2019
5949 Rain 11 1010 49 0 7.22 36.104 21:39 18.10.2019
5950 Rain 13 1010 42 0 7.24 30.466 21:21 18.10.2019
5951 Rain 13 1010 42 0 7.24 30.466 20:59 18.10.2019
5952 Rain 13 1010 42 0 7.24 30.466 20:41 18.10.2019
5953 Rain 13 1010 42 0 7.24 30.466 20:22 18.10.2019
5954 Rain 13 1010 42 0 7.24 30.466 19:58 18.10.2019
5955 Rain 13 1010 42 0 7.24 30.466 19:40 18.10.2019
5956 Rain 13 1010 42 0 7.24 30.466 19:40 18.10.2019
5957 Rain 13 1010 42 0 7.24 30.466 19:21 18.10.2019
5958 Rain 13 1010 42 0 7.24 30.466 18:58 18.10.2019
5959 Rain 13 1010 42 0 7.24 30.466 18:40 18.10.2019
5960 Rain 11 1015 47 0 5.14 8.924 18:21 18.10.2019
5961 Rain 11 1015 47 0 5.14 8.924 17:55 18.10.2019
5962 Rain 11 1015 47 0 5.14 8.924 17:36 18.10.2019
5963 Rain 11 1015 47 0 5.14 8.924 17:18 18.10.2019
5964 Rain 11 1015 47 0 5.14 8.924 16:38 18.10.2019
5965 Rain 11 1015 47 0 5.14 8.924 16:20 18.10.2019
5966 Rain 11 1015 47 0 5.14 8.924 15:55 18.10.2019
5967 Rain 11 1015 47 0 5.14 8.924 15:37 18.10.2019
5968 Rain 11 1015 47 0 5.14 8.924 15:37 18.10.2019
5969 Rain 8 1018 57 0 1.89 7.388 15:19 18.10.2019
5970 Rain 8 1018 57 0 1.89 7.388 14:56 18.10.2019
5971 Rain 8 1018 57 0 1.89 7.388 14:38 18.10.2019
5972 Rain 8 1018 57 0 1.89 7.388 14:18 18.10.2019
5973 Rain 8 1018 57 0 1.89 7.388 13:45 18.10.2019
5974 Rain 8 1018 57 0 1.89 7.388 13:45 18.10.2019
5975 Clouds 8 1018 50 0 2.01 12.587 13:26 18.10.2019
5976 Clouds 8 1018 50 0 2.01 12.587 12:59 18.10.2019
5977 Clouds 8 1018 50 0 2.01 12.587 12:40 18.10.2019
5978 Rain 6 1016 68 0 1.45 0.949 12:22 18.10.2019
5979 Rain 6 1016 68 0 1.45 0.949 11:59 18.10.2019
5980 Rain 6 1016 68 0 1.45 0.949 11:41 18.10.2019
5981 Rain 6 1016 68 0 1.45 0.949 11:20 18.10.2019
5982 Rain 6 1016 68 0 1.45 0.949 10:57 18.10.2019
5983 Rain 6 1016 68 0 1.45 0.949 10:38 18.10.2019
5984 Rain 6 1016 68 0 1.45 0.949 10:19 18.10.2019
5985 Rain 6 1016 68 0 1.45 0.949 09:57 18.10.2019
5986 Rain 6 1016 68 0 1.45 0.949 09:39 18.10.2019
5987 Rain 7 1016 66 0 2.13 351.076 09:18 18.10.2019
5988 Rain 7 1016 66 0 2.13 351.076 08:42 18.10.2019
5989 Rain 7 1016 66 0 2.13 351.076 08:24 18.10.2019
5990 Rain 7 1016 66 0 2.13 351.076 07:51 18.10.2019
5991 Rain 7 1016 66 0 2.13 351.076 07:30 18.10.2019
5992 Rain 7 1016 66 0 2.13 351.076 06:48 18.10.2019
5993 -273 0 0 0 0 0 06:30 18.10.2019
5994 Rain 8 1016 68 0 2.54 45.575 05:59 18.10.2019
5995 Rain 8 1016 68 0 2.54 45.575 05:24 18.10.2019
5996 Rain 8 1016 68 0 2.54 45.575 04:56 18.10.2019
5997 Rain 8 1016 68 0 2.54 45.575 03:34 18.10.2019
5998 Rain 9 1013 60 0 3.37 27.309 02:51 18.10.2019
5999 Rain 9 1013 60 0 3.37 27.309 02:32 18.10.2019
6000 Rain 9 1013 60 0 3.37 27.309 01:39 18.10.2019
6001 Rain 9 1013 58 0 3.47 48.769 00:56 18.10.2019
6002 Rain 9 1013 58 0 3.47 48.769 00:38 18.10.2019
6003 Rain 12 1007 42 0 4.25 36.255 00:18 18.10.2019
6004 Rain 12 1007 42 0 4.25 36.255 23:38 17.10.2019
6005 Rain 12 1007 42 0 4.25 36.255 23:19 17.10.2019
6006 Rain 12 1007 42 0 4.25 36.255 22:56 17.10.2019
6007 Rain 12 1007 42 0 4.25 36.255 22:38 17.10.2019
6008 Rain 12 1007 42 0 4.25 36.255 22:19 17.10.2019
6009 Rain 12 1007 42 0 4.25 36.255 21:56 17.10.2019
6010 Rain 12 1007 42 0 4.25 36.255 21:38 17.10.2019
6011 Clouds 14 1009 27 0 2.88 291.92 21:20 17.10.2019
6012 Clouds 14 1009 29 0 2.73 288.037 20:57 17.10.2019
6013 Clouds 14 1009 29 0 2.73 288.037 20:39 17.10.2019
6014 -273 0 0 0 0 0 20:39 17.10.2019
6015 Clouds 14 1009 29 0 2.73 288.037 20:19 17.10.2019
6016 Clouds 14 1009 29 0 2.73 288.037 19:57 17.10.2019
6017 Clouds 14 1009 29 0 2.73 288.037 19:38 17.10.2019
6018 Clouds 14 1009 29 0 2.73 288.037 19:19 17.10.2019
6019 Clouds 14 1009 29 0 2.73 288.037 18:43 17.10.2019
6020 Clouds 12 1014 27 0 3 310.317 18:21 17.10.2019
6021 Clouds 12 1014 27 0 3 310.317 17:58 17.10.2019
6022 Clouds 12 1014 27 0 2.997 310 17:40 17.10.2019
6023 Clouds 12 1014 27 0 2.997 310 17:22 17.10.2019
6024 Clouds 12 1014 27 0 2.997 310 16:56 17.10.2019
6025 Clouds 12 1014 27 0 2.997 310 16:37 17.10.2019
6026 Clouds 12 1014 27 0 2.997 310 16:37 17.10.2019
6027 Clouds 12 1014 27 0 2.997 310 16:18 17.10.2019
6028 Clouds 12 1014 27 0 2.997 310 15:55 17.10.2019
6029 Clouds 12 1014 27 0 2.997 310 15:37 17.10.2019
6030 Clouds 8 1018 34 0 2.723 293 15:19 17.10.2019
6031 Clouds 8 1018 33 0 2.839 286 14:42 17.10.2019
6032 Clouds 8 1018 33 0 2.839 286 14:23 17.10.2019
6033 Clouds 8 1018 33 0 2.839 286 13:56 17.10.2019
6034 Clouds 8 1018 33 0 2.839 286 13:38 17.10.2019
6035 Clouds 8 1018 33 0 2.839 286 13:18 17.10.2019
6036 Clouds 8 1018 33 0 2.839 286 13:18 17.10.2019
6037 Clouds 8 1018 33 0 2.839 286 12:41 17.10.2019
6038 Clouds 6 1016 36 0 2.257 267 12:21 17.10.2019
6039 Clouds 6 1016 36 0 2.257 267 11:59 17.10.2019
6040 Clouds 6 1016 36 0 2.257 267 11:59 17.10.2019
6041 Clouds 6 1016 36 0 2.257 267 11:40 17.10.2019
6042 Clouds 6 1016 36 0 2.257 267 11:19 17.10.2019
6043 Clouds 6 1016 36 0 2.257 267 10:55 17.10.2019
6044 Clouds 6 1016 36 0 2.257 267 10:37 17.10.2019
6045 Clouds 6 1016 36 0 2.257 267 10:18 17.10.2019
6046 Clouds 6 1016 36 0 2.257 267 09:42 17.10.2019
6047 Snow 8 1016 36 0 1.498 317 09:22 17.10.2019
6048 Snow 8 1016 36 0 1.498 317 08:59 17.10.2019
6049 Snow 8 1016 36 0 1.498 317 08:41 17.10.2019
6050 Snow 8 1016 36 0 1.498 317 08:21 17.10.2019
6051 Snow 8 1016 36 0 1.498 317 07:56 17.10.2019
6052 Snow 8 1016 36 0 1.498 317 07:37 17.10.2019
6053 Snow 8 1016 36 0 1.498 317 07:18 17.10.2019
6054 Snow 8 1016 36 0 1.498 317 06:40 17.10.2019
6055 Clouds 9 1016 47 0 2.406 311 06:21 17.10.2019
6056 Clouds 9 1016 47 0 2.406 311 05:54 17.10.2019
6057 Clouds 9 1016 47 0 2.406 311 05:32 17.10.2019
6058 Clouds 9 1016 47 0 2.406 311 04:55 17.10.2019
6059 Clouds 9 1016 47 0 2.406 311 03:55 17.10.2019
6060 Rain 10 1012 57 0 2.647 18 02:37 17.10.2019
6061 Rain 10 1012 57 0 2.647 18 01:31 17.10.2019
6062 Rain 10 1012 57 0 2.647 18 00:40 17.10.2019
6063 Rain 13 1007 41 0 5.795 41 00:19 17.10.2019
6064 Rain 13 1007 41 0 5.795 41 23:42 16.10.2019
6065 Rain 13 1007 41 0 5.795 41 23:21 16.10.2019
6066 Rain 13 1007 41 0 5.795 41 22:56 16.10.2019
6067 Rain 13 1007 41 0 5.795 41 22:56 16.10.2019
6068 Rain 13 1007 41 0 5.795 41 22:37 16.10.2019
6069 Rain 13 1007 41 0 5.795 41 22:37 16.10.2019
6070 Rain 13 1007 41 0 5.795 41 22:19 16.10.2019
6071 Rain 13 1007 41 0 5.795 41 22:19 16.10.2019
6072 Rain 13 1007 41 0 5.795 41 22:19 16.10.2019
6073 Rain 13 1007 41 0 5.795 41 21:57 16.10.2019
6074 Rain 14 1006 33 0 4.864 16 21:38 16.10.2019
6075 Clouds 15 1009 26 0 3.979 358 21:19 16.10.2019
6076 Clouds 15 1009 26 0 3.979 358 20:58 16.10.2019
6077 Clouds 15 1009 26 0 3.979 358 20:58 16.10.2019
6078 Clouds 15 1009 26 0 3.979 358 20:39 16.10.2019
6079 Clouds 15 1009 26 0 3.979 358 20:21 16.10.2019
6080 Clouds 15 1009 26 0 3.979 358 19:59 16.10.2019
6081 Clouds 15 1009 26 0 3.979 358 19:39 16.10.2019
6082 Clouds 15 1009 26 0 3.979 358 19:21 16.10.2019
6083 Clouds 15 1009 26 0 3.979 358 18:55 16.10.2019
6084 Clouds 15 1009 26 0 3.979 358 18:36 16.10.2019
6085 Clouds 12 1014 26 0 3.045 14 18:18 16.10.2019
6086 Clouds 12 1014 26 0 3.045 14 17:54 16.10.2019
6087 Clouds 12 1014 26 0 3.045 14 17:54 16.10.2019
6088 Clouds 12 1014 26 0 3.045 14 17:36 16.10.2019
6089 Clouds 12 1014 26 0 3.045 14 17:36 16.10.2019
6090 Clouds 12 1014 26 0 3.045 14 17:18 16.10.2019
6091 Clouds 12 1014 26 0 3.045 14 16:42 16.10.2019
6092 Clouds 12 1014 26 0 3.045 14 16:21 16.10.2019
6093 Clouds 12 1014 26 0 3.045 14 15:58 16.10.2019
6094 Clouds 12 1014 26 0 3.045 14 15:39 16.10.2019
6095 Clouds 12 1014 26 0 3.045 14 15:39 16.10.2019
6096 Clouds 12 1014 26 0 3.045 14 15:39 16.10.2019
6097 Clouds 8 1018 44 0 1.558 332 15:19 16.10.2019
6098 Clouds 8 1018 44 0 1.558 332 14:58 16.10.2019
6099 Clouds 8 1019 42 0 1.442 345 14:39 16.10.2019
6100 Clouds 8 1019 42 0 1.442 345 14:19 16.10.2019
6101 Clouds 8 1019 42 0 1.442 345 13:57 16.10.2019
6102 Clouds 8 1019 42 0 1.442 345 13:38 16.10.2019
6103 Clouds 8 1019 42 0 1.442 345 13:38 16.10.2019
6104 Clouds 8 1019 42 0 1.442 345 13:20 16.10.2019
6105 Clouds 8 1019 42 0 1.442 345 12:42 16.10.2019
6106 Clouds 6 1017 67 0 1.173 328 12:20 16.10.2019
6107 Clouds 6 1017 67 0 1.173 328 11:45 16.10.2019
6108 Clouds 6 1017 67 0 1.173 328 11:45 16.10.2019
6109 Clouds 6 1017 67 0 1.173 328 11:19 16.10.2019
6110 Clouds 6 1017 67 0 1.173 328 10:56 16.10.2019
6111 Clouds 6 1017 67 0 1.173 328 10:36 16.10.2019
6112 Clouds 6 1017 67 0 1.173 328 10:18 16.10.2019
6113 Clouds 6 1017 68 0 1.464 354 09:40 16.10.2019
6114 Clouds 7 1017 66 0 0.421 300 09:22 16.10.2019
6115 Clouds 7 1017 66 0 0.421 300 08:56 16.10.2019
6116 Clouds 7 1017 66 0 0.421 300 08:37 16.10.2019
6117 Clouds 7 1017 66 0 0.421 300 08:19 16.10.2019
6118 Clouds 7 1017 66 0 0.421 300 07:41 16.10.2019
6119 Clouds 7 1017 66 0 0.421 300 07:23 16.10.2019
6120 Clouds 7 1017 66 0 0.421 300 06:47 16.10.2019
6121 Clouds 7 1017 66 0 0.421 300 06:28 16.10.2019
6122 Clouds 8 1016 62 0 1.723 0 04:31 16.10.2019
6123 Rain 8 1014 66 0 2.53 56 02:51 16.10.2019
6124 Rain 9 1014 60 0 3.034 63 01:20 16.10.2019
6125 Rain 9 1014 60 0 3.034 63 00:59 16.10.2019
6126 Rain 9 1014 60 0 3.034 63 00:40 16.10.2019
6127 Rain 11 1009 49 0 4.86 64 23:59 15.10.2019
6128 Rain 11 1009 49 0 4.86 64 23:38 15.10.2019
6129 Rain 11 1009 49 0 4.86 64 23:20 15.10.2019
6130 Rain 11 1009 49 0 4.86 64 22:55 15.10.2019
6131 Rain 11 1009 49 0 4.86 64 22:37 15.10.2019
6132 Rain 11 1009 49 0 4.86 64 22:18 15.10.2019
6133 Rain 11 1009 49 0 4.86 64 22:18 15.10.2019
6134 Rain 11 1009 49 0 4.86 64 21:55 15.10.2019
6135 Rain 11 1009 53 0 3.959 46 21:36 15.10.2019
6136 Rain 11 1009 53 0 3.959 46 21:36 15.10.2019
6137 Clouds 14 1011 31 0 2.831 26 21:18 15.10.2019
6138 Clouds 14 1011 31 0 2.831 26 20:55 15.10.2019
6139 Clouds 14 1011 31 0 2.831 26 20:37 15.10.2019
6140 Clouds 14 1011 31 0 2.831 26 20:19 15.10.2019
6141 Clouds 14 1011 31 0 2.831 26 19:55 15.10.2019
6142 Clouds 14 1011 31 0 2.831 26 19:36 15.10.2019
6143 Clouds 14 1011 31 0 2.831 26 19:18 15.10.2019
6144 Clouds 14 1011 31 0 2.831 26 18:43 15.10.2019
6145 Clouds 14 1011 31 0 2.831 26 18:25 15.10.2019
6146 Clear 11 1016 34 0 2.464 17 17:55 15.10.2019
6147 Clear 11 1016 34 0 2.464 17 17:37 15.10.2019
6148 Clear 11 1016 34 0 2.464 17 17:37 15.10.2019
6149 Clear 11 1016 34 0 2.464 17 17:18 15.10.2019
6150 Clear 11 1016 34 0 2.464 17 16:43 15.10.2019
6151 Clear 11 1016 34 0 2.464 17 16:22 15.10.2019
6152 Clear 11 1016 34 0 2.464 17 15:57 15.10.2019
6153 Clear 11 1016 34 0 2.464 17 15:57 15.10.2019
6154 Clear 11 1016 34 0 2.464 17 15:39 15.10.2019
6155 Clear 11 1016 34 0 2.464 17 15:39 15.10.2019
6156 Clear 7 1019 41 0 1.707 23 15:19 15.10.2019
6157 Clear 7 1019 41 0 1.707 23 14:55 15.10.2019
6158 Clear 7 1019 41 0 1.707 23 14:55 15.10.2019
6159 Clouds 7 1019 37 0 1.489 22 14:36 15.10.2019
6160 Clouds 7 1019 37 0 1.489 22 14:18 15.10.2019
6161 Clouds 7 1019 37 0 1.489 22 13:43 15.10.2019
6162 Clouds 7 1019 37 0 1.489 22 13:20 15.10.2019
6163 Clouds 7 1019 37 0 1.489 22 12:56 15.10.2019
6164 Clouds 7 1019 37 0 1.489 22 12:37 15.10.2019
6165 Clouds 5 1018 47 0 0.461 250 12:18 15.10.2019
6166 Clouds 5 1018 47 0 0.461 250 11:42 15.10.2019
6167 Clouds 5 1018 47 0 0.461 250 11:20 15.10.2019
6168 Clouds 5 1018 47 0 0.461 250 10:56 15.10.2019
6169 Clouds 5 1018 47 0 0.46 250.622 10:37 15.10.2019
6170 Clouds 5 1018 47 0 0.46 250.622 10:18 15.10.2019
6171 Clouds 5 1018 47 0 0.46 250.622 09:41 15.10.2019
6172 Clear 7 1018 58 0 0.41 218.267 09:21 15.10.2019
6173 Clear 7 1018 58 0 0.41 218.267 09:21 15.10.2019
6174 Clear 6 1018 57 0 0.98 189.501 08:58 15.10.2019
6175 Clear 6 1018 57 0 0.98 189.501 08:58 15.10.2019
6176 Clear 6 1018 57 0 0.98 189.501 08:58 15.10.2019
6177 Clear 6 1018 57 0 0.98 189.501 08:40 15.10.2019
6178 Clear 6 1018 57 0 0.98 189.501 08:20 15.10.2019
6179 Clear 6 1018 57 0 0.98 189.501 07:48 15.10.2019
6180 Clear 6 1018 57 0 0.98 189.501 07:23 15.10.2019
6181 Clear 6 1018 57 0 0.98 189.501 06:58 15.10.2019
6182 Clear 6 1018 57 0 0.98 189.501 06:40 15.10.2019
6183 Rain 7 1017 76 0 1.15 52.038 05:58 15.10.2019
6184 Rain 7 1017 76 0 1.15 52.038 05:37 15.10.2019
6185 Rain 7 1017 76 0 1.15 52.038 04:53 15.10.2019
6186 Rain 7 1017 76 0 1.15 52.038 04:20 15.10.2019
6187 Rain 7 1017 76 0 1.15 52.038 03:35 15.10.2019
6188 Rain 8 1015 72 0 3.02 40.383 02:19 15.10.2019
6189 Rain 8 1015 72 0 3.02 40.383 01:41 15.10.2019
6190 Rain 7 1015 74 0 4.09 43.871 01:18 15.10.2019
6191 Rain 7 1015 74 0 4.09 43.871 00:26 15.10.2019
6192 Rain 10 1009 57 0 4.31 32.972 23:59 14.10.2019
6193 Rain 10 1009 57 0 4.31 32.972 23:39 14.10.2019
6194 Rain 10 1009 57 0 4.31 32.972 23:19 14.10.2019
6195 Rain 10 1009 57 0 4.31 32.972 22:40 14.10.2019
6196 Rain 10 1009 57 0 4.31 32.972 22:21 14.10.2019
6197 Rain 10 1009 57 0 4.31 32.972 21:59 14.10.2019
6198 Rain 10 1009 57 0 4.31 32.972 21:40 14.10.2019
6199 Clouds 14 1010 30 0 2.35 339.341 21:21 14.10.2019
6200 Clouds 14 1010 30 0 2.35 339.341 21:21 14.10.2019
6201 Clouds 13 1010 30 0 2.52 342.241 20:58 14.10.2019
6202 Clouds 13 1010 30 0 2.52 342.241 20:38 14.10.2019
6203 Clouds 13 1010 30 0 2.52 342.241 20:20 14.10.2019
6204 Clouds 13 1010 30 0 2.52 342.241 19:58 14.10.2019
6205 Clouds 13 1010 30 0 2.521 342 19:39 14.10.2019
6206 Clouds 13 1010 30 0 2.521 342 19:39 14.10.2019
6207 Clouds 13 1010 30 0 2.521 342 19:21 14.10.2019
6208 Clouds 13 1010 30 0 2.521 342 19:21 14.10.2019
6209 Clouds 13 1010 30 0 2.52 342.241 18:57 14.10.2019
6210 Clouds 13 1010 30 0 2.52 342.241 18:57 14.10.2019
6211 Clouds 13 1010 30 0 2.52 342.241 18:38 14.10.2019
6212 Clear 11 1014 31 0 2.41 15.055 18:18 14.10.2019
6213 Clear 11 1014 31 0 2.41 15.055 17:44 14.10.2019
6214 Clear 11 1014 31 0 2.41 15.055 17:25 14.10.2019
6215 Clear 11 1014 31 0 2.41 15.055 16:56 14.10.2019
6216 Clear 11 1014 31 0 2.41 15.055 16:38 14.10.2019
6217 Clear 11 1014 31 0 2.41 15.055 16:19 14.10.2019
6218 Clear 11 1014 31 0 2.41 15.055 15:41 14.10.2019
6219 Clouds 6 1018 56 0 1.46 347.135 15:22 14.10.2019
6220 Clouds 6 1018 56 0 1.46 347.135 14:44 14.10.2019
6221 Clouds 6 1018 56 0 1.46 347.135 14:26 14.10.2019
6222 Clouds 6 1018 56 0 1.46 347.135 13:59 14.10.2019
6223 Clouds 6 1018 56 0 1.46 347.135 13:41 14.10.2019
6224 Clouds 6 1018 56 0 1.8 20.731 13:21 14.10.2019
6225 Clouds 6 1018 56 0 1.8 20.731 12:43 14.10.2019
6226 Clouds 4 1016 68 0 1.84 8.24 12:21 14.10.2019
6227 Clouds 4 1016 68 0 1.84 8.24 12:21 14.10.2019
6228 Clouds 4 1016 68 0 1.84 8.24 11:59 14.10.2019
6229 Clouds 4 1016 68 0 1.84 8.24 11:41 14.10.2019
6230 Clouds 4 1016 68 0 1.84 8.24 11:22 14.10.2019
6231 Clouds 4 1016 68 0 1.84 8.24 10:44 14.10.2019
6232 Clouds 4 1016 68 0 1.84 8.24 10:23 14.10.2019
6233 Clouds 4 1016 68 0 1.84 8.24 09:59 14.10.2019
6234 Clouds 4 1016 68 0 1.84 8.24 09:40 14.10.2019
6235 Clouds 4 1016 68 0 1.84 8.24 09:40 14.10.2019
6236 Rain 7 1015 61 0 1.83 340.525 09:20 14.10.2019
6237 Rain 7 1015 61 0 1.83 340.525 08:48 14.10.2019
6238 Rain 7 1015 61 0 1.83 340.525 08:23 14.10.2019
6239 Rain 7 1015 61 0 1.83 340.525 07:45 14.10.2019
6240 Rain 7 1015 61 0 1.83 340.525 07:23 14.10.2019
6241 Rain 7 1015 61 0 1.83 340.525 06:56 14.10.2019
6242 Rain 7 1015 61 0 1.83 340.525 06:56 14.10.2019
6243 Rain 7 1015 61 0 1.83 340.525 06:28 14.10.2019
6244 Rain 6 1015 72 0 1.86 38.771 05:53 14.10.2019
6245 Rain 6 1015 72 0 1.86 38.771 04:59 14.10.2019
6246 Rain 6 1015 72 0 1.86 38.771 03:49 14.10.2019
6247 Rain 6 1012 78 0 1.72 55.486 03:22 14.10.2019
6248 Rain 6 1012 78 0 1.72 55.486 01:56 14.10.2019
6249 Rain 6 1012 78 0 1.89 70.173 01:18 14.10.2019
6250 Rain 6 1012 78 0 1.89 70.173 00:41 14.10.2019
6251 Rain 9 1007 60 0 6.07 43.069 00:18 14.10.2019
6252 Rain 9 1007 60 0 6.07 43.069 23:40 13.10.2019
6253 Rain 9 1007 60 0 6.07 43.069 23:19 13.10.2019
6254 Rain 9 1007 60 0 6.07 43.069 22:56 13.10.2019
6255 Rain 9 1007 60 0 6.07 43.069 22:38 13.10.2019
6256 Rain 9 1007 60 0 6.07 43.069 22:19 13.10.2019
6257 Rain 9 1007 60 0 6.07 43.069 21:56 13.10.2019
6258 Rain 9 1007 60 0 6.07 43.069 21:36 13.10.2019
6259 Rain 9 1007 60 0 6.07 43.069 21:36 13.10.2019
6260 Clouds 16 1006 19 0 4.7 359.89 21:18 13.10.2019
6261 Clouds 16 1006 19 0 4.7 359.89 21:18 13.10.2019
6262 Clouds 16 1006 19 0 4.7 359.89 20:55 13.10.2019
6263 Clouds 16 1006 19 0 4.67 356.315 20:37 13.10.2019
6264 Clouds 16 1006 19 0 4.67 356.315 20:18 13.10.2019
6265 Clouds 16 1006 19 0 4.67 356.315 19:54 13.10.2019
6266 Clouds 16 1006 19 0 4.67 356.315 19:54 13.10.2019
6267 Clouds 16 1006 19 0 4.67 356.315 19:36 13.10.2019
6268 Clouds 16 1006 19 0 4.67 356.315 19:36 13.10.2019
6269 Clouds 16 1006 19 0 4.67 356.315 19:18 13.10.2019
6270 Clouds 16 1006 19 0 4.67 356.315 18:40 13.10.2019
6271 Clouds 16 1006 19 0 4.67 356.315 18:40 13.10.2019
6272 Clear 14 1009 22 0 2.02 20.799 18:21 13.10.2019
6273 Clear 14 1009 22 0 2.02 20.799 17:59 13.10.2019
6274 Clear 14 1009 22 0 2.02 20.799 17:41 13.10.2019
6275 Clear 14 1009 22 0 2.02 20.799 17:23 13.10.2019
6276 Clear 14 1009 22 0 2.02 20.799 16:44 13.10.2019
6277 -273 0 0 0 0 0 16:20 13.10.2019
6278 Clear 14 1009 22 0 2.02 20.799 15:58 13.10.2019
6279 Clear 14 1009 22 0 2.02 20.799 15:39 13.10.2019
6280 Clear 10 1013 37 0 1.97 267.56 15:20 13.10.2019
6281 Clear 10 1013 37 0 1.97 267.56 14:58 13.10.2019
6282 Clear 10 1013 37 0 1.97 267.56 14:39 13.10.2019
6283 -273 0 0 0 0 0 14:39 13.10.2019
6284 Clear 10 1013 37 0 1.97 267.56 14:21 13.10.2019
6285 Clear 10 1013 37 0 1.97 267.56 13:56 13.10.2019
6286 Clear 10 1013 37 0 1.97 267.56 13:37 13.10.2019
6287 Clear 10 1013 35 0 2.4 266.126 13:19 13.10.2019
6288 Clear 10 1013 35 0 2.4 266.126 12:56 13.10.2019
6289 Clear 10 1013 35 0 2.4 266.126 12:37 13.10.2019
6290 Clear 7 1011 42 0 2.09 252.518 12:18 13.10.2019
6291 Clear 7 1011 42 0 2.09 252.518 11:55 13.10.2019
6292 Clear 7 1011 42 0 2.09 252.518 11:55 13.10.2019
6293 Clear 7 1011 42 0 2.09 252.518 11:37 13.10.2019
6294 Clear 7 1011 42 0 2.09 252.518 11:37 13.10.2019
6295 Clear 7 1011 42 0 2.09 252.518 11:18 13.10.2019
6296 Clear 7 1011 42 0 2.09 252.518 10:41 13.10.2019
6297 Clear 7 1011 42 0 2.09 252.518 10:41 13.10.2019
6298 Clear 7 1011 42 0 2.09 252.518 10:23 13.10.2019
6299 Clear 7 1011 42 0 2.09 252.518 10:23 13.10.2019
6300 Clear 7 1011 42 0 2.09 252.518 09:41 13.10.2019
6301 Clear 8 1011 52 0 0.69 319.148 09:22 13.10.2019
6302 Clear 8 1011 52 0 0.69 319.148 08:59 13.10.2019
6303 Clear 8 1011 51 0 0.63 306.888 08:40 13.10.2019
6304 Clear 8 1011 51 0 0.63 306.888 08:21 13.10.2019
6305 Clear 8 1011 51 0 0.63 306.888 07:46 13.10.2019
6306 Clear 8 1011 51 0 0.63 306.888 07:21 13.10.2019
6307 Clear 8 1011 51 0 0.63 306.888 06:42 13.10.2019
6308 Clouds 10 1011 43 0 1.14 50.343 05:49 13.10.2019
6309 Clouds 10 1011 43 0 1.14 50.343 04:52 13.10.2019
6310 Clouds 10 1011 43 0 1.14 50.343 04:32 13.10.2019
6311 Clouds 11 1008 36 0 3.07 52.898 02:42 13.10.2019
6312 Clouds 11 1008 36 0 3.07 52.898 02:42 13.10.2019
6313 Clouds 11 1008 36 0 3.07 52.898 01:59 13.10.2019
6314 Clouds 11 1008 36 0 3.07 52.898 01:30 13.10.2019
6315 Rain 7 1008 66 0 1.37 199.612 00:50 13.10.2019
6316 Clouds 14 1003 18 0 4.16 43.509 00:22 13.10.2019
6317 Clouds 14 1003 18 0 4.16 43.509 23:57 12.10.2019
6318 Clouds 14 1003 18 0 4.16 43.509 23:39 12.10.2019
6319 Clouds 14 1003 18 0 4.16 43.509 23:20 12.10.2019
6320 Clouds 14 1003 18 0 4.16 43.509 22:57 12.10.2019
6321 Clouds 14 1003 18 0 4.16 43.509 22:38 12.10.2019
6322 Clouds 14 1003 18 0 4.16 43.509 22:20 12.10.2019
6323 Clouds 14 1003 18 0 4.16 43.509 21:55 12.10.2019
6324 Clouds 14 1003 18 0 4.16 43.509 21:37 12.10.2019
6325 Clear 15 1006 11 0 3.23 53.954 21:19 12.10.2019
6326 Clear 15 1006 11 0 3.54 51.267 20:41 12.10.2019
6327 Clear 15 1006 11 0 3.54 51.267 20:41 12.10.2019
6328 Clear 15 1006 11 0 3.54 51.267 20:23 12.10.2019
6329 Clear 15 1006 11 0 3.54 51.267 19:40 12.10.2019
6330 Clear 15 1006 11 0 3.54 51.267 19:40 12.10.2019
6331 Clear 15 1006 11 0 3.54 51.267 19:22 12.10.2019
6332 Clear 15 1006 11 0 3.54 51.267 18:59 12.10.2019
6333 Clear 15 1006 11 0 3.54 51.267 18:40 12.10.2019
6334 Clear 13 1011 13 0 3.43 62.292 18:22 12.10.2019
6335 Clear 13 1011 13 0 3.43 62.292 17:44 12.10.2019
6336 Clear 13 1011 13 0 3.43 62.292 17:19 12.10.2019
6337 Clear 13 1011 13 0 3.43 62.292 16:55 12.10.2019
6338 Clear 13 1011 13 0 3.43 62.292 16:36 12.10.2019
6339 Clear 13 1011 13 0 3.43 62.292 16:36 12.10.2019
6340 Clear 13 1011 13 0 3.43 62.292 16:18 12.10.2019
6341 Clear 13 1011 13 0 3.43 62.292 15:44 12.10.2019
6342 Clear 13 1011 13 0 3.43 62.292 15:25 12.10.2019
6343 Clear 9 1015 18 0 0.7 261.579 14:55 12.10.2019
6344 Clear 9 1015 18 0 0.7 261.579 14:55 12.10.2019
6345 Clear 9 1015 18 0 0.7 261.579 14:37 12.10.2019
6346 Clear 9 1015 18 0 0.7 261.579 14:18 12.10.2019
6347 Clear 9 1015 18 0 0.7 261.579 13:43 12.10.2019
6348 Clear 9 1015 18 0 0.7 261.579 13:43 12.10.2019
6349 Clear 8 1016 21 0 0.62 37.093 13:25 12.10.2019
6350 Clear 8 1016 21 0 0.62 37.093 12:40 12.10.2019
6351 Clear 4 1014 35 0 0.16 340.894 12:22 12.10.2019
6352 Clear 4 1014 35 0 0.16 340.894 11:59 12.10.2019
6353 Clear 4 1014 35 0 0.16 340.894 11:40 12.10.2019
6354 Clear 4 1014 35 0 0.16 340.894 11:22 12.10.2019
6355 Clear 4 1014 35 0 0.16 340.894 10:56 12.10.2019
6356 Clear 4 1014 35 0 0.16 340.894 10:36 12.10.2019
6357 Clear 4 1014 35 0 0.16 340.894 10:18 12.10.2019
6358 -273 0 0 0 0 0 09:54 12.10.2019
6359 Clear 4 1014 35 0 0.16 340.894 09:54 12.10.2019
6360 Clear 4 1014 35 0 0.16 340.894 09:36 12.10.2019
6361 Clear 5 1014 36 0 0.57 307.673 09:18 12.10.2019
6362 Clear 5 1014 36 0 0.57 307.673 09:18 12.10.2019
6363 Clear 5 1014 36 0 0.41 349.242 08:41 12.10.2019
6364 Clear 5 1014 36 0 0.41 349.242 08:20 12.10.2019
6365 Clear 5 1014 36 0 0.41 349.242 08:20 12.10.2019
6366 Clear 5 1014 36 0 0.41 349.242 08:20 12.10.2019
6367 Clear 5 1014 36 0 0.41 349.242 07:36 12.10.2019
6368 Clear 5 1014 36 0 0.41 349.242 07:18 12.10.2019
6369 Clear 7 1014 31 0 0.81 321.727 05:53 12.10.2019
6370 Clear 7 1014 31 0 0.81 321.727 05:24 12.10.2019
6371 Clear 7 1014 31 0 0.81 321.727 04:26 12.10.2019
6372 Clear 7 1014 31 0 0.81 321.727 03:42 12.10.2019
6373 Clear 10 1011 21 0 3.26 42.252 02:28 12.10.2019
6374 Clear 10 1011 22 0 3.18 46.565 01:30 12.10.2019
6375 Clear 10 1011 22 0 3.18 46.565 00:43 12.10.2019
6376 Clear 10 1011 22 0 3.18 46.565 00:24 12.10.2019
6377 Clear 13 1006 15 0 8.34 50.117 23:41 11.10.2019
6378 Clear 13 1006 15 0 8.34 50.117 23:21 11.10.2019
6379 Clear 13 1006 15 0 8.34 50.117 22:59 11.10.2019
6380 Clear 13 1006 15 0 8.34 50.117 22:37 11.10.2019
6381 Clear 13 1006 15 0 8.34 50.117 22:37 11.10.2019
6382 Clear 13 1006 15 0 8.34 50.117 22:18 11.10.2019
6383 Clear 13 1006 15 0 8.34 50.117 21:40 11.10.2019
6384 Clear 15 1009 8 0 6.46 49.226 21:21 11.10.2019
6385 Clear 15 1009 8 0 6.68 49.115 20:55 11.10.2019
6386 Clear 15 1009 8 0 6.68 49.115 20:37 11.10.2019
6387 Clear 15 1009 8 0 6.68 49.115 20:18 11.10.2019
6388 Clear 15 1009 8 0 6.68 49.115 19:54 11.10.2019
6389 Clear 15 1009 8 0 6.68 49.115 19:36 11.10.2019
6390 Clear 15 1009 8 0 6.68 49.115 19:18 11.10.2019
6391 Clear 15 1009 8 0 6.68 49.115 18:39 11.10.2019
6392 Clear 14 1013 6 0 4.43 60.003 18:19 11.10.2019
6393 Clear 14 1013 6 0 4.43 60.003 17:59 11.10.2019
6394 Clear 14 1013 6 0 4.43 60.003 17:38 11.10.2019
6395 Clear 14 1013 6 0 4.43 60.003 17:20 11.10.2019
6396 Clear 14 1013 6 0 4.43 60.003 16:59 11.10.2019
6397 Clear 14 1013 6 0 4.43 60.003 16:39 11.10.2019
6398 Clear 14 1013 6 0 4.43 60.003 16:19 11.10.2019
6399 Clear 14 1013 6 0 4.43 60.003 15:57 11.10.2019
6400 Clear 14 1013 6 0 4.43 60.003 15:37 11.10.2019
6401 Clear 9 1017 9 0 0.4 178.846 15:18 11.10.2019
6402 Clear 9 1017 9 0 0.4 178.846 14:44 11.10.2019
6403 Clear 9 1017 9 0 0.4 178.846 14:25 11.10.2019
6404 Clear 9 1017 9 0 0.4 178.846 13:47 11.10.2019
6405 Clear 9 1017 9 0 0.12 118.496 13:27 11.10.2019
6406 Clear 9 1017 9 0 0.12 118.496 12:59 11.10.2019
6407 Clear 9 1017 9 0 0.12 118.496 12:41 11.10.2019
6408 Clear 3 1016 29 0 0.89 268.069 12:22 11.10.2019
6409 Clear 3 1016 29 0 0.89 268.069 11:59 11.10.2019
6410 Clear 3 1016 29 0 0.89 268.069 11:39 11.10.2019
6411 Clear 3 1016 29 0 0.89 268.069 11:21 11.10.2019
6412 Clear 3 1016 29 0 0.89 268.069 10:56 11.10.2019
6413 Clear 3 1016 29 0 0.89 268.069 10:38 11.10.2019
6414 Clear 3 1016 29 0 0.89 268.069 10:19 11.10.2019
6415 Clear 3 1016 29 0 0.89 268.069 09:43 11.10.2019
6416 Clear 5 1016 44 0 0.76 299.53 09:21 11.10.2019
6417 Clear 5 1016 44 0 0.76 299.53 08:59 11.10.2019
6418 Clear 5 1016 44 0 0.76 299.53 08:39 11.10.2019
6419 Clear 5 1016 44 0 0.76 299.53 08:39 11.10.2019
6420 Clear 5 1016 44 0 0.76 299.53 08:20 11.10.2019
6421 Clear 5 1016 44 0 0.76 299.53 07:58 11.10.2019
6422 Clear 5 1016 44 0 0.76 299.53 07:39 11.10.2019
6423 Clear 5 1016 44 0 0.76 299.53 07:20 11.10.2019
6424 Clear 5 1016 44 0 0.76 299.53 06:43 11.10.2019
6425 Clear 7 1016 38 0 1.06 22.263 06:20 11.10.2019
6426 Clear 7 1016 38 0 1.06 22.263 05:32 11.10.2019
6427 Clear 7 1016 38 0 1.06 22.263 04:59 11.10.2019
6428 Clear 7 1016 38 0 1.06 22.263 03:46 11.10.2019
6429 Clear 9 1014 28 0 3.72 44.411 01:57 11.10.2019
6430 Clear 9 1014 28 0 3.35 49.768 00:42 11.10.2019
6431 Clear 12 1010 19 0 6.36 42.954 00:22 11.10.2019
6432 Clear 12 1010 19 0 6.36 42.954 23:42 10.10.2019
6433 Clear 12 1010 19 0 6.36 42.954 23:20 10.10.2019
6434 Clear 12 1010 19 0 6.36 42.954 22:57 10.10.2019
6435 Clear 12 1010 19 0 6.36 42.954 22:37 10.10.2019
6436 Clear 12 1010 19 0 6.36 42.954 22:19 10.10.2019
6437 Clear 12 1010 19 0 6.36 42.954 21:54 10.10.2019
6438 Clear 12 1010 19 0 6.36 42.954 21:36 10.10.2019
6439 Clear 14 1011 13 0 6.79 43.651 21:18 10.10.2019
6440 Clear 14 1011 13 0 6.89 44.976 20:41 10.10.2019
6441 Clear 14 1011 13 0 6.89 44.976 20:21 10.10.2019
6442 Clear 14 1011 13 0 6.89 44.976 19:58 10.10.2019
6443 Clear 14 1011 13 0 6.89 44.976 19:39 10.10.2019
6444 Clear 14 1011 13 0 6.89 44.976 19:20 10.10.2019
6445 Clear 14 1011 13 0 6.89 44.976 18:56 10.10.2019
6446 Clear 14 1011 13 0 6.89 44.976 18:38 10.10.2019
6447 Clear 13 1015 15 0 4.39 67.343 18:19 10.10.2019
6448 Clear 13 1015 15 0 4.39 67.343 17:41 10.10.2019
6449 Clear 13 1015 15 0 4.39 67.343 17:41 10.10.2019
6450 Clear 13 1015 15 0 4.39 67.343 17:20 10.10.2019
6451 Clear 13 1015 15 0 4.39 67.343 16:58 10.10.2019
6452 Clear 13 1015 15 0 4.39 67.343 16:40 10.10.2019
6453 Clear 13 1015 15 0 4.39 67.343 16:21 10.10.2019
6454 Clear 13 1015 15 0 4.39 67.343 15:44 10.10.2019
6455 Clear 8 1019 35 0 0.49 80.328 15:25 10.10.2019
6456 Clear 8 1019 35 0 0.49 80.328 14:59 10.10.2019
6457 Clear 8 1019 35 0 0.49 80.328 14:38 10.10.2019
6458 Clear 8 1019 35 0 0.49 80.328 14:19 10.10.2019
6459 Clear 8 1019 35 0 0.49 80.328 13:59 10.10.2019
6460 Clear 8 1019 35 0 0.49 80.328 13:41 10.10.2019
6461 Clear 8 1019 35 0 0.63 25.664 13:20 10.10.2019
6462 Clear 8 1019 35 0 0.63 25.664 12:56 10.10.2019
6463 Clear 8 1019 35 0 0.63 25.664 12:56 10.10.2019
6464 Clear 8 1019 35 0 0.63 25.664 12:38 10.10.2019
6465 Clear 3 1018 54 0 0.34 133.701 12:19 10.10.2019
6466 Clear 3 1018 54 0 0.34 133.701 11:55 10.10.2019
6467 Clear 3 1018 54 0 0.34 133.701 11:37 10.10.2019
6468 Clear 3 1018 54 0 0.34 133.701 11:18 10.10.2019
6469 Clear 3 1018 54 0 0.34 133.701 10:44 10.10.2019
6470 Clear 3 1018 54 0 0.34 133.701 10:25 10.10.2019
6471 Clear 3 1018 54 0 0.34 133.701 09:56 10.10.2019
6472 Clear 3 1018 54 0 0.34 133.701 09:37 10.10.2019
6473 Clear 5 1018 53 0 1.04 273.745 09:19 10.10.2019
6474 Clear 5 1018 53 0 1.04 273.745 08:41 10.10.2019
6475 Clear 5 1018 53 0 1.04 273.745 08:23 10.10.2019
6476 Clear 5 1018 53 0 1.04 273.745 07:59 10.10.2019
6477 Clear 5 1018 53 0 1.04 273.745 07:40 10.10.2019
6478 Clear 5 1018 53 0 1.04 273.745 07:20 10.10.2019
6479 Clear 5 1018 53 0 1.04 273.745 06:45 10.10.2019
6480 Clear 6 1019 47 0 1.97 10.746 06:24 10.10.2019
6481 Clear 6 1019 47 0 1.97 10.746 05:25 10.10.2019
6482 Clear 6 1019 47 0 1.97 10.746 04:37 10.10.2019
6483 Clear 6 1019 47 0 1.97 10.746 03:42 10.10.2019
6484 Rain 7 1017 44 0 4.32 38.498 01:43 10.10.2019
6485 Rain 7 1017 44 0 4.32 38.498 01:43 10.10.2019
6486 Rain 7 1017 50 0 4.39 45.756 01:24 10.10.2019
6487 Rain 7 1017 50 0 4.39 45.756 00:53 10.10.2019
6488 Rain 10 1013 42 0 7.7 59.637 00:22 10.10.2019
6489 Rain 10 1013 42 0 7.7 59.637 23:40 09.10.2019
6490 Rain 10 1013 42 0 7.7 59.637 23:20 09.10.2019
6491 Rain 10 1013 42 0 7.7 59.637 22:44 09.10.2019
6492 Rain 10 1013 42 0 7.7 59.637 22:24 09.10.2019
6493 Rain 10 1013 42 0 7.7 59.637 21:59 09.10.2019
6494 Rain 10 1013 42 0 7.7 59.637 21:40 09.10.2019
6495 Clear 13 1014 17 0 3.98 58.918 21:20 09.10.2019
6496 Clear 13 1014 19 0 4.38 54.368 20:56 09.10.2019
6497 Clear 13 1014 19 0 4.38 54.368 20:38 09.10.2019
6498 Clear 13 1014 19 0 4.38 54.368 20:38 09.10.2019
6499 Clear 13 1014 19 0 4.38 54.368 20:19 09.10.2019
6500 Clear 13 1014 19 0 4.38 54.368 19:58 09.10.2019
6501 Clear 13 1014 19 0 4.38 54.368 19:39 09.10.2019
6502 Clear 13 1014 19 0 4.38 54.368 19:20 09.10.2019
6503 Clear 13 1014 19 0 4.38 54.368 18:38 09.10.2019
6504 Clear 10 1019 20 0 3.37 57.405 18:19 09.10.2019
6505 Clear 10 1019 20 0 3.37 57.405 17:57 09.10.2019
6506 Clear 10 1019 20 0 3.37 57.405 17:37 09.10.2019
6507 Clear 10 1019 20 0 3.37 57.405 17:19 09.10.2019
6508 -273 0 0 0 0 0 16:55 09.10.2019
6509 -273 0 0 0 0 0 16:54 09.10.2019
6510 Clear 10 1019 20 0 3.37 57.405 16:36 09.10.2019
6511 Clear 10 1019 20 0 3.37 57.405 16:18 09.10.2019
6512 Clear 10 1019 20 0 3.37 57.405 15:54 09.10.2019
6513 Clear 10 1019 20 0 3.37 57.405 15:36 09.10.2019
6514 Clear 5 1023 40 0 1.13 356.961 15:18 09.10.2019
6515 Clear 5 1023 40 0 1.13 356.961 15:18 09.10.2019
6516 Clear 5 1023 40 0 1.13 356.961 14:41 09.10.2019
6517 Clear 5 1023 40 0 1.13 356.961 14:18 09.10.2019
6518 Clear 5 1023 40 0 1.13 356.961 13:40 09.10.2019
6519 Clear 5 1023 43 0 1.52 2.519 13:22 09.10.2019
6520 Clear 5 1023 43 0 1.52 2.519 13:22 09.10.2019
6521 Clear 5 1023 43 0 1.52 2.519 12:59 09.10.2019
6522 Clear 5 1023 43 0 1.52 2.519 12:41 09.10.2019
6523 Clear 2 1022 65 0 0.41 7.366 12:22 09.10.2019
6524 Clear 2 1022 65 0 0.41 7.366 11:56 09.10.2019
6525 Clear 2 1022 65 0 0.41 7.366 11:37 09.10.2019
6526 Clear 2 1022 65 0 0.41 7.366 11:37 09.10.2019
6527 Clear 2 1022 65 0 0.41 7.366 11:19 09.10.2019
6528 Clear 2 1022 65 0 0.41 7.366 10:45 09.10.2019
6529 Clear 2 1022 65 0 0.41 7.366 10:22 09.10.2019
6530 Clear 2 1022 65 0 0.41 7.366 09:59 09.10.2019
6531 Clear 2 1022 65 0 0.41 7.366 09:41 09.10.2019
6532 Clear 3 1021 67 0 0.4 335.225 09:19 09.10.2019
6533 Clear 3 1021 67 0 0.4 335.225 08:55 09.10.2019
6534 Clear 3 1021 69 0 0.4 319.63 08:37 09.10.2019
6535 Clear 3 1021 69 0 0.4 319.63 08:18 09.10.2019
6536 Clear 3 1021 69 0 0.4 319.63 07:42 09.10.2019
6537 Clear 3 1021 69 0 0.4 319.63 07:22 09.10.2019
6538 Clear 3 1021 69 0 0.4 319.63 06:52 09.10.2019
6539 Clear 4 1021 60 0 2.32 39.571 06:20 09.10.2019
6540 Clear 4 1021 60 0 2.32 39.571 06:20 09.10.2019
6541 Clear 4 1021 60 0 2.32 39.571 05:46 09.10.2019
6542 Clear 4 1021 60 0 2.32 39.571 04:27 09.10.2019
6543 Clouds 6 1019 41 0 4.39 31.799 02:54 09.10.2019
6544 Clouds 6 1019 41 0 4.39 31.799 01:44 09.10.2019
6545 Clouds 6 1019 49 0 5.01 29.083 01:21 09.10.2019
6546 Clouds 6 1019 49 0 5.01 29.083 01:21 09.10.2019
6547 Clouds 6 1019 49 0 5.01 29.083 01:21 09.10.2019
6548 Clouds 6 1019 49 0 5.01 29.083 00:58 09.10.2019
6549 Clouds 6 1019 49 0 5.01 29.083 00:40 09.10.2019
6550 Clouds 9 1014 34 0 5.75 61.227 00:21 09.10.2019
6551 Clouds 9 1014 34 0 5.75 61.227 23:57 08.10.2019
6552 Clouds 9 1014 34 0 5.75 61.227 23:36 08.10.2019
6553 Clouds 9 1014 34 0 5.75 61.227 23:18 08.10.2019
6554 Clouds 9 1014 34 0 5.75 61.227 22:39 08.10.2019
6555 Clouds 9 1014 34 0 5.75 61.227 22:20 08.10.2019
6556 Clouds 9 1014 34 0 5.75 61.227 22:20 08.10.2019
6557 Clouds 9 1014 34 0 5.75 61.227 22:20 08.10.2019
6558 Clouds 9 1014 34 0 5.75 61.227 21:58 08.10.2019
6559 Clouds 9 1014 34 0 5.75 61.227 21:39 08.10.2019
6560 Clouds 11 1015 16 0 3.48 84.56 21:19 08.10.2019
6561 Clouds 11 1015 16 0 3.48 84.56 20:57 08.10.2019
6562 Clouds 11 1015 16 0 4 88.597 20:39 08.10.2019
6563 Clouds 11 1015 16 0 4 88.597 20:21 08.10.2019
6564 Clouds 11 1015 16 0 4 88.597 19:58 08.10.2019
6565 Clouds 11 1015 16 0 4 88.597 19:58 08.10.2019
6566 Clouds 11 1015 16 0 4 88.597 19:40 08.10.2019
6567 Clouds 11 1015 16 0 4 88.597 19:22 08.10.2019
6568 Clouds 11 1015 16 0 4 88.597 18:55 08.10.2019
6569 Clouds 11 1015 16 0 4 88.597 18:37 08.10.2019
6570 Clear 9 1019 20 0 2.31 89.529 18:19 08.10.2019
6571 Clear 9 1019 20 0 2.31 89.529 17:55 08.10.2019
6572 Clear 9 1019 20 0 2.31 89.529 17:36 08.10.2019
6573 Clear 9 1019 20 0 2.31 89.529 17:36 08.10.2019
6574 Clouds 9 1040 66 10000 2.31 89.529 17:18 08.10.2019
6575 Clouds 9 1040 66 10000 2.31 89.529 17:18 08.10.2019
6576 Clouds 9 1040 66 10000 2.31 89.529 16:40 08.10.2019
6577 Clouds 9 1040 66 10000 2.31 89.529 16:22 08.10.2019
6578 Clouds 9 1040 66 10000 2.31 89.529 15:56 08.10.2019
6579 Clear 9 1019 20 0 2.31 89.529 15:37 08.10.2019
6580 Clear 4 1022 41 0 0.83 51.394 15:19 08.10.2019
6581 Clear 4 1022 41 0 0.83 51.394 14:42 08.10.2019
6582 Clear 4 1022 41 0 0.83 51.394 14:21 08.10.2019
6583 Clear 4 1022 41 0 0.83 51.394 13:57 08.10.2019
6584 Clear 4 1022 41 0 0.83 51.394 13:39 08.10.2019
6585 Clear 4 1022 41 0 0.83 51.394 13:20 08.10.2019
6586 Clear 4 1022 38 0 0.93 65.994 12:59 08.10.2019
6587 Clear 4 1022 38 0 0.93 65.994 12:38 08.10.2019
6588 Clear 1 1020 66 0 0.31 297.646 12:19 08.10.2019
6589 Clear 1 1020 66 0 0.31 297.646 11:43 08.10.2019
6590 -273 0 0 0 0 0 11:24 08.10.2019
6591 Clear 1 1020 66 0 0.31 297.646 10:59 08.10.2019
6592 Clear 1 1020 66 0 0.31 297.646 10:38 08.10.2019
6593 Clear 1 1020 66 0 0.31 297.646 10:20 08.10.2019
6594 Clear 1 1020 66 0 0.31 297.646 10:20 08.10.2019
6595 Clear 1 1020 66 0 0.31 297.646 09:57 08.10.2019
6596 Clear 1 1020 66 0 0.31 297.646 09:39 08.10.2019
6597 Clear 2 1020 65 0 0.91 296.678 09:20 08.10.2019
6598 Clear 2 1020 62 0 0.66 295.523 08:42 08.10.2019
6599 Clear 2 1020 62 0 0.66 295.523 08:42 08.10.2019
6600 Clear 2 1020 62 0 0.66 295.523 08:24 08.10.2019
6601 Clear 2 1020 62 0 0.66 295.523 07:45 08.10.2019
6602 Clear 2 1020 62 0 0.66 295.523 07:22 08.10.2019
6603 Clear 2 1020 62 0 0.66 295.523 06:56 08.10.2019
6604 Clear 2 1020 62 0 0.66 295.523 06:32 08.10.2019
6605 Clear 3 1020 63 0 1.59 33 05:57 08.10.2019
6606 Clear 3 1020 63 0 1.59 33 05:36 08.10.2019
6607 Clear 3 1020 63 0 1.59 33 05:36 08.10.2019
6608 Clear 3 1020 63 0 1.59 33 04:36 08.10.2019
6609 Clear 3 1020 63 0 1.59 33 03:29 08.10.2019
6610 Clouds 4 1018 60 0 2.34 49.749 02:39 08.10.2019
6611 Clouds 4 1018 60 0 2.34 49.749 01:49 08.10.2019
6612 Clouds 4 1018 60 0 2.34 49.749 01:31 08.10.2019
6613 Clouds 4 1018 57 0 2.94 58.551 00:51 08.10.2019
6614 Clouds 7 1013 35 0 5.19 73.753 00:22 08.10.2019
6615 Clouds 7 1013 35 0 5.19 73.753 23:42 07.10.2019
6616 Clouds 7 1013 35 0 5.19 73.753 23:21 07.10.2019
6617 Clouds 7 1013 35 0 5.19 73.753 23:21 07.10.2019
6618 Clouds 7 1013 35 0 5.19 73.753 22:58 07.10.2019
6619 Clouds 7 1013 35 0 5.19 73.753 22:40 07.10.2019
6620 Clouds 7 1013 35 0 5.19 73.753 22:21 07.10.2019
6621 Clouds 7 1013 35 0 5.19 73.753 21:58 07.10.2019
6622 Clouds 7 1013 35 0 5.19 73.753 21:40 07.10.2019
6623 Clouds 9 1015 16 0 2.22 155.678 21:20 07.10.2019
6624 Clouds 9 1015 19 0 1.98 124.34 20:58 07.10.2019
6625 Clouds 9 1015 19 0 1.98 124.34 20:39 07.10.2019
6626 Clouds 9 1015 19 0 1.98 124.34 20:20 07.10.2019
6627 Clouds 9 1015 19 0 1.98 124.34 19:58 07.10.2019
6628 Clouds 9 1015 19 0 1.98 124.34 19:40 07.10.2019
6629 Clouds 9 1015 19 0 1.98 124.34 19:20 07.10.2019
6630 Clouds 9 1015 19 0 1.98 124.34 19:20 07.10.2019
6631 Clouds 9 1015 19 0 1.98 124.34 18:58 07.10.2019
6632 Clouds 9 1015 19 0 1.98 124.34 18:38 07.10.2019
6633 Clouds 6 1019 22 0 1.73 120.913 18:18 07.10.2019
6634 Clouds 6 1019 22 0 1.73 120.913 17:43 07.10.2019
6635 Clouds 6 1019 22 0 1.73 120.913 17:23 07.10.2019
6636 Clouds 6 1019 22 0 1.73 120.913 17:23 07.10.2019
6637 Clouds 6 1019 22 0 1.73 120.913 16:58 07.10.2019
6638 Clouds 6 1019 22 0 1.73 120.913 16:58 07.10.2019
6639 Clouds 6 1019 22 0 1.73 120.913 16:39 07.10.2019
6640 Clouds 6 1019 22 0 1.73 120.913 16:39 07.10.2019
6641 Clouds 6 1019 22 0 1.73 120.913 16:20 07.10.2019
6642 Clouds 6 1019 22 0 1.73 120.913 15:46 07.10.2019
6643 Clouds 6 1019 22 0 1.73 120.913 15:26 07.10.2019
6644 Clouds 2 1022 45 0 0.58 204.093 14:58 07.10.2019
6645 Clouds 2 1022 45 0 0.58 204.093 14:40 07.10.2019
6646 Clouds 2 1022 45 0 0.58 204.093 14:21 07.10.2019
6647 Clouds 2 1022 45 0 0.58 204.093 13:43 07.10.2019
6648 Clouds 2 1022 39 0 0.73 203.755 13:21 07.10.2019
6649 Clouds 2 1022 39 0 0.73 203.755 12:57 07.10.2019
6650 Clouds 2 1022 39 0 0.73 203.755 12:39 07.10.2019
6651 Clouds 0 1020 80 0 0.35 178.844 12:19 07.10.2019
6652 Clouds 0 1020 80 0 0.35 178.844 11:58 07.10.2019
6653 Clouds 0 1020 80 0 0.35 178.844 11:38 07.10.2019
6654 Clouds 0 1020 80 0 0.35 178.844 11:20 07.10.2019
6655 Clouds 0 1020 80 0 0.35 178.844 10:42 07.10.2019
6656 Clouds 0 1020 80 0 0.35 178.844 10:21 07.10.2019
6657 Clouds 0 1020 80 0 0.35 178.844 09:56 07.10.2019
6658 Clouds 0 1020 80 0 0.35 178.844 09:38 07.10.2019
6659 Clouds 1 1020 67 0 2.23 29.923 09:19 07.10.2019
6660 Clouds 1 1020 78 0 1.87 28.73 08:42 07.10.2019
6661 Clouds 1 1020 78 0 1.87 28.73 08:20 07.10.2019
6662 Clouds 1 1020 78 0 1.87 28.73 07:46 07.10.2019
6663 Clouds 1 1020 78 0 1.87 28.73 07:27 07.10.2019
6664 Clouds 1 1020 78 0 1.87 28.73 06:57 07.10.2019
6665 Clouds 1 1020 78 0 1.87 28.73 06:38 07.10.2019
6666 Clear 3 1020 57 0 1.81 24.541 06:18 07.10.2019
6667 Clear 3 1020 57 0 1.81 24.541 05:26 07.10.2019
6668 Clear 3 1020 57 0 1.81 24.541 04:49 07.10.2019
6669 Clear 3 1020 57 0 1.81 24.541 03:46 07.10.2019
6670 Clear 3 1020 57 0 1.81 24.541 03:46 07.10.2019
6671 Clear 3 1020 57 0 1.81 24.541 03:27 07.10.2019
6672 Clouds 7 1017 17 0 3.08 227.089 02:37 07.10.2019
6673 Clouds 7 1017 17 0 3.08 227.089 02:19 07.10.2019
6674 Clear 6 1017 16 0 3.51 228.617 01:23 07.10.2019
6675 Clear 6 1017 16 0 3.51 228.617 00:51 07.10.2019
6676 Clear 6 1017 16 0 3.51 228.617 00:26 07.10.2019
6677 Clear 9 1011 12 0 8.62 277.331 23:59 06.10.2019
6678 Clear 9 1011 12 0 8.62 277.331 23:40 06.10.2019
6679 Clear 9 1011 12 0 8.62 277.331 23:20 06.10.2019
6680 Clear 9 1011 12 0 8.62 277.331 22:56 06.10.2019
6681 Clear 9 1011 12 0 8.62 277.331 22:37 06.10.2019
6682 Clear 9 1011 12 0 8.62 277.331 22:19 06.10.2019
6683 Clear 9 1011 12 0 8.62 277.331 21:55 06.10.2019
6684 Clear 9 1011 12 0 8.62 277.331 21:36 06.10.2019
6685 Clouds 11 1013 14 0 7.1 266.731 21:18 06.10.2019
6686 Clouds 11 1013 14 0 7.1 266.731 20:55 06.10.2019
6687 Clouds 11 1013 15 0 7.51 259.286 20:36 06.10.2019
6688 Clouds 11 1013 15 0 7.51 259.286 20:18 06.10.2019
6689 Clouds 11 1013 15 0 7.51 259.286 19:55 06.10.2019
6690 Clouds 11 1013 15 0 7.51 259.286 19:36 06.10.2019
6691 Clouds 11 1013 15 0 7.51 259.286 19:36 06.10.2019
6692 Clouds 11 1013 15 0 7.51 259.286 19:18 06.10.2019
6693 Clouds 11 1013 15 0 7.51 259.286 18:55 06.10.2019
6694 Clouds 11 1013 15 0 7.51 259.286 18:37 06.10.2019
6695 Clouds 9 1018 15 0 7.37 263.644 18:18 06.10.2019
6696 Clouds 9 1018 15 0 7.37 263.644 18:18 06.10.2019
6697 Clouds 9 1018 15 0 7.37 263.644 18:18 06.10.2019
6698 Clouds 9 1018 15 0 7.37 263.644 18:18 06.10.2019
6699 Clouds 9 1018 15 0 7.37 263.644 17:43 06.10.2019
6700 Clouds 9 1018 15 0 7.37 263.644 17:20 06.10.2019
6701 Clouds 9 1018 15 0 7.37 263.644 16:56 06.10.2019
6702 Clouds 9 1018 15 0 7.37 263.644 16:56 06.10.2019
6703 Clouds 9 1018 15 0 7.37 263.644 16:37 06.10.2019
6704 Clouds 9 1018 15 0 7.37 263.644 16:19 06.10.2019
6705 Clouds 9 1018 15 0 7.37 263.644 15:43 06.10.2019
6706 Clouds 3 1021 39 0 1.12 307.974 15:22 06.10.2019
6707 Clouds 3 1021 39 0 1.12 307.974 14:57 06.10.2019
6708 Clouds 3 1021 39 0 1.12 307.974 14:39 06.10.2019
6709 Clouds 3 1021 39 0 1.12 307.974 14:20 06.10.2019
6710 Clouds 3 1021 39 0 1.12 307.974 13:54 06.10.2019
6711 Clouds 3 1021 39 0 1.12 307.974 13:54 06.10.2019
6712 Clouds 3 1021 39 0 1.12 307.974 13:54 06.10.2019
6713 Clouds 3 1021 39 0 1.12 307.974 13:36 06.10.2019
6714 Clouds 3 1021 39 0 1.12 307.974 13:36 06.10.2019
6715 Clouds 3 1021 36 0 1.81 296.919 13:18 06.10.2019
6716 Clouds 3 1021 36 0 1.81 296.919 13:18 06.10.2019
6717 Clouds 3 1021 36 0 1.81 296.919 12:55 06.10.2019
6718 Clouds 3 1021 36 0 1.81 296.919 12:55 06.10.2019
6719 Clouds 3 1021 36 0 1.81 296.919 12:36 06.10.2019
6720 Clouds 3 1019 40 0 1.97 244.189 12:18 06.10.2019
6721 Clouds 3 1019 40 0 1.97 244.189 11:42 06.10.2019
6722 Clouds 3 1019 40 0 1.97 244.189 11:24 06.10.2019
6723 Clouds 3 1019 40 0 1.97 244.189 11:24 06.10.2019
6724 Clouds 3 1019 40 0 1.97 244.189 10:56 06.10.2019
6725 Clouds 3 1019 40 0 1.97 244.189 10:38 06.10.2019
6726 Clouds 3 1019 40 0 1.97 244.189 10:19 06.10.2019
6727 Clouds 3 1019 40 0 1.97 244.189 09:41 06.10.2019
6728 Clouds 3 1019 40 0 0.91 357.097 09:20 06.10.2019
6729 Clouds 3 1019 40 0 0.91 357.097 08:49 06.10.2019
6730 Clouds 3 1018 40 0 1.86 322.767 08:30 06.10.2019
6731 Clouds 3 1018 40 0 1.86 322.767 07:59 06.10.2019
6732 Clouds 3 1018 40 0 1.86 322.767 07:59 06.10.2019
6733 Clouds 3 1018 40 0 1.86 322.767 07:40 06.10.2019
6734 Clouds 3 1018 40 0 1.86 322.767 06:53 06.10.2019
6735 Clouds 4 1018 30 0 4.28 271.902 05:41 06.10.2019
6736 Clouds 4 1018 30 0 4.28 271.902 05:41 06.10.2019
6737 Clouds 4 1018 30 0 4.28 271.902 04:40 06.10.2019
6738 Clouds 4 1015 65 0 6.84 258.539 02:56 06.10.2019
6739 Clouds 4 1015 65 0 6.84 258.539 02:34 06.10.2019
6740 Clouds 4 1015 65 0 6.84 258.539 01:50 06.10.2019
6741 Clouds 5 1015 62 0 2.73 251.897 01:30 06.10.2019
6742 Clouds 5 1015 62 0 2.73 251.897 00:59 06.10.2019
6743 Clouds 5 1015 62 0 2.73 251.897 00:38 06.10.2019
6744 Clouds 6 1009 55 0 9.39 284.165 00:19 06.10.2019
6745 Clouds 6 1009 55 0 9.39 284.165 23:42 05.10.2019
6746 Clouds 6 1009 55 0 9.39 284.165 23:20 05.10.2019
6747 Clouds 6 1009 55 0 9.39 284.165 22:56 05.10.2019
6748 Clouds 6 1009 55 0 9.39 284.165 22:37 05.10.2019
6749 Clouds 6 1009 55 0 9.39 284.165 22:19 05.10.2019
6750 Clouds 6 1009 55 0 9.39 284.165 21:42 05.10.2019
6751 Rain 6 1011 75 0 5.56 291.325 21:23 05.10.2019
6752 Rain 6 1011 75 0 5.56 291.325 20:58 05.10.2019
6753 Rain 6 1011 73 0 5.45 293.099 20:40 05.10.2019
6754 Rain 6 1011 73 0 5.45 293.099 20:20 05.10.2019
6755 Rain 6 1011 73 0 5.45 293.099 19:56 05.10.2019
6756 Rain 6 1011 73 0 5.45 293.099 19:37 05.10.2019
6757 Rain 6 1011 73 0 5.45 293.099 19:18 05.10.2019
6758 Rain 6 1011 73 0 5.45 293.099 18:55 05.10.2019
6759 Rain 6 1011 73 0 5.45 293.099 18:36 05.10.2019
6760 Clouds 3 1016 93 0 1.79 336.877 18:18 05.10.2019
6761 Clouds 3 1016 93 0 1.79 336.877 17:42 05.10.2019
6762 Clouds 3 1016 93 0 1.79 336.877 17:22 05.10.2019
6763 Clouds 3 1016 93 0 1.79 336.877 16:56 05.10.2019
6764 Clouds 3 1016 93 0 1.79 336.877 16:37 05.10.2019
6765 Clouds 3 1016 93 0 1.79 336.877 16:18 05.10.2019
6766 Clouds 3 1016 93 0 1.79 336.877 15:56 05.10.2019
6767 Clouds 3 1016 93 0 1.79 336.877 15:37 05.10.2019
6768 Clouds 2 1018 93 0 1.56 324.184 15:19 05.10.2019
6769 Clouds 2 1018 93 0 1.56 324.184 14:42 05.10.2019
6770 Clouds 2 1018 93 0 1.56 324.184 14:23 05.10.2019
6771 Clouds 2 1018 93 0 1.56 324.184 13:44 05.10.2019
6772 Clouds 1 1018 93 0 1.37 303.052 13:26 05.10.2019
6773 Clouds 1 1018 93 0 1.37 303.052 12:59 05.10.2019
6774 Clouds 1 1018 93 0 1.37 303.052 12:59 05.10.2019
6775 Clouds 1 1018 93 0 1.37 303.052 12:41 05.10.2019
6776 Clouds 2 1017 79 0 1.16 295.309 12:19 05.10.2019
6777 Clouds 2 1017 79 0 1.16 295.309 11:41 05.10.2019
6778 Clouds 2 1017 79 0 1.16 295.309 11:41 05.10.2019
6779 Clouds 2 1017 79 0 1.16 295.309 11:20 05.10.2019
6780 Clouds 2 1017 79 0 1.16 295.309 10:57 05.10.2019
6781 Clouds 2 1017 79 0 1.16 295.309 10:57 05.10.2019
6782 Clouds 2 1017 79 0 1.16 295.309 10:38 05.10.2019
6783 Clouds 2 1017 79 0 1.16 295.309 10:20 05.10.2019
6784 Clouds 2 1017 79 0 1.16 295.309 09:42 05.10.2019
6785 Clouds 0 1017 87 0 0.64 277.003 09:23 05.10.2019
6786 Clouds 0 1017 87 0 0.64 277.003 09:23 05.10.2019
6787 Clouds 0 1017 87 0 0.64 277.003 08:56 05.10.2019
6788 Clouds 1 1017 82 0 2.29 278.75 08:38 05.10.2019
6789 Clouds 1 1017 82 0 2.29 278.75 08:18 05.10.2019
6790 Clouds 1 1017 82 0 2.29 278.75 07:46 05.10.2019
6791 Clouds 1 1017 82 0 2.29 278.75 07:28 05.10.2019
6792 Clouds 1 1017 82 0 2.29 278.75 06:56 05.10.2019
6793 Clouds 7 1017 36 0 4.04 297.682 06:23 05.10.2019
6794 Clouds 7 1017 36 0 4.04 297.682 05:39 05.10.2019
6795 Clouds 7 1017 36 0 4.04 297.682 03:32 05.10.2019
6796 Clouds 9 1013 47 0 3.06 22.531 02:38 05.10.2019
6797 Clouds 8 1014 57 0 3.32 38.264 01:27 05.10.2019
6798 Clouds 8 1014 57 0 3.32 38.264 00:49 05.10.2019
6799 Clouds 8 1014 57 0 3.32 38.264 00:28 05.10.2019
6800 Clouds 12 1009 28 0 6.23 314.193 23:58 04.10.2019
6801 Clouds 12 1009 28 0 6.23 314.193 23:40 04.10.2019
6802 Clouds 12 1009 28 0 6.23 314.193 23:22 04.10.2019
6803 Clouds 12 1009 28 0 6.23 314.193 22:57 04.10.2019
6804 Clouds 12 1009 28 0 6.23 314.193 22:57 04.10.2019
6805 Clouds 12 1009 28 0 6.23 314.193 22:38 04.10.2019
6806 Clouds 12 1009 28 0 6.23 314.193 22:19 04.10.2019
6807 Clouds 12 1009 28 0 6.23 314.193 21:41 04.10.2019
6808 Clouds 11 1011 39 0 7.05 313.161 21:23 04.10.2019
6809 Clouds 11 1011 39 0 7.05 313.161 21:00 04.10.2019
6810 Clouds 11 1011 38 0 6.25 312.946 20:41 04.10.2019
6811 Clouds 11 1011 38 0 6.25 312.946 20:23 04.10.2019
6812 Clouds 11 1011 38 0 6.25 312.946 19:57 04.10.2019
6813 Clouds 11 1011 38 0 6.25 312.946 19:57 04.10.2019
6814 Clouds 11 1011 38 0 6.25 312.946 19:39 04.10.2019
6815 Clouds 11 1011 38 0 6.25 312.946 19:20 04.10.2019
6816 Clouds 11 1011 38 0 6.25 312.946 18:56 04.10.2019
6817 Clouds 11 1011 38 0 6.25 312.946 18:37 04.10.2019
6818 Clouds 11 1015 30 0 5.45 329.508 18:18 04.10.2019
6819 Clouds 11 1015 30 0 5.45 329.508 17:41 04.10.2019
6820 Clouds 11 1015 30 0 5.45 329.508 17:22 04.10.2019
6821 Clouds 11 1015 30 0 5.45 329.508 16:58 04.10.2019
6822 Clouds 11 1015 30 0 5.45 329.508 16:40 04.10.2019
6823 Clouds 11 1015 30 0 5.45 329.508 16:40 04.10.2019
6824 Clouds 11 1015 30 0 5.45 329.508 16:19 04.10.2019
6825 Clouds 11 1015 30 0 5.45 329.508 15:57 04.10.2019
6826 Clouds 11 1015 30 0 5.45 329.508 15:39 04.10.2019
6827 Clouds 6 1019 31 0 2.94 286.053 15:19 04.10.2019
6828 Clouds 6 1019 31 0 2.94 286.053 14:56 04.10.2019
6829 Clouds 6 1019 31 0 2.94 286.053 14:38 04.10.2019
6830 Clouds 6 1019 31 0 2.94 286.053 14:20 04.10.2019
6831 Clouds 6 1019 31 0 2.94 286.053 13:45 04.10.2019
6832 Clouds 6 1019 30 0 3.03 283.203 13:22 04.10.2019
6833 Clouds 6 1019 30 0 3.03 283.203 12:55 04.10.2019
6834 Clouds 6 1019 30 0 3.03 283.203 12:37 04.10.2019
6835 Clouds 4 1018 37 0 2.14 265.505 12:18 04.10.2019
6836 Clouds 4 1018 37 0 2.14 265.505 11:42 04.10.2019
6837 Clouds 4 1018 37 0 2.14 265.505 11:42 04.10.2019
6838 Clouds 4 1018 37 0 2.14 265.505 11:42 04.10.2019
6839 Clouds 4 1018 37 0 2.14 265.505 11:21 04.10.2019
6840 Clouds 4 1018 37 0 2.14 265.505 11:21 04.10.2019
6841</